
Distance (Route):
Temperature : 27.9°C
Humidity : 48.7%
Pressure : 0hPa| Receiver | Frames | First received | Last received |
|---|---|---|---|
| IW2NTF | 1040 | 2026-08-31 10:08:50 | 2026-08-31 12:39:13 |
| DO3MHA-12 | 301 | 2026-08-31 11:13:31 | 2026-08-31 12:17:07 |
| DB0UT-7 | 115 | 2026-08-31 11:11:20 | 2026-08-31 12:17:17 |
| AUTORXJP | 57 | 2026-08-31 11:33:58 | 2026-08-31 12:10:14 |
| OE5DXL-15 | 53 | 2026-08-31 11:38:08 | 2026-08-31 12:11:26 |
| IN3HCDX | 29 | 2026-08-31 11:53:16 | 2026-08-31 12:09:47 |
| DL1ZP-14 | 19 | 2026-08-31 11:52:33 | 2026-08-31 12:08:05 |
| OE5DRO-10 | 2 | 2026-08-31 11:56:05 | 2026-08-31 12:04:14 |
| Receiver | Date | Latitude | Longitude | Direction | Speed | Altitude | Climb | Temperature | Humidity | Pressure | Voltage | Killtimer | Uptime | BKT | XDATA |
|---|---|---|---|---|---|---|---|---|---|---|---|---|---|---|---|
| IW2NTF | 2026-08-31 12:39:13 | 44.93217 | 9.28103 | 179° | 9km/h | 535m | -9m/s | 27.9°C | 48.7% | 0hPa | 2.7V | 07:58:00 | 03:02:35 | 00:00:00 | |
| IW2NTF | 2026-08-31 12:39:13 | 44.93221 | 9.28104 | 190° | 11km/h | 551m | -7.6m/s | 28°C | 48.7% | 0hPa | 2.7V | 07:58:02 | 03:02:33 | 00:00:00 | |
| IW2NTF | 2026-08-31 12:39:08 | 44.93226 | 9.28105 | 190° | 7km/h | 565m | -7.9m/s | 27.9°C | 49% | 0hPa | 2.7V | 07:58:04 | 03:02:31 | 00:00:00 | |
| IW2NTF | 2026-08-31 12:39:08 | 44.93230 | 9.28107 | 189° | 5km/h | 581m | -8.4m/s | 27.8°C | 49.2% | 0hPa | 2.7V | 07:58:06 | 03:02:29 | 00:00:00 | |
| IW2NTF | 2026-08-31 12:39:08 | 44.93232 | 9.28106 | 160° | 5km/h | 596m | -7.9m/s | 27.4°C | 50.2% | 0hPa | 2.7V | 07:58:08 | 03:02:27 | 00:00:00 | |
| IW2NTF | 2026-08-31 12:39:01 | 44.93235 | 9.28104 | 143° | 7km/h | 611m | -7.3m/s | 27.1°C | 50.6% | 0hPa | 2.7V | 07:58:10 | 03:02:25 | 00:00:00 | |
| IW2NTF | 2026-08-31 12:39:01 | 44.93238 | 9.28101 | 157° | 7km/h | 627m | -8.8m/s | 26.9°C | 51% | 0hPa | 2.7V | 07:58:12 | 03:02:23 | 00:00:00 | |
| IW2NTF | 2026-08-31 12:39:01 | 44.93241 | 9.28099 | 154° | 7km/h | 641m | -7m/s | 26.8°C | 51.4% | 0hPa | 2.7V | 07:58:14 | 03:02:21 | 00:00:00 | |
| IW2NTF | 2026-08-31 12:38:55 | 44.93244 | 9.28097 | 139° | 5km/h | 655m | -7.5m/s | 26.7°C | 51.5% | 0hPa | 2.7V | 07:58:16 | 03:02:19 | 00:00:00 | |
| IW2NTF | 2026-08-31 12:38:55 | 44.93247 | 9.28093 | 144° | 9km/h | 669m | -7.6m/s | 26.8°C | 51% | 0hPa | 2.7V | 07:58:18 | 03:02:17 | 00:00:00 | |
| IW2NTF | 2026-08-31 12:38:55 | 44.93251 | 9.28090 | 147° | 7km/h | 684m | -7m/s | 26.7°C | 50% | 0hPa | 2.7V | 07:58:20 | 03:02:15 | 00:00:00 | |
| IW2NTF | 2026-08-31 12:38:49 | 44.93256 | 9.28086 | 166° | 5km/h | 711m | -7.7m/s | 26.6°C | 49.1% | 0hPa | 2.7V | 07:58:24 | 03:02:11 | 00:00:00 | |
| IW2NTF | 2026-08-31 12:38:49 | 44.93258 | 9.28085 | 149° | 4km/h | 724m | -5.7m/s | 26.5°C | 48.5% | 0hPa | 2.7V | 07:58:26 | 03:02:09 | 00:00:00 | |
| IW2NTF | 2026-08-31 12:38:43 | 44.93259 | 9.28082 | 107° | 5km/h | 738m | -7.5m/s | 26.3°C | 49.6% | 0hPa | 2.7V | 07:58:28 | 03:02:07 | 00:00:00 | |
| IW2NTF | 2026-08-31 12:38:43 | 44.93261 | 9.28077 | 134° | 9km/h | 752m | -7.4m/s | 26.2°C | 50.1% | 0hPa | 2.7V | 07:58:30 | 03:02:05 | 00:00:00 | |
| IW2NTF | 2026-08-31 12:38:43 | 44.93265 | 9.28073 | 151° | 9km/h | 767m | -7.6m/s | 26°C | 50.6% | 0hPa | 2.7V | 07:58:32 | 03:02:03 | 00:00:00 | |
| IW2NTF | 2026-08-31 12:38:37 | 44.93269 | 9.28069 | 153° | 9km/h | 784m | -9m/s | 25.9°C | 49.7% | 0hPa | 2.7V | 07:58:34 | 03:02:01 | 00:00:00 | |
| IW2NTF | 2026-08-31 12:38:37 | 44.93273 | 9.28068 | 179° | 9km/h | 801m | -8.8m/s | 25.5°C | 51.4% | 0hPa | 2.6V | 07:58:36 | 03:01:59 | 00:00:00 | |
| IW2NTF | 2026-08-31 12:38:37 | 44.93277 | 9.28068 | 176° | 4km/h | 817m | -8.8m/s | 25.2°C | 55% | 0hPa | 2.7V | 07:58:38 | 03:01:57 | 00:00:00 | |
| IW2NTF | 2026-08-31 12:38:31 | 44.93280 | 9.28068 | 173° | 5km/h | 833m | -7.8m/s | 25°C | 55.9% | 0hPa | 2.7V | 07:58:40 | 03:01:55 | 00:00:00 | |
| IW2NTF | 2026-08-31 12:38:31 | 44.93283 | 9.28067 | 150° | 7km/h | 847m | -7.5m/s | 24.9°C | 56.4% | 0hPa | 2.7V | 07:58:42 | 03:01:53 | 00:00:00 | |
| IW2NTF | 2026-08-31 12:38:31 | 44.93286 | 9.28064 | 154° | 7km/h | 861m | -6.3m/s | 25°C | 52.3% | 0hPa | 2.7V | 07:58:44 | 03:01:51 | 00:00:00 | |
| IW2NTF | 2026-08-31 12:38:25 | 44.93290 | 9.28062 | 155° | 9km/h | 874m | -5.8m/s | 24.6°C | 57.1% | 0hPa | 2.7V | 07:58:46 | 03:01:49 | 00:00:00 | |
| IW2NTF | 2026-08-31 12:38:25 | 44.93293 | 9.28059 | 152° | 9km/h | 885m | -6.8m/s | 24.6°C | 57.5% | 0hPa | 2.7V | 07:58:48 | 03:01:47 | 00:00:00 | |
| IW2NTF | 2026-08-31 12:38:25 | 44.93297 | 9.28057 | 140° | 7km/h | 897m | -6.4m/s | 24.5°C | 56.5% | 0hPa | 2.7V | 07:58:50 | 03:01:45 | 00:00:00 | |
| IW2NTF | 2026-08-31 12:38:20 | 44.93301 | 9.28052 | 151° | 11km/h | 911m | -7.2m/s | 24.2°C | 58% | 0hPa | 2.7V | 07:58:52 | 03:01:43 | 00:00:00 | |
| IW2NTF | 2026-08-31 12:38:20 | 44.93308 | 9.28043 | 121° | 9km/h | 939m | -7.9m/s | 24°C | 58.5% | 0hPa | 2.7V | 07:58:56 | 03:01:39 | 00:00:00 | |
| IW2NTF | 2026-08-31 12:38:15 | 44.93312 | 9.28038 | 147° | 9km/h | 955m | -7.7m/s | 23.9°C | 59% | 0hPa | 2.7V | 07:58:58 | 03:01:37 | 00:00:00 | |
| IW2NTF | 2026-08-31 12:38:15 | 44.93315 | 9.28033 | 108° | 9km/h | 971m | -9.6m/s | 23.9°C | 55.9% | 0hPa | 2.7V | 07:59:00 | 03:01:35 | 00:00:00 | |
| IW2NTF | 2026-08-31 12:38:09 | 44.93317 | 9.28026 | 105° | 9km/h | 989m | -8.8m/s | 23.8°C | 55.1% | 0hPa | 2.7V | 07:59:02 | 03:01:33 | 00:00:00 | |
| IW2NTF | 2026-08-31 12:38:09 | 44.93318 | 9.28019 | 94° | 11km/h | 1006m | -8m/s | 23.6°C | 55.7% | 0hPa | 2.7V | 07:59:04 | 03:01:31 | 00:00:00 | |
| IW2NTF | 2026-08-31 12:38:09 | 44.93318 | 9.28011 | 90° | 11km/h | 1021m | -7m/s | 23.6°C | 55.6% | 0hPa | 2.7V | 07:59:06 | 03:01:29 | 00:00:00 | |
| IW2NTF | 2026-08-31 12:38:03 | 44.93319 | 9.28004 | 103° | 11km/h | 1035m | -8.1m/s | 23.4°C | 56.4% | 0hPa | 2.7V | 07:59:08 | 03:01:27 | 00:00:00 | |
| IW2NTF | 2026-08-31 12:38:03 | 44.93319 | 9.27998 | 104° | 9km/h | 1050m | -7.2m/s | 23.2°C | 56.8% | 0hPa | 2.7V | 07:59:10 | 03:01:25 | 00:00:00 | |
| IW2NTF | 2026-08-31 12:38:03 | 44.93320 | 9.27992 | 106° | 9km/h | 1062m | -7m/s | 23.1°C | 57% | 0hPa | 2.6V | 07:59:12 | 03:01:23 | 00:00:00 | |
| IW2NTF | 2026-08-31 12:37:58 | 44.93322 | 9.27985 | 109° | 11km/h | 1074m | -6.3m/s | 23°C | 57.3% | 0hPa | 2.7V | 07:59:14 | 03:01:21 | 00:00:00 | |
| IW2NTF | 2026-08-31 12:37:58 | 44.93323 | 9.27979 | 92° | 7km/h | 1088m | -6.6m/s | 22.9°C | 57.5% | 0hPa | 2.7V | 07:59:16 | 03:01:19 | 00:00:00 | |
| IW2NTF | 2026-08-31 12:37:58 | 44.93323 | 9.27974 | 81° | 7km/h | 1102m | -6.7m/s | 22.8°C | 58.2% | 0hPa | 2.7V | 07:59:18 | 03:01:17 | 00:00:00 | |
| IW2NTF | 2026-08-31 12:37:51 | 44.93323 | 9.27970 | 86° | 7km/h | 1116m | -7.3m/s | 22.7°C | 57.9% | 0hPa | 2.7V | 07:59:20 | 03:01:15 | 00:00:00 | |
| IW2NTF | 2026-08-31 12:37:51 | 44.93323 | 9.27964 | 89° | 7km/h | 1131m | -6.6m/s | 22.5°C | 58.2% | 0hPa | 2.6V | 07:59:22 | 03:01:13 | 00:00:00 | |
| IW2NTF | 2026-08-31 12:37:51 | 44.93323 | 9.27960 | 99° | 7km/h | 1144m | -7.4m/s | 22.4°C | 58.8% | 0hPa | 2.7V | 07:59:24 | 03:01:11 | 00:00:00 | |
| IW2NTF | 2026-08-31 12:37:46 | 44.93324 | 9.27955 | 119° | 5km/h | 1157m | -6.1m/s | 22.3°C | 59.3% | 0hPa | 2.7V | 07:59:26 | 03:01:09 | 00:00:00 | |
| IW2NTF | 2026-08-31 12:37:46 | 44.93325 | 9.27951 | 109° | 4km/h | 1169m | -6m/s | 22.2°C | 59.9% | 0hPa | 2.7V | 07:59:28 | 03:01:07 | 00:00:00 | |
| IW2NTF | 2026-08-31 12:37:46 | 44.93326 | 9.27949 | 78° | 5km/h | 1183m | -8.5m/s | 22.1°C | 60.3% | 0hPa | 2.7V | 07:59:30 | 03:01:05 | 00:00:00 | |
| IW2NTF | 2026-08-31 12:37:39 | 44.93325 | 9.27943 | 87° | 9km/h | 1199m | -8.6m/s | 21.9°C | 61.4% | 0hPa | 2.6V | 07:59:32 | 03:01:03 | 00:00:00 | |
| IW2NTF | 2026-08-31 12:37:39 | 44.93325 | 9.27939 | 84° | 4km/h | 1215m | -8.4m/s | 21.6°C | 60.9% | 0hPa | 2.7V | 07:59:34 | 03:01:01 | 00:00:00 | |
| IW2NTF | 2026-08-31 12:37:39 | 44.93324 | 9.27936 | 40° | 9km/h | 1231m | -9.4m/s | 21.5°C | 60.9% | 0hPa | 2.7V | 07:59:36 | 03:00:59 | 00:00:00 | |
| IW2NTF | 2026-08-31 12:37:34 | 44.93321 | 9.27933 | 63° | 4km/h | 1248m | -9.4m/s | 21.4°C | 60.9% | 0hPa | 2.7V | 07:59:38 | 03:00:57 | 00:00:00 | |
| IW2NTF | 2026-08-31 12:37:34 | 44.93320 | 9.27929 | 62° | 4km/h | 1265m | -8.6m/s | 21.2°C | 61.8% | 0hPa | 2.7V | 07:59:40 | 03:00:55 | 00:00:00 | |
| IW2NTF | 2026-08-31 12:37:34 | 44.93320 | 9.27927 | 106° | 4km/h | 1280m | -7.5m/s | 20.9°C | 63% | 0hPa | 2.7V | 07:59:42 | 03:00:53 | 00:00:00 | |
| IW2NTF | 2026-08-31 12:37:27 | 44.93321 | 9.27926 | 126° | 4km/h | 1296m | -8.6m/s | 20.8°C | 63.5% | 0hPa | 2.7V | 07:59:44 | 03:00:51 | 00:00:00 | |
| IW2NTF | 2026-08-31 12:37:27 | 44.93321 | 9.27925 | 166° | 2km/h | 1312m | -9.2m/s | 20.6°C | 63.9% | 0hPa | 2.7V | 07:59:46 | 03:00:49 | 00:00:00 | |
| IW2NTF | 2026-08-31 12:37:27 | 44.93321 | 9.27924 | 51° | 2km/h | 1330m | -8.7m/s | 20.6°C | 64% | 0hPa | 2.7V | 07:59:48 | 03:00:47 | 00:00:00 | |
| IW2NTF | 2026-08-31 12:37:21 | 44.93320 | 9.27923 | 63° | 2km/h | 1345m | -8m/s | 20.4°C | 64.6% | 0hPa | 2.6V | 07:59:50 | 03:00:45 | 00:00:00 | |
| IW2NTF | 2026-08-31 12:37:21 | 44.93321 | 9.27923 | 169° | 2km/h | 1362m | -9.7m/s | 20.2°C | 65.2% | 0hPa | 2.7V | 07:59:52 | 03:00:43 | 00:00:00 | |
| IW2NTF | 2026-08-31 12:37:21 | 44.93322 | 9.27923 | 131° | 2km/h | 1382m | -11.3m/s | 20°C | 65.9% | 0hPa | 2.7V | 07:59:54 | 03:00:41 | 00:00:00 | |
| IW2NTF | 2026-08-31 12:37:16 | 44.93322 | 9.27923 | 211° | 2km/h | 1402m | -10.1m/s | 19.8°C | 66.5% | 0hPa | 2.7V | 07:59:56 | 03:00:39 | 00:00:00 | |
| IW2NTF | 2026-08-31 12:37:16 | 44.93323 | 9.27923 | 191° | 4km/h | 1421m | -8.8m/s | 19.6°C | 67.7% | 0hPa | 2.7V | 07:59:58 | 03:00:37 | 00:00:00 | |
| IW2NTF | 2026-08-31 12:37:16 | 44.93325 | 9.27924 | 205° | 5km/h | 1437m | -9m/s | 19.4°C | 68.8% | 0hPa | 2.7V | 08:00:00 | 03:00:35 | 00:00:00 | |
| IW2NTF | 2026-08-31 12:37:09 | 44.93328 | 9.27925 | 168° | 7km/h | 1457m | -9.8m/s | 19.3°C | 69.4% | 0hPa | 2.7V | 08:00:02 | 03:00:33 | 00:00:00 | |
| IW2NTF | 2026-08-31 12:37:09 | 44.93331 | 9.27924 | 146° | 5km/h | 1474m | -8.2m/s | 19.1°C | 70.3% | 0hPa | 2.7V | 08:00:04 | 03:00:31 | 00:00:00 | |
| IW2NTF | 2026-08-31 12:37:09 | 44.93333 | 9.27923 | 156° | 4km/h | 1490m | -8.4m/s | 18.9°C | 70.8% | 0hPa | 2.7V | 08:00:06 | 03:00:29 | 00:00:00 | |
| IW2NTF | 2026-08-31 12:37:03 | 44.93336 | 9.27922 | 160° | 5km/h | 1506m | -8.2m/s | 18.8°C | 71% | 0hPa | 2.7V | 08:00:08 | 03:00:27 | 00:00:00 | |
| IW2NTF | 2026-08-31 12:37:03 | 44.93339 | 9.27920 | 162° | 5km/h | 1522m | -7.8m/s | 18.6°C | 71.8% | 0hPa | 2.7V | 08:00:10 | 03:00:25 | 00:00:00 | |
| IW2NTF | 2026-08-31 12:37:03 | 44.93342 | 9.27919 | 180° | 7km/h | 1539m | -9.5m/s | 18.4°C | 72.4% | 0hPa | 2.7V | 08:00:12 | 03:00:23 | 00:00:00 | |
| IW2NTF | 2026-08-31 12:36:57 | 44.93345 | 9.27920 | 180° | 5km/h | 1556m | -8.8m/s | 18.3°C | 73.1% | 0hPa | 2.7V | 08:00:14 | 03:00:21 | 00:00:00 | |
| IW2NTF | 2026-08-31 12:36:57 | 44.93348 | 9.27920 | 200° | 4km/h | 1576m | -10m/s | 18.1°C | 73.8% | 0hPa | 2.7V | 08:00:16 | 03:00:19 | 00:00:00 | |
| IW2NTF | 2026-08-31 12:36:57 | 44.93350 | 9.27920 | 170° | 4km/h | 1596m | -9.5m/s | 17.9°C | 74.2% | 0hPa | 2.7V | 08:00:18 | 03:00:17 | 00:00:00 | |
| IW2NTF | 2026-08-31 12:36:51 | 44.93352 | 9.27919 | 163° | 4km/h | 1615m | -9.8m/s | 17.8°C | 74.9% | 0hPa | 2.7V | 08:00:20 | 03:00:15 | 00:00:00 | |
| IW2NTF | 2026-08-31 12:36:51 | 44.93353 | 9.27919 | 81° | 0km/h | 1633m | -9.3m/s | 17.6°C | 75% | 0hPa | 2.7V | 08:00:22 | 03:00:13 | 00:00:00 | |
| IW2NTF | 2026-08-31 12:36:51 | 44.93352 | 9.27919 | 33° | 4km/h | 1649m | -9.5m/s | 17.5°C | 75.7% | 0hPa | 2.7V | 08:00:24 | 03:00:11 | 00:00:00 | |
| IW2NTF | 2026-08-31 12:36:45 | 44.93351 | 9.27917 | 3° | 4km/h | 1667m | -8.5m/s | 17.3°C | 76.3% | 0hPa | 2.7V | 08:00:26 | 03:00:09 | 00:00:00 | |
| IW2NTF | 2026-08-31 12:36:45 | 44.93349 | 9.27918 | 305° | 4km/h | 1683m | -8m/s | 17.1°C | 77.2% | 0hPa | 2.7V | 08:00:28 | 03:00:07 | 00:00:00 | |
| IW2NTF | 2026-08-31 12:36:45 | 44.93348 | 9.27919 | 10° | 4km/h | 1699m | -8.1m/s | 17°C | 77.8% | 0hPa | 2.6V | 08:00:30 | 03:00:05 | 00:00:00 | |
| IW2NTF | 2026-08-31 12:36:40 | 44.93346 | 9.27919 | 18° | 4km/h | 1716m | -9.5m/s | 16.8°C | 78.6% | 0hPa | 2.7V | 08:00:32 | 03:00:03 | 00:00:00 | |
| IW2NTF | 2026-08-31 12:36:40 | 44.93344 | 9.27919 | 328° | 4km/h | 1733m | -8.3m/s | 16.6°C | 79.3% | 0hPa | 2.7V | 08:00:34 | 03:00:01 | 00:00:00 | |
| IW2NTF | 2026-08-31 12:36:40 | 44.93343 | 9.27920 | 327° | 5km/h | 1749m | -8.1m/s | 16.5°C | 80.1% | 0hPa | 2.7V | 08:00:36 | 02:59:59 | 00:00:00 | |
| IW2NTF | 2026-08-31 12:36:33 | 44.93340 | 9.27921 | 350° | 7km/h | 1767m | -9.4m/s | 16.4°C | 80% | 0hPa | 2.7V | 08:00:38 | 02:59:57 | 00:00:00 | |
| IW2NTF | 2026-08-31 12:36:33 | 44.93336 | 9.27921 | 12° | 7km/h | 1785m | -10.1m/s | 16.2°C | 81.6% | 0hPa | 2.7V | 08:00:40 | 02:59:55 | 00:00:00 | |
| IW2NTF | 2026-08-31 12:36:33 | 44.93332 | 9.27921 | 333° | 4km/h | 1804m | -9.3m/s | 16.1°C | 80.4% | 0hPa | 2.7V | 08:00:42 | 02:59:53 | 00:00:00 | |
| IW2NTF | 2026-08-31 12:36:28 | 44.93330 | 9.27922 | 329° | 5km/h | 1822m | -8.5m/s | 15.9°C | 80.6% | 0hPa | 2.6V | 08:00:44 | 02:59:51 | 00:00:00 | |
| IW2NTF | 2026-08-31 12:36:28 | 44.93326 | 9.27923 | 355° | 7km/h | 1839m | -8.7m/s | 15.8°C | 79.3% | 0hPa | 2.7V | 08:00:46 | 02:59:49 | 00:00:00 | |
| IW2NTF | 2026-08-31 12:36:28 | 44.93323 | 9.27923 | 1° | 5km/h | 1856m | -9.2m/s | 15.7°C | 79.3% | 0hPa | 2.7V | 08:00:48 | 02:59:47 | 00:00:00 | |
| IW2NTF | 2026-08-31 12:36:21 | 44.93320 | 9.27922 | 13° | 7km/h | 1874m | -9.1m/s | 15.5°C | 79.3% | 0hPa | 2.7V | 08:00:50 | 02:59:45 | 00:00:00 | |
| IW2NTF | 2026-08-31 12:36:21 | 44.93316 | 9.27920 | 13° | 7km/h | 1892m | -9.2m/s | 15.4°C | 79.6% | 0hPa | 2.7V | 08:00:52 | 02:59:43 | 00:00:00 | |
| IW2NTF | 2026-08-31 12:36:21 | 44.93313 | 9.27920 | 13° | 5km/h | 1910m | -9.6m/s | 15.2°C | 80.2% | 0hPa | 2.7V | 08:00:54 | 02:59:41 | 00:00:00 | |
| IW2NTF | 2026-08-31 12:36:16 | 44.93309 | 9.27920 | 358° | 7km/h | 1929m | -9.1m/s | 15°C | 79.3% | 0hPa | 2.6V | 08:00:56 | 02:59:39 | 00:00:00 | |
| IW2NTF | 2026-08-31 12:36:16 | 44.93301 | 9.27916 | 42° | 7km/h | 1967m | -11m/s | 14.8°C | 80.7% | 0hPa | 2.7V | 08:01:00 | 02:59:35 | 00:00:00 | |
| IW2NTF | 2026-08-31 12:36:11 | 44.93298 | 9.27912 | 33° | 9km/h | 1987m | -10.4m/s | 14.6°C | 79.2% | 0hPa | 2.7V | 08:01:02 | 02:59:33 | 00:00:00 | |
| IW2NTF | 2026-08-31 12:36:11 | 44.93293 | 9.27908 | 32° | 11km/h | 2006m | -8.6m/s | 14.4°C | 79.4% | 0hPa | 2.7V | 08:01:04 | 02:59:31 | 00:00:00 | |
| IW2NTF | 2026-08-31 12:36:05 | 44.93277 | 9.27894 | 40° | 15km/h | 2061m | -10.4m/s | 13.8°C | 83.5% | 0hPa | 2.7V | 08:01:10 | 02:59:25 | 00:00:00 | |
| IW2NTF | 2026-08-31 12:35:59 | 44.93254 | 9.27878 | 23° | 16km/h | 2123m | -10.4m/s | 13.3°C | 86.5% | 0hPa | 2.7V | 08:01:16 | 02:59:19 | 00:00:00 | |
| IW2NTF | 2026-08-31 12:35:53 | 44.93232 | 9.27871 | 20° | 16km/h | 2181m | -10.7m/s | 12.8°C | 85.2% | 0hPa | 2.7V | 08:01:22 | 02:59:13 | 00:00:00 | |
| IW2NTF | 2026-08-31 12:35:47 | 44.93207 | 9.27854 | 26° | 18km/h | 2244m | -11.1m/s | 12.5°C | 75% | 0hPa | 2.7V | 08:01:28 | 02:59:07 | 00:00:00 | |
| IW2NTF | 2026-08-31 12:35:41 | 44.93181 | 9.27837 | 35° | 20km/h | 2306m | -9.7m/s | 12°C | 74.7% | 0hPa | 2.7V | 08:01:34 | 02:59:01 | 00:00:00 | |
| IW2NTF | 2026-08-31 12:35:35 | 44.93158 | 9.27810 | 42° | 22km/h | 2366m | -8.8m/s | 11.6°C | 74% | 0hPa | 2.7V | 08:01:40 | 02:58:55 | 00:00:00 | |
| IW2NTF | 2026-08-31 12:35:29 | 44.93134 | 9.27775 | 47° | 24km/h | 2425m | -10m/s | 11.3°C | 63.8% | 0hPa | 2.7V | 08:01:46 | 02:58:49 | 00:00:00 | |
| IW2NTF | 2026-08-31 12:35:23 | 44.93109 | 9.27735 | 50° | 26km/h | 2483m | -10.1m/s | 11.3°C | 55.1% | 0hPa | 2.6V | 08:01:52 | 02:58:43 | 00:00:00 | |
| IW2NTF | 2026-08-31 12:35:17 | 44.93081 | 9.27687 | 49° | 29km/h | 2541m | -10.1m/s | 11°C | 55.6% | 0hPa | 2.7V | 08:01:58 | 02:58:37 | 00:00:00 | |
| IW2NTF | 2026-08-31 12:35:11 | 44.93054 | 9.27638 | 56° | 29km/h | 2599m | -10m/s | 10.7°C | 53.7% | 0hPa | 2.7V | 08:02:04 | 02:58:31 | 00:00:00 | |
| IW2NTF | 2026-08-31 12:35:05 | 44.93029 | 9.27583 | 59° | 31km/h | 2652m | -9.1m/s | 10.3°C | 54.2% | 0hPa | 2.7V | 08:02:10 | 02:58:25 | 00:00:00 | |
| IW2NTF | 2026-08-31 12:34:59 | 44.93008 | 9.27521 | 66° | 33km/h | 2707m | -9.4m/s | 10°C | 55.9% | 0hPa | 2.7V | 08:02:16 | 02:58:19 | 00:00:00 | |
| IW2NTF | 2026-08-31 12:34:54 | 44.92989 | 9.27453 | 70° | 33km/h | 2763m | -8.2m/s | 9.5°C | 56.5% | 0hPa | 2.7V | 08:02:22 | 02:58:13 | 00:00:00 | |
| IW2NTF | 2026-08-31 12:34:47 | 44.92974 | 9.27386 | 73° | 33km/h | 2813m | -8.1m/s | 9.1°C | 57.2% | 0hPa | 2.7V | 08:02:28 | 02:58:07 | 00:00:00 | |
| IW2NTF | 2026-08-31 12:34:41 | 44.92961 | 9.27316 | 76° | 37km/h | 2868m | -9.4m/s | 8.9°C | 55.5% | 0hPa | 2.7V | 08:02:34 | 02:58:01 | 00:00:00 | |
| IW2NTF | 2026-08-31 12:34:35 | 44.92949 | 9.27245 | 76° | 35km/h | 2923m | -9.1m/s | 8.5°C | 56.4% | 0hPa | 2.7V | 08:02:40 | 02:57:55 | 00:00:00 | |
| IW2NTF | 2026-08-31 12:34:29 | 44.92936 | 9.27174 | 77° | 33km/h | 2971m | -8.8m/s | 8.1°C | 58.9% | 0hPa | 2.7V | 08:02:46 | 02:57:49 | 00:00:00 | |
| IW2NTF | 2026-08-31 12:34:23 | 44.92923 | 9.27093 | 77° | 33km/h | 3029m | -7.9m/s | 7.7°C | 59.5% | 0hPa | 2.6V | 08:02:53 | 02:57:42 | 00:00:00 | |
| IW2NTF | 2026-08-31 12:34:16 | 44.92913 | 9.27028 | 81° | 33km/h | 3078m | -8.5m/s | 7.3°C | 60.3% | 0hPa | 2.7V | 08:02:59 | 02:57:36 | 00:00:00 | |
| IW2NTF | 2026-08-31 12:34:10 | 44.92901 | 9.26952 | 74° | 31km/h | 3137m | -9.1m/s | 6.8°C | 61.6% | 0hPa | 2.7V | 08:03:06 | 02:57:29 | 00:00:00 | |
| IW2NTF | 2026-08-31 12:34:05 | 44.92895 | 9.26912 | 77° | 29km/h | 3173m | -9.3m/s | 6.5°C | 62.8% | 0hPa | 2.6V | 08:03:10 | 02:57:25 | 00:00:00 | |
| IW2NTF | 2026-08-31 12:33:59 | 44.92889 | 9.26852 | 84° | 27km/h | 3222m | -9.1m/s | 6°C | 64.1% | 0hPa | 2.7V | 08:03:16 | 02:57:19 | 00:00:00 | |
| IW2NTF | 2026-08-31 12:33:53 | 44.92884 | 9.26793 | 81° | 27km/h | 3276m | -10.5m/s | 5.5°C | 65.6% | 0hPa | 2.7V | 08:03:22 | 02:57:13 | 00:00:00 | |
| IW2NTF | 2026-08-31 12:33:47 | 44.92881 | 9.26737 | 90° | 29km/h | 3335m | -10.9m/s | 5°C | 68.3% | 0hPa | 2.7V | 08:03:28 | 02:57:07 | 00:00:00 | |
| IW2NTF | 2026-08-31 12:33:41 | 44.92880 | 9.26680 | 91° | 27km/h | 3393m | -9m/s | 4.5°C | 70.9% | 0hPa | 2.6V | 08:03:34 | 02:57:01 | 00:00:00 | |
| IW2NTF | 2026-08-31 12:33:36 | 44.92880 | 9.26626 | 93° | 24km/h | 3452m | -10.2m/s | 4°C | 71.2% | 0hPa | 2.7V | 08:03:40 | 02:56:55 | 00:00:00 | |
| IW2NTF | 2026-08-31 12:33:29 | 44.92880 | 9.26573 | 88° | 26km/h | 3508m | -9.8m/s | 3.5°C | 73.4% | 0hPa | 2.7V | 08:03:46 | 02:56:49 | 00:00:00 | |
| IW2NTF | 2026-08-31 12:33:22 | 44.92879 | 9.26518 | 89° | 27km/h | 3563m | -9.5m/s | 3.1°C | 75.5% | 0hPa | 2.7V | 08:03:52 | 02:56:43 | 00:00:00 | |
| IW2NTF | 2026-08-31 12:33:17 | 44.92875 | 9.26457 | 85° | 31km/h | 3620m | -10.4m/s | 2.5°C | 78.4% | 0hPa | 2.6V | 08:03:58 | 02:56:37 | 00:00:00 | |
| IW2NTF | 2026-08-31 12:33:11 | 44.92870 | 9.26393 | 81° | 31km/h | 3679m | -10.1m/s | 2.2°C | 78.7% | 0hPa | 2.7V | 08:04:04 | 02:56:31 | 00:00:00 | |
| IW2NTF | 2026-08-31 12:33:05 | 44.92862 | 9.26328 | 78° | 33km/h | 3739m | -11.4m/s | 1.7°C | 80.6% | 0hPa | 2.7V | 08:04:10 | 02:56:25 | 00:00:00 | |
| IW2NTF | 2026-08-31 12:32:59 | 44.92849 | 9.26260 | 74° | 33km/h | 3799m | -11.4m/s | 1.4°C | 79.8% | 0hPa | 2.7V | 08:04:16 | 02:56:19 | 00:00:00 | |
| IW2NTF | 2026-08-31 12:32:54 | 44.92832 | 9.26186 | 70° | 38km/h | 3862m | -10.9m/s | 0.9°C | 80.7% | 0hPa | 2.7V | 08:04:22 | 02:56:13 | 00:00:00 | |
| IW2NTF | 2026-08-31 12:32:49 | 44.92818 | 9.26137 | 64° | 40km/h | 3904m | -11.7m/s | 0.6°C | 80.3% | 0hPa | 2.7V | 08:04:26 | 02:56:09 | 00:00:00 | |
| IW2NTF | 2026-08-31 12:32:43 | 44.92793 | 9.26058 | 66° | 40km/h | 3962m | -9.5m/s | 0.3°C | 79.7% | 0hPa | 2.7V | 08:04:32 | 02:56:03 | 00:00:00 | |
| IW2NTF | 2026-08-31 12:32:38 | 44.92767 | 9.25979 | 65° | 42km/h | 4020m | -9m/s | 0°C | 77.4% | 0hPa | 2.7V | 08:04:38 | 02:55:57 | 00:00:00 | |
| IW2NTF | 2026-08-31 12:32:33 | 44.92751 | 9.25923 | 71° | 44km/h | 4056m | -10.9m/s | -0.3°C | 81.3% | 0hPa | 2.6V | 08:04:42 | 02:55:53 | 00:00:00 | |
| IW2NTF | 2026-08-31 12:32:27 | 44.92730 | 9.25840 | 74° | 42km/h | 4118m | -10.8m/s | -0.7°C | 84.6% | 0hPa | 2.6V | 08:04:48 | 02:55:47 | 00:00:00 | |
| IW2NTF | 2026-08-31 12:32:21 | 44.92712 | 9.25754 | 74° | 40km/h | 4174m | -10.3m/s | -0.8°C | 84.8% | 0hPa | 2.6V | 08:04:54 | 02:55:41 | 00:00:00 | |
| IW2NTF | 2026-08-31 12:32:16 | 44.92696 | 9.25670 | 74° | 40km/h | 4226m | -8.2m/s | -0.5°C | 77.2% | 0hPa | 2.7V | 08:05:00 | 02:55:35 | 00:00:00 | |
| IW2NTF | 2026-08-31 12:32:09 | 44.92679 | 9.25584 | 74° | 44km/h | 4292m | -11.8m/s | -0.6°C | 67.1% | 0hPa | 2.6V | 08:05:06 | 02:55:29 | 00:00:00 | |
| IW2NTF | 2026-08-31 12:32:04 | 44.92662 | 9.25500 | 73° | 42km/h | 4354m | -9m/s | -0.9°C | 66.2% | 0hPa | 2.6V | 08:05:12 | 02:55:23 | 00:00:00 | |
| IW2NTF | 2026-08-31 12:31:59 | 44.92645 | 9.25415 | 75° | 42km/h | 4411m | -9.7m/s | -1.3°C | 65.7% | 0hPa | 2.6V | 08:05:18 | 02:55:17 | 00:00:00 | |
| IW2NTF | 2026-08-31 12:31:53 | 44.92630 | 9.25335 | 75° | 37km/h | 4470m | -12.2m/s | -1.6°C | 63.7% | 0hPa | 2.7V | 08:05:24 | 02:55:11 | 00:00:00 | |
| IW2NTF | 2026-08-31 12:31:46 | 44.92619 | 9.25262 | 80° | 31km/h | 4530m | -9.8m/s | -1.9°C | 62.9% | 0hPa | 2.6V | 08:05:30 | 02:55:05 | 00:00:00 | |
| IW2NTF | 2026-08-31 12:31:41 | 44.92614 | 9.25218 | 84° | 33km/h | 4566m | -8.6m/s | -1.7°C | 52.8% | 0hPa | 2.6V | 08:05:34 | 02:55:01 | 00:00:00 | |
| IW2NTF | 2026-08-31 12:31:35 | 44.92610 | 9.25152 | 85° | 31km/h | 4624m | -11.2m/s | -1.8°C | 47.3% | 0hPa | 2.6V | 08:05:40 | 02:54:55 | 00:00:00 | |
| IW2NTF | 2026-08-31 12:31:29 | 44.92606 | 9.25083 | 85° | 35km/h | 4687m | -12m/s | -2°C | 25.1% | 0hPa | 2.6V | 08:05:46 | 02:54:49 | 00:00:00 | |
| IW2NTF | 2026-08-31 12:31:23 | 44.92603 | 9.25010 | 87° | 37km/h | 4749m | -10.4m/s | -2.6°C | 38.2% | 0hPa | 2.6V | 08:05:52 | 02:54:43 | 00:00:00 | |
| IW2NTF | 2026-08-31 12:31:17 | 44.92599 | 9.24930 | 86° | 38km/h | 4813m | -10.8m/s | -2.9°C | 30% | 0hPa | 2.6V | 08:05:58 | 02:54:37 | 00:00:00 | |
| IW2NTF | 2026-08-31 12:31:12 | 44.92595 | 9.24846 | 83° | 42km/h | 4875m | -11.8m/s | -2.9°C | 10% | 0hPa | 2.6V | 08:06:04 | 02:54:31 | 00:00:00 | |
| IW2NTF | 2026-08-31 12:31:06 | 44.92591 | 9.24756 | 86° | 42km/h | 4939m | -10.5m/s | -3.3°C | 4.9% | 0hPa | 2.6V | 08:06:10 | 02:54:25 | 00:00:00 | |
| IW2NTF | 2026-08-31 12:31:01 | 44.92588 | 9.24696 | 87° | 44km/h | 4979m | -11.7m/s | -3.7°C | 4% | 0hPa | 2.6V | 08:06:14 | 02:54:21 | 00:00:00 | |
| IW2NTF | 2026-08-31 12:30:55 | 44.92583 | 9.24603 | 82° | 46km/h | 5042m | -9.8m/s | -4.1°C | 3.9% | 0hPa | 2.6V | 08:06:20 | 02:54:15 | 00:00:00 | |
| IW2NTF | 2026-08-31 12:30:45 | 44.92570 | 9.24439 | 82° | 46km/h | 5144m | -9.4m/s | -4.9°C | 3.5% | 0hPa | 2.6V | 08:06:30 | 02:54:05 | 00:00:00 | |
| IW2NTF | 2026-08-31 12:30:34 | 44.92552 | 9.24229 | 84° | 49km/h | 5272m | -13m/s | -5.8°C | 4.3% | 0hPa | 2.6V | 08:06:42 | 02:53:53 | 00:00:00 | |
| IW2NTF | 2026-08-31 12:30:20 | 44.92542 | 9.24045 | 87° | 49km/h | 5387m | -11.5m/s | -6.7°C | 5% | 0hPa | 2.6V | 08:06:52 | 02:53:43 | 00:00:00 | |
| IW2NTF | 2026-08-31 12:30:10 | 44.92533 | 9.23861 | 87° | 55km/h | 5497m | -12m/s | -7.6°C | 5.1% | 0hPa | 2.5V | 08:07:02 | 02:53:33 | 00:00:00 | |
| IW2NTF | 2026-08-31 12:30:01 | 44.92522 | 9.23672 | 85° | 57km/h | 5613m | -11.7m/s | -8.6°C | 6.2% | 0hPa | 2.6V | 08:07:12 | 02:53:23 | 00:00:00 | |
| IW2NTF | 2026-08-31 12:29:50 | 44.92509 | 9.23463 | 85° | 60km/h | 5732m | -13m/s | -9.4°C | 6.2% | 0hPa | 2.6V | 08:07:22 | 02:53:13 | 00:00:00 | |
| IW2NTF | 2026-08-31 12:29:40 | 44.92498 | 9.23233 | 85° | 64km/h | 5851m | -11.4m/s | -10.2°C | 8.8% | 0hPa | 2.6V | 08:07:32 | 02:53:03 | 00:00:00 | |
| IW2NTF | 2026-08-31 12:29:30 | 44.92479 | 9.22997 | 83° | 66km/h | 5962m | -10.9m/s | -11.2°C | 13.7% | 0hPa | 2.6V | 08:07:42 | 02:52:53 | 00:00:00 | |
| IW2NTF | 2026-08-31 12:29:20 | 44.92454 | 9.22755 | 79° | 71km/h | 6076m | -10.9m/s | -11.9°C | 11.7% | 0hPa | 2.6V | 08:07:52 | 02:52:43 | 00:00:00 | |
| IW2NTF | 2026-08-31 12:29:10 | 44.92422 | 9.22506 | 80° | 69km/h | 6188m | -11.6m/s | -12.8°C | 19.8% | 0hPa | 2.6V | 08:08:02 | 02:52:33 | 00:00:00 | |
| IW2NTF | 2026-08-31 12:29:01 | 44.92390 | 9.22253 | 79° | 71km/h | 6307m | -12.1m/s | -13.8°C | 20.7% | 0hPa | 2.6V | 08:08:12 | 02:52:23 | 00:00:00 | |
| IW2NTF | 2026-08-31 12:28:51 | 44.92359 | 9.21997 | 82° | 71km/h | 6420m | -10.6m/s | -14.8°C | 20.2% | 0hPa | 2.6V | 08:08:22 | 02:52:13 | 00:00:00 | |
| IW2NTF | 2026-08-31 12:28:41 | 44.92332 | 9.21734 | 82° | 77km/h | 6535m | -11.8m/s | -15.7°C | 19.4% | 0hPa | 2.6V | 08:08:32 | 02:52:03 | 00:00:00 | |
| IW2NTF | 2026-08-31 12:28:30 | 44.92310 | 9.21465 | 83° | 75km/h | 6648m | -10.9m/s | -16.5°C | 15.9% | 0hPa | 2.6V | 08:08:42 | 02:51:53 | 00:00:00 | |
| IW2NTF | 2026-08-31 12:28:21 | 44.92283 | 9.21189 | 79° | 80km/h | 6760m | -11.1m/s | -17.1°C | 13.6% | 0hPa | 2.5V | 08:08:52 | 02:51:43 | 00:00:00 | |
| IW2NTF | 2026-08-31 12:28:11 | 44.92248 | 9.20912 | 80° | 78km/h | 6875m | -11.1m/s | -17.5°C | 10.6% | 0hPa | 2.6V | 08:09:02 | 02:51:33 | 00:00:00 | |
| IW2NTF | 2026-08-31 12:28:00 | 44.92214 | 9.20632 | 80° | 80km/h | 6991m | -10.3m/s | -18.2°C | 14.8% | 0hPa | 2.5V | 08:09:12 | 02:51:23 | 00:00:00 | |
| IW2NTF | 2026-08-31 12:27:50 | 44.92177 | 9.20347 | 79° | 80km/h | 7107m | -11.8m/s | -19.1°C | 12.1% | 0hPa | 2.6V | 08:09:22 | 02:51:13 | 00:00:00 | |
| IW2NTF | 2026-08-31 12:27:40 | 44.92139 | 9.20051 | 80° | 86km/h | 7234m | -11.9m/s | -20.1°C | 30.2% | 0hPa | 2.5V | 08:09:32 | 02:51:03 | 00:00:00 | |
| IW2NTF | 2026-08-31 12:27:31 | 44.92102 | 9.19734 | 81° | 95km/h | 7350m | -10.7m/s | -20.6°C | 17.8% | 0hPa | 2.6V | 08:09:42 | 02:50:53 | 00:00:00 | |
| IW2NTF | 2026-08-31 12:27:20 | 44.92062 | 9.19393 | 79° | 99km/h | 7465m | -11.2m/s | -21.1°C | 33.2% | 0hPa | 2.6V | 08:09:52 | 02:50:43 | 00:00:00 | |
| IW2NTF | 2026-08-31 12:27:10 | 44.92012 | 9.19036 | 78° | 102km/h | 7579m | -10m/s | -21.9°C | 34.7% | 0hPa | 2.6V | 08:10:02 | 02:50:33 | 00:00:00 | |
| IW2NTF | 2026-08-31 12:27:01 | 44.91959 | 9.18678 | 78° | 104km/h | 7701m | -13.6m/s | -22.8°C | 32.8% | 0hPa | 2.5V | 08:10:12 | 02:50:23 | 00:00:00 | |
| IW2NTF | 2026-08-31 12:26:51 | 44.91908 | 9.18320 | 78° | 100km/h | 7835m | -12.5m/s | -23.1°C | 11.2% | 0hPa | 2.5V | 08:10:22 | 02:50:13 | 00:00:00 | |
| IW2NTF | 2026-08-31 12:26:40 | 44.91856 | 9.17966 | 78° | 100km/h | 7945m | -10.4m/s | -23.9°C | 17.9% | 0hPa | 2.5V | 08:10:32 | 02:50:03 | 00:00:00 | |
| IW2NTF | 2026-08-31 12:26:31 | 44.91803 | 9.17615 | 76° | 100km/h | 8065m | -14m/s | -25°C | 21% | 0hPa | 2.6V | 08:10:42 | 02:49:53 | 00:00:00 | |
| IW2NTF | 2026-08-31 12:26:20 | 44.91745 | 9.17267 | 76° | 100km/h | 8186m | -12.7m/s | -26.1°C | 29.7% | 0hPa | 2.5V | 08:10:52 | 02:49:43 | 00:00:00 | |
| IW2NTF | 2026-08-31 12:26:10 | 44.91689 | 9.16910 | 78° | 104km/h | 8307m | -13.9m/s | -26.9°C | 20.6% | 0hPa | 2.6V | 08:11:02 | 02:49:33 | 00:00:00 | |
| IW2NTF | 2026-08-31 12:26:00 | 44.91636 | 9.16542 | 78° | 106km/h | 8441m | -14.6m/s | -28°C | 21.3% | 0hPa | 2.5V | 08:11:12 | 02:49:23 | 00:00:00 | |
| IW2NTF | 2026-08-31 12:25:51 | 44.91582 | 9.16159 | 78° | 111km/h | 8578m | -12.4m/s | -28.9°C | 24.1% | 0hPa | 2.6V | 08:11:22 | 02:49:13 | 00:00:00 | |
| IW2NTF | 2026-08-31 12:25:41 | 44.91521 | 9.15765 | 76° | 113km/h | 8708m | -12.4m/s | -30°C | 40.6% | 0hPa | 2.6V | 08:11:32 | 02:49:03 | 00:00:00 | |
| IW2NTF | 2026-08-31 12:25:30 | 44.91457 | 9.15378 | 76° | 111km/h | 8820m | -11.4m/s | -31°C | 40.2% | 0hPa | 2.5V | 08:11:42 | 02:48:53 | 00:00:00 | |
| IW2NTF | 2026-08-31 12:25:20 | 44.91387 | 9.14998 | 74° | 110km/h | 8954m | -13.7m/s | -32.1°C | 38.3% | 0hPa | 2.6V | 08:11:52 | 02:48:43 | 00:00:00 | |
| IW2NTF | 2026-08-31 12:25:11 | 44.91314 | 9.14619 | 73° | 110km/h | 9082m | -13m/s | -33.3°C | 39.8% | 0hPa | 2.6V | 08:12:02 | 02:48:33 | 00:00:00 | |
| IW2NTF | 2026-08-31 12:25:00 | 44.91240 | 9.14247 | 74° | 110km/h | 9200m | -10.2m/s | -34.3°C | 40.6% | 0hPa | 2.5V | 08:12:12 | 02:48:23 | 00:00:00 | |
| IW2NTF | 2026-08-31 12:24:51 | 44.91165 | 9.13872 | 73° | 110km/h | 9302m | -13.1m/s | -35.2°C | 41.2% | 0hPa | 2.5V | 08:12:22 | 02:48:13 | 00:00:00 | |
| IW2NTF | 2026-08-31 12:24:40 | 44.91093 | 9.13494 | 75° | 113km/h | 9428m | -13m/s | -36.2°C | 38.9% | 0hPa | 2.6V | 08:12:32 | 02:48:03 | 00:00:00 | |
| IW2NTF | 2026-08-31 12:24:29 | 44.91021 | 9.13099 | 74° | 120km/h | 9554m | -12m/s | -37°C | 26.6% | 0hPa | 2.5V | 08:12:42 | 02:47:53 | 00:00:00 | |
| IW2NTF | 2026-08-31 12:24:20 | 44.90933 | 9.12679 | 71° | 126km/h | 9680m | -13.1m/s | -37.6°C | 22.5% | 0hPa | 2.5V | 08:12:52 | 02:47:43 | 00:00:00 | |
| IW2NTF | 2026-08-31 12:24:09 | 44.90828 | 9.12235 | 71° | 137km/h | 9811m | -13m/s | -38.2°C | 19.4% | 0hPa | 2.6V | 08:13:02 | 02:47:33 | 00:00:00 | |
| IW2NTF | 2026-08-31 12:23:59 | 44.90722 | 9.11772 | 73° | 141km/h | 9947m | -14.5m/s | -39.3°C | 16.8% | 0hPa | 2.5V | 08:13:12 | 02:47:23 | 00:00:00 | |
| IW2NTF | 2026-08-31 12:23:49 | 44.90620 | 9.11291 | 72° | 141km/h | 10085m | -14m/s | -40.1°C | 13.8% | 0hPa | 2.6V | 08:13:22 | 02:47:13 | 00:00:00 | |
| IW2NTF | 2026-08-31 12:23:39 | 44.90512 | 9.10807 | 72° | 141km/h | 10222m | -11.9m/s | -41.1°C | 16% | 0hPa | 2.5V | 08:13:32 | 02:47:03 | 00:00:00 | |
| IW2NTF | 2026-08-31 12:23:29 | 44.90407 | 9.10318 | 72° | 144km/h | 10357m | -13.5m/s | -42.2°C | 16.4% | 0hPa | 2.6V | 08:13:42 | 02:46:53 | 00:00:00 | |
| IW2NTF | 2026-08-31 12:23:19 | 44.90302 | 9.09817 | 72° | 146km/h | 10499m | -16m/s | -43.2°C | 17.3% | 0hPa | 2.6V | 08:13:52 | 02:46:43 | 00:00:00 | |
| IW2NTF | 2026-08-31 12:23:09 | 44.90197 | 9.09311 | 73° | 148km/h | 10638m | -15.4m/s | -44.3°C | 18.3% | 0hPa | 2.5V | 08:14:02 | 02:46:33 | 00:00:00 | |
| IW2NTF | 2026-08-31 12:22:59 | 44.90091 | 9.08795 | 73° | 151km/h | 10783m | -15.7m/s | -45.5°C | 19.3% | 0hPa | 2.5V | 08:14:12 | 02:46:23 | 00:00:00 | |
| IW2NTF | 2026-08-31 12:22:49 | 44.89974 | 9.08220 | 73° | 155km/h | 10936m | -12.5m/s | -46.6°C | 21% | 0hPa | 2.5V | 08:14:23 | 02:46:12 | 00:00:00 | |
| IW2NTF | 2026-08-31 12:22:39 | 44.89858 | 9.07698 | 71° | 151km/h | 11076m | -14.5m/s | -47.4°C | 23.4% | 0hPa | 2.6V | 08:14:33 | 02:46:02 | 00:00:00 | |
| IW2NTF | 2026-08-31 12:22:29 | 44.89707 | 9.07074 | 70° | 153km/h | 11243m | -14.1m/s | -48.5°C | 24.9% | 0hPa | 2.5V | 08:14:45 | 02:45:50 | 00:00:00 | |
| IW2NTF | 2026-08-31 12:22:19 | 44.89577 | 9.06551 | 70° | 153km/h | 11392m | -14.5m/s | -49.6°C | 26.4% | 0hPa | 2.6V | 08:14:55 | 02:45:40 | 00:00:00 | |
| IW2NTF | 2026-08-31 12:22:08 | 44.89445 | 9.06031 | 70° | 155km/h | 11532m | -14.7m/s | -50.8°C | 26% | 0hPa | 2.5V | 08:15:05 | 02:45:30 | 00:00:00 | |
| IW2NTF | 2026-08-31 12:21:58 | 44.89314 | 9.05509 | 71° | 159km/h | 11672m | -13.8m/s | -51.6°C | 25.1% | 0hPa | 2.5V | 08:15:15 | 02:45:20 | 00:00:00 | |
| IW2NTF | 2026-08-31 12:21:48 | 44.89177 | 9.04981 | 69° | 157km/h | 11818m | -15.2m/s | -52.6°C | 24% | 0hPa | 2.5V | 08:15:25 | 02:45:10 | 00:00:00 | |
| IW2NTF | 2026-08-31 12:21:40 | 44.89036 | 9.04449 | 69° | 161km/h | 11962m | -16.5m/s | -53.7°C | 25.1% | 0hPa | 2.5V | 08:15:35 | 02:45:00 | 00:00:00 | |
| IW2NTF | 2026-08-31 12:21:30 | 44.88903 | 9.03907 | 70° | 159km/h | 12117m | -14.2m/s | -54.4°C | 25.7% | 0hPa | 2.6V | 08:15:45 | 02:44:50 | 00:00:00 | |
| IW2NTF | 2026-08-31 12:21:18 | 44.88764 | 9.03374 | 70° | 159km/h | 12253m | -14m/s | -55.4°C | 25.5% | 0hPa | 2.6V | 08:15:55 | 02:44:40 | 00:00:00 | |
| IW2NTF | 2026-08-31 12:21:08 | 44.88634 | 9.02849 | 70° | 153km/h | 12390m | -15.2m/s | -56.3°C | 24.8% | 0hPa | 2.6V | 08:16:05 | 02:44:30 | 00:00:00 | |
| IW2NTF | 2026-08-31 12:20:58 | 44.88503 | 9.02324 | 69° | 157km/h | 12533m | -16.1m/s | -57.1°C | 23.8% | 0hPa | 2.6V | 08:16:15 | 02:44:20 | 00:00:00 | |
| IW2NTF | 2026-08-31 12:20:48 | 44.88358 | 9.01698 | 72° | 155km/h | 12714m | -14.5m/s | -57.9°C | 23.1% | 0hPa | 2.6V | 08:16:27 | 02:44:08 | 00:00:00 | |
| IW2NTF | 2026-08-31 12:20:36 | 44.88253 | 9.01186 | 74° | 146km/h | 12860m | -15.1m/s | -58.5°C | 21.2% | 0hPa | 2.5V | 08:16:37 | 02:43:58 | 00:00:00 | |
| IW2NTF | 2026-08-31 12:20:26 | 44.88160 | 9.00690 | 75° | 141km/h | 13005m | -15.1m/s | -59°C | 19.2% | 0hPa | 2.6V | 08:16:47 | 02:43:48 | 00:00:00 | |
| IW2NTF | 2026-08-31 12:20:16 | 44.88071 | 9.00210 | 75° | 137km/h | 13152m | -15.7m/s | -59.5°C | 18.8% | 0hPa | 2.6V | 08:16:57 | 02:43:38 | 00:00:00 | |
| IW2NTF | 2026-08-31 12:20:07 | 44.87984 | 8.99749 | 74° | 131km/h | 13300m | -15.4m/s | -59.6°C | 18.4% | 0hPa | 2.6V | 08:17:07 | 02:43:28 | 00:00:00 | |
| IW2NTF | 2026-08-31 12:19:56 | 44.87902 | 8.99314 | 73° | 124km/h | 13450m | -17.3m/s | -59.9°C | 17.5% | 0hPa | 2.6V | 08:17:17 | 02:43:18 | 00:00:00 | |
| IW2NTF | 2026-08-31 12:19:46 | 44.87818 | 8.98906 | 74° | 119km/h | 13609m | -16.5m/s | -60.2°C | 15.5% | 0hPa | 2.6V | 08:17:27 | 02:43:08 | 00:00:00 | |
| IW2NTF | 2026-08-31 12:19:36 | 44.87727 | 8.98511 | 71° | 115km/h | 13771m | -16.2m/s | -61°C | 15.6% | 0hPa | 2.5V | 08:17:37 | 02:42:58 | 00:00:00 | |
| IW2NTF | 2026-08-31 12:19:26 | 44.87633 | 8.98122 | 73° | 119km/h | 13937m | -16.6m/s | -61.5°C | 14.7% | 0hPa | 2.6V | 08:17:47 | 02:42:48 | 00:00:00 | |
| IW2NTF | 2026-08-31 12:19:16 | 44.87560 | 8.97723 | 78° | 113km/h | 14098m | -16.7m/s | -61.1°C | 11.8% | 0hPa | 2.6V | 08:17:57 | 02:42:38 | 00:00:00 | |
| IW2NTF | 2026-08-31 12:19:06 | 44.87510 | 8.97347 | 80° | 102km/h | 14253m | -16.5m/s | -60.3°C | 9.6% | 0hPa | 2.6V | 08:18:07 | 02:42:28 | 00:00:00 | |
| IW2NTF | 2026-08-31 12:18:56 | 44.87462 | 8.96998 | 76° | 99km/h | 14422m | -17.3m/s | -60.7°C | 8.7% | 0hPa | 2.6V | 08:18:17 | 02:42:18 | 00:00:00 | |
| IW2NTF | 2026-08-31 12:18:47 | 44.87412 | 8.96675 | 77° | 91km/h | 14584m | -16.6m/s | -60.7°C | 8.1% | 0hPa | 2.6V | 08:18:27 | 02:42:08 | 00:00:00 | |
| IW2NTF | 2026-08-31 12:18:36 | 44.87355 | 8.96362 | 72° | 91km/h | 14752m | -17.7m/s | -61.1°C | 8.1% | 0hPa | 2.6V | 08:18:37 | 02:41:58 | 00:00:00 | |
| IW2NTF | 2026-08-31 12:18:26 | 44.87291 | 8.96066 | 71° | 82km/h | 14921m | -17.6m/s | -60.6°C | 7.7% | 0hPa | 2.6V | 08:18:47 | 02:41:48 | 00:00:00 | |
| IW2NTF | 2026-08-31 12:18:16 | 44.87233 | 8.95778 | 75° | 84km/h | 15097m | -19m/s | -59.9°C | 6.9% | 0hPa | 2.6V | 08:18:57 | 02:41:38 | 00:00:00 | |
| IW2NTF | 2026-08-31 12:18:06 | 44.87183 | 8.95484 | 76° | 82km/h | 15277m | -17.7m/s | -60.6°C | 7.4% | 0hPa | 2.6V | 08:19:07 | 02:41:28 | 00:00:00 | |
| IW2NTF | 2026-08-31 12:17:57 | 44.87146 | 8.95231 | 80° | 66km/h | 15449m | -16.6m/s | -60.5°C | 7% | 0hPa | 2.7V | 08:19:17 | 02:41:18 | 00:00:00 | |
| IW2NTF | 2026-08-31 12:17:46 | 44.87130 | 8.95020 | 87° | 57km/h | 15630m | -20.3m/s | -59.7°C | 6.3% | 0hPa | 2.6V | 08:19:27 | 02:41:08 | 00:00:00 | |
| IW2NTF | 2026-08-31 12:17:36 | 44.87110 | 8.94832 | 74° | 55km/h | 15800m | -19.4m/s | -60.5°C | 6.6% | 0hPa | 2.6V | 08:19:37 | 02:40:58 | 00:00:00 | |
| IW2NTF | 2026-08-31 12:17:27 | 44.87069 | 8.94642 | 69° | 57km/h | 15982m | -18.6m/s | -61.4°C | 7.1% | 0hPa | 2.7V | 08:19:47 | 02:40:48 | 00:00:00 | |
| DB0UT-7 | 2026-08-31 12:17:17 | 44.87040 | 8.94531 | 66° | 49km/h | 16089m | -16.7m/s | -61.9°C | 7.3% | 0hPa | 2.7V | 00:00:00 | 00:00:00 | 00:00:00 | |
| IW2NTF | 2026-08-31 12:17:16 | 44.87018 | 8.94473 | 53° | 44km/h | 16158m | -19.9m/s | -61.7°C | 6.8% | 0hPa | 2.7V | 08:19:57 | 02:40:38 | 00:00:00 | |
| DO3MHA-12 | 2026-08-31 12:17:07 | 44.86973 | 8.94416 | 29° | 46km/h | 16268m | -20.2m/s | -59.4°C | 5.3% | 0hPa | 2.6V | 00:00:00 | 02:40:32 | 00:00:00 | |
| IW2NTF | 2026-08-31 12:17:06 | 44.86935 | 8.94384 | 33° | 46km/h | 16345m | -17.5m/s | -59.7°C | 5.4% | 0hPa | 2.6V | 08:20:07 | 02:40:28 | 00:00:00 | |
| DO3MHA-12 | 2026-08-31 12:16:57 | 44.86876 | 8.94325 | 40° | 57km/h | 16442m | -15.0m/s | -59.9°C | 5.6% | 0hPa | 2.6V | 08:20:00 | 02:40:22 | 00:00:00 | |
| IW2NTF | 2026-08-31 12:16:55 | 44.86836 | 8.94277 | 41° | 55km/h | 16508m | -16.7m/s | -60.3°C | 5.8% | 0hPa | 2.7V | 08:20:17 | 02:40:18 | 00:00:00 | |
| DB0UT-7 | 2026-08-31 12:16:47 | 44.86773 | 8.94186 | 50° | 68km/h | 16603m | -16.3m/s | -60.8°C | 6.2% | 0hPa | 2.7V | 00:00:00 | 02:40:12 | 00:00:00 | |
| IW2NTF | 2026-08-31 12:16:45 | 44.86730 | 8.94108 | 56° | 71km/h | 16667m | -16.6m/s | -61.2°C | 6.5% | 0hPa | 2.7V | 08:20:27 | 02:40:08 | 00:00:00 | |
| DO3MHA-12 | 2026-08-31 12:16:37 | 44.86679 | 8.93968 | 70° | 71km/h | 16764m | -15.7m/s | -59.5°C | 5.6% | 0hPa | 2.6V | 00:00:00 | 02:40:02 | 00:00:00 | |
| IW2NTF | 2026-08-31 12:16:35 | 44.86657 | 8.93868 | 77° | 73km/h | 16831m | -17.4m/s | -58.6°C | 5.2% | 0hPa | 2.6V | 08:20:37 | 02:39:58 | 00:00:00 | |
| DO3MHA-12 | 2026-08-31 12:16:27 | 44.86636 | 8.93724 | 79° | 58km/h | 16931m | -18.9m/s | -57.5°C | 4.8% | 0hPa | 2.6V | 00:00:00 | 02:39:52 | 00:00:00 | |
| IW2NTF | 2026-08-31 12:16:24 | 44.86624 | 8.93635 | 79° | 60km/h | 16994m | -15.2m/s | -57.4°C | 4.7% | 0hPa | 2.7V | 08:20:47 | 02:39:48 | 00:00:00 | |
| DO3MHA-12 | 2026-08-31 12:16:17 | 44.86616 | 8.93518 | 91° | 49km/h | 17092m | -17.9m/s | -57.5°C | 4.8% | 0hPa | 2.7V | 00:00:00 | 02:39:42 | 00:00:00 | |
| IW2NTF | 2026-08-31 12:16:15 | 44.86619 | 8.93444 | 95° | 49km/h | 17162m | -17.5m/s | -57.9°C | 4.9% | 0hPa | 2.7V | 08:20:57 | 02:39:38 | 00:00:00 | |
| DO3MHA-12 | 2026-08-31 12:16:07 | 44.86629 | 8.93350 | 103° | 27km/h | 17292m | -22.5m/s | -57.9°C | 4.7% | 0hPa | 2.7V | 00:00:00 | 02:39:32 | 00:00:00 | |
| IW2NTF | 2026-08-31 12:16:04 | 44.86634 | 8.93303 | 94° | 29km/h | 17374m | -19.8m/s | -57.5°C | 4.7% | 0hPa | 2.7V | 08:21:07 | 02:39:28 | 00:00:00 | |
| IW2NTF | 2026-08-31 12:15:58 | 44.86629 | 8.93231 | 62° | 16km/h | 17577m | -19.4m/s | -57.5°C | 4.6% | 0hPa | 2.7V | 08:21:17 | 02:39:18 | 00:00:00 | |
| DO3MHA-12 | 2026-08-31 12:15:47 | 44.86614 | 8.93205 | 32° | 24km/h | 17691m | -18.8m/s | -57.6°C | 4.6% | 0hPa | 2.7V | 00:00:00 | 02:39:12 | 00:00:00 | |
| IW2NTF | 2026-08-31 12:15:44 | 44.86596 | 8.93198 | 0° | 22km/h | 17767m | -18.7m/s | -57.6°C | 4.7% | 0hPa | 2.7V | 08:21:27 | 02:39:08 | 00:00:00 | |
| IW2NTF | 2026-08-31 12:15:38 | 44.86520 | 8.93217 | 353° | 40km/h | 17951m | -20.7m/s | -57.3°C | 4.6% | 0hPa | 2.7V | 08:21:37 | 02:38:58 | 00:00:00 | |
| DO3MHA-12 | 2026-08-31 12:15:37 | 44.86555 | 8.93207 | 345° | 38km/h | 17876m | -19.7m/s | -57.3°C | 4.6% | 0hPa | 2.7V | 00:00:00 | 02:39:02 | 00:00:00 | |
| DO3MHA-12 | 2026-08-31 12:15:27 | 44.86460 | 8.93212 | 14° | 46km/h | 18066m | -17.9m/s | -57.7°C | 5.0% | 0hPa | 2.7V | 08:21:00 | 02:38:52 | 00:00:00 | |
| IW2NTF | 2026-08-31 12:15:24 | 44.86420 | 8.93186 | 31° | 46km/h | 18142m | -19.3m/s | -58°C | 5.2% | 0hPa | 2.7V | 08:21:47 | 02:38:48 | 00:00:00 | |
| DO3MHA-12 | 2026-08-31 12:15:18 | 44.86371 | 8.93117 | 55° | 37km/h | 18253m | -18.0m/s | -56.9°C | 4.8% | 0hPa | 2.6V | 00:00:00 | 02:38:42 | 00:00:00 | |
| IW2NTF | 2026-08-31 12:15:16 | 44.86351 | 8.93066 | 67° | 38km/h | 18325m | -18.3m/s | -56.1°C | 4.6% | 0hPa | 2.6V | 08:21:57 | 02:38:38 | 00:00:00 | |
| DO3MHA-12 | 2026-08-31 12:15:07 | 44.86329 | 8.93005 | 55° | 24km/h | 18433m | -18.2m/s | -55.1°C | 4.2% | 0hPa | 2.6V | 00:00:00 | 02:38:32 | 00:00:00 | |
| IW2NTF | 2026-08-31 12:15:04 | 44.86316 | 8.92975 | 66° | 26km/h | 18506m | -19.2m/s | -54.9°C | 4.2% | 0hPa | 2.6V | 08:22:07 | 02:38:28 | 00:00:00 | |
| DO3MHA-12 | 2026-08-31 12:14:57 | 44.86300 | 8.92930 | 60° | 18km/h | 18621m | -21.0m/s | -54.4°C | 4.0% | 0hPa | 2.6V | 00:00:00 | 02:38:22 | 00:00:00 | |
| IW2NTF | 2026-08-31 12:14:54 | 44.86286 | 8.92896 | 59° | 18km/h | 18751m | -22.9m/s | -53.6°C | 3.6% | 0hPa | 2.6V | 08:22:19 | 02:38:16 | 00:00:00 | |
| DB0UT-7 | 2026-08-31 12:14:47 | 44.86276 | 8.92876 | 56° | 26km/h | 18835m | -20.9m/s | -53.6°C | 3.5% | 0hPa | 2.6V | 08:22:00 | 02:38:12 | 00:00:00 | |
| IW2NTF | 2026-08-31 12:14:44 | 44.86256 | 8.92847 | 49° | 22km/h | 18955m | -18.9m/s | -54°C | 3.5% | 0hPa | 2.6V | 08:22:29 | 02:38:06 | 00:00:00 | |
| IW2NTF | 2026-08-31 12:14:34 | 44.86213 | 8.92792 | 43° | 27km/h | 19155m | -20.8m/s | -55.8°C | 4.1% | 0hPa | 2.7V | 08:22:39 | 02:37:56 | 00:00:00 | |
| DO3MHA-12 | 2026-08-31 12:14:28 | 44.86197 | 8.92768 | 49° | 33km/h | 19218m | -18.6m/s | -56.3°C | 4.2% | 0hPa | 2.7V | 00:00:00 | 02:37:53 | 00:00:00 | |
| IW2NTF | 2026-08-31 12:14:25 | 44.86162 | 8.92702 | 56° | 31km/h | 19342m | -18.4m/s | -56.8°C | 4.5% | 0hPa | 2.7V | 08:22:49 | 02:37:46 | 00:00:00 | |
| DO3MHA-12 | 2026-08-31 12:14:18 | 44.86150 | 8.92674 | 62° | 31km/h | 19397m | -18.6m/s | -57.0°C | 4.7% | 0hPa | 2.6V | 00:00:00 | 02:37:43 | 00:00:00 | |
| DB0UT-7 | 2026-08-31 12:14:17 | 44.86146 | 8.92665 | 65° | 20km/h | 19415m | -18.4m/s | -57.1°C | 4.8% | 0hPa | 2.6V | 00:00:00 | 00:00:00 | 00:00:00 | |
| IW2NTF | 2026-08-31 12:14:14 | 44.86131 | 8.92599 | 84° | 37km/h | 19524m | -18.6m/s | -56.8°C | 4.7% | 0hPa | 2.6V | 08:22:59 | 02:37:36 | 00:00:00 | |
| DO3MHA-12 | 2026-08-31 12:14:08 | 44.86131 | 8.92567 | 101° | 18km/h | 19583m | -21.2m/s | -56.5°C | 4.6% | 0hPa | 2.7V | 00:00:00 | 02:37:33 | 00:00:00 | |
| IW2NTF | 2026-08-31 12:14:04 | 44.86145 | 8.92517 | 129° | 15km/h | 19724m | -21.1m/s | -55.7°C | 4.3% | 0hPa | 2.7V | 08:23:09 | 02:37:26 | 00:00:00 | |
| DO3MHA-12 | 2026-08-31 12:13:58 | 44.86149 | 8.92509 | 119° | 11km/h | 19789m | -22.8m/s | -55.5°C | 4.3% | 0hPa | 2.7V | 00:00:00 | 02:37:23 | 00:00:00 | |
| IW2NTF | 2026-08-31 12:13:52 | 44.86136 | 8.92492 | 39° | 15km/h | 19972m | -24.2m/s | -55°C | 4% | 0hPa | 2.7V | 08:23:20 | 02:37:15 | 00:00:00 | |
| DO3MHA-12 | 2026-08-31 12:13:48 | 44.86129 | 8.92487 | 24° | 13km/h | 20020m | -23.7m/s | -54.9°C | 4.0% | 0hPa | 2.7V | 08:23:00 | 02:37:13 | 00:00:00 | |
| DB0UT-7 | 2026-08-31 12:13:47 | 44.86126 | 8.92485 | 32° | 15km/h | 20042m | -23.3m/s | -54.8°C | 4.0% | 0hPa | 2.7V | 00:00:00 | 02:37:12 | 00:00:00 | |
| IW2NTF | 2026-08-31 12:13:44 | 44.86105 | 8.92460 | 45° | 11km/h | 20238m | -21.7m/s | -55.1°C | 4.2% | 0hPa | 2.7V | 08:23:32 | 02:37:03 | 00:00:00 | |
| DO3MHA-12 | 2026-08-31 12:13:38 | 44.86105 | 8.92460 | 46° | 9km/h | 20238m | -21.7m/s | -55.1°C | 4.2% | 0hPa | 2.6V | 00:00:00 | 02:37:03 | 00:00:00 | |
| IW2NTF | 2026-08-31 12:13:33 | 44.86085 | 8.92468 | 318° | 16km/h | 20462m | -25.1m/s | -54.4°C | 4% | 0hPa | 2.6V | 08:23:42 | 02:36:53 | 00:00:00 | |
| DO3MHA-12 | 2026-08-31 12:13:28 | 44.86085 | 8.92468 | 319° | 22km/h | 20462m | -25.1m/s | -54.4°C | 4.0% | 0hPa | 2.7V | 00:00:00 | 02:36:53 | 00:00:00 | |
| IW2NTF | 2026-08-31 12:13:22 | 44.86042 | 8.92510 | 336° | 22km/h | 20688m | -23.9m/s | -54.7°C | 4.2% | 0hPa | 2.7V | 08:23:52 | 02:36:43 | 00:00:00 | |
| DB0UT-7 | 2026-08-31 12:13:18 | 44.86037 | 8.92512 | 340° | 16km/h | 20712m | -24.8m/s | -54.6°C | 4.2% | 0hPa | 2.6V | 00:00:00 | 00:00:00 | 00:00:00 | |
| DO3MHA-12 | 2026-08-31 12:13:16 | 44.86031 | 8.92514 | 355° | 27km/h | 20736m | -25.8m/s | -54.3°C | 4.1% | 0hPa | 2.6V | 00:00:00 | 02:36:41 | 00:00:00 | |
| IW2NTF | 2026-08-31 12:13:07 | 44.85954 | 8.92475 | 41° | 13km/h | 21066m | -24.1m/s | -53.9°C | 3.9% | 0hPa | 2.6V | 08:24:08 | 02:36:27 | 00:00:00 | |
| DO3MHA-12 | 2026-08-31 12:13:06 | 44.85969 | 8.92487 | 34° | 13km/h | 20974m | -24.5m/s | -54.4°C | 4.1% | 0hPa | 2.7V | 00:00:00 | 02:36:31 | 00:00:00 | |
| IW2NTF | 2026-08-31 12:12:58 | 44.85942 | 8.92469 | 291° | 11km/h | 21297m | -23m/s | -53.6°C | 3.9% | 0hPa | 2.7V | 08:24:18 | 02:36:17 | 00:00:00 | |
| DO3MHA-12 | 2026-08-31 12:12:56 | 44.85944 | 8.92464 | 53° | 11km/h | 21204m | -22.5m/s | -53.8°C | 3.9% | 0hPa | 2.6V | 00:00:00 | 02:36:21 | 00:00:00 | |
| IW2NTF | 2026-08-31 12:12:47 | 44.85910 | 8.92518 | 338° | 29km/h | 21522m | -23.7m/s | -53.7°C | 3.9% | 0hPa | 2.6V | 08:24:28 | 02:36:07 | 00:00:00 | |
| DB0UT-7 | 2026-08-31 12:12:47 | 44.85934 | 8.92495 | 304° | 26km/h | 21404m | -19.7m/s | -53.7°C | 4.0% | 0hPa | 2.7V | 00:00:00 | 02:36:12 | 00:00:00 | |
| DO3MHA-12 | 2026-08-31 12:12:46 | 44.85931 | 8.92500 | 316° | 26km/h | 21425m | -22.3m/s | -53.7°C | 3.9% | 0hPa | 2.7V | 00:00:00 | 02:36:11 | 00:00:00 | |
| IW2NTF | 2026-08-31 12:12:37 | 44.85851 | 8.92556 | 332° | 26km/h | 21757m | -23.9m/s | -52.9°C | 3.7% | 0hPa | 2.7V | 08:24:38 | 02:35:57 | 00:00:00 | |
| DO3MHA-12 | 2026-08-31 12:12:36 | 44.85874 | 8.92540 | 331° | 26km/h | 21664m | -21.7m/s | -53.3°C | 3.9% | 0hPa | 2.7V | 00:00:00 | 02:36:01 | 00:00:00 | |
| IW2NTF | 2026-08-31 12:12:28 | 44.85789 | 8.92571 | 9° | 29km/h | 21982m | -23.6m/s | -52.7°C | 3.7% | 0hPa | 2.7V | 08:24:48 | 02:35:47 | 00:00:00 | |
| DO3MHA-12 | 2026-08-31 12:12:26 | 44.85816 | 8.92571 | 353° | 26km/h | 21895m | -24.2m/s | -52.5°C | 3.7% | 0hPa | 2.6V | 00:00:00 | 02:35:51 | 00:00:00 | |
| DB0UT-7 | 2026-08-31 12:12:17 | 44.85754 | 8.92557 | 19° | 20km/h | 22108m | -26.5m/s | -52.7°C | 3.7% | 0hPa | 2.6V | 00:00:00 | 00:00:00 | 00:00:00 | |
| IW2NTF | 2026-08-31 12:12:16 | 44.85724 | 8.92532 | 47° | 27km/h | 22233m | -22.2m/s | -52.7°C | 3.7% | 0hPa | 2.6V | 08:24:58 | 02:35:37 | 00:00:00 | |
| IW2NTF | 2026-08-31 12:12:07 | 44.85708 | 8.92449 | 95° | 20km/h | 22448m | -22.8m/s | -52.3°C | 3.5% | 0hPa | 2.6V | 08:25:08 | 02:35:27 | 00:00:00 | |
| DO3MHA-12 | 2026-08-31 12:12:03 | 44.85707 | 8.92457 | 97° | 20km/h | 22426m | -22.5m/s | -52.2°C | 3.5% | 0hPa | 2.7V | 08:25:00 | 02:35:28 | 00:00:00 | |
| IW2NTF | 2026-08-31 12:11:57 | 44.85706 | 8.92384 | 90° | 18km/h | 22697m | -25.4m/s | -52.5°C | 3.5% | 0hPa | 2.7V | 08:25:18 | 02:35:17 | 00:00:00 | |
| DO3MHA-12 | 2026-08-31 12:11:53 | 44.85706 | 8.92390 | 87° | 13km/h | 22672m | -26.5m/s | -52.4°C | 3.5% | 0hPa | 2.6V | 00:00:00 | 02:35:18 | 00:00:00 | |
| IW2NTF | 2026-08-31 12:11:47 | 44.85718 | 8.92349 | 193° | 5km/h | 22959m | -28.4m/s | -53.8°C | 3.9% | 0hPa | 2.6V | 08:25:28 | 02:35:07 | 00:00:00 | |
| DB0UT-7 | 2026-08-31 12:11:45 | 44.85713 | 8.92352 | 137° | 9km/h | 22876m | -27.4m/s | -53.7°C | 3.9% | 0hPa | 2.7V | 00:00:00 | 02:35:10 | 00:00:00 | |
| DO3MHA-12 | 2026-08-31 12:11:43 | 44.85716 | 8.92349 | 149° | 9km/h | 22931m | -28.7m/s | -53.8°C | 4.0% | 0hPa | 2.7V | 00:00:00 | 02:35:08 | 00:00:00 | |
| IW2NTF | 2026-08-31 12:11:38 | 44.85725 | 8.92381 | 268° | 13km/h | 23224m | -23.1m/s | -53.4°C | 3.8% | 0hPa | 2.7V | 08:25:38 | 02:34:57 | 00:00:00 | |
| DO3MHA-12 | 2026-08-31 12:11:33 | 44.85725 | 8.92375 | 265° | 11km/h | 23201m | -24.3m/s | -53.3°C | 3.8% | 0hPa | 2.7V | 00:00:00 | 02:34:58 | 00:00:00 | |
| IW2NTF | 2026-08-31 12:11:27 | 44.85710 | 8.92413 | 320° | 11km/h | 23471m | -26.7m/s | -53.2°C | 3.7% | 0hPa | 2.7V | 08:25:48 | 02:34:47 | 00:00:00 | |
| OE5DXL-15 | 2026-08-31 12:11:26 | 44.85717 | 8.92405 | 318° | 13km/h | 23398m | -25.6m/s | -53.1°C | 3.7% | 0hPa | 2.6V | 00:00:00 | 00:00:00 | 00:00:00 | |
| DO3MHA-12 | 2026-08-31 12:11:23 | 44.85712 | 8.92410 | 322° | 7km/h | 23446m | -24.5m/s | -53.2°C | 3.7% | 0hPa | 2.6V | 00:00:00 | 02:34:48 | 00:00:00 | |
| IW2NTF | 2026-08-31 12:11:17 | 44.85702 | 8.92421 | 136° | 4km/h | 23728m | -21.8m/s | -53.5°C | 3.9% | 0hPa | 2.6V | 08:25:58 | 02:34:37 | 00:00:00 | |
| DB0UT-7 | 2026-08-31 12:11:15 | 44.85699 | 8.92422 | 144° | 15km/h | 23657m | -25.8m/s | -53.3°C | 3.8% | 0hPa | 2.6V | 00:00:00 | 00:00:00 | 00:00:00 | |
| DO3MHA-12 | 2026-08-31 12:11:13 | 44.85701 | 8.92422 | 160° | 13km/h | 23706m | -23.6m/s | -53.4°C | 3.8% | 0hPa | 2.6V | 00:00:00 | 02:34:38 | 00:00:00 | |
| IW2NTF | 2026-08-31 12:11:06 | 44.85689 | 8.92443 | 320° | 20km/h | 23983m | -26.5m/s | -53.5°C | 4.1% | 0hPa | 2.6V | 08:26:08 | 02:34:27 | 00:00:00 | |
| DO3MHA-12 | 2026-08-31 12:11:00 | 44.85681 | 8.92452 | 324° | 20km/h | 24034m | -24.2m/s | -53.4°C | 4.1% | 0hPa | 2.6V | 00:00:00 | 02:34:25 | 00:00:00 | |
| OE5DXL-15 | 2026-08-31 12:10:57 | 44.85665 | 8.92467 | 336° | 18km/h | 24139m | -28.1m/s | -53.2°C | 4.1% | 0hPa | 2.7V | 00:00:00 | 00:00:00 | 00:00:00 | |
| IW2NTF | 2026-08-31 12:10:55 | 44.85646 | 8.92479 | 338° | 22km/h | 24245m | -28.3m/s | -52.7°C | 4% | 0hPa | 2.7V | 08:26:18 | 02:34:17 | 00:00:00 | |
| DO3MHA-12 | 2026-08-31 12:10:50 | 44.85635 | 8.92484 | 341° | 22km/h | 24298m | -25.2m/s | -52.4°C | 4.0% | 0hPa | 2.7V | 00:00:00 | 02:34:15 | 00:00:00 | |
| IW2NTF | 2026-08-31 12:10:45 | 44.85592 | 8.92487 | 23° | 24km/h | 24521m | -31.6m/s | -51.2°C | 3.5% | 0hPa | 2.7V | 08:26:28 | 02:34:07 | 00:00:00 | |
| DB0UT-7 | 2026-08-31 12:10:45 | 44.85608 | 8.92492 | 10° | 16km/h | 24431m | -29.4m/s | -51.5°C | 3.6% | 0hPa | 2.7V | 00:00:00 | 02:34:10 | 00:00:00 | |
| DO3MHA-12 | 2026-08-31 12:10:41 | 44.85580 | 8.92480 | 24° | 13km/h | 24584m | -31.4m/s | -51.0°C | 3.4% | 0hPa | 2.7V | 00:00:00 | 02:34:05 | 00:00:00 | |
| IW2NTF | 2026-08-31 12:10:35 | 44.85559 | 8.92461 | 206° | 2km/h | 24817m | -29.3m/s | -50.5°C | 3.3% | 0hPa | 2.7V | 08:26:38 | 02:33:57 | 00:00:00 | |
| DO3MHA-12 | 2026-08-31 12:10:30 | 44.85562 | 8.92461 | 211° | 13km/h | 24876m | -30.4m/s | -50.6°C | 3.3% | 0hPa | 2.6V | 08:26:00 | 02:33:55 | 00:00:00 | |
| OE5DXL-15 | 2026-08-31 12:10:27 | 44.85567 | 8.92472 | 259° | 9km/h | 25002m | -34.9m/s | -51.0°C | 3.5% | 0hPa | 2.6V | 08:26:00 | 00:00:00 | 00:00:00 | |
| IW2NTF | 2026-08-31 12:10:25 | 44.85564 | 8.92492 | 304° | 16km/h | 25136m | -32.7m/s | -51°C | 3.5% | 0hPa | 2.7V | 08:26:48 | 02:33:47 | 00:00:00 | |
| DO3MHA-12 | 2026-08-31 12:10:20 | 44.85558 | 8.92501 | 324° | 11km/h | 25198m | -31.7m/s | -51.0°C | 3.4% | 0hPa | 2.6V | 00:00:00 | 02:33:45 | 00:00:00 | |
| DB0UT-7 | 2026-08-31 12:10:15 | 44.85544 | 8.92512 | 7° | 9km/h | 25350m | -29.7m/s | -51.4°C | 3.6% | 0hPa | 2.6V | 08:26:00 | 00:00:00 | 00:00:00 | |
| AUTORXJP | 2026-08-31 12:10:14 | 44.85540 | 8.92514 | 284° | 2km/h | 25472m | -32.7m/s | -51.3°C | 0.8% | -1.0hPa | 2.7V | 00:00:00 | 00:00:00 | 00:00:00 | |
| DO3MHA-12 | 2026-08-31 12:10:10 | 44.85540 | 8.92515 | 240° | 9km/h | 25504m | -32.1m/s | -51.2°C | 3.6% | 0hPa | 2.7V | 00:00:00 | 02:33:35 | 00:00:00 | |
| IW2NTF | 2026-08-31 12:10:05 | 44.85538 | 8.92531 | 306° | 9km/h | 25692m | -31.6m/s | -50.8°C | 3.6% | 0hPa | 2.7V | 08:27:06 | 02:33:29 | 00:00:00 | |
| DO3MHA-12 | 2026-08-31 12:10:00 | 44.85528 | 8.92537 | 357° | 11km/h | 25814m | -31.7m/s | -50.6°C | 3.6% | 0hPa | 2.6V | 00:00:00 | 02:33:25 | 00:00:00 | |
| IW2NTF | 2026-08-31 12:09:55 | 44.85511 | 8.92526 | 65° | 9km/h | 26000m | -30.3m/s | -50.2°C | 3.5% | 0hPa | 2.7V | 08:27:16 | 02:33:19 | 00:00:00 | |
| OE5DXL-15 | 2026-08-31 12:09:53 | 44.85511 | 8.92519 | 107° | 11km/h | 26063m | -31.9m/s | -49.9°C | 3.5% | 0hPa | 2.7V | 00:00:00 | 00:00:00 | 00:00:00 | |
| DO3MHA-12 | 2026-08-31 12:09:50 | 44.85512 | 8.92514 | 131° | 9km/h | 26126m | -33.6m/s | -49.4°C | 3.3% | 0hPa | 2.7V | 00:00:00 | 02:33:15 | 00:00:00 | |
| IN3HCDX | 2026-08-31 12:09:47 | 44.85516 | 8.92510 | 147° | 7km/h | 26198m | -39.7m/s | -48.8°C | 0.7% | 0hPa | 2.7V | 08:27:00 | 00:00:00 | 00:00:00 | |
| IW2NTF | 2026-08-31 12:09:45 | 44.85524 | 8.92510 | 191° | 7km/h | 26351m | -39.3m/s | -48.3°C | 3% | 0hPa | 2.7V | 08:27:26 | 02:33:09 | 00:00:00 | |
| AUTORXJP | 2026-08-31 12:09:43 | 44.85527 | 8.92514 | 240° | 9km/h | 26428m | -38.6m/s | -48.5°C | 0.6% | -1.0hPa | 2.7V | 00:00:00 | 00:00:00 | 00:00:00 | |
| DO3MHA-12 | 2026-08-31 12:09:40 | 44.85528 | 8.92520 | 261° | 15km/h | 26501m | -35.6m/s | -48.6°C | 3.2% | 0hPa | 2.7V | 00:00:00 | 02:33:05 | 00:00:00 | |
| IW2NTF | 2026-08-31 12:09:39 | 44.85518 | 8.92544 | 322° | 16km/h | 26722m | -36.1m/s | -48.9°C | 3.2% | 0hPa | 2.7V | 08:27:36 | 02:32:59 | 00:00:00 | |
| DO3MHA-12 | 2026-08-31 12:09:30 | 44.85504 | 8.92552 | 355° | 16km/h | 26861m | -38.0m/s | -48.1°C | 3.1% | 0hPa | 2.6V | 00:00:00 | 02:32:55 | 00:00:00 | |
| IW2NTF | 2026-08-31 12:09:25 | 44.85480 | 8.92546 | 18° | 20km/h | 27070m | -32.3m/s | -47.4°C | 2.9% | 0hPa | 2.7V | 08:27:46 | 02:32:49 | 00:00:00 | |
| IN3HCDX | 2026-08-31 12:09:24 | 44.85485 | 8.92547 | 9° | 18km/h | 27036m | -35.7m/s | -47.2°C | 0.6% | 0hPa | 2.7V | 08:28:00 | 00:00:00 | 00:00:00 | |
| OE5DXL-15 | 2026-08-31 12:09:22 | 44.85467 | 8.92540 | 23° | 18km/h | 27169m | -34.7m/s | -47.3°C | 2.9% | 0hPa | 2.7V | 00:00:00 | 00:00:00 | 00:00:00 | |
| DO3MHA-12 | 2026-08-31 12:09:20 | 44.85462 | 8.92537 | 23° | 15km/h | 27202m | -33.0m/s | -47.4°C | 2.9% | 0hPa | 2.7V | 00:00:00 | 02:32:45 | 00:00:00 | |
| IW2NTF | 2026-08-31 12:09:16 | 44.85443 | 8.92518 | 30° | 15km/h | 27411m | -38.3m/s | -47.6°C | 2.9% | 0hPa | 2.7V | 08:27:56 | 02:32:39 | 00:00:00 | |
| AUTORXJP | 2026-08-31 12:09:12 | 44.85433 | 8.92514 | 355° | 15km/h | 27523m | -37.9m/s | -47.7°C | 0.6% | -1.0hPa | 2.7V | 00:00:00 | 00:00:00 | 00:00:00 | |
| DO3MHA-12 | 2026-08-31 12:09:10 | 44.85429 | 8.92515 | 360° | 22km/h | 27558m | -35.7m/s | -47.7°C | 3.0% | 0hPa | 2.7V | 00:00:00 | 02:32:35 | 00:00:00 | |
| IW2NTF | 2026-08-31 12:09:06 | 44.85400 | 8.92525 | 345° | 22km/h | 27763m | -34.4m/s | -47.9°C | 3.1% | 0hPa | 2.7V | 08:28:06 | 02:32:29 | 00:00:00 | |
| IN3HCDX | 2026-08-31 12:09:04 | 44.85399 | 8.92525 | 346° | 22km/h | 27764m | -34.4m/s | -47.9°C | 0.6% | 0hPa | 2.6V | 08:28:00 | 00:00:00 | 00:00:00 | |
| DO3MHA-12 | 2026-08-31 12:09:00 | 44.85375 | 8.92529 | 352° | 24km/h | 27903m | -35.4m/s | -47.4°C | 3.0% | 0hPa | 2.6V | 08:28:00 | 02:32:25 | 00:00:00 | |
| IW2NTF | 2026-08-31 12:08:59 | 44.85340 | 8.92532 | 6° | 22km/h | 28114m | -34.1m/s | -47°C | 3% | 0hPa | 2.7V | 08:28:16 | 02:32:19 | 00:00:00 | |
| OE5DXL-15 | 2026-08-31 12:08:53 | 44.85329 | 8.92530 | 9° | 18km/h | 28184m | -36.7m/s | -46.9°C | 3.0% | 0hPa | 2.7V | 00:00:00 | 00:00:00 | 00:00:00 | |
| DO3MHA-12 | 2026-08-31 12:08:50 | 44.85318 | 8.92528 | 8° | 22km/h | 28256m | -37.7m/s | -47.1°C | 3.1% | 0hPa | 2.7V | 00:00:00 | 02:32:15 | 00:00:00 | |
| IW2NTF | 2026-08-31 12:08:49 | 44.85288 | 8.92527 | 7° | 24km/h | 28472m | -38m/s | -46.6°C | 3% | 0hPa | 2.7V | 08:28:26 | 02:32:09 | 00:00:00 | |
| IN3HCDX | 2026-08-31 12:08:42 | 44.85283 | 8.92526 | 14° | 22km/h | 28509m | -35.6m/s | -46.4°C | 0.6% | 0hPa | 2.7V | 00:00:00 | 00:00:00 | 00:00:00 | |
| DO3MHA-12 | 2026-08-31 12:08:40 | 44.85266 | 8.92513 | 40° | 20km/h | 28616m | -37.2m/s | -45.8°C | 2.9% | 0hPa | 2.7V | 00:00:00 | 02:32:05 | 00:00:00 | |
| IW2NTF | 2026-08-31 12:08:39 | 44.85238 | 8.92478 | 53° | 16km/h | 28809m | -28.8m/s | -45.3°C | 2.8% | 0hPa | 2.7V | 08:30:00 | 02:31:59 | 00:00:00 | |
| DO3MHA-12 | 2026-08-31 12:08:30 | 44.85232 | 8.92462 | 51° | 16km/h | 28918m | -34.3m/s | -44.2°C | 2.5% | 0hPa | 2.6V | 00:00:00 | 02:31:55 | 00:00:00 | |
| IW2NTF | 2026-08-31 12:08:29 | 44.85218 | 8.92432 | 55° | 18km/h | 29115m | -31.6m/s | -43.4°C | 2.3% | 0hPa | 2.7V | 08:30:00 | 02:31:49 | 00:00:00 | |
| IN3HCDX | 2026-08-31 12:08:22 | 44.85216 | 8.92426 | 54° | 18km/h | 29145m | -28.8m/s | -43.6°C | 0.5% | 0hPa | 2.7V | 00:00:00 | 00:00:00 | 00:00:00 | |
| DO3MHA-12 | 2026-08-31 12:08:20 | 44.85207 | 8.92413 | 32° | 11km/h | 29221m | -27.1m/s | -43.7°C | 2.3% | 0hPa | 2.7V | 00:00:00 | 02:31:45 | 00:00:00 | |
| IW2NTF | 2026-08-31 12:08:19 | 44.85189 | 8.92413 | 350° | 9km/h | 29394m | -31m/s | -44.6°C | 2.5% | 0hPa | 2.7V | 08:30:00 | 02:31:39 | 00:00:00 | |
| OE5DXL-15 | 2026-08-31 12:08:16 | 44.85192 | 8.92412 | 340° | 24km/h | 29365m | -29.9m/s | -44.4°C | 2.5% | 0hPa | 2.6V | 00:00:00 | 00:00:00 | 00:00:00 | |
| DO3MHA-12 | 2026-08-31 12:08:10 | 44.85181 | 8.92410 | 42° | 18km/h | 29524m | -33.7m/s | -44.8°C | 2.6% | 0hPa | 2.6V | 00:00:00 | 02:31:35 | 00:00:00 | |
| AUTORXJP | 2026-08-31 12:08:09 | 44.85179 | 8.92407 | 39° | 9km/h | 29556m | -32.2m/s | -44.9°C | 0.5% | -1.0hPa | 2.6V | 00:00:00 | 00:00:00 | 00:00:00 | |
| DL1ZP-14 | 2026-08-31 12:08:05 | 44.85173 | 8.92286 | 114° | 42km/h | 30039m | -32.8m/s | -45.2°C | 0.6% | -1.0hPa | 2.6V | 00:00:00 | 00:00:00 | 00:00:00 | |
| IW2NTF | 2026-08-31 12:08:02 | 44.85164 | 8.92325 | 103° | 35km/h | 29937m | -35.5m/s | -45.5°C | 2.8% | 0hPa | 2.7V | 08:30:00 | 02:31:23 | 00:00:00 | |
| IN3HCDX | 2026-08-31 12:08:01 | 44.85164 | 8.92367 | 75° | 26km/h | 29798m | -36.0m/s | -45.6°C | 0.6% | 0hPa | 2.6V | 00:00:00 | 00:00:00 | 00:00:00 | |
| DO3MHA-12 | 2026-08-31 12:08:00 | 44.85162 | 8.92348 | 86° | 37km/h | 29866m | -33.9m/s | -45.5°C | 2.8% | 0hPa | 2.6V | 00:00:00 | 02:31:25 | 00:00:00 | |
| IW2NTF | 2026-08-31 12:07:52 | 44.85202 | 8.92222 | 123° | 9km/h | 30230m | -24.3m/s | -44.7°C | 2.8% | 0hPa | 2.7V | 08:30:00 | 02:31:13 | 00:00:00 | |
| DO3MHA-12 | 2026-08-31 12:07:50 | 44.85197 | 8.92231 | 124° | 7km/h | 30179m | -26.8m/s | -44.7°C | 2.8% | 0hPa | 2.7V | 00:00:00 | 02:31:15 | 00:00:00 | |
| OE5DXL-15 | 2026-08-31 12:07:45 | 44.85203 | 8.92218 | 33° | 20km/h | 30347m | -26.5m/s | -44.3°C | 2.9% | 0hPa | 2.7V | 00:00:00 | 00:00:00 | 00:00:00 | |
| IW2NTF | 2026-08-31 12:07:42 | 44.85200 | 8.92218 | 297° | 2km/h | 30488m | -29.1m/s | -43.4°C | 2.7% | 0hPa | 2.7V | 08:30:00 | 02:31:03 | 00:00:00 | |
| DB0UT-7 | 2026-08-31 12:07:40 | 44.85200 | 8.92217 | 336° | 18km/h | 30432m | -27.8m/s | -43.9°C | 2.8% | 0hPa | 2.7V | 00:00:00 | 02:31:05 | 00:00:00 | |
| AUTORXJP | 2026-08-31 12:07:38 | 44.85200 | 8.92218 | 297° | 2km/h | 30488m | -29.1m/s | -43.4°C | 0.5% | -1.0hPa | 2.7V | 00:00:00 | 00:00:00 | 00:00:00 | |
| DL1ZP-14 | 2026-08-31 12:07:34 | 44.85188 | 8.92205 | 52° | 22km/h | 30685m | -40.5m/s | -42.0°C | 0.4% | -1.0hPa | 2.7V | 00:00:00 | 00:00:00 | 00:00:00 | |
| DO3MHA-12 | 2026-08-31 12:07:30 | 44.85179 | 8.92182 | 73° | 22km/h | 30802m | -38.6m/s | -41.4°C | 2.4% | 0hPa | 2.6V | 00:00:00 | 02:30:55 | 08:30:00 | |
| IW2NTF | 2026-08-31 12:07:27 | 44.85184 | 8.92122 | 122° | 22km/h | 31089m | -37.2m/s | -39.9°C | 2.1% | 0hPa | 2.7V | 08:30:00 | 02:30:47 | 00:00:00 | |
| DO3MHA-12 | 2026-08-31 12:07:20 | 44.85192 | 8.92110 | 140° | 16km/h | 31161m | -33.7m/s | -39.8°C | 2.1% | 0hPa | 2.7V | 00:00:00 | 02:30:45 | 00:00:00 | |
| IW2NTF | 2026-08-31 12:07:17 | 44.85233 | 8.92095 | 182° | 11km/h | 31411m | -31.4m/s | -40.4°C | 2.2% | 0hPa | 2.7V | 08:30:00 | 02:30:37 | 00:00:00 | |
| DB0UT-7 | 2026-08-31 12:07:10 | 44.85238 | 8.92095 | 176° | 22km/h | 31467m | -26.0m/s | -40.2°C | 2.1% | 0hPa | 2.6V | 00:00:00 | 00:00:00 | 00:00:00 | |
| IW2NTF | 2026-08-31 12:07:07 | 44.85242 | 8.92122 | 267° | 20km/h | 31684m | -27.4m/s | -40°C | 2.2% | 0hPa | 2.7V | 08:30:00 | 02:30:27 | 00:00:00 | |
| AUTORXJP | 2026-08-31 12:07:07 | 44.85240 | 8.92097 | 268° | 5km/h | 31550m | -28.3m/s | -40.2°C | 0.4% | -1.0hPa | 2.7V | 00:00:00 | 00:00:00 | 00:00:00 | |
| DL1ZP-14 | 2026-08-31 12:07:03 | 44.85242 | 8.92122 | 267° | 20km/h | 31684m | -27.5m/s | -40.1°C | 0.4% | -1.0hPa | 2.7V | 00:00:00 | 00:00:00 | 00:00:00 | |
| IW2NTF | 2026-08-31 12:06:58 | 44.85180 | 8.92102 | 96° | 15km/h | 31932m | -30.5m/s | -39.6°C | 2% | 0hPa | 2.7V | 08:30:00 | 02:30:17 | 00:00:00 | |
| IW2NTF | 2026-08-31 12:06:47 | 44.85216 | 8.92098 | 339° | 5km/h | 32219m | -21.8m/s | -39°C | 2% | 0hPa | 2.7V | 08:30:00 | 02:30:07 | 00:00:00 | |
| DB0UT-7 | 2026-08-31 12:06:40 | 44.85214 | 8.92099 | 322° | 13km/h | 32244m | -2.1m/s | -38.8°C | 2.0% | 0hPa | 2.7V | 00:00:00 | 02:30:05 | 00:00:00 | |
| OE5DXL-15 | 2026-08-31 12:06:39 | 44.85210 | 8.92106 | 323° | 13km/h | 32239m | 5.0m/s | -39.0°C | 2.0% | 0hPa | 2.7V | 00:00:00 | 00:00:00 | 00:00:00 | |
| IW2NTF | 2026-08-31 12:06:37 | 44.85210 | 8.92122 | 166° | 11km/h | 32208m | 5.7m/s | -39.1°C | 2% | 0hPa | 2.7V | 08:30:00 | 02:29:57 | 00:00:00 | |
| AUTORXJP | 2026-08-31 12:06:36 | 44.85207 | 8.92111 | 296° | 11km/h | 32228m | 6.3m/s | -39.0°C | 0.4% | -1.0hPa | 2.6V | 00:00:00 | 00:00:00 | 00:00:00 | |
| DL1ZP-14 | 2026-08-31 12:06:31 | 44.85213 | 8.92120 | 142° | 16km/h | 32202m | 6.6m/s | -39.1°C | 0.4% | -1.0hPa | 2.6V | 00:00:00 | 00:00:00 | 00:00:00 | |
| IW2NTF | 2026-08-31 12:06:27 | 44.85231 | 8.92103 | 277° | 7km/h | 32154m | 5.1m/s | -39.5°C | 2.1% | 0hPa | 2.7V | 08:30:00 | 02:29:47 | 00:00:00 | |
| IW2NTF | 2026-08-31 12:06:12 | 44.85252 | 8.92069 | 146° | 15km/h | 32101m | 5m/s | -39.9°C | 2.2% | 0hPa | 2.7V | 08:30:00 | 02:29:37 | 00:00:00 | |
| DB0UT-7 | 2026-08-31 12:06:10 | 44.85258 | 8.92062 | 138° | 11km/h | 32090m | 5.7m/s | -39.9°C | 2.2% | 0hPa | 2.7V | 00:00:00 | 00:00:00 | 00:00:00 | |
| IW2NTF | 2026-08-31 12:06:07 | 44.85265 | 8.92053 | 47° | 4km/h | 32048m | 4.6m/s | -39.9°C | 2.2% | 0hPa | 2.7V | 08:30:00 | 02:29:27 | 00:00:00 | |
| AUTORXJP | 2026-08-31 12:06:05 | 44.85266 | 8.92051 | 253° | 2km/h | 32064m | 6.4m/s | -40.0°C | 0.4% | -1.0hPa | 2.7V | 00:00:00 | 00:00:00 | 00:00:00 | |
| DL1ZP-14 | 2026-08-31 12:06:00 | 44.85262 | 8.92019 | 86° | 24km/h | 32020m | 4.5m/s | -39.7°C | 0.4% | -1.0hPa | 2.7V | 00:00:00 | 00:00:00 | 00:00:00 | |
| IW2NTF | 2026-08-31 12:05:52 | 44.85255 | 8.92014 | 310° | 11km/h | 31987m | 5.3m/s | -39.4°C | 2.2% | 0hPa | 2.6V | 08:30:00 | 02:29:16 | 00:00:00 | |
| IW2NTF | 2026-08-31 12:05:42 | 44.85252 | 8.91992 | 24° | 4km/h | 31931m | 5.6m/s | -39.1°C | 2.1% | 0hPa | 2.6V | 08:30:00 | 02:29:06 | 00:00:00 | |
| DB0UT-7 | 2026-08-31 12:05:40 | 44.85251 | 8.91991 | 17° | 9km/h | 31926m | 6.1m/s | -38.9°C | 2.0% | 0hPa | 2.6V | 00:00:00 | 02:29:05 | 08:30:00 | |
| OE5DXL-15 | 2026-08-31 12:05:37 | 44.85238 | 8.91995 | 309° | 11km/h | 31897m | 6.0m/s | -38.9°C | 2.0% | 0hPa | 2.6V | 00:00:00 | 00:00:00 | 08:30:00 | |
| AUTORXJP | 2026-08-31 12:05:34 | 44.85237 | 8.91998 | 293° | 7km/h | 31892m | 5.2m/s | -39.0°C | 0.4% | -1.0hPa | 2.6V | 00:00:00 | 00:00:00 | 00:00:00 | |
| IW2NTF | 2026-08-31 12:05:32 | 44.85237 | 8.91999 | 97° | 7km/h | 31874m | 6.4m/s | -39°C | 2% | 0hPa | 2.6V | 08:30:00 | 02:28:56 | 00:00:00 | |
| DL1ZP-14 | 2026-08-31 12:05:29 | 44.85237 | 8.91991 | 86° | 13km/h | 31864m | 4.6m/s | -39.2°C | 0.4% | -1.0hPa | 2.7V | 00:00:00 | 00:00:00 | 00:00:00 | |
| IW2NTF | 2026-08-31 12:05:22 | 44.85223 | 8.92007 | 328° | 7km/h | 31813m | 5m/s | -39.5°C | 2.1% | 0hPa | 2.6V | 08:30:00 | 02:28:45 | 00:00:00 | |
| DO3MHA-12 | 2026-08-31 12:05:16 | 44.85222 | 8.92008 | 205° | 16km/h | 31791m | 6.4m/s | -39.5°C | 2.1% | 0hPa | 2.7V | 00:00:00 | 02:28:41 | 00:00:00 | |
| IW2NTF | 2026-08-31 12:05:12 | 44.85220 | 8.92013 | 7° | 16km/h | 31758m | 5.7m/s | -39.6°C | 2.1% | 0hPa | 2.7V | 08:30:00 | 02:28:35 | 00:00:00 | |
| DB0UT-7 | 2026-08-31 12:05:10 | 44.85220 | 8.92013 | 8° | 15km/h | 31758m | 5.6m/s | -39.6°C | 2.1% | 0hPa | 2.7V | 00:00:00 | 00:00:00 | 00:00:00 | |
| OE5DXL-15 | 2026-08-31 12:05:06 | 44.85192 | 8.92034 | 298° | 9km/h | 31726m | 4.3m/s | -39.6°C | 2.1% | 0hPa | 2.7V | 00:00:00 | 00:00:00 | 00:00:00 | |
| AUTORXJP | 2026-08-31 12:05:03 | 44.85188 | 8.92045 | 298° | 11km/h | 31716m | 5.9m/s | -39.7°C | 0.4% | -1.0hPa | 2.7V | 00:00:00 | 00:00:00 | 00:00:00 | |
| IW2NTF | 2026-08-31 12:05:02 | 44.85186 | 8.92048 | 11° | 5km/h | 31704m | 5.5m/s | -39.6°C | 2.1% | 0hPa | 2.7V | 08:30:00 | 02:28:25 | 00:00:00 | |
| DO3MHA-12 | 2026-08-31 12:05:02 | 44.85188 | 8.92045 | 299° | 9km/h | 31716m | 5.9m/s | -39.6°C | 2.1% | 0hPa | 2.7V | 00:00:00 | 02:28:27 | 00:00:00 | |
| DL1ZP-14 | 2026-08-31 12:04:58 | 44.85182 | 8.92047 | 7° | 7km/h | 31694m | 4.4m/s | -39.7°C | 0.4% | -1.0hPa | 2.6V | 00:00:00 | 00:00:00 | 00:00:00 | |
| IW2NTF | 2026-08-31 12:04:52 | 44.85160 | 8.92085 | 315° | 9km/h | 31650m | 5.8m/s | -39.7°C | 2.1% | 0hPa | 2.7V | 08:30:00 | 02:28:15 | 00:00:00 | |
| IW2NTF | 2026-08-31 12:04:42 | 44.85166 | 8.92115 | 268° | 9km/h | 31596m | 5.9m/s | -40°C | 2.1% | 0hPa | 2.7V | 08:30:00 | 02:28:05 | 00:00:00 | |
| DB0UT-7 | 2026-08-31 12:04:40 | 44.85166 | 8.92115 | 269° | 16km/h | 31597m | 5.9m/s | -39.9°C | 2.1% | 0hPa | 2.6V | 00:00:00 | 02:28:05 | 00:00:00 | |
| OE5DXL-15 | 2026-08-31 12:04:34 | 44.85165 | 8.92136 | 236° | 16km/h | 31560m | 4.7m/s | -39.8°C | 2.1% | 0hPa | 2.6V | 00:00:00 | 00:00:00 | 00:00:00 | |
| IW2NTF | 2026-08-31 12:04:32 | 44.85179 | 8.92149 | 195° | 26km/h | 31543m | 6.1m/s | -39.7°C | 2.1% | 0hPa | 2.6V | 08:30:00 | 02:27:55 | 00:00:00 | |
| AUTORXJP | 2026-08-31 12:04:32 | 44.85174 | 8.92146 | 209° | 24km/h | 31549m | 6.3m/s | -39.7°C | 0.4% | -1.0hPa | 2.7V | 00:00:00 | 00:00:00 | 00:00:00 | |
| DL1ZP-14 | 2026-08-31 12:04:27 | 44.85197 | 8.92154 | 196° | 20km/h | 31528m | 5.1m/s | -39.6°C | 0.4% | -1.0hPa | 2.7V | 00:00:00 | 00:00:00 | 00:00:00 | |
| IW2NTF | 2026-08-31 12:04:22 | 44.85208 | 8.92173 | 127° | 5km/h | 31489m | 4.6m/s | -39.9°C | 2.1% | 0hPa | 2.6V | 08:30:00 | 02:27:45 | 00:00:00 | |
| OE5DRO-10 | 2026-08-31 12:04:14 | 44.85235 | 8.92178 | 213° | 22km/h | 31460m | 4.3m/s | 0°C | 0% | 0hPa | 2.7V | 00:00:00 | 00:00:00 | 00:00:00 | |
| IW2NTF | 2026-08-31 12:04:12 | 44.85253 | 8.92190 | 148° | 11km/h | 31439m | 6.2m/s | -40.4°C | 2.2% | 0hPa | 2.7V | 08:30:00 | 02:27:35 | 00:00:00 | |
| DB0UT-7 | 2026-08-31 12:04:10 | 44.85253 | 8.92190 | 149° | 20km/h | 31440m | 6.1m/s | -40.3°C | 2.2% | 0hPa | 2.7V | 00:00:00 | 00:00:00 | 00:00:00 | |
| IW2NTF | 2026-08-31 12:04:02 | 44.85287 | 8.92173 | 165° | 29km/h | 31390m | 5.6m/s | -39.9°C | 2.3% | 0hPa | 2.7V | 08:30:00 | 02:27:25 | 00:00:00 | |
| AUTORXJP | 2026-08-31 12:04:01 | 44.85287 | 8.92173 | 165° | 29km/h | 31390m | 5.6m/s | -39.9°C | 0.4% | -1.0hPa | 2.6V | 00:00:00 | 00:00:00 | 00:00:00 | |
| DO3MHA-12 | 2026-08-31 12:04:00 | 44.85286 | 8.92173 | 166° | 27km/h | 31390m | 5.6m/s | -39.9°C | 2.3% | 0hPa | 2.6V | 00:00:00 | 02:27:25 | 00:00:00 | |
| IN3HCDX | 2026-08-31 12:03:55 | 44.85310 | 8.92153 | 142° | 24km/h | 31370m | 5.2m/s | -39.8°C | 0.4% | 0hPa | 2.6V | 00:00:00 | 00:00:00 | 00:00:00 | |
| IW2NTF | 2026-08-31 12:03:52 | 44.85339 | 8.92135 | 149° | 26km/h | 31338m | 5.9m/s | -39.7°C | 2.1% | 0hPa | 2.6V | 08:30:00 | 02:27:15 | 00:00:00 | |
| DO3MHA-12 | 2026-08-31 12:03:50 | 44.85338 | 8.92135 | 150° | 26km/h | 31338m | 5.9m/s | -39.7°C | 2.1% | 0hPa | 2.7V | 00:00:00 | 02:27:15 | 00:00:00 | |
| IW2NTF | 2026-08-31 12:03:43 | 44.85386 | 8.92091 | 132° | 20km/h | 31286m | 5m/s | -39.6°C | 2.1% | 0hPa | 2.7V | 08:30:00 | 02:27:05 | 00:00:00 | |
| DB0UT-7 | 2026-08-31 12:03:40 | 44.85386 | 8.92091 | 133° | 20km/h | 31287m | 4.9m/s | -39.6°C | 2.1% | 0hPa | 2.7V | 00:00:00 | 02:27:05 | 00:00:00 | |
| IW2NTF | 2026-08-31 12:03:32 | 44.85431 | 8.92043 | 126° | 27km/h | 31235m | 4.7m/s | -39.6°C | 2.1% | 0hPa | 2.7V | 08:30:00 | 02:26:55 | 00:00:00 | |
| OE5DXL-15 | 2026-08-31 12:03:31 | 44.85431 | 8.92043 | 127° | 22km/h | 31236m | 4.6m/s | -39.6°C | 2.1% | 0hPa | 2.6V | 00:00:00 | 00:00:00 | 00:00:00 | |
| AUTORXJP | 2026-08-31 12:03:30 | 44.85435 | 8.92036 | 124° | 22km/h | 31231m | 4.7m/s | -39.7°C | 0.4% | -1.0hPa | 2.6V | 00:00:00 | 00:00:00 | 00:00:00 | |
| IW2NTF | 2026-08-31 12:03:25 | 44.85464 | 8.91997 | 136° | 31km/h | 31185m | 4m/s | -39.8°C | 2.2% | 0hPa | 2.6V | 08:30:00 | 02:26:45 | 00:00:00 | |
| DO3MHA-12 | 2026-08-31 12:03:20 | 44.85464 | 8.91997 | 137° | 29km/h | 31186m | 4.0m/s | -39.7°C | 2.2% | 0hPa | 2.7V | 00:00:00 | 02:26:45 | 00:00:00 | |
| IN3HCDX | 2026-08-31 12:03:18 | 44.85475 | 8.91983 | 141° | 26km/h | 31176m | 5.7m/s | -39.9°C | 0.4% | 0hPa | 2.7V | 00:00:00 | 00:00:00 | 00:00:00 | |
| IW2NTF | 2026-08-31 12:03:13 | 44.85494 | 8.91937 | 107° | 27km/h | 31134m | 5m/s | -39.8°C | 2.1% | 0hPa | 2.7V | 08:30:00 | 02:26:35 | 00:00:00 | |
| DB0UT-7 | 2026-08-31 12:03:10 | 44.85494 | 8.91937 | 108° | 26km/h | 31135m | 5.0m/s | -39.8°C | 2.1% | 0hPa | 2.7V | 00:00:00 | 00:00:00 | 00:00:00 | |
| IW2NTF | 2026-08-31 12:03:05 | 44.85527 | 8.91861 | 102° | 18km/h | 31086m | 5m/s | -40.1°C | 2.1% | 0hPa | 2.7V | 08:30:00 | 02:26:25 | 00:00:00 | |
| AUTORXJP | 2026-08-31 12:02:59 | 44.85527 | 8.91851 | 68° | 11km/h | 31074m | 5.9m/s | -40.4°C | 0.4% | -1.0hPa | 2.7V | 00:00:00 | 00:00:00 | 00:00:00 | |
| DL1ZP-14 | 2026-08-31 12:02:54 | 44.85527 | 8.91830 | 107° | 26km/h | 31056m | 6.5m/s | -40.4°C | 0.4% | -1.0hPa | 2.7V | 00:00:00 | 00:00:00 | 00:00:00 | |
| IW2NTF | 2026-08-31 12:02:52 | 44.85542 | 8.91781 | 114° | 38km/h | 31035m | 4.4m/s | -40.5°C | 2.1% | 0hPa | 2.6V | 08:30:00 | 02:26:15 | 00:00:00 | |
| IN3HCDX | 2026-08-31 12:02:48 | 44.85546 | 8.91769 | 112° | 31km/h | 31031m | 5.1m/s | -40.6°C | 0.4% | 0hPa | 2.7V | 00:00:00 | 00:00:00 | 00:00:00 | |
| IW2NTF | 2026-08-31 12:02:41 | 44.85535 | 8.91696 | 84° | 33km/h | 30985m | 4.7m/s | -40.9°C | 2.2% | 0hPa | 2.7V | 08:30:00 | 02:26:05 | 00:00:00 | |
| DB0UT-7 | 2026-08-31 12:02:40 | 44.85535 | 8.91696 | 85° | 29km/h | 30986m | 4.6m/s | -40.9°C | 2.2% | 0hPa | 2.7V | 00:00:00 | 02:26:05 | 00:00:00 | |
| IW2NTF | 2026-08-31 12:02:31 | 44.85521 | 8.91598 | 64° | 33km/h | 30937m | 4.1m/s | -41.3°C | 2.2% | 0hPa | 2.7V | 08:30:00 | 02:25:55 | 00:00:00 | |
| AUTORXJP | 2026-08-31 12:02:28 | 44.85505 | 8.91571 | 35° | 35km/h | 30920m | 5.8m/s | -41.2°C | 0.5% | -1.0hPa | 2.6V | 00:00:00 | 00:00:00 | 00:00:00 | |
| OE5DXL-15 | 2026-08-31 12:02:27 | 44.85497 | 8.91564 | 34° | 22km/h | 30915m | 4.4m/s | -41.2°C | 2.2% | 0hPa | 2.6V | 00:00:00 | 00:00:00 | 00:00:00 | |
| DL1ZP-14 | 2026-08-31 12:02:23 | 44.85478 | 8.91540 | 56° | 33km/h | 30900m | 5.6m/s | -41.2°C | 0.4% | -1.0hPa | 2.7V | 00:00:00 | 00:00:00 | 00:00:00 | |
| IW2NTF | 2026-08-31 12:02:21 | 44.85469 | 8.91508 | 73° | 29km/h | 30886m | 4.5m/s | -41.3°C | 2.2% | 0hPa | 2.6V | 08:30:00 | 02:25:45 | 00:00:00 | |
| DO3MHA-12 | 2026-08-31 12:02:18 | 44.85464 | 8.91492 | 56° | 26km/h | 30876m | 5.5m/s | -41.2°C | 2.2% | 0hPa | 2.7V | 00:00:00 | 02:25:43 | 08:30:00 | |
| IW2NTF | 2026-08-31 12:02:10 | 44.85413 | 8.91439 | 44° | 18km/h | 30824m | 4.9m/s | -41.7°C | 2.3% | 0hPa | 2.7V | 08:30:00 | 02:25:33 | 00:00:00 | |
| DB0UT-7 | 2026-08-31 12:02:10 | 44.85422 | 8.91448 | 32° | 15km/h | 30834m | 5.5m/s | -41.5°C | 2.2% | 0hPa | 2.7V | 00:00:00 | 00:00:00 | 00:00:00 | |
| DO3MHA-12 | 2026-08-31 12:02:08 | 44.85413 | 8.91439 | 45° | 16km/h | 30824m | 4.8m/s | -41.7°C | 2.3% | 0hPa | 2.7V | 00:00:00 | 02:25:33 | 00:00:00 | |
| IW2NTF | 2026-08-31 12:02:00 | 44.85397 | 8.91396 | 25° | 13km/h | 30771m | 5.9m/s | -42.1°C | 2.2% | 0hPa | 2.7V | 08:30:00 | 02:25:23 | 00:00:00 | |
| AUTORXJP | 2026-08-31 12:01:56 | 44.85392 | 8.91390 | 44° | 11km/h | 30761m | 4.4m/s | -42.2°C | 0.4% | -1.0hPa | 2.7V | 00:00:00 | 00:00:00 | 00:00:00 | |
| DL1ZP-14 | 2026-08-31 12:01:52 | 44.85382 | 8.91380 | 29° | 9km/h | 30735m | 4.8m/s | -42.3°C | 0.4% | -1.0hPa | 2.7V | 00:00:00 | 00:00:00 | 00:00:00 | |
| IW2NTF | 2026-08-31 12:01:50 | 44.85374 | 8.91371 | 34° | 18km/h | 30719m | 4.5m/s | -42.2°C | 2.3% | 0hPa | 2.6V | 08:30:00 | 02:25:13 | 00:00:00 | |
| IN3HCDX | 2026-08-31 12:01:41 | 44.85348 | 8.91371 | 350° | 11km/h | 30689m | 5.5m/s | -42.4°C | 0.5% | 0hPa | 2.7V | 00:00:00 | 00:00:00 | 00:00:00 | |
| IW2NTF | 2026-08-31 12:01:40 | 44.85345 | 8.91363 | 110° | 7km/h | 30669m | 3.9m/s | -42.7°C | 2.3% | 0hPa | 2.7V | 08:30:00 | 02:25:03 | 00:00:00 | |
| DB0UT-7 | 2026-08-31 12:01:40 | 44.85345 | 8.91369 | 80° | 9km/h | 30678m | 5.1m/s | -42.5°C | 2.3% | 0hPa | 2.6V | 00:00:00 | 02:25:05 | 00:00:00 | |
| DO3MHA-12 | 2026-08-31 12:01:38 | 44.85345 | 8.91363 | 111° | 15km/h | 30669m | 3.8m/s | -42.6°C | 2.3% | 0hPa | 2.6V | 00:00:00 | 02:25:03 | 00:00:00 | |
| IW2NTF | 2026-08-31 12:01:30 | 44.85318 | 8.91358 | 48° | 16km/h | 30618m | 3.9m/s | -42.9°C | 2.4% | 0hPa | 2.6V | 08:30:00 | 02:24:53 | 00:00:00 | |
| DO3MHA-12 | 2026-08-31 12:01:28 | 44.85318 | 8.91358 | 49° | 7km/h | 30618m | 3.9m/s | -42.8°C | 2.4% | 0hPa | 2.6V | 00:00:00 | 02:24:53 | 00:00:00 | |
| OE5DXL-15 | 2026-08-31 12:01:26 | 44.85315 | 8.91352 | 57° | 11km/h | 30608m | 5.9m/s | -42.9°C | 2.4% | 0hPa | 2.6V | 00:00:00 | 00:00:00 | 00:00:00 | |
| AUTORXJP | 2026-08-31 12:01:25 | 44.85315 | 8.91352 | 246° | 2km/h | 30602m | 5.9m/s | -43.0°C | 0.5% | -1.0hPa | 2.6V | 00:00:00 | 00:00:00 | 00:00:00 | |
| DL1ZP-14 | 2026-08-31 12:01:21 | 44.85319 | 8.91361 | 99° | 4km/h | 30578m | 5.7m/s | -43.2°C | 0.5% | -1.0hPa | 2.6V | 00:00:00 | 00:00:00 | 00:00:00 | |
| IW2NTF | 2026-08-31 12:01:20 | 44.85318 | 8.91353 | 77° | 16km/h | 30567m | 4.8m/s | -43.4°C | 2.4% | 0hPa | 2.7V | 08:30:00 | 02:24:43 | 00:00:00 | |
| DO3MHA-12 | 2026-08-31 12:01:18 | 44.85318 | 8.91353 | 78° | 11km/h | 30567m | 4.8m/s | -43.4°C | 2.4% | 0hPa | 2.7V | 00:00:00 | 02:24:43 | 00:00:00 | |
| IW2NTF | 2026-08-31 12:01:10 | 44.85300 | 8.91344 | 17° | 5km/h | 30513m | 4.6m/s | -43.6°C | 2.4% | 0hPa | 2.6V | 08:30:00 | 02:24:33 | 00:00:00 | |
| DB0UT-7 | 2026-08-31 12:01:10 | 44.85303 | 8.91345 | 342° | 7km/h | 30525m | 6.0m/s | -43.4°C | 2.4% | 0hPa | 2.7V | 00:00:00 | 00:00:00 | 08:30:00 | |
| DO3MHA-12 | 2026-08-31 12:01:08 | 44.85300 | 8.91344 | 18° | 11km/h | 30514m | 4.6m/s | -43.5°C | 2.4% | 0hPa | 2.7V | 00:00:00 | 02:24:33 | 00:00:00 | |
| IN3HCDX | 2026-08-31 12:01:06 | 44.85299 | 8.91344 | 7° | 7km/h | 30509m | 4.8m/s | -43.7°C | 0.5% | 0hPa | 2.7V | 00:00:00 | 00:00:00 | 00:00:00 | |
| IW2NTF | 2026-08-31 12:01:00 | 44.85274 | 8.91361 | 349° | 11km/h | 30460m | 4.2m/s | -44.2°C | 2.6% | 0hPa | 2.7V | 08:30:00 | 02:24:23 | 00:00:00 | |
| AUTORXJP | 2026-08-31 12:00:54 | 44.85267 | 8.91372 | 279° | 9km/h | 30439m | 4.8m/s | -44.2°C | 0.6% | -1.0hPa | 2.7V | 00:00:00 | 00:00:00 | 00:00:00 | |
| IW2NTF | 2026-08-31 12:00:50 | 44.85268 | 8.91376 | 352° | 2km/h | 30405m | 6.1m/s | -44°C | 2.6% | 0hPa | 2.7V | 08:30:00 | 02:24:13 | 00:00:00 | |
| DL1ZP-14 | 2026-08-31 12:00:50 | 44.85269 | 8.91377 | 110° | 2km/h | 30411m | 5.2m/s | -44.0°C | 0.5% | -1.0hPa | 2.7V | 00:00:00 | 00:00:00 | 00:00:00 | |
| DO3MHA-12 | 2026-08-31 12:00:45 | 44.85265 | 8.91378 | 349° | 7km/h | 30390m | 5.2m/s | -44.0°C | 2.5% | 0hPa | 2.6V | 00:00:00 | 02:24:10 | 08:30:00 | |
| IN3HCDX | 2026-08-31 12:00:42 | 44.85263 | 8.91377 | 51° | 5km/h | 30378m | 5.7m/s | -44.2°C | 0.6% | 0hPa | 2.6V | 00:00:00 | 00:00:00 | 00:00:00 | |
| IW2NTF | 2026-08-31 12:00:41 | 44.85268 | 8.91379 | 225° | 13km/h | 30351m | 5m/s | -44.2°C | 2.7% | 0hPa | 2.6V | 08:30:00 | 02:24:03 | 00:00:00 | |
| DB0UT-7 | 2026-08-31 12:00:41 | 44.85264 | 8.91375 | 196° | 18km/h | 30363m | 5.7m/s | -44.3°C | 2.7% | 0hPa | 2.7V | 00:00:00 | 02:24:05 | 00:00:00 | |
| DO3MHA-12 | 2026-08-31 12:00:35 | 44.85274 | 8.91383 | 159° | 13km/h | 30338m | 6.1m/s | -44.2°C | 2.7% | 0hPa | 2.7V | 00:00:00 | 02:24:00 | 00:00:00 | |
| IW2NTF | 2026-08-31 12:00:30 | 44.85281 | 8.91345 | 116° | 5km/h | 30298m | 5.6m/s | -44.2°C | 2.6% | 0hPa | 2.7V | 08:30:00 | 02:23:53 | 00:00:00 | |
| DO3MHA-12 | 2026-08-31 12:00:25 | 44.85286 | 8.91341 | 149° | 27km/h | 30284m | 5.4m/s | -44.3°C | 2.6% | 0hPa | 2.6V | 00:00:00 | 02:23:50 | 00:00:00 | |
| AUTORXJP | 2026-08-31 12:00:23 | 44.85292 | 8.91333 | 127° | 24km/h | 30272m | 5.9m/s | -44.4°C | 0.5% | -1.0hPa | 2.6V | 00:00:00 | 00:00:00 | 00:00:00 | |
| IW2NTF | 2026-08-31 12:00:21 | 44.85313 | 8.91288 | 119° | 27km/h | 30243m | 5m/s | -44.4°C | 2.6% | 0hPa | 2.6V | 08:30:00 | 02:23:43 | 00:00:00 | |
| DO3MHA-12 | 2026-08-31 12:00:14 | 44.85321 | 8.91251 | 97° | 33km/h | 30221m | 5.8m/s | -44.5°C | 2.6% | 0hPa | 2.7V | 00:00:00 | 02:23:39 | 00:00:00 | |
| IN3HCDX | 2026-08-31 12:00:12 | 44.85323 | 8.91232 | 101° | 24km/h | 30211m | 5.4m/s | -44.6°C | 0.6% | 0hPa | 2.7V | 00:00:00 | 00:00:00 | 00:00:00 | |
| IW2NTF | 2026-08-31 12:00:10 | 44.85336 | 8.91200 | 126° | 37km/h | 30189m | 4.3m/s | -44.7°C | 2.6% | 0hPa | 2.7V | 08:30:00 | 02:23:33 | 00:00:00 | |
| DB0UT-7 | 2026-08-31 12:00:10 | 44.85327 | 8.91217 | 124° | 37km/h | 30199m | 5.0m/s | -44.7°C | 2.6% | 0hPa | 2.6V | 00:00:00 | 00:00:00 | 00:00:00 | |
| DO3MHA-12 | 2026-08-31 12:00:04 | 44.85357 | 8.91141 | 109° | 33km/h | 30168m | 3.9m/s | -44.6°C | 2.7% | 0hPa | 2.6V | 00:00:00 | 02:23:29 | 00:00:00 | |
| IW2NTF | 2026-08-31 12:00:01 | 44.85377 | 8.91078 | 123° | 22km/h | 30136m | 4.6m/s | -44.7°C | 2.7% | 0hPa | 2.6V | 08:30:00 | 02:23:23 | 00:00:00 | |
| AUTORXJP | 2026-08-31 11:59:52 | 44.85389 | 8.91005 | 100° | 44km/h | 30104m | 5.7m/s | -44.7°C | 0.5% | -1.0hPa | 2.7V | 00:00:00 | 00:00:00 | 00:00:00 | |
| IN3HCDX | 2026-08-31 11:59:51 | 44.85391 | 8.90989 | 105° | 42km/h | 30099m | 6.0m/s | -44.7°C | 0.6% | 0hPa | 2.7V | 00:00:00 | 00:00:00 | 00:00:00 | |
| IW2NTF | 2026-08-31 11:59:50 | 44.85401 | 8.90952 | 115° | 35km/h | 30082m | 5m/s | -44.8°C | 2.7% | 0hPa | 2.7V | 08:30:00 | 02:23:13 | 00:00:00 | |
| DL1ZP-14 | 2026-08-31 11:59:48 | 44.85405 | 8.90941 | 114° | 35km/h | 30077m | 5.8m/s | -44.8°C | 0.5% | -1.0hPa | 2.7V | 00:00:00 | 00:00:00 | 00:00:00 | |
| IW2NTF | 2026-08-31 11:59:40 | 44.85424 | 8.90837 | 96° | 37km/h | 30027m | 6.5m/s | -44.8°C | 2.6% | 0hPa | 2.7V | 08:30:00 | 02:23:03 | 00:00:00 | |
| DB0UT-7 | 2026-08-31 11:59:40 | 44.85422 | 8.90860 | 102° | 33km/h | 30038m | 4.4m/s | -44.7°C | 2.6% | 0hPa | 2.7V | 00:00:00 | 02:23:05 | 00:00:00 | |
| DO3MHA-12 | 2026-08-31 11:59:32 | 44.85433 | 8.90758 | 106° | 29km/h | 29993m | 5.5m/s | -44.6°C | 2.6% | 0hPa | 2.6V | 00:00:00 | 02:22:57 | 00:00:00 | |
| IW2NTF | 2026-08-31 11:59:31 | 44.85437 | 8.90718 | 86° | 33km/h | 29970m | 5.2m/s | -44.7°C | 2.6% | 0hPa | 2.6V | 08:30:00 | 02:22:53 | 00:00:00 | |
| IN3HCDX | 2026-08-31 11:59:30 | 44.85436 | 8.90739 | 99° | 27km/h | 29983m | 5.8m/s | -44.7°C | 0.6% | 0hPa | 2.7V | 00:00:00 | 00:00:00 | 00:00:00 | |
| DO3MHA-12 | 2026-08-31 11:59:22 | 44.85436 | 8.90648 | 103° | 33km/h | 29938m | 4.9m/s | -44.8°C | 2.6% | 0hPa | 2.7V | 00:00:00 | 02:22:47 | 00:00:00 | |
| AUTORXJP | 2026-08-31 11:59:21 | 44.85438 | 8.90636 | 102° | 35km/h | 29933m | 4.8m/s | -44.9°C | 0.5% | -1.0hPa | 2.7V | 00:00:00 | 00:00:00 | 00:00:00 | |
| IW2NTF | 2026-08-31 11:59:20 | 44.85441 | 8.90596 | 87° | 38km/h | 29915m | 5m/s | -44.9°C | 2.7% | 0hPa | 2.7V | 08:30:00 | 02:22:43 | 00:00:00 | |
| OE5DXL-15 | 2026-08-31 11:59:19 | 44.85441 | 8.90610 | 94° | 26km/h | 29921m | 6.0m/s | -44.9°C | 2.6% | 0hPa | 2.7V | 00:00:00 | 00:00:00 | 00:00:00 | |
| DL1ZP-14 | 2026-08-31 11:59:17 | 44.85439 | 8.90572 | 77° | 29km/h | 29905m | 6.4m/s | -45.0°C | 0.6% | -1.0hPa | 2.6V | 00:00:00 | 00:00:00 | 00:00:00 | |
| DO3MHA-12 | 2026-08-31 11:59:12 | 44.85429 | 8.90542 | 60° | 27km/h | 29882m | 6.0m/s | -44.9°C | 2.6% | 0hPa | 2.7V | 00:00:00 | 02:22:37 | 08:30:00 | |
| IW2NTF | 2026-08-31 11:59:10 | 44.85420 | 8.90504 | 82° | 31km/h | 29859m | 6m/s | -45.1°C | 2.8% | 0hPa | 2.6V | 08:30:00 | 02:22:33 | 00:00:00 | |
| DB0UT-7 | 2026-08-31 11:59:10 | 44.85424 | 8.90525 | 71° | 24km/h | 29870m | 5.2m/s | -45.0°C | 2.7% | 0hPa | 2.7V | 00:00:00 | 00:00:00 | 00:00:00 | |
| IN3HCDX | 2026-08-31 11:59:05 | 44.85419 | 8.90476 | 90° | 24km/h | 29842m | 4.7m/s | -45.0°C | 0.6% | 0hPa | 2.7V | 00:00:00 | 00:00:00 | 00:00:00 | |
| DO3MHA-12 | 2026-08-31 11:59:02 | 44.85415 | 8.90450 | 66° | 24km/h | 29826m | 6.0m/s | -44.9°C | 2.7% | 0hPa | 2.7V | 00:00:00 | 02:22:27 | 00:00:00 | |
| IW2NTF | 2026-08-31 11:59:00 | 44.85397 | 8.90416 | 38° | 26km/h | 29803m | 6.7m/s | -44.9°C | 2.7% | 0hPa | 2.7V | 08:30:00 | 02:22:23 | 00:00:00 | |
| DO3MHA-12 | 2026-08-31 11:58:52 | 44.85376 | 8.90388 | 72° | 24km/h | 29769m | 5.1m/s | -44.9°C | 2.7% | 0hPa | 2.6V | 00:00:00 | 02:22:17 | 00:00:00 | |
| IW2NTF | 2026-08-31 11:58:50 | 44.85374 | 8.90359 | 81° | 22km/h | 29745m | 4.7m/s | -44.9°C | 2.7% | 0hPa | 2.6V | 08:30:00 | 02:22:13 | 00:00:00 | |
| AUTORXJP | 2026-08-31 11:58:50 | 44.85374 | 8.90374 | 86° | 20km/h | 29756m | 6.5m/s | -45.0°C | 0.6% | -1.0hPa | 2.7V | 00:00:00 | 00:00:00 | 00:00:00 | |
| DL1ZP-14 | 2026-08-31 11:58:46 | 44.85365 | 8.90335 | 48° | 29km/h | 29728m | 5.5m/s | -44.9°C | 0.6% | -1.0hPa | 2.7V | 00:00:00 | 00:00:00 | 00:00:00 | |
| DO3MHA-12 | 2026-08-31 11:58:42 | 44.85349 | 8.90318 | 21° | 18km/h | 29713m | 6.5m/s | -44.7°C | 2.7% | 0hPa | 2.7V | 00:00:00 | 02:22:07 | 00:00:00 | |
| IW2NTF | 2026-08-31 11:58:41 | 44.85337 | 8.90312 | 63° | 11km/h | 29691m | 5.5m/s | -44.7°C | 2.7% | 0hPa | 2.7V | 08:30:00 | 02:22:03 | 00:00:00 | |
| IN3HCDX | 2026-08-31 11:58:40 | 44.85341 | 8.90315 | 10° | 11km/h | 29702m | 4.5m/s | -44.8°C | 0.6% | 0hPa | 2.7V | 00:00:00 | 00:00:00 | 00:00:00 | |
| DO3MHA-12 | 2026-08-31 11:58:32 | 44.85327 | 8.90267 | 66° | 16km/h | 29659m | 5.5m/s | -44.5°C | 2.6% | 0hPa | 2.7V | 00:00:00 | 02:21:57 | 00:00:00 | |
| IW2NTF | 2026-08-31 11:58:30 | 44.85317 | 8.90255 | 16° | 15km/h | 29637m | 6m/s | -44.4°C | 2.7% | 0hPa | 2.7V | 08:30:00 | 02:21:53 | 00:00:00 | |
| DO3MHA-12 | 2026-08-31 11:58:22 | 44.85291 | 8.90240 | 17° | 18km/h | 29606m | 6.4m/s | -44.4°C | 2.6% | 0hPa | 2.6V | 00:00:00 | 02:21:47 | 00:00:00 | |
| IW2NTF | 2026-08-31 11:58:21 | 44.85279 | 8.90234 | 27° | 16km/h | 29584m | 6m/s | -44.4°C | 2.6% | 0hPa | 2.6V | 08:30:00 | 02:21:43 | 00:00:00 | |
| IN3HCDX | 2026-08-31 11:58:19 | 44.85282 | 8.90236 | 20° | 15km/h | 29590m | 4.7m/s | -44.3°C | 0.6% | 0hPa | 2.7V | 00:00:00 | 00:00:00 | 00:00:00 | |
| OE5DXL-15 | 2026-08-31 11:58:15 | 44.85260 | 8.90217 | 26° | 16km/h | 29565m | 5.3m/s | -44.2°C | 2.7% | 0hPa | 2.7V | 00:00:00 | 00:00:00 | 00:00:00 | |
| DL1ZP-14 | 2026-08-31 11:58:14 | 44.85260 | 8.90217 | 25° | 20km/h | 29565m | 5.4m/s | -44.2°C | -1.0% | -1.0hPa | 2.7V | 00:00:00 | 00:00:00 | 00:00:00 | |
| DO3MHA-12 | 2026-08-31 11:58:12 | 44.85251 | 8.90214 | 360° | 15km/h | 29554m | 5.4m/s | -44.2°C | 2.6% | 0hPa | 2.6V | 00:00:00 | 02:21:37 | 00:00:00 | |
| IW2NTF | 2026-08-31 11:58:10 | 44.85239 | 8.90215 | 16° | 15km/h | 29533m | 5.5m/s | -44.2°C | 2.6% | 0hPa | 2.7V | 08:30:00 | 02:21:33 | 00:00:00 | |
| DB0UT-7 | 2026-08-31 11:58:10 | 44.85245 | 8.90216 | 347° | 16km/h | 29544m | 4.6m/s | -44.1°C | 2.6% | 0hPa | 2.7V | 00:00:00 | 00:00:00 | 00:00:00 | |
| DO3MHA-12 | 2026-08-31 11:58:02 | 44.85216 | 8.90204 | 2° | 18km/h | 29502m | 4.3m/s | -44.3°C | 2.6% | 0hPa | 2.7V | 00:00:00 | 02:21:27 | 00:00:00 | |
| IW2NTF | 2026-08-31 11:58:01 | 44.85194 | 8.90203 | 2° | 26km/h | 29480m | 5.1m/s | -44.3°C | 2.5% | 0hPa | 2.7V | 08:30:00 | 02:21:23 | 00:00:00 | |
| IN3HCDX | 2026-08-31 11:57:57 | 44.85194 | 8.90203 | 4° | 26km/h | 29480m | 5.1m/s | -44.3°C | 0.6% | 0hPa | 2.6V | 00:00:00 | 00:00:00 | 00:00:00 | |
| DO3MHA-12 | 2026-08-31 11:57:52 | 44.85172 | 8.90212 | 335° | 15km/h | 29449m | 5.7m/s | -44.3°C | 2.6% | 0hPa | 2.6V | 00:00:00 | 02:21:17 | 00:00:00 | |
| IW2NTF | 2026-08-31 11:57:50 | 44.85163 | 8.90204 | 30° | 16km/h | 29428m | 4m/s | -44.2°C | 2.6% | 0hPa | 2.6V | 08:30:00 | 02:21:13 | 00:00:00 | |
| AUTORXJP | 2026-08-31 11:57:48 | 44.85159 | 8.90202 | 17° | 15km/h | 29424m | 5.2m/s | -44.2°C | 0.6% | -1.0hPa | 2.6V | 00:00:00 | 00:00:00 | 00:00:00 | |
| OE5DXL-15 | 2026-08-31 11:57:45 | 44.85142 | 8.90209 | 331° | 15km/h | 29404m | 4.3m/s | -44.1°C | 2.6% | 0hPa | 2.6V | 00:00:00 | 00:00:00 | 00:00:00 | |
| DO3MHA-12 | 2026-08-31 11:57:42 | 44.85137 | 8.90212 | 336° | 11km/h | 29399m | 5.3m/s | -44.1°C | 2.7% | 0hPa | 2.6V | 00:00:00 | 02:21:07 | 08:30:00 | |
| IW2NTF | 2026-08-31 11:57:40 | 44.85118 | 8.90216 | 10° | 13km/h | 29379m | 4.7m/s | -44°C | 2.6% | 0hPa | 2.7V | 08:30:00 | 02:21:03 | 00:00:00 | |
| DB0UT-7 | 2026-08-31 11:57:40 | 44.85127 | 8.90216 | 357° | 16km/h | 29389m | 4.7m/s | -44.0°C | 2.6% | 0hPa | 2.6V | 00:00:00 | 02:21:05 | 00:00:00 | |
| IN3HCDX | 2026-08-31 11:57:37 | 44.85118 | 8.90216 | 11° | 13km/h | 29380m | 4.7m/s | -44.0°C | 0.6% | 0hPa | 2.6V | 00:00:00 | 00:00:00 | 00:00:00 | |
| DO3MHA-12 | 2026-08-31 11:57:32 | 44.85111 | 8.90218 | 3° | 18km/h | 29348m | 5.7m/s | -43.9°C | 2.6% | 0hPa | 2.6V | 00:00:00 | 02:20:57 | 00:00:00 | |
| IW2NTF | 2026-08-31 11:57:31 | 44.85091 | 8.90216 | 358° | 24km/h | 29327m | 5.9m/s | -44°C | 2.6% | 0hPa | 2.6V | 08:30:00 | 02:20:53 | 00:00:00 | |
| DO3MHA-12 | 2026-08-31 11:57:22 | 44.85064 | 8.90214 | 33° | 16km/h | 29296m | 4.8m/s | -43.7°C | 2.5% | 0hPa | 2.6V | 00:00:00 | 02:20:47 | 00:00:00 | |
| IW2NTF | 2026-08-31 11:57:20 | 44.85056 | 8.90203 | 49° | 9km/h | 29275m | 4.4m/s | -43.4°C | 2.5% | 0hPa | 2.6V | 08:30:00 | 02:20:43 | 00:00:00 | |
| IN3HCDX | 2026-08-31 11:57:17 | 44.85054 | 8.90200 | 39° | 13km/h | 29270m | 4.7m/s | -43.4°C | 0.6% | 0hPa | 2.6V | 00:00:00 | 00:00:00 | 00:00:00 | |
| OE5DXL-15 | 2026-08-31 11:57:13 | 44.85027 | 8.90188 | 8° | 20km/h | 29244m | 5.6m/s | -43.3°C | 2.5% | 0hPa | 2.6V | 00:00:00 | 00:00:00 | 00:00:00 | |
| DO3MHA-12 | 2026-08-31 11:57:12 | 44.85027 | 8.90188 | 8° | 16km/h | 29244m | 5.6m/s | -43.3°C | 2.5% | 0hPa | 2.6V | 00:00:00 | 02:20:37 | 00:00:00 | |
| IW2NTF | 2026-08-31 11:57:11 | 44.85011 | 8.90181 | 36° | 15km/h | 29223m | 6.3m/s | -43.2°C | 2.5% | 0hPa | 2.7V | 08:30:00 | 02:20:33 | 00:00:00 | |
| DB0UT-7 | 2026-08-31 11:57:10 | 44.85018 | 8.90186 | 13° | 20km/h | 29233m | 4.6m/s | -43.3°C | 2.5% | 0hPa | 2.6V | 00:00:00 | 00:00:00 | 00:00:00 | |
| DO3MHA-12 | 2026-08-31 11:57:02 | 44.84993 | 8.90158 | 24° | 24km/h | 29191m | 4.3m/s | -43.5°C | 2.5% | 0hPa | 2.6V | 00:00:00 | 02:20:27 | 00:00:00 | |
| IW2NTF | 2026-08-31 11:57:01 | 44.84970 | 8.90146 | 22° | 33km/h | 29170m | 4.9m/s | -43.4°C | 2.5% | 0hPa | 2.6V | 08:30:00 | 02:20:23 | 00:00:00 | |
| IN3HCDX | 2026-08-31 11:56:56 | 44.84956 | 8.90136 | 28° | 29km/h | 29161m | 5.1m/s | -43.2°C | 0.6% | 0hPa | 2.7V | 00:00:00 | 00:00:00 | 00:00:00 | |
| DO3MHA-12 | 2026-08-31 11:56:52 | 44.84941 | 8.90118 | 66° | 20km/h | 29141m | 4.8m/s | -43.1°C | 2.5% | 0hPa | 2.7V | 00:00:00 | 02:20:17 | 00:00:00 | |
| IW2NTF | 2026-08-31 11:56:50 | 44.84929 | 8.90093 | 39° | 22km/h | 29120m | 4.2m/s | -43.1°C | 2.4% | 0hPa | 2.7V | 08:30:00 | 02:20:13 | 00:00:00 | |
| AUTORXJP | 2026-08-31 11:56:46 | 44.84917 | 8.90086 | 359° | 16km/h | 29104m | 4.6m/s | -43.2°C | 0.5% | -1.0hPa | 2.7V | 00:00:00 | 00:00:00 | 00:00:00 | |
| OE5DXL-15 | 2026-08-31 11:56:43 | 44.84903 | 8.90085 | 16° | 18km/h | 29090m | 5.7m/s | -43.2°C | 2.4% | 0hPa | 2.7V | 00:00:00 | 00:00:00 | 00:00:00 | |
| DO3MHA-12 | 2026-08-31 11:56:42 | 44.84903 | 8.90085 | 16° | 15km/h | 29090m | 5.7m/s | -43.2°C | 2.4% | 0hPa | 2.7V | 00:00:00 | 02:20:07 | 00:00:00 | |
| IW2NTF | 2026-08-31 11:56:40 | 44.84891 | 8.90068 | 86° | 15km/h | 29069m | 6.1m/s | -43.1°C | 2.4% | 0hPa | 2.7V | 08:30:00 | 02:20:03 | 00:00:00 | |
| DB0UT-7 | 2026-08-31 11:56:40 | 44.84894 | 8.90078 | 48° | 16km/h | 29080m | 4.3m/s | -43.0°C | 2.4% | 0hPa | 2.6V | 00:00:00 | 02:20:05 | 08:30:00 | |
| IN3HCDX | 2026-08-31 11:56:34 | 44.84893 | 8.90056 | 102° | 9km/h | 29055m | 4.0m/s | -43.1°C | 0.6% | 0hPa | 2.7V | 00:00:00 | 00:00:00 | 00:00:00 | |
| DO3MHA-12 | 2026-08-31 11:56:32 | 44.84888 | 8.90047 | 19° | 16km/h | 29039m | 5.3m/s | -43.0°C | 2.4% | 0hPa | 2.7V | 00:00:00 | 02:19:57 | 00:00:00 | |
| IW2NTF | 2026-08-31 11:56:30 | 44.84868 | 8.90049 | 344° | 16km/h | 29017m | 4.5m/s | -43.4°C | 2.4% | 0hPa | 2.7V | 08:30:00 | 02:19:53 | 00:00:00 | |
| DO3MHA-12 | 2026-08-31 11:56:22 | 44.84856 | 8.90027 | 91° | 18km/h | 28987m | 4.6m/s | -43.6°C | 2.4% | 0hPa | 2.7V | 00:00:00 | 02:19:47 | 00:00:00 | |
| IW2NTF | 2026-08-31 11:56:21 | 44.84853 | 8.90007 | 5° | 18km/h | 28957m | 6.2m/s | -44.3°C | 2.5% | 0hPa | 2.7V | 08:30:00 | 02:19:41 | 00:00:00 | |
| AUTORXJP | 2026-08-31 11:56:15 | 44.84841 | 8.90005 | 11° | 29km/h | 28947m | 4.2m/s | -44.4°C | 0.5% | -1.0hPa | 2.7V | 00:00:00 | 00:00:00 | 00:00:00 | |
| OE5DXL-15 | 2026-08-31 11:56:13 | 44.84826 | 8.89999 | 20° | 26km/h | 28938m | 4.6m/s | -44.5°C | 2.5% | 0hPa | 2.7V | 00:00:00 | 00:00:00 | 08:30:00 | |
| DO3MHA-12 | 2026-08-31 11:56:12 | 44.84826 | 8.89999 | 20° | 20km/h | 28938m | 4.6m/s | -44.5°C | 2.5% | 0hPa | 2.7V | 00:00:00 | 02:19:37 | 08:30:00 | |
| DB0UT-7 | 2026-08-31 11:56:10 | 44.84817 | 8.89992 | 43° | 26km/h | 28929m | 5.1m/s | -44.8°C | 2.6% | 0hPa | 2.7V | 00:00:00 | 00:00:00 | 00:00:00 | |
| IW2NTF | 2026-08-31 11:56:09 | 44.84805 | 8.89956 | 61° | 18km/h | 28896m | 5.2m/s | -45°C | 2.7% | 0hPa | 2.7V | 08:30:00 | 02:19:29 | 00:00:00 | |
| OE5DRO-10 | 2026-08-31 11:56:05 | 44.84806 | 8.89962 | 67° | 26km/h | 28901m | 5.2m/s | 0°C | 0% | 0hPa | 2.6V | 00:00:00 | 00:00:00 | 00:00:00 | |
| DO3MHA-12 | 2026-08-31 11:56:02 | 44.84798 | 8.89946 | 35° | 29km/h | 28888m | 3.5m/s | -45.0°C | 2.7% | 0hPa | 2.6V | 00:00:00 | 02:19:27 | 00:00:00 | |
| IW2NTF | 2026-08-31 11:56:00 | 44.84737 | 8.89912 | 43° | 16km/h | 28847m | 5m/s | -45.5°C | 2.7% | 0hPa | 2.6V | 08:30:00 | 02:19:19 | 00:00:00 | |
| IN3HCDX | 2026-08-31 11:55:53 | 44.84734 | 8.89907 | 69° | 15km/h | 28842m | 4.4m/s | -45.5°C | 0.6% | 0hPa | 2.6V | 00:00:00 | 00:00:00 | 00:00:00 | |
| DO3MHA-12 | 2026-08-31 11:55:52 | 44.84733 | 8.89902 | 78° | 27km/h | 28837m | 5.3m/s | -45.6°C | 2.7% | 0hPa | 2.6V | 00:00:00 | 02:19:17 | 00:00:00 | |
| IW2NTF | 2026-08-31 11:55:49 | 44.84698 | 8.89848 | 9° | 27km/h | 28797m | 4.9m/s | -45.7°C | 2.7% | 0hPa | 2.6V | 08:30:00 | 02:19:09 | 00:00:00 | |
| OE5DXL-15 | 2026-08-31 11:55:43 | 44.84684 | 8.89847 | 360° | 26km/h | 28787m | 5.3m/s | -45.8°C | 2.6% | 0hPa | 2.6V | 00:00:00 | 00:00:00 | 00:00:00 | |
| DO3MHA-12 | 2026-08-31 11:55:42 | 44.84684 | 8.89847 | 360° | 26km/h | 28787m | 5.3m/s | -45.8°C | 2.6% | 0hPa | 2.6V | 00:00:00 | 02:19:07 | 00:00:00 | |
| DB0UT-7 | 2026-08-31 11:55:40 | 44.84668 | 8.89847 | 5° | 26km/h | 28776m | 4.3m/s | -46.0°C | 2.6% | 0hPa | 2.7V | 00:00:00 | 02:19:05 | 00:00:00 | |
| IW2NTF | 2026-08-31 11:55:38 | 44.84636 | 8.89803 | 47° | 33km/h | 28735m | 5.4m/s | -46.1°C | 2.8% | 0hPa | 2.7V | 08:30:00 | 02:18:57 | 00:00:00 | |
| DO3MHA-12 | 2026-08-31 11:55:32 | 44.84636 | 8.89803 | 48° | 22km/h | 28735m | 5.3m/s | -46.1°C | 2.8% | 0hPa | 2.7V | 00:00:00 | 02:18:57 | 00:00:00 | |
| IN3HCDX | 2026-08-31 11:55:31 | 44.84630 | 8.89795 | 36° | 35km/h | 28730m | 4.7m/s | -46.1°C | 0.7% | 0hPa | 2.7V | 00:00:00 | 00:00:00 | 00:00:00 | |
| IW2NTF | 2026-08-31 11:55:27 | 44.84571 | 8.89795 | 15° | 16km/h | 28684m | 4.6m/s | -46.5°C | 2.8% | 0hPa | 2.7V | 08:30:00 | 02:18:47 | 00:00:00 | |
| DO3MHA-12 | 2026-08-31 11:55:18 | 44.84563 | 8.89779 | 61° | 26km/h | 28663m | 3.5m/s | -46.5°C | 2.8% | 0hPa | 2.7V | 00:00:00 | 02:18:43 | 00:00:00 | |
| AUTORXJP | 2026-08-31 11:55:12 | 44.84523 | 8.89768 | 336° | 31km/h | 28634m | 5.4m/s | -47.2°C | 0.6% | -1.0hPa | 2.7V | 00:00:00 | 00:00:00 | 00:00:00 | |
| IW2NTF | 2026-08-31 11:55:10 | 44.84507 | 8.89785 | 334° | 7km/h | 28613m | 5.2m/s | -47.1°C | 2.9% | 0hPa | 2.7V | 08:30:00 | 02:18:33 | 00:00:00 | |
| DB0UT-7 | 2026-08-31 11:55:10 | 44.84512 | 8.89779 | 318° | 20km/h | 28623m | 4.8m/s | -47.1°C | 2.8% | 0hPa | 2.6V | 00:00:00 | 00:00:00 | 00:00:00 | |
| IN3HCDX | 2026-08-31 11:55:09 | 44.84512 | 8.89779 | 318° | 20km/h | 28623m | 4.8m/s | -47.2°C | 0.6% | 0hPa | 2.7V | 00:00:00 | 00:00:00 | 00:00:00 | |
| DO3MHA-12 | 2026-08-31 11:55:08 | 44.84507 | 8.89785 | 335° | 18km/h | 28613m | 5.2m/s | -47.1°C | 2.9% | 0hPa | 2.7V | 00:00:00 | 02:18:33 | 00:00:00 | |
| IW2NTF | 2026-08-31 11:55:00 | 44.84467 | 8.89760 | 1° | 26km/h | 28561m | 6.1m/s | -47.6°C | 2.9% | 0hPa | 2.6V | 08:30:00 | 02:18:23 | 00:00:00 | |
| DO3MHA-12 | 2026-08-31 11:54:58 | 44.84467 | 8.89760 | 2° | 20km/h | 28562m | 6.0m/s | -47.5°C | 2.9% | 0hPa | 2.6V | 00:00:00 | 02:18:23 | 00:00:00 | |
| IW2NTF | 2026-08-31 11:54:50 | 44.84409 | 8.89735 | 16° | 31km/h | 28503m | 4.7m/s | -48°C | 3% | 0hPa | 2.6V | 08:30:00 | 02:18:11 | 00:00:00 | |
| DO3MHA-12 | 2026-08-31 11:54:48 | 44.84422 | 8.89745 | 42° | 22km/h | 28513m | 4.6m/s | -47.9°C | 3.0% | 0hPa | 2.6V | 00:00:00 | 02:18:13 | 00:00:00 | |
| AUTORXJP | 2026-08-31 11:54:42 | 44.84380 | 8.89743 | 329° | 13km/h | 28480m | 5.2m/s | -47.9°C | 0.7% | -1.0hPa | 2.6V | 00:00:00 | 00:00:00 | 00:00:00 | |
| OE5DXL-15 | 2026-08-31 11:54:41 | 44.84377 | 8.89745 | 349° | 20km/h | 28475m | 5.5m/s | -47.9°C | 3.1% | 0hPa | 2.6V | 00:00:00 | 00:00:00 | 00:00:00 | |
| DB0UT-7 | 2026-08-31 11:54:40 | 44.84377 | 8.89745 | 349° | 18km/h | 28475m | 5.5m/s | -47.9°C | 3.1% | 0hPa | 2.7V | 00:00:00 | 02:18:05 | 00:00:00 | |
| IW2NTF | 2026-08-31 11:54:39 | 44.84366 | 8.89735 | 31° | 18km/h | 28455m | 4.1m/s | -48.1°C | 3.1% | 0hPa | 2.7V | 08:30:00 | 02:18:01 | 00:00:00 | |
| DO3MHA-12 | 2026-08-31 11:54:38 | 44.84372 | 8.89742 | 41° | 18km/h | 28464m | 5.0m/s | -48.0°C | 3.1% | 0hPa | 2.6V | 00:00:00 | 02:18:03 | 08:30:00 | |
| IW2NTF | 2026-08-31 11:54:27 | 44.84315 | 8.89748 | 6° | 22km/h | 28404m | 5.3m/s | -48.2°C | 3.1% | 0hPa | 2.7V | 08:30:00 | 02:17:51 | 00:00:00 | |
| IW2NTF | 2026-08-31 11:54:22 | 44.84273 | 8.89762 | 312° | 24km/h | 28352m | 5.6m/s | -48.1°C | 3.1% | 0hPa | 2.6V | 08:30:00 | 02:17:41 | 00:00:00 | |
| IN3HCDX | 2026-08-31 11:54:21 | 44.84299 | 8.89747 | 356° | 13km/h | 28383m | 4.4m/s | -48.1°C | 0.8% | 0hPa | 2.7V | 00:00:00 | 00:00:00 | 00:00:00 | |
| DO3MHA-12 | 2026-08-31 11:54:18 | 44.84282 | 8.89752 | 333° | 20km/h | 28364m | 4.4m/s | -48.1°C | 3.1% | 0hPa | 2.7V | 00:00:00 | 02:17:43 | 00:00:00 | |
| IW2NTF | 2026-08-31 11:54:12 | 44.84232 | 8.89788 | 333° | 16km/h | 28303m | 4.2m/s | -47.9°C | 3% | 0hPa | 2.7V | 08:30:00 | 02:17:31 | 00:00:00 | |
| DB0UT-7 | 2026-08-31 11:54:10 | 44.84247 | 8.89784 | 2° | 20km/h | 28323m | 4.2m/s | -47.8°C | 3.1% | 0hPa | 2.7V | 00:00:00 | 00:00:00 | 00:00:00 | |
| DO3MHA-12 | 2026-08-31 11:54:08 | 44.84239 | 8.89784 | 349° | 20km/h | 28313m | 5.1m/s | -47.8°C | 3.1% | 0hPa | 2.7V | 00:00:00 | 02:17:33 | 00:00:00 | |
| IW2NTF | 2026-08-31 11:54:01 | 44.84181 | 8.89807 | 23° | 22km/h | 28253m | 5.5m/s | -48.3°C | 3% | 0hPa | 2.6V | 08:30:00 | 02:17:21 | 00:00:00 | |
| DO3MHA-12 | 2026-08-31 11:53:58 | 44.84190 | 8.89810 | 357° | 20km/h | 28264m | 4.5m/s | 0°C | 0% | 0hPa | 2.6V | 00:00:00 | 02:17:23 | 00:00:00 | |
| IW2NTF | 2026-08-31 11:53:52 | 44.84131 | 8.89810 | 345° | 27km/h | 28203m | 4.4m/s | -48.4°C | 3.1% | 0hPa | 2.6V | 08:30:00 | 02:17:11 | 00:00:00 | |
| DO3MHA-12 | 2026-08-31 11:53:48 | 44.84144 | 8.89805 | 342° | 24km/h | 28213m | 5.7m/s | -48.3°C | 3.1% | 0hPa | 2.7V | 00:00:00 | 02:17:13 | 00:00:00 | |
| IW2NTF | 2026-08-31 11:53:42 | 44.84072 | 8.89812 | 357° | 27km/h | 28152m | 5.7m/s | -48.4°C | 3.1% | 0hPa | 2.7V | 08:30:00 | 02:17:01 | 00:00:00 | |
| DB0UT-7 | 2026-08-31 11:53:40 | 44.84098 | 8.89819 | 12° | 26km/h | 28173m | 6.2m/s | -48.4°C | 3.1% | 0hPa | 2.7V | 00:00:00 | 02:17:05 | 00:00:00 | |
| AUTORXJP | 2026-08-31 11:53:39 | 44.84092 | 8.89817 | 17° | 26km/h | 28167m | 5.3m/s | -48.5°C | 0.7% | -1.0hPa | 2.6V | 00:00:00 | 00:00:00 | 00:00:00 | |
| IN3HCDX | 2026-08-31 11:53:38 | 44.84085 | 8.89814 | 16° | 27km/h | 28162m | 4.4m/s | -48.5°C | 0.8% | 0hPa | 2.6V | 00:00:00 | 00:00:00 | 00:00:00 | |
| IW2NTF | 2026-08-31 11:53:31 | 44.84011 | 8.89846 | 341° | 15km/h | 28102m | 4.3m/s | -48.4°C | 3% | 0hPa | 2.6V | 08:30:00 | 02:16:51 | 00:00:00 | |
| DO3MHA-12 | 2026-08-31 11:53:28 | 44.84019 | 8.89841 | 334° | 22km/h | 28113m | 5.8m/s | -48.4°C | 3.1% | 0hPa | 2.7V | 00:00:00 | 02:16:53 | 00:00:00 | |
| IW2NTF | 2026-08-31 11:53:21 | 44.83952 | 8.89863 | 313° | 31km/h | 28053m | 4.6m/s | -48.5°C | 3.1% | 0hPa | 2.7V | 08:30:00 | 02:16:41 | 00:00:00 | |
| DO3MHA-12 | 2026-08-31 11:53:19 | 44.83963 | 8.89848 | 324° | 24km/h | 28062m | 4.8m/s | -48.6°C | 3.1% | 0hPa | 2.7V | 00:00:00 | 02:16:43 | 00:00:00 | |
| IN3HCDX | 2026-08-31 11:53:16 | 44.83957 | 8.89855 | 316° | 31km/h | 28057m | 4.1m/s | -48.6°C | 0.8% | 0hPa | 2.7V | 00:00:00 | 00:00:00 | 00:00:00 | |
| IW2NTF | 2026-08-31 11:53:12 | 44.83908 | 8.89894 | 348° | 24km/h | 28004m | 6m/s | -48.8°C | 3.1% | 0hPa | 2.7V | 08:30:00 | 02:16:31 | 00:00:00 | |
| OE5DXL-15 | 2026-08-31 11:53:10 | 44.83917 | 8.89890 | 344° | 26km/h | 28014m | 4.0m/s | -48.6°C | 3.1% | 0hPa | 2.6V | 00:00:00 | 00:00:00 | 00:00:00 | |
| DO3MHA-12 | 2026-08-31 11:53:08 | 44.83917 | 8.89890 | 344° | 26km/h | 28014m | 4.0m/s | -48.6°C | 3.1% | 0hPa | 2.6V | 00:00:00 | 02:16:33 | 08:30:00 | |
| DL1ZP-14 | 2026-08-31 11:53:04 | 44.83789 | 8.89996 | 309° | 22km/h | 27906m | 6.3m/s | -49.0°C | -1.0% | -1.0hPa | 2.7V | 00:00:00 | 00:00:00 | 00:00:00 | |
| IW2NTF | 2026-08-31 11:53:02 | 44.83851 | 8.89946 | 338° | 26km/h | 27954m | 4.6m/s | -48.9°C | 3.1% | 0hPa | 2.6V | 08:30:00 | 02:16:21 | 00:00:00 | |
| DO3MHA-12 | 2026-08-31 11:52:58 | 44.83862 | 8.89938 | 319° | 27km/h | 27965m | 5.7m/s | -48.8°C | 3.1% | 0hPa | 2.7V | 00:00:00 | 02:16:23 | 00:00:00 | |
| IW2NTF | 2026-08-31 11:52:51 | 44.83789 | 8.89996 | 309° | 22km/h | 27905m | 6.3m/s | -49°C | 3.3% | 0hPa | 2.7V | 08:30:00 | 02:16:11 | 00:00:00 | |
| DO3MHA-12 | 2026-08-31 11:52:48 | 44.83799 | 8.89984 | 328° | 18km/h | 27915m | 3.8m/s | -49.0°C | 3.3% | 0hPa | 2.7V | 00:00:00 | 02:16:13 | 00:00:00 | |
| IW2NTF | 2026-08-31 11:52:41 | 44.83750 | 8.90026 | 322° | 31km/h | 27855m | 5.5m/s | -48.8°C | 3.2% | 0hPa | 2.7V | 08:30:00 | 02:16:01 | 00:00:00 | |
| DB0UT-7 | 2026-08-31 11:52:40 | 44.83776 | 8.90013 | 355° | 18km/h | 27876m | 4.3m/s | -48.7°C | 3.2% | 0hPa | 2.6V | 00:00:00 | 02:16:05 | 00:00:00 | |
| DO3MHA-12 | 2026-08-31 11:52:38 | 44.83763 | 8.90016 | 342° | 22km/h | 27867m | 5.5m/s | -48.7°C | 3.1% | 0hPa | 2.6V | 00:00:00 | 02:16:03 | 00:00:00 | |
| AUTORXJP | 2026-08-31 11:52:37 | 44.83757 | 8.90020 | 332° | 29km/h | 27861m | 6.0m/s | -48.7°C | 0.7% | -1.0hPa | 2.7V | 00:00:00 | 00:00:00 | 00:00:00 | |
| DL1ZP-14 | 2026-08-31 11:52:33 | 44.83721 | 8.90057 | 12° | 9km/h | 27822m | 4.7m/s | 0°C | -1.0% | -1.0hPa | 2.7V | 00:00:00 | 00:00:00 | 00:00:00 | |
| IW2NTF | 2026-08-31 11:52:31 | 44.83715 | 8.90053 | 35° | 5km/h | 27806m | 4.3m/s | -48.6°C | 3.2% | 0hPa | 2.6V | 08:30:00 | 02:15:51 | 00:00:00 | |
| DO3MHA-12 | 2026-08-31 11:52:28 | 44.83718 | 8.90056 | 27° | 16km/h | 27817m | 6.0m/s | -48.6°C | 3.2% | 0hPa | 2.6V | 00:00:00 | 02:15:53 | 00:00:00 | |
| IW2NTF | 2026-08-31 11:52:21 | 44.83677 | 8.90062 | 15° | 4km/h | 27757m | 5.2m/s | -48.7°C | 3.2% | 0hPa | 2.6V | 08:30:00 | 02:15:41 | 00:00:00 | |
| DO3MHA-12 | 2026-08-31 11:52:18 | 44.83680 | 8.90059 | 326° | 15km/h | 27767m | 4.8m/s | -48.7°C | 3.1% | 0hPa | 2.7V | 00:00:00 | 02:15:43 | 00:00:00 | |
| IW2NTF | 2026-08-31 11:52:11 | 44.83644 | 8.90053 | 351° | 18km/h | 27708m | 5.2m/s | -48.8°C | 3.3% | 0hPa | 2.7V | 08:30:00 | 02:15:31 | 00:00:00 | |
| OE5DXL-15 | 2026-08-31 11:52:10 | 44.83652 | 8.90049 | 339° | 11km/h | 27718m | 4.2m/s | -48.8°C | 3.2% | 0hPa | 2.6V | 00:00:00 | 00:00:00 | 00:00:00 | |
| DO3MHA-12 | 2026-08-31 11:52:08 | 44.83652 | 8.90049 | 339° | 13km/h | 27718m | 4.2m/s | -48.8°C | 3.2% | 0hPa | 2.6V | 00:00:00 | 02:15:33 | 00:00:00 | |
| AUTORXJP | 2026-08-31 11:52:06 | 44.83644 | 8.90053 | 351° | 16km/h | 27708m | 5.2m/s | -48.8°C | 0.7% | -1.0hPa | 2.6V | 00:00:00 | 00:00:00 | 00:00:00 | |
| IW2NTF | 2026-08-31 11:52:01 | 44.83620 | 8.90040 | 68° | 9km/h | 27655m | 4.7m/s | -48.6°C | 3.2% | 0hPa | 2.6V | 08:30:00 | 02:15:21 | 00:00:00 | |
| DO3MHA-12 | 2026-08-31 11:51:58 | 44.83621 | 8.90045 | 67° | 9km/h | 27667m | 5.5m/s | -48.5°C | 3.3% | 0hPa | 2.7V | 00:00:00 | 02:15:23 | 00:00:00 | |
| IW2NTF | 2026-08-31 11:51:51 | 44.83594 | 8.90022 | 10° | 13km/h | 27603m | 5.6m/s | -48.5°C | 3.2% | 0hPa | 2.7V | 08:30:00 | 02:15:11 | 00:00:00 | |
| DO3MHA-12 | 2026-08-31 11:51:48 | 44.83601 | 8.90025 | 23° | 13km/h | 27613m | 4.0m/s | -48.7°C | 3.2% | 0hPa | 2.7V | 00:00:00 | 02:15:13 | 00:00:00 | |
| IW2NTF | 2026-08-31 11:51:42 | 44.83588 | 8.89996 | 55° | 7km/h | 27551m | 4.8m/s | -48.5°C | 3.2% | 0hPa | 2.7V | 08:30:00 | 02:15:01 | 00:00:00 | |
| DB0UT-7 | 2026-08-31 11:51:40 | 44.83587 | 8.90010 | 99° | 13km/h | 27572m | 4.2m/s | -48.4°C | 3.2% | 0hPa | 2.6V | 00:00:00 | 02:15:05 | 00:00:00 | |
| OE5DXL-15 | 2026-08-31 11:51:39 | 44.83588 | 8.90001 | 105° | 11km/h | 27562m | 5.5m/s | -48.5°C | 3.2% | 0hPa | 2.6V | 00:00:00 | 00:00:00 | 08:30:00 | |
| AUTORXJP | 2026-08-31 11:51:35 | 44.83587 | 8.89994 | 45° | 9km/h | 27546m | 6.3m/s | -48.5°C | 0.7% | -1.0hPa | 2.6V | 00:00:00 | 00:00:00 | 00:00:00 | |
| IW2NTF | 2026-08-31 11:51:32 | 44.83565 | 8.89976 | 78° | 15km/h | 27497m | 5.4m/s | -48.4°C | 3.2% | 0hPa | 2.6V | 08:30:00 | 02:14:51 | 00:00:00 | |
| IW2NTF | 2026-08-31 11:51:22 | 44.83543 | 8.89949 | 10° | 18km/h | 27446m | 5.9m/s | -48.5°C | 3.2% | 0hPa | 2.6V | 08:30:00 | 02:14:41 | 00:00:00 | |
| DO3MHA-12 | 2026-08-31 11:51:18 | 44.83551 | 8.89952 | 20° | 18km/h | 27457m | 5.3m/s | -48.6°C | 3.2% | 0hPa | 2.7V | 00:00:00 | 02:14:43 | 08:30:00 | |
| IW2NTF | 2026-08-31 11:51:12 | 44.83503 | 8.89917 | 11° | 16km/h | 27392m | 4.9m/s | -48.1°C | 3.2% | 0hPa | 2.7V | 08:30:00 | 02:14:31 | 00:00:00 | |
| DB0UT-7 | 2026-08-31 11:51:10 | 44.83518 | 8.89932 | 49° | 16km/h | 27414m | 4.2m/s | -48.3°C | 3.2% | 0hPa | 2.7V | 00:00:00 | 00:00:00 | 00:00:00 | |
| OE5DXL-15 | 2026-08-31 11:51:09 | 44.83511 | 8.89922 | 38° | 16km/h | 27404m | 5.8m/s | -48.3°C | 3.2% | 0hPa | 2.7V | 00:00:00 | 00:00:00 | 00:00:00 | |
| DO3MHA-12 | 2026-08-31 11:51:08 | 44.83511 | 8.89922 | 38° | 16km/h | 27404m | 5.8m/s | -48.3°C | 3.2% | 0hPa | 2.7V | 00:00:00 | 02:14:33 | 00:00:00 | |
| AUTORXJP | 2026-08-31 11:51:04 | 44.83489 | 8.89913 | 15° | 20km/h | 27377m | 5.5m/s | -48.1°C | 0.7% | -1.0hPa | 2.7V | 00:00:00 | 00:00:00 | 00:00:00 | |
| IW2NTF | 2026-08-31 11:50:59 | 44.83461 | 8.89901 | 43° | 13km/h | 27341m | 6.2m/s | -48.1°C | 3.1% | 0hPa | 2.7V | 08:30:00 | 02:14:21 | 00:00:00 | |
| DO3MHA-12 | 2026-08-31 11:50:54 | 44.83456 | 8.89892 | 55° | 16km/h | 27330m | 4.6m/s | -47.9°C | 3.1% | 0hPa | 2.6V | 00:00:00 | 02:14:19 | 00:00:00 | |
| IW2NTF | 2026-08-31 11:50:52 | 44.83431 | 8.89869 | 28° | 16km/h | 27287m | 5m/s | -48°C | 3% | 0hPa | 2.6V | 08:30:00 | 02:14:11 | 00:00:00 | |
| DO3MHA-12 | 2026-08-31 11:50:44 | 44.83424 | 8.89864 | 23° | 20km/h | 27276m | 5.7m/s | -48.0°C | 3.1% | 0hPa | 2.7V | 00:00:00 | 02:14:09 | 00:00:00 | |
| IW2NTF | 2026-08-31 11:50:41 | 44.83392 | 8.89833 | 25° | 11km/h | 27233m | 5m/s | -47.9°C | 3.2% | 0hPa | 2.7V | 08:30:00 | 02:14:01 | 00:00:00 | |
| OE5DXL-15 | 2026-08-31 11:50:39 | 44.83395 | 8.89836 | 34° | 15km/h | 27239m | 5.9m/s | -47.8°C | 3.2% | 0hPa | 2.7V | 00:00:00 | 00:00:00 | 00:00:00 | |
| DO3MHA-12 | 2026-08-31 11:50:34 | 44.83388 | 8.89830 | 31° | 16km/h | 27223m | 5.8m/s | -47.9°C | 3.1% | 0hPa | 2.7V | 00:00:00 | 02:13:59 | 00:00:00 | |
| AUTORXJP | 2026-08-31 11:50:33 | 44.83384 | 8.89826 | 38° | 9km/h | 27212m | 5.0m/s | -48.1°C | 0.7% | -1.0hPa | 2.7V | 00:00:00 | 00:00:00 | 00:00:00 | |
| IW2NTF | 2026-08-31 11:50:32 | 44.83361 | 8.89818 | 20° | 24km/h | 27180m | 6.5m/s | -48°C | 3.1% | 0hPa | 2.7V | 08:30:00 | 02:13:51 | 00:00:00 | |
| DO3MHA-12 | 2026-08-31 11:50:24 | 44.83351 | 8.89810 | 34° | 11km/h | 27169m | 4.9m/s | -47.8°C | 3.1% | 0hPa | 2.7V | 00:00:00 | 02:13:49 | 00:00:00 | |
| IW2NTF | 2026-08-31 11:50:17 | 44.83332 | 8.89800 | 12° | 13km/h | 27127m | 4.8m/s | -47.7°C | 3.1% | 0hPa | 2.7V | 08:30:00 | 02:13:41 | 00:00:00 | |
| DO3MHA-12 | 2026-08-31 11:50:14 | 44.83323 | 8.89800 | 356° | 16km/h | 27116m | 6.5m/s | -47.6°C | 3.1% | 0hPa | 2.7V | 00:00:00 | 02:13:39 | 00:00:00 | |
| IW2NTF | 2026-08-31 11:50:11 | 44.83289 | 8.89791 | 17° | 5km/h | 27073m | 6.3m/s | -47.6°C | 3% | 0hPa | 2.6V | 08:30:00 | 02:13:31 | 00:00:00 | |
| OE5DXL-15 | 2026-08-31 11:50:10 | 44.83297 | 8.89798 | 28° | 11km/h | 27088m | 5.0m/s | -47.5°C | 2.9% | 0hPa | 2.7V | 00:00:00 | 00:00:00 | 00:00:00 | |
| DO3MHA-12 | 2026-08-31 11:50:04 | 44.83288 | 8.89793 | 291° | 11km/h | 27062m | 4.7m/s | -47.5°C | 3.0% | 0hPa | 2.7V | 00:00:00 | 02:13:29 | 00:00:00 | |
| IW2NTF | 2026-08-31 11:50:02 | 44.83267 | 8.89800 | 355° | 16km/h | 27021m | 4.5m/s | -47.6°C | 3% | 0hPa | 2.7V | 08:30:00 | 02:13:21 | 00:00:00 | |
| DO3MHA-12 | 2026-08-31 11:49:54 | 44.83260 | 8.89799 | 20° | 9km/h | 27010m | 5.3m/s | -47.7°C | 3.0% | 0hPa | 2.7V | 00:00:00 | 02:13:19 | 00:00:00 | |
| IW2NTF | 2026-08-31 11:49:52 | 44.83249 | 8.89811 | 348° | 11km/h | 26970m | 5.7m/s | -48°C | 3% | 0hPa | 2.7V | 08:30:00 | 02:13:11 | 00:00:00 | |
| DO3MHA-12 | 2026-08-31 11:49:44 | 44.83242 | 8.89810 | 9° | 18km/h | 26960m | 4.2m/s | -48.2°C | 3.0% | 0hPa | 2.6V | 00:00:00 | 02:13:09 | 08:30:00 | |
| IW2NTF | 2026-08-31 11:49:42 | 44.83208 | 8.89833 | 314° | 16km/h | 26919m | 4.8m/s | -48.6°C | 3.1% | 0hPa | 2.7V | 08:30:00 | 02:13:01 | 00:00:00 | |
| DB0UT-7 | 2026-08-31 11:49:40 | 44.83223 | 8.89817 | 329° | 16km/h | 26940m | 5.1m/s | -48.4°C | 3.1% | 0hPa | 2.6V | 00:00:00 | 02:13:05 | 00:00:00 | |
| OE5DXL-15 | 2026-08-31 11:49:39 | 44.83211 | 8.89829 | 322° | 16km/h | 26924m | 4.5m/s | -48.5°C | 3.2% | 0hPa | 2.6V | 00:00:00 | 00:00:00 | 00:00:00 | |
| DO3MHA-12 | 2026-08-31 11:49:34 | 44.83203 | 8.89842 | 302° | 16km/h | 26908m | 5.9m/s | -48.7°C | 3.2% | 0hPa | 2.6V | 00:00:00 | 02:12:59 | 00:00:00 | |
| IW2NTF | 2026-08-31 11:49:31 | 44.83182 | 8.89870 | 314° | 20km/h | 26865m | 4.9m/s | -48.9°C | 3.2% | 0hPa | 2.6V | 08:30:00 | 02:12:51 | 00:00:00 | |
| AUTORXJP | 2026-08-31 11:49:31 | 44.83194 | 8.89858 | 330° | 9km/h | 26886m | 5.3m/s | -48.8°C | 0.7% | -1.0hPa | 2.7V | 00:00:00 | 00:00:00 | 00:00:00 | |
| DO3MHA-12 | 2026-08-31 11:49:24 | 44.83175 | 8.89881 | 311° | 18km/h | 26857m | 4.4m/s | -48.8°C | 3.1% | 0hPa | 2.7V | 00:00:00 | 02:12:49 | 00:00:00 | |
| IW2NTF | 2026-08-31 11:49:21 | 44.83149 | 8.89922 | 294° | 15km/h | 26815m | 5.9m/s | -48.9°C | 3.2% | 0hPa | 2.7V | 08:30:00 | 02:12:41 | 00:00:00 | |
| DO3MHA-12 | 2026-08-31 11:49:14 | 44.83147 | 8.89929 | 280° | 15km/h | 26805m | 4.7m/s | -48.9°C | 3.3% | 0hPa | 2.6V | 00:00:00 | 02:12:39 | 00:00:00 | |
| IW2NTF | 2026-08-31 11:49:11 | 44.83133 | 8.89960 | 335° | 15km/h | 26763m | 4.9m/s | -49°C | 3.2% | 0hPa | 2.7V | 08:30:00 | 02:12:31 | 00:00:00 | |
| DB0UT-7 | 2026-08-31 11:49:10 | 44.83144 | 8.89945 | 298° | 13km/h | 26784m | 4.5m/s | -49.0°C | 3.3% | 0hPa | 2.7V | 00:00:00 | 00:00:00 | 00:00:00 | |
| OE5DXL-15 | 2026-08-31 11:49:08 | 44.83136 | 8.89957 | 329° | 11km/h | 26768m | 5.0m/s | -49.0°C | 3.2% | 0hPa | 2.7V | 00:00:00 | 00:00:00 | 00:00:00 | |
| DO3MHA-12 | 2026-08-31 11:49:03 | 44.83122 | 8.89968 | 328° | 9km/h | 26748m | 4.6m/s | -49.0°C | 3.2% | 0hPa | 2.7V | 00:00:00 | 02:12:28 | 00:00:00 | |
| IW2NTF | 2026-08-31 11:49:02 | 44.83113 | 8.89983 | 267° | 9km/h | 26712m | 4.8m/s | -49°C | 3.3% | 0hPa | 2.7V | 08:30:00 | 02:12:21 | 00:00:00 | |
| AUTORXJP | 2026-08-31 11:49:00 | 44.83113 | 8.89976 | 313° | 4km/h | 26728m | 4.5m/s | -49.0°C | 0.7% | -1.0hPa | 2.6V | 00:00:00 | 00:00:00 | 00:00:00 | |
| DO3MHA-12 | 2026-08-31 11:48:53 | 44.83112 | 8.89991 | 313° | 13km/h | 26697m | 4.8m/s | -48.9°C | 3.3% | 0hPa | 2.6V | 00:00:00 | 02:12:18 | 00:00:00 | |
| IW2NTF | 2026-08-31 11:48:52 | 44.83091 | 8.90015 | 317° | 15km/h | 26663m | 5.4m/s | -48.8°C | 3.1% | 0hPa | 2.6V | 08:30:00 | 02:12:11 | 00:00:00 | |
| IW2NTF | 2026-08-31 11:48:41 | 44.83102 | 8.90032 | 285° | 4km/h | 26611m | 4m/s | -48.9°C | 3.2% | 0hPa | 2.6V | 08:30:00 | 02:12:01 | 00:00:00 | |
| DB0UT-7 | 2026-08-31 11:48:40 | 44.83096 | 8.90027 | 213° | 9km/h | 26631m | 4.3m/s | -48.7°C | 3.2% | 0hPa | 2.7V | 00:00:00 | 02:12:05 | 00:00:00 | |
| OE5DXL-15 | 2026-08-31 11:48:38 | 44.83100 | 8.90030 | 206° | 9km/h | 26621m | 5.8m/s | -48.8°C | 3.2% | 0hPa | 2.7V | 00:00:00 | 00:00:00 | 00:00:00 | |
| IW2NTF | 2026-08-31 11:48:31 | 44.83107 | 8.90051 | 211° | 11km/h | 26562m | 5.3m/s | -48.8°C | 3.2% | 0hPa | 2.7V | 08:30:00 | 02:11:51 | 00:00:00 | |
| AUTORXJP | 2026-08-31 11:48:29 | 44.83103 | 8.90049 | 192° | 5km/h | 26573m | 4.1m/s | -48.8°C | 0.7% | -1.0hPa | 2.7V | 00:00:00 | 00:00:00 | 00:00:00 | |
| IW2NTF | 2026-08-31 11:48:22 | 44.83133 | 8.90057 | 195° | 13km/h | 26514m | 4.3m/s | -48.7°C | 3.2% | 0hPa | 2.7V | 08:30:00 | 02:11:41 | 00:00:00 | |
| IW2NTF | 2026-08-31 11:48:12 | 44.83147 | 8.90062 | 55° | 5km/h | 26464m | 5.2m/s | -48.6°C | 3.2% | 0hPa | 2.7V | 08:30:00 | 02:11:31 | 00:00:00 | |
| DB0UT-7 | 2026-08-31 11:48:10 | 44.83148 | 8.90060 | 221° | 9km/h | 26484m | 5.5m/s | -48.7°C | 3.2% | 0hPa | 2.6V | 00:00:00 | 00:00:00 | 00:00:00 | |
| OE5DXL-15 | 2026-08-31 11:48:08 | 44.83149 | 8.90063 | 288° | 9km/h | 26475m | 4.2m/s | -48.6°C | 3.2% | 0hPa | 2.6V | 00:00:00 | 00:00:00 | 00:00:00 | |
| IW2NTF | 2026-08-31 11:48:01 | 44.83170 | 8.90045 | 161° | 11km/h | 26416m | 5.5m/s | -48.4°C | 3.1% | 0hPa | 2.6V | 08:30:00 | 02:11:21 | 00:00:00 | |
| AUTORXJP | 2026-08-31 11:47:57 | 44.83167 | 8.90047 | 150° | 13km/h | 26421m | 4.3m/s | -48.4°C | 0.7% | -1.0hPa | 2.7V | 00:00:00 | 00:00:00 | 00:00:00 | |
| DO3MHA-12 | 2026-08-31 11:47:55 | 44.83173 | 8.90045 | 184° | 9km/h | 26410m | 5.6m/s | -48.4°C | 3.1% | 0hPa | 2.7V | 00:00:00 | 02:11:20 | 00:00:00 | |
| IW2NTF | 2026-08-31 11:47:52 | 44.83185 | 8.90034 | 163° | 13km/h | 26367m | 4.3m/s | -48.4°C | 3.1% | 0hPa | 2.6V | 08:30:00 | 02:11:11 | 00:00:00 | |
| DO3MHA-12 | 2026-08-31 11:47:44 | 44.83192 | 8.90032 | 162° | 7km/h | 26358m | 4.8m/s | -48.5°C | 3.1% | 0hPa | 2.6V | 00:00:00 | 02:11:09 | 00:00:00 | |
| IW2NTF | 2026-08-31 11:47:42 | 44.83197 | 8.90017 | 64° | 5km/h | 26318m | 5.8m/s | -49°C | 3.2% | 0hPa | 2.6V | 08:30:00 | 02:11:01 | 00:00:00 | |
| DB0UT-7 | 2026-08-31 11:47:40 | 44.83197 | 8.90022 | 106° | 13km/h | 26338m | 5.6m/s | -48.7°C | 3.2% | 0hPa | 2.6V | 00:00:00 | 02:11:05 | 08:30:00 | |
| OE5DXL-15 | 2026-08-31 11:47:39 | 44.83198 | 8.90019 | 95° | 13km/h | 26328m | 4.6m/s | -48.8°C | 3.2% | 0hPa | 2.7V | 00:00:00 | 00:00:00 | 00:00:00 | |
| DO3MHA-12 | 2026-08-31 11:47:34 | 44.83196 | 8.90012 | 82° | 15km/h | 26308m | 4.0m/s | -48.9°C | 3.2% | 0hPa | 2.7V | 00:00:00 | 02:10:59 | 00:00:00 | |
| IW2NTF | 2026-08-31 11:47:32 | 44.83218 | 8.89983 | 133° | 20km/h | 26268m | 5.4m/s | -48.7°C | 3.1% | 0hPa | 2.7V | 08:30:00 | 02:10:51 | 00:00:00 | |
| AUTORXJP | 2026-08-31 11:47:26 | 44.83218 | 8.89983 | 133° | 18km/h | 26268m | 5.4m/s | -48.7°C | 0.7% | -1.0hPa | 2.6V | 00:00:00 | 00:00:00 | 00:00:00 | |
| DO3MHA-12 | 2026-08-31 11:47:24 | 44.83224 | 8.89975 | 137° | 13km/h | 26258m | 4.3m/s | -48.6°C | 3.2% | 0hPa | 2.6V | 00:00:00 | 02:10:49 | 08:30:00 | |
| IW2NTF | 2026-08-31 11:47:21 | 44.83231 | 8.89943 | 143° | 9km/h | 26217m | 4.5m/s | -48.9°C | 3.2% | 0hPa | 2.7V | 08:30:00 | 02:10:41 | 00:00:00 | |
| DO3MHA-12 | 2026-08-31 11:47:14 | 44.83235 | 8.89938 | 133° | 15km/h | 26209m | 5.5m/s | -48.9°C | 3.2% | 0hPa | 2.7V | 00:00:00 | 02:10:39 | 00:00:00 | |
| IW2NTF | 2026-08-31 11:47:11 | 44.83239 | 8.89898 | 73° | 11km/h | 26168m | 5.2m/s | -49.1°C | 3.2% | 0hPa | 2.7V | 08:30:00 | 02:10:31 | 00:00:00 | |
| DB0UT-7 | 2026-08-31 11:47:10 | 44.83240 | 8.89915 | 94° | 16km/h | 26189m | 5.4m/s | -48.9°C | 3.2% | 0hPa | 2.6V | 00:00:00 | 00:00:00 | 00:00:00 | |
| OE5DXL-15 | 2026-08-31 11:47:08 | 44.83240 | 8.89905 | 84° | 16km/h | 26179m | 4.7m/s | -48.9°C | 3.2% | 0hPa | 2.6V | 00:00:00 | 00:00:00 | 08:30:00 | |
| DO3MHA-12 | 2026-08-31 11:47:04 | 44.83237 | 8.89888 | 74° | 16km/h | 26158m | 5.0m/s | -49.0°C | 3.1% | 0hPa | 2.6V | 00:00:00 | 02:10:29 | 00:00:00 | |
| IW2NTF | 2026-08-31 11:47:02 | 44.83233 | 8.89846 | 76° | 22km/h | 26118m | 4.1m/s | -49.7°C | 3.2% | 0hPa | 2.6V | 08:30:00 | 02:10:21 | 00:00:00 | |
| AUTORXJP | 2026-08-31 11:46:55 | 44.83232 | 8.89839 | 75° | 20km/h | 26114m | 4.0m/s | -49.7°C | 0.8% | -1.0hPa | 2.7V | 00:00:00 | 00:00:00 | 00:00:00 | |
| DO3MHA-12 | 2026-08-31 11:46:54 | 44.83231 | 8.89832 | 78° | 18km/h | 26109m | 5.6m/s | -49.8°C | 3.4% | 0hPa | 2.7V | 00:00:00 | 02:10:19 | 00:00:00 | |
| IW2NTF | 2026-08-31 11:46:51 | 44.83225 | 8.89784 | 76° | 24km/h | 26070m | 4.5m/s | -49.9°C | 3.3% | 0hPa | 2.6V | 08:30:00 | 02:10:11 | 00:00:00 | |
| DO3MHA-12 | 2026-08-31 11:46:44 | 44.83222 | 8.89771 | 65° | 18km/h | 26060m | 5.5m/s | -49.8°C | 3.3% | 0hPa | 2.7V | 00:00:00 | 02:10:09 | 00:00:00 | |
| IW2NTF | 2026-08-31 11:46:42 | 44.83187 | 8.89760 | 347° | 18km/h | 26019m | 4.5m/s | -49.9°C | 3.3% | 0hPa | 2.7V | 08:30:00 | 02:10:01 | 00:00:00 | |
| DB0UT-7 | 2026-08-31 11:46:40 | 44.83208 | 8.89758 | 13° | 18km/h | 26040m | 4.4m/s | -49.7°C | 3.3% | 0hPa | 2.6V | 00:00:00 | 02:10:05 | 00:00:00 | |
| OE5DXL-15 | 2026-08-31 11:46:38 | 44.83197 | 8.89757 | 356° | 18km/h | 26030m | 5.8m/s | -49.8°C | 3.3% | 0hPa | 2.6V | 00:00:00 | 00:00:00 | 00:00:00 | |
| DO3MHA-12 | 2026-08-31 11:46:34 | 44.83179 | 8.89760 | 23° | 16km/h | 26009m | 6.1m/s | -50.0°C | 3.3% | 0hPa | 2.6V | 00:00:00 | 02:09:59 | 00:00:00 | |
| IW2NTF | 2026-08-31 11:46:31 | 44.83160 | 8.89734 | 351° | 20km/h | 25969m | 5.9m/s | -50.6°C | 3.4% | 0hPa | 2.6V | 08:30:00 | 02:09:51 | 00:00:00 | |
| IW2NTF | 2026-08-31 11:46:22 | 44.83106 | 8.89754 | 16° | 15km/h | 25916m | 4.8m/s | -50.6°C | 3.4% | 0hPa | 2.7V | 08:30:00 | 02:09:41 | 00:00:00 | |
| DO3MHA-12 | 2026-08-31 11:46:14 | 44.83100 | 8.89753 | 345° | 13km/h | 25906m | 5.1m/s | -50.6°C | 3.4% | 0hPa | 2.6V | 00:00:00 | 02:09:39 | 00:00:00 | |
| IW2NTF | 2026-08-31 11:46:11 | 44.83075 | 8.89760 | 2° | 9km/h | 25864m | 5.2m/s | -50.7°C | 3.6% | 0hPa | 2.6V | 08:30:00 | 02:09:31 | 00:00:00 | |
| DB0UT-7 | 2026-08-31 11:46:10 | 44.83087 | 8.89760 | 354° | 9km/h | 25886m | 5.2m/s | -50.8°C | 3.5% | 0hPa | 2.7V | 00:00:00 | 00:00:00 | 00:00:00 | |
| OE5DXL-15 | 2026-08-31 11:46:08 | 44.83080 | 8.89760 | 3° | 9km/h | 25876m | 4.9m/s | -50.7°C | 3.5% | 0hPa | 2.7V | 00:00:00 | 00:00:00 | 00:00:00 | |
| DO3MHA-12 | 2026-08-31 11:46:04 | 44.83071 | 8.89758 | 36° | 11km/h | 25855m | 5.6m/s | -50.6°C | 3.5% | 0hPa | 2.7V | 00:00:00 | 02:09:29 | 00:00:00 | |
| IW2NTF | 2026-08-31 11:46:01 | 44.83054 | 8.89752 | 334° | 9km/h | 25813m | 5.5m/s | -50.6°C | 3.4% | 0hPa | 2.7V | 08:30:00 | 02:09:21 | 00:00:00 | |
| AUTORXJP | 2026-08-31 11:45:53 | 44.83047 | 8.89755 | 341° | 11km/h | 25798m | 5.5m/s | -50.5°C | 0.8% | -1.0hPa | 2.6V | 00:00:00 | 00:00:00 | 00:00:00 | |
| IW2NTF | 2026-08-31 11:45:50 | 44.83033 | 8.89760 | 304° | 4km/h | 25760m | 5.4m/s | -50.6°C | 3.5% | 0hPa | 2.6V | 08:30:00 | 02:09:11 | 00:00:00 | |
| DO3MHA-12 | 2026-08-31 11:45:44 | 44.83033 | 8.89765 | 270° | 11km/h | 25750m | 4.6m/s | -50.6°C | 3.5% | 0hPa | 2.7V | 00:00:00 | 02:09:09 | 00:00:00 | |
| IW2NTF | 2026-08-31 11:45:39 | 44.83031 | 8.89793 | 270° | 11km/h | 25707m | 6.2m/s | -50.5°C | 3.4% | 0hPa | 2.7V | 08:30:00 | 02:09:01 | 00:00:00 | |
| OE5DXL-15 | 2026-08-31 11:45:38 | 44.83032 | 8.89787 | 295° | 7km/h | 25719m | 4.5m/s | -50.5°C | 3.5% | 0hPa | 2.6V | 00:00:00 | 00:00:00 | 00:00:00 | |
| DO3MHA-12 | 2026-08-31 11:45:34 | 44.83032 | 8.89802 | 256° | 9km/h | 25698m | 4.4m/s | -50.5°C | 3.4% | 0hPa | 2.6V | 00:00:00 | 02:08:59 | 00:00:00 | |
| DB0UT-7 | 2026-08-31 11:45:31 | 44.83036 | 8.89813 | 225° | 5km/h | 25682m | 4.5m/s | -50.6°C | 3.4% | 0hPa | 2.6V | 00:00:00 | 02:08:56 | 00:00:00 | |
| IW2NTF | 2026-08-31 11:45:28 | 44.83045 | 8.89828 | 226° | 5km/h | 25656m | 5.8m/s | -50.5°C | 3.5% | 0hPa | 2.6V | 08:30:00 | 02:08:51 | 00:00:00 | |
| DO3MHA-12 | 2026-08-31 11:45:24 | 44.83046 | 8.89829 | 27° | 5km/h | 25645m | 4.7m/s | -50.6°C | 3.4% | 0hPa | 2.7V | 00:00:00 | 02:08:49 | 00:00:00 | |
| AUTORXJP | 2026-08-31 11:45:22 | 44.83044 | 8.89832 | 279° | 7km/h | 25629m | 4.9m/s | -50.8°C | 0.8% | -1.0hPa | 2.7V | 00:00:00 | 00:00:00 | 00:00:00 | |
| IW2NTF | 2026-08-31 11:45:19 | 44.83045 | 8.89844 | 216° | 4km/h | 25603m | 4.7m/s | -50.8°C | 3.5% | 0hPa | 2.7V | 08:30:00 | 02:08:41 | 00:00:00 | |
| DO3MHA-12 | 2026-08-31 11:45:14 | 44.83047 | 8.89846 | 211° | 5km/h | 25593m | 5.1m/s | -50.8°C | 3.5% | 0hPa | 2.6V | 00:00:00 | 02:08:39 | 00:00:00 | |
| IW2NTF | 2026-08-31 11:45:08 | 44.83050 | 8.89842 | 266° | 5km/h | 25552m | 5m/s | -51.1°C | 3.4% | 0hPa | 2.6V | 08:30:00 | 02:08:31 | 00:00:00 | |
| OE5DXL-15 | 2026-08-31 11:45:08 | 44.83051 | 8.89842 | 68° | 7km/h | 25563m | 4.8m/s | -50.9°C | 3.5% | 0hPa | 2.7V | 00:00:00 | 00:00:00 | 00:00:00 | |
| DO3MHA-12 | 2026-08-31 11:45:04 | 44.83051 | 8.89846 | 259° | 5km/h | 25543m | 5.1m/s | -51.1°C | 3.5% | 0hPa | 2.7V | 00:00:00 | 02:08:29 | 00:00:00 | |
| DB0UT-7 | 2026-08-31 11:45:01 | 44.83052 | 8.89848 | 132° | 11km/h | 25527m | 4.9m/s | -51.1°C | 3.5% | 0hPa | 2.7V | 00:00:00 | 00:00:00 | 00:00:00 | |
| IW2NTF | 2026-08-31 11:44:59 | 44.83052 | 8.89839 | 51° | 11km/h | 25500m | 5.9m/s | -51.1°C | 3.5% | 0hPa | 2.7V | 08:30:00 | 02:08:21 | 00:00:00 | |
| AUTORXJP | 2026-08-31 11:44:51 | 44.83038 | 8.89844 | 278° | 13km/h | 25472m | 4.5m/s | -51.2°C | 0.8% | -1.0hPa | 2.6V | 00:00:00 | 00:00:00 | 00:00:00 | |
| IW2NTF | 2026-08-31 11:44:49 | 44.83037 | 8.89853 | 25° | 4km/h | 25452m | 4.4m/s | -51.2°C | 3.5% | 0hPa | 2.6V | 08:30:00 | 02:08:11 | 00:00:00 | |
| DO3MHA-12 | 2026-08-31 11:44:44 | 44.83035 | 8.89851 | 6° | 5km/h | 25443m | 5.8m/s | -51.3°C | 3.5% | 0hPa | 2.6V | 00:00:00 | 02:08:09 | 00:00:00 | |
| IW2NTF | 2026-08-31 11:44:38 | 44.83025 | 8.89865 | 308° | 11km/h | 25392m | 4.4m/s | -51.3°C | 3.6% | 0hPa | 2.6V | 08:30:00 | 02:07:59 | 00:00:00 | |
| OE5DXL-15 | 2026-08-31 11:44:38 | 44.83028 | 8.89856 | 320° | 13km/h | 25412m | 4.6m/s | -51.3°C | 3.6% | 0hPa | 2.7V | 00:00:00 | 00:00:00 | 00:00:00 | |
| DO3MHA-12 | 2026-08-31 11:44:34 | 44.83025 | 8.89865 | 309° | 15km/h | 25392m | 4.3m/s | -51.3°C | 3.6% | 0hPa | 2.7V | 00:00:00 | 02:07:59 | 00:00:00 | |
| IW2NTF | 2026-08-31 11:44:28 | 44.82996 | 8.89893 | 311° | 11km/h | 25343m | 5.6m/s | -51.2°C | 3.5% | 0hPa | 2.7V | 08:30:00 | 02:07:49 | 00:00:00 | |
| DB0UT-7 | 2026-08-31 11:44:27 | 44.83003 | 8.89880 | 312° | 15km/h | 25358m | 4.2m/s | -51.2°C | 3.5% | 0hPa | 2.6V | 00:00:00 | 02:07:52 | 00:00:00 | |
| DO3MHA-12 | 2026-08-31 11:44:24 | 44.82996 | 8.89892 | 312° | 9km/h | 25343m | 5.5m/s | -51.2°C | 3.5% | 0hPa | 2.7V | 00:00:00 | 02:07:49 | 08:30:00 | |
| AUTORXJP | 2026-08-31 11:44:20 | 44.82995 | 8.89903 | 265° | 9km/h | 25317m | 4.5m/s | -51.3°C | 0.9% | -1.0hPa | 2.6V | 00:00:00 | 00:00:00 | 00:00:00 | |
| IW2NTF | 2026-08-31 11:44:18 | 44.82984 | 8.89921 | 328° | 20km/h | 25292m | 4.6m/s | -51.2°C | 3.5% | 0hPa | 2.6V | 08:30:00 | 02:07:39 | 00:00:00 | |
| DO3MHA-12 | 2026-08-31 11:44:14 | 44.82984 | 8.89921 | 329° | 16km/h | 25293m | 4.6m/s | -51.2°C | 3.5% | 0hPa | 2.6V | 00:00:00 | 02:07:39 | 00:00:00 | |
| IW2NTF | 2026-08-31 11:44:09 | 44.82966 | 8.89970 | 273° | 18km/h | 25242m | 3.8m/s | -51.3°C | 3.6% | 0hPa | 2.6V | 08:30:00 | 02:07:29 | 00:00:00 | |
| OE5DXL-15 | 2026-08-31 11:44:08 | 44.82967 | 8.89949 | 290° | 15km/h | 25262m | 4.3m/s | -51.2°C | 3.6% | 0hPa | 2.7V | 00:00:00 | 00:00:00 | 00:00:00 | |
| DO3MHA-12 | 2026-08-31 11:44:04 | 44.82966 | 8.89970 | 274° | 16km/h | 25242m | 3.7m/s | -51.2°C | 3.6% | 0hPa | 2.6V | 00:00:00 | 02:07:29 | 00:00:00 | |
| IW2NTF | 2026-08-31 11:43:59 | 44.82948 | 8.90017 | 282° | 11km/h | 25193m | 4.3m/s | -51.2°C | 3.5% | 0hPa | 2.6V | 08:30:00 | 02:07:19 | 00:00:00 | |
| AUTORXJP | 2026-08-31 11:43:50 | 44.82954 | 8.90049 | 240° | 13km/h | 25163m | 5.4m/s | -51.2°C | 0.9% | -1.0hPa | 2.6V | 00:00:00 | 00:00:00 | 00:00:00 | |
| IW2NTF | 2026-08-31 11:43:49 | 44.82960 | 8.90064 | 253° | 13km/h | 25144m | 5.3m/s | -51.2°C | 3.5% | 0hPa | 2.6V | 08:30:00 | 02:07:09 | 00:00:00 | |
| DO3MHA-12 | 2026-08-31 11:43:44 | 44.82960 | 8.90064 | 254° | 15km/h | 25144m | 5.2m/s | -51.1°C | 3.5% | 0hPa | 2.7V | 00:00:00 | 02:07:09 | 00:00:00 | |
| IW2NTF | 2026-08-31 11:43:39 | 44.82975 | 8.90108 | 222° | 15km/h | 25095m | 5.4m/s | -51.1°C | 3.6% | 0hPa | 2.7V | 08:30:00 | 02:06:59 | 00:00:00 | |
| OE5DXL-15 | 2026-08-31 11:43:38 | 44.82966 | 8.90089 | 240° | 13km/h | 25115m | 4.8m/s | -51.2°C | 3.7% | 0hPa | 2.6V | 00:00:00 | 00:00:00 | 00:00:00 | |
| DO3MHA-12 | 2026-08-31 11:43:34 | 44.82975 | 8.90108 | 223° | 9km/h | 25095m | 5.4m/s | -51.1°C | 3.6% | 0hPa | 2.6V | 00:00:00 | 02:06:59 | 00:00:00 | |
| IW2NTF | 2026-08-31 11:43:30 | 44.82997 | 8.90125 | 221° | 13km/h | 25045m | 5.8m/s | -51.1°C | 3.6% | 0hPa | 2.6V | 08:30:00 | 02:06:49 | 00:00:00 | |
| DB0UT-7 | 2026-08-31 11:43:27 | 44.82991 | 8.90119 | 216° | 13km/h | 25059m | 5.9m/s | -51.1°C | 3.5% | 0hPa | 2.6V | 00:00:00 | 02:06:52 | 00:00:00 | |
| DO3MHA-12 | 2026-08-31 11:43:24 | 44.82997 | 8.90125 | 222° | 15km/h | 25045m | 5.7m/s | -51.0°C | 3.6% | 0hPa | 2.6V | 00:00:00 | 02:06:49 | 00:00:00 | |
| IW2NTF | 2026-08-31 11:43:19 | 44.83030 | 8.90131 | 200° | 11km/h | 24997m | 4.6m/s | -51.1°C | 3.6% | 0hPa | 2.7V | 08:30:00 | 02:06:39 | 00:00:00 | |
| AUTORXJP | 2026-08-31 11:43:18 | 44.83022 | 8.90134 | 149° | 13km/h | 25012m | 3.6m/s | -51.1°C | 0.9% | -1.0hPa | 2.7V | 00:00:00 | 00:00:00 | 00:00:00 | |
| DO3MHA-12 | 2026-08-31 11:43:14 | 44.83030 | 8.90131 | 201° | 16km/h | 24998m | 4.5m/s | -51.0°C | 3.6% | 0hPa | 2.7V | 00:00:00 | 02:06:39 | 00:00:00 | |
| IW2NTF | 2026-08-31 11:43:09 | 44.83071 | 8.90132 | 142° | 9km/h | 24949m | 5.3m/s | -50.8°C | 3.6% | 0hPa | 2.7V | 08:30:00 | 02:06:29 | 00:00:00 | |
| OE5DXL-15 | 2026-08-31 11:43:08 | 44.83055 | 8.90135 | 175° | 11km/h | 24969m | 4.7m/s | -50.9°C | 3.6% | 0hPa | 2.6V | 00:00:00 | 00:00:00 | 00:00:00 | |
| DO3MHA-12 | 2026-08-31 11:43:04 | 44.83071 | 8.90132 | 143° | 7km/h | 24950m | 5.2m/s | -50.7°C | 3.6% | 0hPa | 2.6V | 00:00:00 | 02:06:29 | 00:00:00 | |
| IW2NTF | 2026-08-31 11:43:00 | 44.83076 | 8.90114 | 139° | 13km/h | 24900m | 4.6m/s | -50.6°C | 3.5% | 0hPa | 2.6V | 08:30:00 | 02:06:19 | 00:00:00 | |
| DB0UT-7 | 2026-08-31 11:42:57 | 44.83071 | 8.90118 | 192° | 11km/h | 24916m | 3.9m/s | -50.6°C | 3.4% | 0hPa | 2.7V | 00:00:00 | 00:00:00 | 08:30:00 | |
| DO3MHA-12 | 2026-08-31 11:42:54 | 44.83077 | 8.90114 | 140° | 9km/h | 24901m | 4.5m/s | -50.5°C | 3.5% | 0hPa | 2.6V | 00:00:00 | 02:06:19 | 08:30:00 | |
| IW2NTF | 2026-08-31 11:42:49 | 44.83079 | 8.90088 | 19° | 11km/h | 24851m | 4.5m/s | -50.7°C | 3.4% | 0hPa | 2.7V | 08:30:00 | 02:06:09 | 00:00:00 | |
| AUTORXJP | 2026-08-31 11:42:47 | 44.83083 | 8.90091 | 54° | 7km/h | 24862m | 5.3m/s | -50.5°C | 0.8% | -1.0hPa | 2.7V | 00:00:00 | 00:00:00 | 00:00:00 | |
| IW2NTF | 2026-08-31 11:42:39 | 44.83072 | 8.90056 | 65° | 13km/h | 24803m | 5.6m/s | -50.6°C | 3.5% | 0hPa | 2.7V | 08:30:00 | 02:05:59 | 00:00:00 | |
| OE5DXL-15 | 2026-08-31 11:42:38 | 44.83073 | 8.90068 | 95° | 20km/h | 24822m | 5.7m/s | -50.6°C | 3.5% | 0hPa | 2.7V | 00:00:00 | 00:00:00 | 08:30:00 | |
| DO3MHA-12 | 2026-08-31 11:42:34 | 44.83072 | 8.90056 | 66° | 18km/h | 24803m | 5.5m/s | -50.5°C | 3.5% | 0hPa | 2.6V | 00:00:00 | 02:05:59 | 00:00:00 | |
| IW2NTF | 2026-08-31 11:42:29 | 44.83032 | 8.90020 | 50° | 24km/h | 24753m | 4.4m/s | -50.7°C | 3.5% | 0hPa | 2.6V | 08:30:00 | 02:05:49 | 00:00:00 | |
| DB0UT-7 | 2026-08-31 11:42:27 | 44.83046 | 8.90035 | 21° | 22km/h | 24769m | 4.8m/s | -50.7°C | 3.4% | 0hPa | 2.6V | 00:00:00 | 02:05:52 | 00:00:00 | |
| DO3MHA-12 | 2026-08-31 11:42:24 | 44.83032 | 8.90020 | 51° | 22km/h | 24754m | 4.4m/s | -50.7°C | 3.5% | 0hPa | 2.6V | 00:00:00 | 02:05:49 | 00:00:00 | |
| IW2NTF | 2026-08-31 11:42:19 | 44.82985 | 8.89978 | 12° | 26km/h | 24705m | 5.5m/s | -50.9°C | 3.4% | 0hPa | 2.7V | 08:30:00 | 02:05:39 | 00:00:00 | |
| AUTORXJP | 2026-08-31 11:42:15 | 44.82992 | 8.89980 | 19° | 26km/h | 24710m | 5.4m/s | -50.9°C | 0.8% | -1.0hPa | 2.7V | 00:00:00 | 00:00:00 | 00:00:00 | |
| DO3MHA-12 | 2026-08-31 11:42:14 | 44.82985 | 8.89977 | 13° | 24km/h | 24705m | 5.5m/s | -50.9°C | 3.4% | 0hPa | 2.7V | 00:00:00 | 02:05:39 | 00:00:00 | |
| IW2NTF | 2026-08-31 11:42:09 | 44.82929 | 8.89957 | 21° | 18km/h | 24654m | 5.5m/s | -51.3°C | 3.6% | 0hPa | 2.7V | 08:30:00 | 02:05:29 | 00:00:00 | |
| OE5DXL-15 | 2026-08-31 11:42:08 | 44.82946 | 8.89966 | 19° | 20km/h | 24675m | 5.6m/s | -51.2°C | 3.4% | 0hPa | 2.6V | 00:00:00 | 00:00:00 | 00:00:00 | |
| DO3MHA-12 | 2026-08-31 11:42:04 | 44.82929 | 8.89957 | 22° | 20km/h | 24655m | 5.4m/s | -51.3°C | 3.6% | 0hPa | 2.6V | 00:00:00 | 02:05:29 | 00:00:00 | |
| IW2NTF | 2026-08-31 11:41:59 | 44.82881 | 8.89944 | 15° | 16km/h | 24603m | 5.8m/s | -51.5°C | 3.5% | 0hPa | 2.6V | 08:30:00 | 02:05:19 | 00:00:00 | |
| DB0UT-7 | 2026-08-31 11:41:57 | 44.82895 | 8.89949 | 9° | 22km/h | 24619m | 5.8m/s | -51.2°C | 3.5% | 0hPa | 2.6V | 00:00:00 | 00:00:00 | 00:00:00 | |
| DO3MHA-12 | 2026-08-31 11:41:54 | 44.82881 | 8.89944 | 16° | 18km/h | 24603m | 5.8m/s | -51.4°C | 3.5% | 0hPa | 2.6V | 00:00:00 | 02:05:19 | 00:00:00 | |
| IW2NTF | 2026-08-31 11:41:50 | 44.82835 | 8.89937 | 346° | 22km/h | 24553m | 5.2m/s | -51.5°C | 3.6% | 0hPa | 2.7V | 08:30:00 | 02:05:09 | 00:00:00 | |
| DO3MHA-12 | 2026-08-31 11:41:44 | 44.82836 | 8.89937 | 347° | 24km/h | 24554m | 5.2m/s | -51.5°C | 3.6% | 0hPa | 2.7V | 00:00:00 | 02:05:09 | 00:00:00 | |
| IW2NTF | 2026-08-31 11:41:39 | 44.82777 | 8.89944 | 5° | 26km/h | 24503m | 4.7m/s | -51.9°C | 3.7% | 0hPa | 2.7V | 08:30:00 | 02:04:59 | 00:00:00 | |
| OE5DXL-15 | 2026-08-31 11:41:38 | 44.82799 | 8.89944 | 352° | 26km/h | 24524m | 4.7m/s | -51.8°C | 3.6% | 0hPa | 2.6V | 00:00:00 | 00:00:00 | 00:00:00 | |
| DO3MHA-12 | 2026-08-31 11:41:34 | 44.82777 | 8.89944 | 6° | 27km/h | 24504m | 4.6m/s | -51.8°C | 3.7% | 0hPa | 2.6V | 00:00:00 | 02:04:59 | 00:00:00 | |
| IW2NTF | 2026-08-31 11:41:29 | 44.82708 | 8.89949 | 343° | 26km/h | 24452m | 4.7m/s | -52°C | 3.6% | 0hPa | 2.6V | 08:30:00 | 02:04:49 | 00:00:00 | |
| DB0UT-7 | 2026-08-31 11:41:27 | 44.82729 | 8.89944 | 355° | 24km/h | 24469m | 4.3m/s | -51.9°C | 3.7% | 0hPa | 2.7V | 00:00:00 | 02:04:52 | 00:00:00 | |
| DO3MHA-12 | 2026-08-31 11:41:24 | 44.82708 | 8.89949 | 344° | 26km/h | 24453m | 4.6m/s | -51.9°C | 3.6% | 0hPa | 2.6V | 00:00:00 | 02:04:49 | 08:30:00 | |
| IW2NTF | 2026-08-31 11:41:19 | 44.82643 | 8.89961 | 357° | 27km/h | 24401m | 5.1m/s | -52°C | 3.6% | 0hPa | 2.7V | 08:30:00 | 02:04:39 | 00:00:00 | |
| DO3MHA-12 | 2026-08-31 11:41:14 | 44.82643 | 8.89961 | 358° | 22km/h | 24401m | 5.1m/s | -51.9°C | 3.6% | 0hPa | 2.7V | 00:00:00 | 02:04:39 | 00:00:00 | |
| AUTORXJP | 2026-08-31 11:41:13 | 44.82636 | 8.89961 | 355° | 27km/h | 24397m | 4.5m/s | -52.0°C | 0.9% | -1.0hPa | 2.7V | 00:00:00 | 00:00:00 | 00:00:00 | |
| IW2NTF | 2026-08-31 11:41:09 | 44.82590 | 8.89985 | 332° | 16km/h | 24348m | 5.1m/s | -52.8°C | 3.8% | 0hPa | 2.7V | 08:30:00 | 02:04:29 | 00:00:00 | |
| OE5DXL-15 | 2026-08-31 11:41:08 | 44.82608 | 8.89974 | 338° | 20km/h | 24370m | 5.8m/s | -52.4°C | 3.8% | 0hPa | 2.7V | 00:00:00 | 00:00:00 | 00:00:00 | |
| DO3MHA-12 | 2026-08-31 11:41:04 | 44.82591 | 8.89985 | 333° | 24km/h | 24348m | 5.1m/s | -52.8°C | 3.8% | 0hPa | 2.6V | 00:00:00 | 02:04:29 | 00:00:00 | |
| IW2NTF | 2026-08-31 11:40:59 | 44.82538 | 8.90020 | 333° | 20km/h | 24297m | 5.1m/s | -52.9°C | 3.8% | 0hPa | 2.6V | 08:30:00 | 02:04:19 | 00:00:00 | |
| DB0UT-7 | 2026-08-31 11:40:57 | 44.82552 | 8.90006 | 325° | 20km/h | 24313m | 4.6m/s | -52.8°C | 3.8% | 0hPa | 2.6V | 00:00:00 | 00:00:00 | 00:00:00 | |
| DO3MHA-12 | 2026-08-31 11:40:54 | 44.82538 | 8.90019 | 334° | 16km/h | 24298m | 5.1m/s | -52.8°C | 3.8% | 0hPa | 2.6V | 00:00:00 | 02:04:19 | 00:00:00 | |
| IW2NTF | 2026-08-31 11:40:49 | 44.82499 | 8.90040 | 333° | 24km/h | 24247m | 5.7m/s | -53°C | 3.9% | 0hPa | 2.6V | 08:30:00 | 02:04:09 | 00:00:00 | |
| DO3MHA-12 | 2026-08-31 11:40:44 | 44.82499 | 8.90039 | 334° | 20km/h | 24248m | 5.7m/s | -52.9°C | 3.9% | 0hPa | 2.7V | 00:00:00 | 02:04:09 | 00:00:00 | |
| IW2NTF | 2026-08-31 11:40:40 | 44.82462 | 8.90078 | 343° | 7km/h | 24197m | 5.5m/s | -53.2°C | 3.9% | 0hPa | 2.7V | 08:30:00 | 02:03:59 | 00:00:00 | |
| OE5DXL-15 | 2026-08-31 11:40:38 | 44.82469 | 8.90068 | 325° | 24km/h | 24217m | 4.6m/s | -53.1°C | 3.8% | 0hPa | 2.6V | 00:00:00 | 00:00:00 | 00:00:00 | |
| DO3MHA-12 | 2026-08-31 11:40:34 | 44.82462 | 8.90078 | 344° | 7km/h | 24197m | 5.5m/s | -53.2°C | 3.9% | 0hPa | 2.6V | 00:00:00 | 02:03:59 | 00:00:00 | |
| IW2NTF | 2026-08-31 11:40:29 | 44.82404 | 8.90114 | 338° | 27km/h | 24146m | 4.5m/s | -53.4°C | 3.9% | 0hPa | 2.6V | 08:30:00 | 02:03:49 | 00:00:00 | |
| DB0UT-7 | 2026-08-31 11:40:27 | 44.82425 | 8.90099 | 329° | 26km/h | 24162m | 5.5m/s | -53.3°C | 3.9% | 0hPa | 2.7V | 00:00:00 | 02:03:52 | 00:00:00 | |
| DO3MHA-12 | 2026-08-31 11:40:21 | 44.82386 | 8.90126 | 328° | 26km/h | 24131m | 5.0m/s | -53.2°C | 3.9% | 0hPa | 2.7V | 00:00:00 | 02:03:46 | 00:00:00 | |
| IW2NTF | 2026-08-31 11:40:19 | 44.82351 | 8.90163 | 315° | 31km/h | 24095m | 4.3m/s | -53.5°C | 4% | 0hPa | 2.6V | 08:30:00 | 02:03:39 | 00:00:00 | |
| DO3MHA-12 | 2026-08-31 11:40:11 | 44.82333 | 8.90182 | 327° | 22km/h | 24080m | 3.9m/s | -53.5°C | 3.9% | 0hPa | 2.7V | 00:00:00 | 02:03:36 | 00:00:00 | |
| IW2NTF | 2026-08-31 11:40:10 | 44.82307 | 8.90223 | 314° | 22km/h | 24044m | 5m/s | -53.4°C | 4% | 0hPa | 2.7V | 08:30:00 | 02:03:29 | 00:00:00 | |
| OE5DXL-15 | 2026-08-31 11:40:09 | 44.82320 | 8.90198 | 309° | 16km/h | 24065m | 5.6m/s | -53.4°C | 4.0% | 0hPa | 2.7V | 00:00:00 | 00:00:00 | 00:00:00 | |
| DO3MHA-12 | 2026-08-31 11:40:01 | 44.82294 | 8.90241 | 312° | 20km/h | 24030m | 5.2m/s | -53.6°C | 4.0% | 0hPa | 2.7V | 00:00:00 | 02:03:26 | 00:00:00 | |
| IW2NTF | 2026-08-31 11:39:59 | 44.82270 | 8.90271 | 319° | 11km/h | 23996m | 5.5m/s | -53.3°C | 4% | 0hPa | 2.7V | 08:30:00 | 02:03:19 | 00:00:00 | |
| DB0UT-7 | 2026-08-31 11:39:57 | 44.82278 | 8.90264 | 328° | 11km/h | 24011m | 4.9m/s | -53.5°C | 4.1% | 0hPa | 2.6V | 00:00:00 | 00:00:00 | 00:00:00 | |
| DO3MHA-12 | 2026-08-31 11:39:51 | 44.82262 | 8.90281 | 327° | 13km/h | 23982m | 5.7m/s | -53.3°C | 3.9% | 0hPa | 2.6V | 00:00:00 | 02:03:16 | 08:30:00 | |
| IW2NTF | 2026-08-31 11:39:50 | 44.82240 | 8.90305 | 306° | 11km/h | 23946m | 5.1m/s | -53°C | 3.9% | 0hPa | 2.6V | 08:30:00 | 02:03:09 | 00:00:00 | |
| DO3MHA-12 | 2026-08-31 11:39:40 | 44.82234 | 8.90309 | 350° | 9km/h | 23926m | 5.4m/s | -52.9°C | 3.9% | 0hPa | 2.7V | 00:00:00 | 02:03:05 | 00:00:00 | |
| IW2NTF | 2026-08-31 11:39:39 | 44.82221 | 8.90315 | 351° | 9km/h | 23895m | 4.5m/s | -53°C | 3.9% | 0hPa | 2.7V | 08:30:00 | 02:02:59 | 00:00:00 | |
| OE5DXL-15 | 2026-08-31 11:39:38 | 44.82231 | 8.90311 | 335° | 7km/h | 23916m | 4.3m/s | -52.9°C | 3.8% | 0hPa | 2.6V | 00:00:00 | 00:00:00 | 00:00:00 | |
| DO3MHA-12 | 2026-08-31 11:39:30 | 44.82216 | 8.90322 | 288° | 5km/h | 23877m | 3.6m/s | -53.0°C | 3.9% | 0hPa | 2.7V | 00:00:00 | 02:02:55 | 00:00:00 | |
| IW2NTF | 2026-08-31 11:39:29 | 44.82212 | 8.90315 | 47° | 4km/h | 23848m | 5.2m/s | -53.1°C | 3.9% | 0hPa | 2.7V | 08:30:00 | 02:02:49 | 00:00:00 | |
| DO3MHA-12 | 2026-08-31 11:39:20 | 44.82207 | 8.90313 | 20° | 7km/h | 23829m | 5.3m/s | -53.0°C | 3.9% | 0hPa | 2.7V | 00:00:00 | 02:02:45 | 00:00:00 | |
| IW2NTF | 2026-08-31 11:39:19 | 44.82204 | 8.90307 | 115° | 7km/h | 23799m | 4.9m/s | -53.1°C | 3.9% | 0hPa | 2.7V | 08:30:00 | 02:02:39 | 00:00:00 | |
| DO3MHA-12 | 2026-08-31 11:39:10 | 44.82204 | 8.90293 | 77° | 5km/h | 23779m | 5.3m/s | -53.0°C | 3.9% | 0hPa | 2.7V | 00:00:00 | 02:02:35 | 00:00:00 | |
| AUTORXJP | 2026-08-31 11:39:09 | 44.82203 | 8.90291 | 67° | 4km/h | 23774m | 5.0m/s | -53.0°C | 1.0% | -1.0hPa | 2.7V | 00:00:00 | 00:00:00 | 00:00:00 | |
| IW2NTF | 2026-08-31 11:39:09 | 44.82197 | 8.90286 | 28° | 11km/h | 23749m | 4.6m/s | -52.9°C | 3.9% | 0hPa | 2.7V | 08:30:00 | 02:02:29 | 00:00:00 | |
| OE5DXL-15 | 2026-08-31 11:39:08 | 44.82203 | 8.90290 | 46° | 5km/h | 23769m | 4.1m/s | 0°C | 0% | 0hPa | 2.7V | 00:00:00 | 00:00:00 | 00:00:00 | |
| DO3MHA-12 | 2026-08-31 11:39:00 | 44.82192 | 8.90282 | 156° | 7km/h | 23730m | 5.1m/s | -52.9°C | 3.9% | 0hPa | 2.7V | 00:00:00 | 02:02:25 | 00:00:00 | |
| IW2NTF | 2026-08-31 11:38:59 | 44.82194 | 8.90274 | 57° | 2km/h | 23700m | 4.7m/s | -52.9°C | 3.9% | 0hPa | 2.7V | 08:30:00 | 02:02:19 | 00:00:00 | |
| DB0UT-7 | 2026-08-31 11:38:57 | 44.82194 | 8.90278 | 102° | 7km/h | 23714m | 4.4m/s | -52.8°C | 4.0% | 0hPa | 2.6V | 00:00:00 | 00:00:00 | 00:00:00 | |
| IW2NTF | 2026-08-31 11:38:49 | 44.82188 | 8.90260 | 241° | 2km/h | 23652m | 5.2m/s | -52.6°C | 3.8% | 0hPa | 2.6V | 08:30:00 | 02:02:09 | 00:00:00 | |
| DO3MHA-12 | 2026-08-31 11:38:47 | 44.82188 | 8.90259 | 57° | 7km/h | 23667m | 5.7m/s | -52.6°C | 3.8% | 0hPa | 2.7V | 00:00:00 | 02:02:12 | 00:00:00 | |
| IW2NTF | 2026-08-31 11:38:40 | 44.82169 | 8.90249 | 12° | 13km/h | 23600m | 5.6m/s | -52.6°C | 3.8% | 0hPa | 2.6V | 08:30:00 | 02:01:59 | 00:00:00 | |
| OE5DXL-15 | 2026-08-31 11:38:38 | 44.82183 | 8.90258 | 23° | 9km/h | 23621m | 5.2m/s | 0°C | 0% | 0hPa | 2.7V | 00:00:00 | 02:02:03 | 00:00:00 | |
| DO3MHA-12 | 2026-08-31 11:38:36 | 44.82176 | 8.90253 | 30° | 7km/h | 23610m | 4.3m/s | -52.6°C | 3.8% | 0hPa | 2.7V | 00:00:00 | 02:02:01 | 00:00:00 | |
| IW2NTF | 2026-08-31 11:38:29 | 44.82161 | 8.90259 | 334° | 5km/h | 23551m | 4.7m/s | -52.5°C | 3.9% | 0hPa | 2.7V | 08:30:00 | 02:01:49 | 00:00:00 | |
| DB0UT-7 | 2026-08-31 11:38:27 | 44.82162 | 8.90256 | 285° | 11km/h | 23567m | 4.8m/s | -52.5°C | 3.9% | 0hPa | 2.6V | 00:00:00 | 02:01:52 | 08:30:00 | |
| DO3MHA-12 | 2026-08-31 11:38:26 | 44.82162 | 8.90257 | 292° | 9km/h | 23561m | 5.7m/s | -52.4°C | 3.9% | 0hPa | 2.6V | 00:00:00 | 02:01:51 | 00:00:00 | |
| IW2NTF | 2026-08-31 11:38:19 | 44.82136 | 8.90270 | 352° | 5km/h | 23499m | 3.9m/s | -52.4°C | 3.8% | 0hPa | 2.6V | 08:30:00 | 02:01:39 | 00:00:00 | |
| DO3MHA-12 | 2026-08-31 11:38:16 | 44.82139 | 8.90268 | 326° | 11km/h | 23510m | 5.9m/s | -52.5°C | 3.8% | 0hPa | 2.6V | 00:00:00 | 02:01:41 | 08:30:00 | |
| IW2NTF | 2026-08-31 11:38:09 | 44.82101 | 8.90282 | 350° | 9km/h | 23454m | 5.3m/s | -52.3°C | 3.9% | 0hPa | 2.6V | 08:30:00 | 02:01:29 | 00:00:00 | |
| OE5DXL-15 | 2026-08-31 11:38:08 | 44.82119 | 8.90281 | 346° | 18km/h | 23473m | 4.5m/s | 0°C | 0% | 0hPa | 2.6V | 00:00:00 | 00:00:00 | 08:30:00 | |
| AUTORXJP | 2026-08-31 11:38:07 | 44.82108 | 8.90282 | 1° | 18km/h | 23464m | 4.4m/s | -52.4°C | 1.0% | -1.0hPa | 2.6V | 00:00:00 | 00:00:00 | 00:00:00 | |
| DO3MHA-12 | 2026-08-31 11:38:06 | 44.82108 | 8.90282 | 2° | 13km/h | 23464m | 4.4m/s | -52.4°C | 3.9% | 0hPa | 2.6V | 00:00:00 | 02:01:31 | 00:00:00 | |
| IW2NTF | 2026-08-31 11:37:59 | 44.82077 | 8.90310 | 336° | 13km/h | 23404m | 4.7m/s | -52.2°C | 3.8% | 0hPa | 2.6V | 08:30:00 | 02:01:19 | 00:00:00 | |
| DB0UT-7 | 2026-08-31 11:37:57 | 44.82087 | 8.90304 | 335° | 15km/h | 23420m | 4.6m/s | -52.3°C | 3.8% | 0hPa | 2.7V | 00:00:00 | 00:00:00 | 00:00:00 | |
| DO3MHA-12 | 2026-08-31 11:37:56 | 44.82083 | 8.90306 | 337° | 13km/h | 23415m | 5.0m/s | -52.3°C | 3.8% | 0hPa | 2.7V | 00:00:00 | 02:01:21 | 00:00:00 | |
| IW2NTF | 2026-08-31 11:37:49 | 44.82050 | 8.90336 | 313° | 20km/h | 23354m | 4.5m/s | -52.1°C | 3.8% | 0hPa | 2.7V | 08:30:00 | 02:01:09 | 00:00:00 | |
| DO3MHA-12 | 2026-08-31 11:37:46 | 44.82056 | 8.90326 | 302° | 18km/h | 23364m | 5.2m/s | -52.2°C | 3.8% | 0hPa | 2.7V | 00:00:00 | 02:01:11 | 00:00:00 | |
| IW2NTF | 2026-08-31 11:37:38 | 44.82021 | 8.90377 | 286° | 13km/h | 23299m | 5m/s | -52.2°C | 3.8% | 0hPa | 2.7V | 08:30:00 | 02:00:58 | 00:00:00 | |
| AUTORXJP | 2026-08-31 11:37:36 | 44.82022 | 8.90370 | 306° | 9km/h | 23309m | 5.6m/s | -52.1°C | 1.0% | -1.0hPa | 2.7V | 00:00:00 | 00:00:00 | 00:00:00 | |
| IW2NTF | 2026-08-31 11:37:27 | 44.82011 | 8.90411 | 268° | 4km/h | 23243m | 5.5m/s | -52°C | 3.7% | 0hPa | 2.7V | 08:30:00 | 02:00:47 | 00:00:00 | |
| DB0UT-7 | 2026-08-31 11:37:27 | 44.82016 | 8.90401 | 280° | 11km/h | 23269m | 4.1m/s | -52.2°C | 3.8% | 0hPa | 2.7V | 00:00:00 | 02:00:52 | 00:00:00 | |
| DO3MHA-12 | 2026-08-31 11:37:26 | 44.82015 | 8.90404 | 299° | 9km/h | 23264m | 5.8m/s | -52.2°C | 3.8% | 0hPa | 2.7V | 00:00:00 | 02:00:51 | 00:00:00 | |
| IW2NTF | 2026-08-31 11:37:17 | 44.82019 | 8.90447 | 256° | 7km/h | 23193m | 5.9m/s | -51.8°C | 3.8% | 0hPa | 2.7V | 08:30:00 | 02:00:37 | 00:00:00 | |
| DO3MHA-12 | 2026-08-31 11:37:16 | 44.82014 | 8.90432 | 255° | 9km/h | 23213m | 4.8m/s | -51.9°C | 3.7% | 0hPa | 2.7V | 00:00:00 | 02:00:41 | 00:00:00 | |
| IW2NTF | 2026-08-31 11:37:07 | 44.82017 | 8.90483 | 264° | 16km/h | 23142m | 5.8m/s | -52°C | 3.7% | 0hPa | 2.7V | 08:30:00 | 02:00:27 | 00:00:00 | |
| DO3MHA-12 | 2026-08-31 11:37:06 | 44.82018 | 8.90462 | 269° | 15km/h | 23162m | 4.4m/s | -51.9°C | 3.7% | 0hPa | 2.6V | 00:00:00 | 02:00:31 | 00:00:00 | |
| AUTORXJP | 2026-08-31 11:37:05 | 44.82017 | 8.90472 | 277° | 15km/h | 23152m | 4.9m/s | -52.0°C | 1.0% | -1.0hPa | 2.6V | 00:00:00 | 00:00:00 | 00:00:00 | |
| IW2NTF | 2026-08-31 11:36:57 | 44.82021 | 8.90528 | 258° | 11km/h | 23090m | 3.9m/s | -51.9°C | 3.7% | 0hPa | 2.6V | 08:30:00 | 02:00:17 | 00:00:00 | |
| DB0UT-7 | 2026-08-31 11:36:57 | 44.82023 | 8.90509 | 273° | 9km/h | 23117m | 5.6m/s | -51.6°C | 3.7% | 0hPa | 2.7V | 00:00:00 | 00:00:00 | 00:00:00 | |
| DO3MHA-12 | 2026-08-31 11:36:56 | 44.82022 | 8.90513 | 285° | 11km/h | 23111m | 5.1m/s | -51.7°C | 3.7% | 0hPa | 2.7V | 00:00:00 | 02:00:21 | 00:00:00 | |
| DO3MHA-12 | 2026-08-31 11:36:46 | 44.82025 | 8.90552 | 234° | 11km/h | 23060m | 5.0m/s | -51.7°C | 3.7% | 0hPa | 2.7V | 00:00:00 | 02:00:11 | 08:30:00 | |
| DO3MHA-12 | 2026-08-31 11:36:36 | 44.82035 | 8.90586 | 271° | 7km/h | 23009m | 4.9m/s | -51.5°C | 3.6% | 0hPa | 2.6V | 00:00:00 | 02:00:01 | 00:00:00 | |
| AUTORXJP | 2026-08-31 11:36:34 | 44.82036 | 8.90594 | 208° | 5km/h | 22995m | 5.5m/s | -51.7°C | 0.9% | -1.0hPa | 2.6V | 00:00:00 | 00:00:00 | 00:00:00 | |
| DB0UT-7 | 2026-08-31 11:36:28 | 44.82043 | 8.90587 | 88° | 5km/h | 22964m | 5.2m/s | -51.6°C | 3.6% | 0hPa | 2.6V | 00:00:00 | 01:59:52 | 00:00:00 | |
| DO3MHA-12 | 2026-08-31 11:36:27 | 44.82043 | 8.90586 | 105° | 5km/h | 22959m | 5.1m/s | -51.6°C | 3.6% | 0hPa | 2.6V | 00:00:00 | 01:59:51 | 00:00:00 | |
| IW2NTF | 2026-08-31 11:36:21 | 44.82052 | 8.90583 | 131° | 11km/h | 22911m | 5.5m/s | -51.8°C | 3.6% | 0hPa | 2.6V | 08:30:00 | 01:59:41 | 00:00:00 | |
| DO3MHA-12 | 2026-08-31 11:36:16 | 44.82052 | 8.90583 | 132° | 5km/h | 22911m | 5.4m/s | -51.8°C | 3.6% | 0hPa | 2.6V | 00:00:00 | 01:59:41 | 00:00:00 | |
| IW2NTF | 2026-08-31 11:36:11 | 44.82059 | 8.90571 | 171° | 2km/h | 22862m | 5.4m/s | -52°C | 3.8% | 0hPa | 2.6V | 08:30:00 | 01:59:31 | 00:00:00 | |
| DO3MHA-12 | 2026-08-31 11:36:06 | 44.82059 | 8.90571 | 172° | 4km/h | 22862m | 5.4m/s | -52.0°C | 3.8% | 0hPa | 2.6V | 00:00:00 | 01:59:31 | 00:00:00 | |
| AUTORXJP | 2026-08-31 11:36:03 | 44.82063 | 8.90566 | 103° | 4km/h | 22842m | 5.3m/s | -52.1°C | 0.9% | -1.0hPa | 2.6V | 00:00:00 | 00:00:00 | 00:00:00 | |
| IW2NTF | 2026-08-31 11:36:01 | 44.82066 | 8.90557 | 98° | 4km/h | 22812m | 5.5m/s | -52.2°C | 3.7% | 0hPa | 2.6V | 08:30:00 | 01:59:21 | 00:00:00 | |
| DB0UT-7 | 2026-08-31 11:35:57 | 44.82065 | 8.90558 | 125° | 11km/h | 22817m | 4.3m/s | -52.0°C | 3.7% | 0hPa | 2.7V | 00:00:00 | 00:00:00 | 00:00:00 | |
| DO3MHA-12 | 2026-08-31 11:35:53 | 44.82065 | 8.90553 | 94° | 9km/h | 22797m | 5.7m/s | -52.1°C | 3.9% | 0hPa | 2.7V | 00:00:00 | 01:59:18 | 00:00:00 | |
| IW2NTF | 2026-08-31 11:35:51 | 44.82067 | 8.90531 | 105° | 7km/h | 22764m | 5.7m/s | -52.3°C | 3.8% | 0hPa | 2.7V | 08:30:00 | 01:59:11 | 00:00:00 | |
| DO3MHA-12 | 2026-08-31 11:35:43 | 44.82070 | 8.90525 | 126° | 11km/h | 22749m | 4.7m/s | -52.1°C | 3.8% | 0hPa | 2.7V | 00:00:00 | 01:59:08 | 00:00:00 | |
| IW2NTF | 2026-08-31 11:35:41 | 44.82067 | 8.90501 | 89° | 15km/h | 22716m | 4.3m/s | -52°C | 3.8% | 0hPa | 2.6V | 08:30:00 | 01:59:01 | 00:00:00 | |
| DO3MHA-12 | 2026-08-31 11:35:33 | 44.82067 | 8.90483 | 81° | 15km/h | 22701m | 4.3m/s | -51.8°C | 3.8% | 0hPa | 2.6V | 00:00:00 | 01:58:58 | 00:00:00 | |
| AUTORXJP | 2026-08-31 11:35:31 | 44.82066 | 8.90471 | 96° | 15km/h | 22691m | 5.7m/s | -51.8°C | 1.0% | -1.0hPa | 2.6V | 00:00:00 | 00:00:00 | 00:00:00 | |
| IW2NTF | 2026-08-31 11:35:28 | 44.82065 | 8.90433 | 84° | 16km/h | 22652m | 4m/s | -51.4°C | 3.6% | 0hPa | 2.6V | 08:30:00 | 01:58:48 | 00:00:00 | |
| DB0UT-7 | 2026-08-31 11:35:27 | 44.82067 | 8.90452 | 75° | 16km/h | 22671m | 4.2m/s | -51.6°C | 3.7% | 0hPa | 2.7V | 00:00:00 | 01:58:52 | 00:00:00 | |
| DO3MHA-12 | 2026-08-31 11:35:23 | 44.82064 | 8.90433 | 85° | 18km/h | 22652m | 4.0m/s | -51.4°C | 3.6% | 0hPa | 2.6V | 00:00:00 | 01:58:48 | 00:00:00 | |
| IW2NTF | 2026-08-31 11:35:14 | 44.82050 | 8.90372 | 50° | 15km/h | 22603m | 5.1m/s | -51.6°C | 3.7% | 0hPa | 2.6V | 08:30:00 | 01:58:38 | 00:00:00 | |
| DO3MHA-12 | 2026-08-31 11:35:12 | 44.82048 | 8.90368 | 44° | 16km/h | 22599m | 4.1m/s | -51.6°C | 3.7% | 0hPa | 2.7V | 00:00:00 | 01:58:37 | 08:30:00 | |
| IW2NTF | 2026-08-31 11:35:08 | 44.82024 | 8.90326 | 60° | 18km/h | 22553m | 5m/s | -51.5°C | 3.6% | 0hPa | 2.6V | 08:30:00 | 01:58:28 | 00:00:00 | |
| DO3MHA-12 | 2026-08-31 11:35:00 | 44.82016 | 8.90309 | 48° | 24km/h | 22539m | 5.0m/s | -51.5°C | 3.6% | 0hPa | 2.6V | 00:00:00 | 01:58:25 | 00:00:00 | |
| DB0UT-7 | 2026-08-31 11:34:57 | 44.82006 | 8.90293 | 56° | 26km/h | 22524m | 5.5m/s | -51.6°C | 3.7% | 0hPa | 2.6V | 00:00:00 | 00:00:00 | 00:00:00 | |
| IW2NTF | 2026-08-31 11:34:54 | 44.81998 | 8.90269 | 64° | 22km/h | 22505m | 4.2m/s | -51.4°C | 3.6% | 0hPa | 2.6V | 08:30:00 | 01:58:18 | 00:00:00 | |
| IW2NTF | 2026-08-31 11:34:48 | 44.81978 | 8.90195 | 71° | 22km/h | 22457m | 4.2m/s | -51.4°C | 3.7% | 0hPa | 2.7V | 08:30:00 | 01:58:08 | 00:00:00 | |
| IW2NTF | 2026-08-31 11:34:34 | 44.81948 | 8.90097 | 61° | 29km/h | 22410m | 4.3m/s | -51.4°C | 3.5% | 0hPa | 2.6V | 08:30:00 | 01:57:58 | 00:00:00 | |
| AUTORXJP | 2026-08-31 11:34:29 | 44.81938 | 8.90066 | 67° | 22km/h | 22391m | 4.3m/s | -51.4°C | 0.9% | -1.0hPa | 2.6V | 00:00:00 | 00:00:00 | 00:00:00 | |
| IW2NTF | 2026-08-31 11:34:28 | 44.81916 | 8.90018 | 61° | 31km/h | 22362m | 4.8m/s | -51.3°C | 3.6% | 0hPa | 2.6V | 08:30:00 | 01:57:48 | 00:00:00 | |
| DB0UT-7 | 2026-08-31 11:34:27 | 44.81932 | 8.90051 | 59° | 27km/h | 22382m | 5.2m/s | -51.3°C | 3.7% | 0hPa | 2.6V | 00:00:00 | 01:57:52 | 00:00:00 | |
| IW2NTF | 2026-08-31 11:34:14 | 44.81878 | 8.89935 | 63° | 26km/h | 22318m | 3.9m/s | -51.6°C | 3.5% | 0hPa | 2.6V | 08:30:00 | 01:57:38 | 00:00:00 | |
| DO3MHA-12 | 2026-08-31 11:34:12 | 44.81875 | 8.89927 | 61° | 27km/h | 22313m | 5.2m/s | -51.7°C | 3.6% | 0hPa | 2.7V | 00:00:00 | 01:57:37 | 00:00:00 | |
| IW2NTF | 2026-08-31 11:34:08 | 44.81831 | 8.89865 | 36° | 24km/h | 22271m | 4.3m/s | -52.1°C | 3.7% | 0hPa | 2.7V | 08:30:00 | 01:57:28 | 00:00:00 | |
| AUTORXJP | 2026-08-31 11:33:58 | 44.81815 | 8.89831 | 60° | 29km/h | 22247m | 5.6m/s | -52.2°C | 1.0% | -1.0hPa | 2.7V | 00:00:00 | 00:00:00 | 00:00:00 | |
| IW2NTF | 2026-08-31 11:33:54 | 44.81789 | 8.89787 | 32° | 27km/h | 22224m | 3.7m/s | -52.2°C | 3.7% | 0hPa | 2.7V | 08:30:00 | 01:57:18 | 00:00:00 | |
| DO3MHA-12 | 2026-08-31 11:33:52 | 44.81783 | 8.89782 | 23° | 26km/h | 22220m | 5.5m/s | -52.2°C | 3.7% | 0hPa | 2.7V | 00:00:00 | 01:57:17 | 00:00:00 | |
| IW2NTF | 2026-08-31 11:33:49 | 44.81731 | 8.89753 | 33° | 33km/h | 22178m | 4.7m/s | -52.4°C | 3.7% | 0hPa | 2.7V | 08:30:00 | 01:57:08 | 00:00:00 | |
| DO3MHA-12 | 2026-08-31 11:33:42 | 44.81723 | 8.89747 | 30° | 33km/h | 22174m | 4.4m/s | -52.4°C | 3.8% | 0hPa | 2.6V | 00:00:00 | 01:57:07 | 00:00:00 | |
| IW2NTF | 2026-08-31 11:33:38 | 44.81653 | 8.89725 | 6° | 29km/h | 22130m | 5.1m/s | -52.6°C | 3.8% | 0hPa | 2.6V | 08:30:00 | 01:56:58 | 00:00:00 | |
| DO3MHA-12 | 2026-08-31 11:33:32 | 44.81646 | 8.89724 | 10° | 29km/h | 22126m | 3.8m/s | -52.6°C | 3.9% | 0hPa | 2.7V | 00:00:00 | 01:56:57 | 00:00:00 | |
| IW2NTF | 2026-08-31 11:33:28 | 44.81581 | 8.89710 | 4° | 27km/h | 22085m | 5.2m/s | -52.7°C | 3.8% | 0hPa | 2.6V | 08:30:00 | 01:56:48 | 00:00:00 | |
| DB0UT-7 | 2026-08-31 11:33:27 | 44.81608 | 8.89713 | 9° | 29km/h | 22103m | 4.7m/s | -52.7°C | 3.9% | 0hPa | 2.6V | 00:00:00 | 01:56:52 | 00:00:00 | |
| DO3MHA-12 | 2026-08-31 11:33:22 | 44.81574 | 8.89709 | 7° | 27km/h | 22080m | 4.9m/s | -52.6°C | 3.8% | 0hPa | 2.6V | 00:00:00 | 01:56:47 | 00:00:00 | |
| IW2NTF | 2026-08-31 11:33:19 | 44.81510 | 8.89710 | 350° | 31km/h | 22037m | 5m/s | -52.6°C | 3.9% | 0hPa | 2.6V | 08:30:00 | 01:56:38 | 00:00:00 | |
| DO3MHA-12 | 2026-08-31 11:33:12 | 44.81502 | 8.89713 | 346° | 31km/h | 22032m | 4.8m/s | -52.6°C | 3.9% | 0hPa | 2.7V | 00:00:00 | 01:56:37 | 00:00:00 | |
| IW2NTF | 2026-08-31 11:33:08 | 44.81434 | 8.89732 | 347° | 27km/h | 21989m | 3.5m/s | -52.6°C | 3.8% | 0hPa | 2.7V | 08:30:00 | 01:56:28 | 00:00:00 | |
| DO3MHA-12 | 2026-08-31 11:33:02 | 44.81427 | 8.89734 | 346° | 31km/h | 21985m | 5.3m/s | -52.6°C | 3.8% | 0hPa | 2.6V | 00:00:00 | 01:56:27 | 08:30:00 | |
| IW2NTF | 2026-08-31 11:32:58 | 44.81365 | 8.89770 | 342° | 29km/h | 21943m | 4.1m/s | -52.6°C | 3.8% | 0hPa | 2.7V | 08:30:00 | 01:56:18 | 00:00:00 | |
| DB0UT-7 | 2026-08-31 11:32:57 | 44.81390 | 8.89753 | 331° | 26km/h | 21961m | 4.9m/s | -52.6°C | 3.8% | 0hPa | 2.7V | 00:00:00 | 00:00:00 | 00:00:00 | |
| DO3MHA-12 | 2026-08-31 11:32:51 | 44.81351 | 8.89775 | 348° | 26km/h | 21933m | 5.3m/s | -52.7°C | 3.8% | 0hPa | 2.7V | 00:00:00 | 01:56:16 | 00:00:00 | |
| IW2NTF | 2026-08-31 11:32:48 | 44.81303 | 8.89799 | 328° | 24km/h | 21899m | 4.8m/s | -52.9°C | 3.8% | 0hPa | 2.7V | 08:30:00 | 01:56:08 | 00:00:00 | |
| IW2NTF | 2026-08-31 11:32:39 | 44.81250 | 8.89844 | 325° | 24km/h | 21854m | 3.8m/s | -53.2°C | 3.8% | 0hPa | 2.6V | 08:30:00 | 01:55:58 | 00:00:00 | |
| DO3MHA-12 | 2026-08-31 11:32:29 | 44.81232 | 8.89870 | 305° | 27km/h | 21836m | 4.0m/s | -53.2°C | 3.8% | 0hPa | 2.6V | 00:00:00 | 01:55:54 | 00:00:00 | |
| IW2NTF | 2026-08-31 11:32:28 | 44.81200 | 8.89915 | 317° | 26km/h | 21807m | 4.7m/s | -53.3°C | 3.9% | 0hPa | 2.7V | 08:30:00 | 01:55:48 | 00:00:00 | |
| DB0UT-7 | 2026-08-31 11:32:27 | 44.81223 | 8.89887 | 313° | 29km/h | 21826m | 5.4m/s | -53.3°C | 3.8% | 0hPa | 2.7V | 00:00:00 | 01:55:52 | 00:00:00 | |
| DO3MHA-12 | 2026-08-31 11:32:19 | 44.81180 | 8.89941 | 319° | 31km/h | 21788m | 4.1m/s | -53.8°C | 4.0% | 0hPa | 2.7V | 00:00:00 | 01:55:44 | 00:00:00 | |
| IW2NTF | 2026-08-31 11:32:18 | 44.81147 | 8.89981 | 331° | 31km/h | 21760m | 5.6m/s | -54.1°C | 4.1% | 0hPa | 2.7V | 08:30:00 | 01:55:38 | 00:00:00 | |
| DO3MHA-12 | 2026-08-31 11:32:09 | 44.81114 | 8.89995 | 351° | 29km/h | 21742m | 4.7m/s | -54.2°C | 4.1% | 0hPa | 2.6V | 00:00:00 | 01:55:34 | 00:00:00 | |
| IW2NTF | 2026-08-31 11:32:08 | 44.81070 | 8.90012 | 332° | 27km/h | 21713m | 5m/s | -54.2°C | 4.2% | 0hPa | 2.6V | 08:30:00 | 01:55:28 | 00:00:00 | |
| DO3MHA-12 | 2026-08-31 11:31:59 | 44.81046 | 8.90032 | 333° | 29km/h | 21695m | 5.0m/s | -54.1°C | 4.1% | 0hPa | 2.7V | 00:00:00 | 01:55:24 | 00:00:00 | |
| IW2NTF | 2026-08-31 11:31:58 | 44.81010 | 8.90059 | 319° | 24km/h | 21667m | 5m/s | -54°C | 4.1% | 0hPa | 2.6V | 08:30:00 | 01:55:18 | 00:00:00 | |
| DB0UT-7 | 2026-08-31 11:31:57 | 44.81032 | 8.90041 | 339° | 27km/h | 21686m | 4.7m/s | -54.1°C | 4.0% | 0hPa | 2.6V | 00:00:00 | 00:00:00 | 00:00:00 | |
| DO3MHA-12 | 2026-08-31 11:31:49 | 44.80989 | 8.90087 | 313° | 27km/h | 21649m | 3.9m/s | -54.0°C | 4.1% | 0hPa | 2.6V | 00:00:00 | 01:55:14 | 00:00:00 | |
| IW2NTF | 2026-08-31 11:31:48 | 44.80960 | 8.90130 | 320° | 27km/h | 21621m | 3.7m/s | -54.2°C | 4.1% | 0hPa | 2.6V | 08:30:00 | 01:55:08 | 00:00:00 | |
| IW2NTF | 2026-08-31 11:31:38 | 44.80916 | 8.90204 | 295° | 26km/h | 21573m | 4m/s | -54.2°C | 4.2% | 0hPa | 2.6V | 08:30:00 | 01:54:58 | 00:00:00 | |
| DO3MHA-12 | 2026-08-31 11:31:38 | 44.80938 | 8.90162 | 313° | 27km/h | 21598m | 5.0m/s | -54.3°C | 4.0% | 0hPa | 2.6V | 00:00:00 | 01:55:03 | 00:00:00 | |
| IW2NTF | 2026-08-31 11:31:28 | 44.80880 | 8.90289 | 299° | 33km/h | 21527m | 4.8m/s | -54.5°C | 4.2% | 0hPa | 2.6V | 08:30:00 | 01:54:48 | 00:00:00 | |
| DO3MHA-12 | 2026-08-31 11:31:28 | 44.80900 | 8.90245 | 300° | 29km/h | 21551m | 5.1m/s | -54.4°C | 4.2% | 0hPa | 2.7V | 00:00:00 | 01:54:53 | 08:30:00 | |
| DB0UT-7 | 2026-08-31 11:31:27 | 44.80897 | 8.90253 | 300° | 22km/h | 21546m | 4.3m/s | -54.5°C | 4.1% | 0hPa | 2.6V | 00:00:00 | 01:54:52 | 00:00:00 | |
| IW2NTF | 2026-08-31 11:31:18 | 44.80863 | 8.90375 | 287° | 20km/h | 21479m | 4.5m/s | -54.4°C | 4.1% | 0hPa | 2.6V | 08:30:00 | 01:54:38 | 00:00:00 | |
| DO3MHA-12 | 2026-08-31 11:31:18 | 44.80869 | 8.90336 | 284° | 22km/h | 21504m | 5.0m/s | -54.4°C | 4.1% | 0hPa | 2.7V | 00:00:00 | 01:54:43 | 00:00:00 | |
| IW2NTF | 2026-08-31 11:31:09 | 44.80845 | 8.90431 | 305° | 18km/h | 21432m | 4.5m/s | -54.6°C | 4.2% | 0hPa | 2.7V | 08:30:00 | 01:54:28 | 00:00:00 | |
| DO3MHA-12 | 2026-08-31 11:31:08 | 44.80851 | 8.90404 | 289° | 16km/h | 21455m | 4.8m/s | -54.6°C | 4.2% | 0hPa | 2.7V | 00:00:00 | 01:54:33 | 00:00:00 | |
| IW2NTF | 2026-08-31 11:30:58 | 44.80821 | 8.90466 | 322° | 11km/h | 21384m | 4.5m/s | -54.8°C | 4.2% | 0hPa | 2.7V | 08:30:00 | 01:54:18 | 00:00:00 | |
| DO3MHA-12 | 2026-08-31 11:30:58 | 44.80834 | 8.90454 | 312° | 13km/h | 21408m | 5.0m/s | -54.6°C | 4.2% | 0hPa | 2.7V | 00:00:00 | 01:54:23 | 00:00:00 | |
| DB0UT-7 | 2026-08-31 11:30:57 | 44.80832 | 8.90456 | 327° | 11km/h | 21403m | 4.9m/s | -54.6°C | 4.2% | 0hPa | 2.7V | 00:00:00 | 00:00:00 | 00:00:00 | |
| IW2NTF | 2026-08-31 11:30:48 | 44.80792 | 8.90482 | 0° | 15km/h | 21336m | 4.2m/s | -54.9°C | 4.2% | 0hPa | 2.6V | 08:30:00 | 01:54:08 | 00:00:00 | |
| DO3MHA-12 | 2026-08-31 11:30:48 | 44.80806 | 8.90477 | 337° | 11km/h | 21361m | 5.1m/s | -54.9°C | 4.2% | 0hPa | 2.7V | 00:00:00 | 01:54:13 | 00:00:00 | |
| IW2NTF | 2026-08-31 11:30:39 | 44.80766 | 8.90488 | 348° | 9km/h | 21289m | 3.8m/s | -55.1°C | 4.3% | 0hPa | 2.7V | 08:30:00 | 01:53:58 | 00:00:00 | |
| DO3MHA-12 | 2026-08-31 11:30:37 | 44.80775 | 8.90500 | 344° | 11km/h | 21308m | 4.5m/s | -55.0°C | 4.3% | 0hPa | 2.6V | 00:00:00 | 01:54:02 | 00:00:00 | |
| IW2NTF | 2026-08-31 11:30:28 | 44.80737 | 8.90491 | 358° | 15km/h | 21242m | 4.3m/s | -55°C | 4.2% | 0hPa | 2.6V | 08:30:00 | 01:53:48 | 00:00:00 | |
| DO3MHA-12 | 2026-08-31 11:30:27 | 44.80749 | 8.90488 | 348° | 15km/h | 21261m | 4.4m/s | -55.0°C | 4.2% | 0hPa | 2.7V | 00:00:00 | 01:53:52 | 00:00:00 | |
| DB0UT-7 | 2026-08-31 11:30:26 | 44.80747 | 8.90489 | 348° | 20km/h | 21257m | 4.6m/s | -55.0°C | 4.3% | 0hPa | 2.7V | 00:00:00 | 01:53:51 | 00:00:00 | |
| IW2NTF | 2026-08-31 11:30:18 | 44.80693 | 8.90495 | 5° | 16km/h | 21196m | 4.2m/s | -54.9°C | 4.2% | 0hPa | 2.7V | 08:30:00 | 01:53:38 | 00:00:00 | |
| DO3MHA-12 | 2026-08-31 11:30:17 | 44.80711 | 8.90493 | 353° | 18km/h | 21215m | 3.8m/s | -54.9°C | 4.2% | 0hPa | 2.7V | 00:00:00 | 01:53:42 | 00:00:00 | |
| IW2NTF | 2026-08-31 11:30:08 | 44.80640 | 8.90479 | 3° | 27km/h | 21148m | 5.1m/s | -55°C | 4.2% | 0hPa | 2.7V | 08:30:00 | 01:53:28 | 00:00:00 | |
| DO3MHA-12 | 2026-08-31 11:30:07 | 44.80665 | 8.90484 | 15° | 26km/h | 21167m | 4.0m/s | -54.9°C | 4.1% | 0hPa | 2.6V | 00:00:00 | 01:53:32 | 00:00:00 | |
| IW2NTF | 2026-08-31 11:29:58 | 44.80574 | 8.90461 | 15° | 29km/h | 21103m | 3.7m/s | -55.3°C | 4.3% | 0hPa | 2.6V | 08:30:00 | 01:53:18 | 00:00:00 | |
| DO3MHA-12 | 2026-08-31 11:29:57 | 44.80602 | 8.90472 | 15° | 29km/h | 21121m | 4.5m/s | -55.0°C | 4.3% | 0hPa | 2.7V | 00:00:00 | 01:53:22 | 08:30:00 | |
| DB0UT-7 | 2026-08-31 11:29:56 | 44.80595 | 8.90469 | 16° | 31km/h | 21116m | 5.4m/s | -55.1°C | 4.4% | 0hPa | 2.7V | 00:00:00 | 00:00:00 | 00:00:00 | |
| IW2NTF | 2026-08-31 11:29:49 | 44.80492 | 8.90443 | 6° | 35km/h | 21057m | 4.5m/s | -55.4°C | 4.5% | 0hPa | 2.7V | 08:30:00 | 01:53:08 | 00:00:00 | |
| DO3MHA-12 | 2026-08-31 11:29:47 | 44.80527 | 8.90448 | 7° | 35km/h | 21076m | 3.7m/s | -55.4°C | 4.4% | 0hPa | 2.6V | 00:00:00 | 01:53:12 | 00:00:00 | |
| IW2NTF | 2026-08-31 11:29:38 | 44.80410 | 8.90434 | 1° | 26km/h | 21012m | 4.4m/s | -55.3°C | 4.3% | 0hPa | 2.6V | 08:30:00 | 01:52:58 | 00:00:00 | |
| DO3MHA-12 | 2026-08-31 11:29:37 | 44.80441 | 8.90436 | 6° | 31km/h | 21031m | 4.0m/s | -55.2°C | 4.4% | 0hPa | 2.7V | 00:00:00 | 01:53:02 | 00:00:00 | |
| IW2NTF | 2026-08-31 11:29:28 | 44.80341 | 8.90435 | 0° | 29km/h | 20966m | 4.5m/s | -54.9°C | 4.2% | 0hPa | 2.7V | 08:30:00 | 01:52:48 | 00:00:00 | |
| DB0UT-7 | 2026-08-31 11:29:26 | 44.80364 | 8.90436 | 359° | 24km/h | 20980m | 5.3m/s | -54.9°C | 4.3% | 0hPa | 2.6V | 00:00:00 | 01:52:51 | 08:30:00 | |
| IW2NTF | 2026-08-31 11:29:18 | 44.80283 | 8.90451 | 351° | 24km/h | 20920m | 3.7m/s | -54.9°C | 4.1% | 0hPa | 2.6V | 08:30:00 | 01:52:38 | 00:00:00 | |
| IW2NTF | 2026-08-31 11:29:08 | 44.80223 | 8.90471 | 340° | 22km/h | 20874m | 4m/s | -55.1°C | 4.3% | 0hPa | 2.7V | 08:30:00 | 01:52:28 | 00:00:00 | |
| IW2NTF | 2026-08-31 11:28:58 | 44.80173 | 8.90510 | 310° | 18km/h | 20828m | 4.6m/s | -55.3°C | 4.3% | 0hPa | 2.7V | 08:30:00 | 01:52:18 | 00:00:00 | |
| DB0UT-7 | 2026-08-31 11:28:56 | 44.80187 | 8.90496 | 334° | 22km/h | 20842m | 3.4m/s | -55.2°C | 4.2% | 0hPa | 2.6V | 00:00:00 | 00:00:00 | 00:00:00 | |
| IW2NTF | 2026-08-31 11:28:48 | 44.80143 | 8.90581 | 316° | 22km/h | 20785m | 5.1m/s | -55.3°C | 4.3% | 0hPa | 2.6V | 08:30:00 | 01:52:08 | 00:00:00 | |
| DO3MHA-12 | 2026-08-31 11:28:43 | 44.80143 | 8.90580 | 317° | 20km/h | 20785m | 5.1m/s | -55.3°C | 4.3% | 0hPa | 2.6V | 00:00:00 | 01:52:08 | 00:00:00 | |
| IW2NTF | 2026-08-31 11:28:37 | 44.80106 | 8.90634 | 305° | 26km/h | 20740m | 5.1m/s | -55.4°C | 4.4% | 0hPa | 2.7V | 08:30:00 | 01:51:58 | 00:00:00 | |
| DO3MHA-12 | 2026-08-31 11:28:33 | 44.80106 | 8.90634 | 306° | 20km/h | 20740m | 5.1m/s | -55.4°C | 4.4% | 0hPa | 2.6V | 00:00:00 | 01:51:58 | 00:00:00 | |
| IW2NTF | 2026-08-31 11:28:27 | 44.80075 | 8.90691 | 288° | 15km/h | 20693m | 4.2m/s | -55.1°C | 4.3% | 0hPa | 2.6V | 08:30:00 | 01:51:48 | 00:00:00 | |
| DB0UT-7 | 2026-08-31 11:28:25 | 44.80078 | 8.90680 | 302° | 15km/h | 20703m | 5.0m/s | -55.2°C | 4.3% | 0hPa | 2.6V | 00:00:00 | 01:51:50 | 00:00:00 | |
| DO3MHA-12 | 2026-08-31 11:28:23 | 44.80075 | 8.90690 | 289° | 16km/h | 20693m | 4.2m/s | -55.1°C | 4.3% | 0hPa | 2.6V | 00:00:00 | 01:51:48 | 00:00:00 | |
| IW2NTF | 2026-08-31 11:28:17 | 44.80062 | 8.90746 | 288° | 16km/h | 20647m | 4.8m/s | -55.1°C | 4.3% | 0hPa | 2.6V | 08:30:00 | 01:51:38 | 00:00:00 | |
| DO3MHA-12 | 2026-08-31 11:28:13 | 44.80062 | 8.90746 | 289° | 15km/h | 20647m | 4.8m/s | -55.1°C | 4.3% | 0hPa | 2.6V | 00:00:00 | 01:51:38 | 00:00:00 | |
| IW2NTF | 2026-08-31 11:28:07 | 44.80049 | 8.90796 | 278° | 13km/h | 20601m | 5.3m/s | -54.8°C | 4.2% | 0hPa | 2.7V | 08:30:00 | 01:51:28 | 00:00:00 | |
| DO3MHA-12 | 2026-08-31 11:28:03 | 44.80049 | 8.90796 | 279° | 13km/h | 20602m | 5.2m/s | -54.8°C | 4.2% | 0hPa | 2.7V | 00:00:00 | 01:51:28 | 00:00:00 | |
| IW2NTF | 2026-08-31 11:27:57 | 44.80042 | 8.90839 | 297° | 15km/h | 20556m | 5.2m/s | -55°C | 4.3% | 0hPa | 2.7V | 08:30:00 | 01:51:18 | 00:00:00 | |
| DB0UT-7 | 2026-08-31 11:27:55 | 44.80045 | 8.90831 | 311° | 7km/h | 20565m | 3.8m/s | -55.0°C | 4.3% | 0hPa | 2.6V | 00:00:00 | 00:00:00 | 00:00:00 | |
| DO3MHA-12 | 2026-08-31 11:27:53 | 44.80041 | 8.90839 | 298° | 13km/h | 20556m | 5.2m/s | -54.9°C | 4.3% | 0hPa | 2.7V | 00:00:00 | 01:51:18 | 00:00:00 | |
| IW2NTF | 2026-08-31 11:27:47 | 44.80039 | 8.90882 | 258° | 7km/h | 20511m | 5.5m/s | -54.8°C | 4.2% | 0hPa | 2.7V | 08:30:00 | 01:51:08 | 00:00:00 | |
| DO3MHA-12 | 2026-08-31 11:27:43 | 44.80039 | 8.90882 | 259° | 7km/h | 20512m | 5.5m/s | -54.7°C | 4.2% | 0hPa | 2.7V | 00:00:00 | 01:51:08 | 08:30:00 | |
| IW2NTF | 2026-08-31 11:27:38 | 44.80038 | 8.90904 | 264° | 5km/h | 20465m | 4m/s | -54.7°C | 4.3% | 0hPa | 2.7V | 08:30:00 | 01:50:58 | 00:00:00 | |
| DO3MHA-12 | 2026-08-31 11:27:33 | 44.80038 | 8.90904 | 265° | 2km/h | 20465m | 4.0m/s | -54.6°C | 4.3% | 0hPa | 2.6V | 00:00:00 | 01:50:58 | 00:00:00 | |
| IW2NTF | 2026-08-31 11:27:28 | 44.80036 | 8.90907 | 345° | 4km/h | 20418m | 4.1m/s | -54.9°C | 4.1% | 0hPa | 2.6V | 08:30:00 | 01:50:48 | 00:00:00 | |
| DB0UT-7 | 2026-08-31 11:27:25 | 44.80037 | 8.90907 | 5° | 5km/h | 20428m | 5.3m/s | -54.9°C | 4.2% | 0hPa | 2.6V | 00:00:00 | 01:50:50 | 00:00:00 | |
| DO3MHA-12 | 2026-08-31 11:27:23 | 44.80036 | 8.90907 | 346° | 4km/h | 20419m | 4.0m/s | -54.8°C | 4.1% | 0hPa | 2.6V | 00:00:00 | 01:50:48 | 00:00:00 | |
| IW2NTF | 2026-08-31 11:27:17 | 44.80030 | 8.90903 | 165° | 4km/h | 20374m | 3.8m/s | -54.8°C | 4.2% | 0hPa | 2.6V | 08:30:00 | 01:50:38 | 00:00:00 | |
| DO3MHA-12 | 2026-08-31 11:27:12 | 44.80030 | 8.90903 | 136° | 7km/h | 20369m | 5.1m/s | -54.8°C | 4.2% | 0hPa | 2.7V | 00:00:00 | 01:50:37 | 00:00:00 | |
| IW2NTF | 2026-08-31 11:27:07 | 44.80026 | 8.90880 | 71° | 9km/h | 20328m | 4.2m/s | -55°C | 4.1% | 0hPa | 2.6V | 08:30:00 | 01:50:28 | 00:00:00 | |
| DO3MHA-12 | 2026-08-31 11:27:02 | 44.80026 | 8.90877 | 92° | 9km/h | 20324m | 5.2m/s | -55.0°C | 4.1% | 0hPa | 2.6V | 00:00:00 | 01:50:27 | 00:00:00 | |
| IW2NTF | 2026-08-31 11:26:58 | 44.80027 | 8.90852 | 109° | 11km/h | 20284m | 4.2m/s | -55.5°C | 4.4% | 0hPa | 2.6V | 08:30:00 | 01:50:18 | 00:00:00 | |
| DB0UT-7 | 2026-08-31 11:26:55 | 44.80026 | 8.90859 | 87° | 9km/h | 20294m | 4.8m/s | -55.4°C | 4.3% | 0hPa | 2.7V | 00:00:00 | 00:00:00 | 00:00:00 | |
| DO3MHA-12 | 2026-08-31 11:26:52 | 44.80028 | 8.90848 | 111° | 5km/h | 20280m | 4.4m/s | -55.5°C | 4.4% | 0hPa | 2.7V | 00:00:00 | 01:50:17 | 00:00:00 | |
| IW2NTF | 2026-08-31 11:26:45 | 44.80032 | 8.90851 | 131° | 2km/h | 20239m | 4.5m/s | -55.8°C | 4.4% | 0hPa | 2.7V | 08:30:00 | 01:50:08 | 00:00:00 | |
| DO3MHA-12 | 2026-08-31 11:26:42 | 44.80032 | 8.90850 | 123° | 13km/h | 20234m | 5.2m/s | -55.7°C | 4.4% | 0hPa | 2.7V | 00:00:00 | 01:50:07 | 00:00:00 | |
| IW2NTF | 2026-08-31 11:26:35 | 44.80022 | 8.90814 | 34° | 13km/h | 20193m | 5m/s | -55.6°C | 4.4% | 0hPa | 2.6V | 08:30:00 | 01:49:58 | 00:00:00 | |
| DO3MHA-12 | 2026-08-31 11:26:32 | 44.80019 | 8.90812 | 32° | 13km/h | 20189m | 3.9m/s | -55.5°C | 4.4% | 0hPa | 2.7V | 00:00:00 | 01:49:57 | 00:00:00 | |
| IW2NTF | 2026-08-31 11:26:26 | 44.80003 | 8.90782 | 44° | 13km/h | 20151m | 4.2m/s | -55.4°C | 4.3% | 0hPa | 2.7V | 08:30:00 | 01:49:48 | 00:00:00 | |
| DB0UT-7 | 2026-08-31 11:26:25 | 44.80008 | 8.90790 | 53° | 9km/h | 20159m | 4.1m/s | -55.3°C | 4.3% | 0hPa | 2.7V | 00:00:00 | 01:49:50 | 00:00:00 | |
| DO3MHA-12 | 2026-08-31 11:26:22 | 44.80001 | 8.90779 | 50° | 9km/h | 20147m | 4.6m/s | -55.3°C | 4.3% | 0hPa | 2.7V | 00:00:00 | 01:49:47 | 00:00:00 | |
| IW2NTF | 2026-08-31 11:26:15 | 44.79985 | 8.90761 | 14° | 7km/h | 20106m | 4m/s | -55.2°C | 4.3% | 0hPa | 2.7V | 08:30:00 | 01:49:38 | 00:00:00 | |
| DO3MHA-12 | 2026-08-31 11:26:12 | 44.79983 | 8.90760 | 38° | 7km/h | 20102m | 4.2m/s | -55.2°C | 4.2% | 0hPa | 2.7V | 00:00:00 | 01:49:37 | 08:30:00 | |
| IW2NTF | 2026-08-31 11:26:06 | 44.79974 | 8.90741 | 20° | 9km/h | 20062m | 4m/s | -55.4°C | 4.3% | 0hPa | 2.6V | 08:30:00 | 01:49:28 | 00:00:00 | |
| DO3MHA-12 | 2026-08-31 11:26:02 | 44.79972 | 8.90740 | 12° | 7km/h | 20058m | 4.0m/s | -55.4°C | 4.3% | 0hPa | 2.6V | 00:00:00 | 01:49:27 | 00:00:00 | |
| IW2NTF | 2026-08-31 11:25:55 | 44.79961 | 8.90728 | 86° | 4km/h | 20016m | 4.3m/s | -55.5°C | 4.5% | 0hPa | 2.6V | 08:30:00 | 01:49:18 | 00:00:00 | |
| DB0UT-7 | 2026-08-31 11:25:55 | 44.79961 | 8.90732 | 79° | 5km/h | 20025m | 4.9m/s | 0°C | 0% | 0hPa | 2.6V | 00:00:00 | 00:00:00 | 00:00:00 | |
| DO3MHA-12 | 2026-08-31 11:25:52 | 44.79961 | 8.90727 | 78° | 4km/h | 20012m | 4.8m/s | -55.4°C | 4.4% | 0hPa | 2.6V | 00:00:00 | 01:49:17 | 00:00:00 | |
| IW2NTF | 2026-08-31 11:25:45 | 44.79956 | 8.90722 | 66° | 7km/h | 19974m | 4.3m/s | -55.2°C | 4.3% | 0hPa | 2.6V | 08:30:00 | 01:49:08 | 00:00:00 | |
| DO3MHA-12 | 2026-08-31 11:25:42 | 44.79956 | 8.90720 | 64° | 5km/h | 19970m | 4.6m/s | -55.2°C | 4.2% | 0hPa | 2.7V | 00:00:00 | 01:49:07 | 00:00:00 | |
| IW2NTF | 2026-08-31 11:25:38 | 44.79956 | 8.90709 | 173° | 5km/h | 19930m | 4.1m/s | -55.3°C | 4.4% | 0hPa | 2.6V | 08:30:00 | 01:48:58 | 00:00:00 | |
| DO3MHA-12 | 2026-08-31 11:25:32 | 44.79958 | 8.90708 | 154° | 22km/h | 19926m | 5.0m/s | -55.2°C | 4.4% | 0hPa | 2.7V | 00:00:00 | 01:48:57 | 00:00:00 | |
| IW2NTF | 2026-08-31 11:25:28 | 44.79964 | 8.90686 | 108° | 5km/h | 19886m | 5m/s | -55.4°C | 4.3% | 0hPa | 2.7V | 08:30:00 | 01:48:48 | 00:00:00 | |
| DB0UT-7 | 2026-08-31 11:25:25 | 44.79963 | 8.90693 | 94° | 15km/h | 19895m | 3.7m/s | 0°C | 0% | 0hPa | 2.7V | 00:00:00 | 01:48:50 | 00:00:00 | |
| IW2NTF | 2026-08-31 11:25:18 | 44.79977 | 8.90663 | 130° | 18km/h | 19845m | 3.7m/s | -55.4°C | 4.2% | 0hPa | 2.7V | 08:30:00 | 01:48:38 | 00:00:00 | |
| IW2NTF | 2026-08-31 11:25:08 | 44.80007 | 8.90626 | 140° | 11km/h | 19801m | 4m/s | -55.5°C | 4.3% | 0hPa | 2.7V | 08:30:00 | 01:48:28 | 00:00:00 | |
| IW2NTF | 2026-08-31 11:24:59 | 44.80047 | 8.90570 | 135° | 26km/h | 19757m | 3.4m/s | -55.4°C | 4.2% | 0hPa | 2.7V | 08:30:00 | 01:48:18 | 00:00:00 | |
| DB0UT-7 | 2026-08-31 11:24:55 | 44.80038 | 8.90584 | 130° | 24km/h | 19765m | 4.3m/s | -55.4°C | 4.2% | 0hPa | 2.6V | 00:00:00 | 00:00:00 | 08:30:00 | |
| IW2NTF | 2026-08-31 11:24:48 | 44.80079 | 8.90516 | 122° | 20km/h | 19712m | 4m/s | -55.9°C | 4.4% | 0hPa | 2.6V | 08:30:00 | 01:48:08 | 00:00:00 | |
| IW2NTF | 2026-08-31 11:24:38 | 44.80106 | 8.90436 | 101° | 26km/h | 19668m | 5m/s | -56.4°C | 4.6% | 0hPa | 2.7V | 08:30:00 | 01:47:58 | 00:00:00 | |
| IW2NTF | 2026-08-31 11:24:29 | 44.80117 | 8.90329 | 89° | 35km/h | 19625m | 3.6m/s | -56.2°C | 4.5% | 0hPa | 2.7V | 08:30:00 | 01:47:48 | 00:00:00 | |
| DB0UT-7 | 2026-08-31 11:24:25 | 44.80116 | 8.90353 | 100° | 29km/h | 19634m | 5.0m/s | -56.3°C | 4.6% | 0hPa | 2.6V | 00:00:00 | 01:47:50 | 00:00:00 | |
| IW2NTF | 2026-08-31 11:24:19 | 44.80112 | 8.90226 | 85° | 27km/h | 19580m | 3.2m/s | -56.2°C | 4.4% | 0hPa | 2.6V | 08:30:00 | 01:47:38 | 00:00:00 | |
| IW2NTF | 2026-08-31 11:24:08 | 44.80101 | 8.90121 | 80° | 27km/h | 19535m | 4.9m/s | -56.1°C | 4.5% | 0hPa | 2.6V | 08:30:00 | 01:47:28 | 00:00:00 | |
| IW2NTF | 2026-08-31 11:23:56 | 44.80077 | 8.90030 | 63° | 27km/h | 19490m | 4.4m/s | -55.9°C | 4.4% | 0hPa | 2.7V | 08:30:00 | 01:47:18 | 00:00:00 | |
| DB0UT-7 | 2026-08-31 11:23:55 | 44.80083 | 8.90048 | 65° | 27km/h | 19500m | 4.8m/s | -55.9°C | 4.5% | 0hPa | 2.6V | 00:00:00 | 00:00:00 | 00:00:00 | |
| IW2NTF | 2026-08-31 11:23:48 | 44.80046 | 8.89946 | 42° | 22km/h | 19447m | 4.2m/s | -55.9°C | 4.4% | 0hPa | 2.6V | 08:30:00 | 01:47:08 | 00:00:00 | |
| IW2NTF | 2026-08-31 11:23:38 | 44.79982 | 8.89842 | 34° | 29km/h | 19384m | 4.3m/s | -56.5°C | 4.6% | 0hPa | 2.7V | 08:30:00 | 01:46:54 | 00:00:00 | |
| IW2NTF | 2026-08-31 11:23:33 | 44.79950 | 8.89792 | 55° | 38km/h | 19357m | 5m/s | -56.2°C | 4.6% | 0hPa | 2.7V | 08:30:00 | 01:46:48 | 00:00:00 | |
| DB0UT-7 | 2026-08-31 11:23:32 | 44.79960 | 8.89812 | 56° | 33km/h | 19368m | 4.0m/s | -56.3°C | 4.6% | 0hPa | 2.7V | 00:00:00 | 01:46:50 | 00:00:00 | |
| IW2NTF | 2026-08-31 11:23:18 | 44.79897 | 8.89708 | 48° | 31km/h | 19313m | 4.9m/s | -56.2°C | 4.4% | 0hPa | 2.7V | 08:30:00 | 01:46:38 | 00:00:00 | |
| DO3MHA-12 | 2026-08-31 11:23:16 | 44.79912 | 8.89729 | 41° | 33km/h | 19327m | 4.9m/s | -56.1°C | 4.4% | 0hPa | 2.6V | 00:00:00 | 01:46:41 | 00:00:00 | |
| IW2NTF | 2026-08-31 11:23:08 | 44.79844 | 8.89615 | 33° | 29km/h | 19268m | 4.9m/s | -56.2°C | 4.6% | 0hPa | 2.6V | 08:30:00 | 01:46:28 | 00:00:00 | |
| DO3MHA-12 | 2026-08-31 11:23:05 | 44.79856 | 8.89628 | 42° | 33km/h | 19277m | 3.8m/s | -56.0°C | 4.5% | 0hPa | 2.7V | 00:00:00 | 01:46:30 | 00:00:00 | |
| IW2NTF | 2026-08-31 11:22:58 | 44.79778 | 8.89545 | 37° | 35km/h | 19225m | 4.5m/s | -56.1°C | 4.7% | 0hPa | 2.7V | 08:30:00 | 01:46:18 | 00:00:00 | |
| DB0UT-7 | 2026-08-31 11:22:55 | 44.79791 | 8.89560 | 44° | 29km/h | 19234m | 3.7m/s | -56.2°C | 4.7% | 0hPa | 2.7V | 00:00:00 | 00:00:00 | 00:00:00 | |
| IW2NTF | 2026-08-31 11:22:48 | 44.79711 | 8.89493 | 25° | 33km/h | 19180m | 3.9m/s | -55.9°C | 4.5% | 0hPa | 2.7V | 08:30:00 | 01:46:08 | 00:00:00 | |
| DO3MHA-12 | 2026-08-31 11:22:45 | 44.79726 | 8.89503 | 23° | 29km/h | 19189m | 3.6m/s | -55.9°C | 4.5% | 0hPa | 2.7V | 00:00:00 | 01:46:10 | 00:00:00 | |
| IW2NTF | 2026-08-31 11:22:38 | 44.79648 | 8.89447 | 34° | 27km/h | 19135m | 5.5m/s | -55.4°C | 4.4% | 0hPa | 2.7V | 08:30:00 | 01:45:58 | 00:00:00 | |
| DO3MHA-12 | 2026-08-31 11:22:35 | 44.79659 | 8.89458 | 35° | 29km/h | 19144m | 4.6m/s | -55.4°C | 4.5% | 0hPa | 2.6V | 00:00:00 | 01:46:00 | 08:30:00 | |
| IW2NTF | 2026-08-31 11:22:28 | 44.79583 | 8.89421 | 32° | 24km/h | 19091m | 4.7m/s | -55°C | 4.4% | 0hPa | 2.6V | 08:30:00 | 01:45:48 | 00:00:00 | |
| DB0UT-7 | 2026-08-31 11:22:25 | 44.79593 | 8.89428 | 14° | 22km/h | 19100m | 3.5m/s | -55.1°C | 4.5% | 0hPa | 2.6V | 00:00:00 | 01:45:50 | 00:00:00 | |
| IW2NTF | 2026-08-31 11:22:18 | 44.79527 | 8.89385 | 355° | 27km/h | 19046m | 4.8m/s | -54.7°C | 4.3% | 0hPa | 2.6V | 08:30:00 | 01:45:38 | 00:00:00 | |
| DO3MHA-12 | 2026-08-31 11:22:15 | 44.79541 | 8.89384 | 2° | 24km/h | 19056m | 4.5m/s | -54.8°C | 4.2% | 0hPa | 2.7V | 00:00:00 | 01:45:40 | 00:00:00 | |
| IW2NTF | 2026-08-31 11:22:08 | 44.79482 | 8.89352 | 30° | 24km/h | 19002m | 4.9m/s | -54.5°C | 4.2% | 0hPa | 2.7V | 08:30:00 | 01:45:28 | 00:00:00 | |
| DO3MHA-12 | 2026-08-31 11:22:05 | 44.79490 | 8.89361 | 44° | 20km/h | 19011m | 3.9m/s | -54.4°C | 4.2% | 0hPa | 2.6V | 00:00:00 | 01:45:30 | 00:00:00 | |
| IW2NTF | 2026-08-31 11:21:58 | 44.79436 | 8.89330 | 36° | 15km/h | 18957m | 5m/s | -54.3°C | 4.1% | 0hPa | 2.6V | 08:30:00 | 01:45:18 | 00:00:00 | |
| DO3MHA-12 | 2026-08-31 11:21:55 | 44.79443 | 8.89336 | 28° | 16km/h | 18966m | 4.3m/s | -54.3°C | 4.1% | 0hPa | 2.6V | 00:00:00 | 01:45:20 | 00:00:00 | |
| IW2NTF | 2026-08-31 11:21:48 | 44.79399 | 8.89302 | 43° | 18km/h | 18912m | 4.8m/s | -54.2°C | 4% | 0hPa | 2.6V | 08:30:00 | 01:45:08 | 00:00:00 | |
| DO3MHA-12 | 2026-08-31 11:21:45 | 44.79406 | 8.89309 | 26° | 16km/h | 18921m | 3.3m/s | -54.2°C | 4.1% | 0hPa | 2.7V | 00:00:00 | 01:45:10 | 00:00:00 | |
| IW2NTF | 2026-08-31 11:21:38 | 44.79370 | 8.89263 | 27° | 16km/h | 18867m | 3.3m/s | -54.5°C | 4% | 0hPa | 2.7V | 08:30:00 | 01:44:58 | 00:00:00 | |
| DO3MHA-12 | 2026-08-31 11:21:35 | 44.79378 | 8.89268 | 32° | 18km/h | 18876m | 5.2m/s | -54.2°C | 4.0% | 0hPa | 2.6V | 00:00:00 | 01:45:00 | 00:00:00 | |
| IW2NTF | 2026-08-31 11:21:28 | 44.79343 | 8.89212 | 58° | 18km/h | 18825m | 4.5m/s | -55.1°C | 4.2% | 0hPa | 2.6V | 08:30:00 | 01:44:48 | 00:00:00 | |
| DO3MHA-12 | 2026-08-31 11:21:25 | 44.79347 | 8.89224 | 63° | 20km/h | 18834m | 4.4m/s | -54.9°C | 4.2% | 0hPa | 2.6V | 00:00:00 | 01:44:50 | 00:00:00 | |
| IW2NTF | 2026-08-31 11:21:18 | 44.79307 | 8.89162 | 42° | 18km/h | 18782m | 3.9m/s | -55.3°C | 4.2% | 0hPa | 2.6V | 08:30:00 | 01:44:38 | 00:00:00 | |
| DO3MHA-12 | 2026-08-31 11:21:15 | 44.79314 | 8.89170 | 41° | 16km/h | 18790m | 4.4m/s | -55.1°C | 4.2% | 0hPa | 2.7V | 00:00:00 | 01:44:40 | 00:00:00 | |
| IW2NTF | 2026-08-31 11:21:08 | 44.79285 | 8.89110 | 75° | 20km/h | 18737m | 5.1m/s | -55.3°C | 4.2% | 0hPa | 2.7V | 08:30:00 | 01:44:28 | 00:00:00 | |
| DO3MHA-12 | 2026-08-31 11:21:05 | 44.79288 | 8.89124 | 73° | 20km/h | 18747m | 4.4m/s | -55.3°C | 4.3% | 0hPa | 2.6V | 00:00:00 | 01:44:30 | 08:30:00 | |
| IW2NTF | 2026-08-31 11:20:58 | 44.79269 | 8.89043 | 64° | 22km/h | 18693m | 3.9m/s | -55.8°C | 4.4% | 0hPa | 2.6V | 08:30:00 | 01:44:18 | 00:00:00 | |
| DB0UT-7 | 2026-08-31 11:20:55 | 44.79274 | 8.89056 | 67° | 22km/h | 18703m | 4.5m/s | -55.6°C | 4.3% | 0hPa | 2.6V | 00:00:00 | 00:00:00 | 00:00:00 | |
| IW2NTF | 2026-08-31 11:20:48 | 44.79240 | 8.88988 | 39° | 16km/h | 18648m | 3.5m/s | -56°C | 4.4% | 0hPa | 2.6V | 08:30:00 | 01:44:08 | 00:00:00 | |
| DO3MHA-12 | 2026-08-31 11:20:44 | 44.79243 | 8.88992 | 43° | 20km/h | 18652m | 3.8m/s | -56.0°C | 4.4% | 0hPa | 2.7V | 00:00:00 | 01:44:09 | 00:00:00 | |
| IW2NTF | 2026-08-31 11:20:38 | 44.79203 | 8.88932 | 59° | 24km/h | 18605m | 5.5m/s | -56.7°C | 4.5% | 0hPa | 2.7V | 08:30:00 | 01:43:58 | 00:00:00 | |
| DO3MHA-12 | 2026-08-31 11:20:34 | 44.79206 | 8.88939 | 57° | 24km/h | 18610m | 3.8m/s | -56.6°C | 4.5% | 0hPa | 2.7V | 00:00:00 | 01:43:59 | 00:00:00 | |
| IW2NTF | 2026-08-31 11:20:28 | 44.79174 | 8.88852 | 62° | 31km/h | 18561m | 4m/s | -57.1°C | 4.6% | 0hPa | 2.6V | 08:30:00 | 01:43:48 | 00:00:00 | |
| DB0UT-7 | 2026-08-31 11:20:25 | 44.79180 | 8.88871 | 69° | 38km/h | 18570m | 4.1m/s | -57.1°C | 4.7% | 0hPa | 2.6V | 00:00:00 | 01:43:50 | 08:30:00 | |
| DO3MHA-12 | 2026-08-31 11:20:24 | 44.79178 | 8.88862 | 66° | 35km/h | 18566m | 4.8m/s | -57.1°C | 4.6% | 0hPa | 2.6V | 00:00:00 | 01:43:49 | 00:00:00 | |
| IW2NTF | 2026-08-31 11:20:18 | 44.79131 | 8.88742 | 63° | 37km/h | 18518m | 3.6m/s | -57.3°C | 4.7% | 0hPa | 2.6V | 08:30:00 | 01:43:38 | 00:00:00 | |
| DO3MHA-12 | 2026-08-31 11:20:14 | 44.79136 | 8.88754 | 63° | 37km/h | 18523m | 4.8m/s | -57.2°C | 4.7% | 0hPa | 2.7V | 00:00:00 | 01:43:39 | 00:00:00 | |
| IW2NTF | 2026-08-31 11:20:08 | 44.79079 | 8.88636 | 53° | 42km/h | 18477m | 4.5m/s | -57.9°C | 4.7% | 0hPa | 2.7V | 08:30:00 | 01:43:28 | 00:00:00 | |
| DO3MHA-12 | 2026-08-31 11:20:04 | 44.79085 | 8.88648 | 52° | 44km/h | 18481m | 3.8m/s | -57.8°C | 4.8% | 0hPa | 2.7V | 00:00:00 | 01:43:29 | 00:00:00 | |
| IW2NTF | 2026-08-31 11:19:58 | 44.79017 | 8.88507 | 49° | 42km/h | 18435m | 4.4m/s | -58.2°C | 5% | 0hPa | 2.6V | 08:30:00 | 01:43:18 | 00:00:00 | |
| DB0UT-7 | 2026-08-31 11:19:55 | 44.79030 | 8.88530 | 56° | 44km/h | 18443m | 3.4m/s | -57.9°C | 4.9% | 0hPa | 2.6V | 00:00:00 | 00:00:00 | 00:00:00 | |
| DO3MHA-12 | 2026-08-31 11:19:54 | 44.79024 | 8.88519 | 53° | 44km/h | 18440m | 3.6m/s | -58.0°C | 4.9% | 0hPa | 2.6V | 00:00:00 | 01:43:19 | 00:00:00 | |
| IW2NTF | 2026-08-31 11:19:48 | 44.78942 | 8.88390 | 55° | 42km/h | 18393m | 4m/s | -58.9°C | 5.2% | 0hPa | 2.6V | 08:30:00 | 01:43:08 | 00:00:00 | |
| DO3MHA-12 | 2026-08-31 11:19:44 | 44.78949 | 8.88402 | 54° | 44km/h | 18397m | 5.0m/s | -58.8°C | 5.2% | 0hPa | 2.7V | 00:00:00 | 01:43:09 | 00:00:00 | |
| IW2NTF | 2026-08-31 11:19:38 | 44.78861 | 8.88275 | 34° | 55km/h | 18351m | 4.1m/s | -59.1°C | 5.3% | 0hPa | 2.7V | 08:30:00 | 01:42:58 | 00:00:00 | |
| DO3MHA-12 | 2026-08-31 11:19:34 | 44.78872 | 8.88285 | 34° | 44km/h | 18355m | 3.2m/s | -59.0°C | 5.2% | 0hPa | 2.7V | 00:00:00 | 01:42:59 | 08:30:00 | |
| IW2NTF | 2026-08-31 11:19:28 | 44.78780 | 8.88180 | 33° | 42km/h | 18312m | 3.2m/s | -58.9°C | 5.3% | 0hPa | 2.6V | 08:30:00 | 01:42:48 | 00:00:00 | |
| DB0UT-7 | 2026-08-31 11:19:25 | 44.78796 | 8.88198 | 41° | 40km/h | 18320m | 4.3m/s | -58.9°C | 5.3% | 0hPa | 2.6V | 00:00:00 | 01:42:50 | 00:00:00 | |
| DO3MHA-12 | 2026-08-31 11:19:24 | 44.78789 | 8.88189 | 40° | 46km/h | 18316m | 3.7m/s | -58.9°C | 5.3% | 0hPa | 2.6V | 00:00:00 | 01:42:49 | 00:00:00 | |
| IW2NTF | 2026-08-31 11:19:18 | 44.78680 | 8.88112 | 23° | 35km/h | 18268m | 3.1m/s | -58.8°C | 5.3% | 0hPa | 2.6V | 08:30:00 | 01:42:38 | 00:00:00 | |
| IW2NTF | 2026-08-31 11:19:07 | 44.78588 | 8.88064 | 12° | 46km/h | 18226m | 3.5m/s | -58.6°C | 5% | 0hPa | 2.7V | 08:30:00 | 01:42:28 | 00:00:00 | |
| DO3MHA-12 | 2026-08-31 11:19:04 | 44.78599 | 8.88067 | 12° | 38km/h | 18230m | 4.4m/s | -58.6°C | 5.1% | 0hPa | 2.7V | 00:00:00 | 01:42:29 | 00:00:00 | |
| IW2NTF | 2026-08-31 11:18:57 | 44.78500 | 8.88029 | 6° | 35km/h | 18183m | 4.8m/s | -58.4°C | 5.2% | 0hPa | 2.6V | 08:30:00 | 01:42:18 | 00:00:00 | |
| DB0UT-7 | 2026-08-31 11:18:55 | 44.78517 | 8.88035 | 20° | 31km/h | 18193m | 2.8m/s | -58.4°C | 5.2% | 0hPa | 2.6V | 00:00:00 | 00:00:00 | 00:00:00 | |
| DO3MHA-12 | 2026-08-31 11:18:54 | 44.78508 | 8.88031 | 15° | 33km/h | 18189m | 4.8m/s | -58.4°C | 5.2% | 0hPa | 2.6V | 00:00:00 | 01:42:19 | 00:00:00 | |
| IW2NTF | 2026-08-31 11:18:45 | 44.78419 | 8.88022 | 1° | 31km/h | 18140m | 4.9m/s | -58.3°C | 5% | 0hPa | 2.6V | 08:30:00 | 01:42:08 | 00:00:00 | |
| DO3MHA-12 | 2026-08-31 11:18:44 | 44.78426 | 8.88023 | 3° | 31km/h | 18145m | 4.0m/s | -58.2°C | 5.0% | 0hPa | 2.7V | 00:00:00 | 01:42:09 | 00:00:00 | |
| IW2NTF | 2026-08-31 11:18:38 | 44.78339 | 8.88031 | 355° | 29km/h | 18097m | 5.4m/s | -58°C | 5% | 0hPa | 2.7V | 08:30:00 | 01:41:58 | 00:00:00 | |
| DO3MHA-12 | 2026-08-31 11:18:34 | 44.78347 | 8.88030 | 355° | 27km/h | 18102m | 3.6m/s | -57.9°C | 5.1% | 0hPa | 2.7V | 00:00:00 | 01:41:59 | 00:00:00 | |
| IW2NTF | 2026-08-31 11:18:26 | 44.78259 | 8.88052 | 342° | 27km/h | 18044m | 3.8m/s | -57.7°C | 4.9% | 0hPa | 2.7V | 08:30:00 | 01:41:46 | 00:00:00 | |
| DB0UT-7 | 2026-08-31 11:18:25 | 44.78285 | 8.88042 | 347° | 22km/h | 18062m | 4.7m/s | -57.8°C | 5.0% | 0hPa | 2.6V | 00:00:00 | 01:41:50 | 00:00:00 | |
| DO3MHA-12 | 2026-08-31 11:18:24 | 44.78279 | 8.88045 | 346° | 26km/h | 18058m | 3.8m/s | -57.8°C | 4.9% | 0hPa | 2.6V | 00:00:00 | 01:41:49 | 00:00:00 | |
| IW2NTF | 2026-08-31 11:18:16 | 44.78202 | 8.88089 | 343° | 26km/h | 18001m | 4.4m/s | -57.6°C | 4.9% | 0hPa | 2.6V | 08:30:00 | 01:41:36 | 00:00:00 | |
| DO3MHA-12 | 2026-08-31 11:18:14 | 44.78218 | 8.88079 | 332° | 24km/h | 18014m | 4.7m/s | -57.6°C | 5.0% | 0hPa | 2.6V | 00:00:00 | 01:41:39 | 00:00:00 | |
| IW2NTF | 2026-08-31 11:18:04 | 44.78150 | 8.88109 | 336° | 11km/h | 17957m | 3.6m/s | -57.6°C | 4.8% | 0hPa | 2.6V | 08:30:00 | 01:41:26 | 00:00:00 | |
| DO3MHA-12 | 2026-08-31 11:18:04 | 44.78160 | 8.88103 | 338° | 16km/h | 17971m | 4.2m/s | -57.6°C | 4.8% | 0hPa | 2.7V | 00:00:00 | 01:41:29 | 08:30:00 | |
| DB0UT-7 | 2026-08-31 11:17:55 | 44.78124 | 8.88115 | 7° | 13km/h | 17930m | 4.2m/s | -57.6°C | 4.9% | 0hPa | 2.7V | 00:00:00 | 00:00:00 | 00:00:00 | |
| DO3MHA-12 | 2026-08-31 11:17:54 | 44.78119 | 8.88114 | 5° | 13km/h | 17927m | 3.7m/s | -57.6°C | 4.9% | 0hPa | 2.7V | 00:00:00 | 01:41:19 | 00:00:00 | |
| IW2NTF | 2026-08-31 11:17:52 | 44.78104 | 8.88113 | 2° | 16km/h | 17914m | 3.7m/s | -57.7°C | 4.9% | 0hPa | 2.7V | 08:30:00 | 01:41:16 | 00:00:00 | |
| IW2NTF | 2026-08-31 11:17:46 | 44.78079 | 8.88100 | 35° | 13km/h | 17872m | 3.8m/s | -57.7°C | 5% | 0hPa | 2.6V | 08:30:00 | 01:41:06 | 00:00:00 | |
| DO3MHA-12 | 2026-08-31 11:17:44 | 44.78087 | 8.88107 | 20° | 13km/h | 17885m | 3.6m/s | -57.7°C | 5.0% | 0hPa | 2.6V | 00:00:00 | 01:41:09 | 00:00:00 | |
| IW2NTF | 2026-08-31 11:17:34 | 44.78054 | 8.88078 | 34° | 11km/h | 17830m | 5m/s | -57.7°C | 4.8% | 0hPa | 2.6V | 08:30:00 | 01:40:56 | 00:00:00 | |
| DO3MHA-12 | 2026-08-31 11:17:34 | 44.78063 | 8.88083 | 25° | 11km/h | 17843m | 4.7m/s | -57.8°C | 4.9% | 0hPa | 2.7V | 00:00:00 | 01:40:59 | 00:00:00 | |
| DB0UT-7 | 2026-08-31 11:17:25 | 44.78043 | 8.88061 | 58° | 15km/h | 17805m | 4.8m/s | -57.7°C | 4.9% | 0hPa | 2.6V | 00:00:00 | 01:40:50 | 00:00:00 | |
| DO3MHA-12 | 2026-08-31 11:17:24 | 44.78042 | 8.88058 | 71° | 11km/h | 17801m | 4.1m/s | -57.8°C | 4.9% | 0hPa | 2.7V | 00:00:00 | 01:40:49 | 00:00:00 | |
| IW2NTF | 2026-08-31 11:17:22 | 44.78040 | 8.88049 | 56° | 9km/h | 17788m | 4.1m/s | -57.8°C | 5% | 0hPa | 2.7V | 08:30:00 | 01:40:46 | 00:00:00 | |
| IW2NTF | 2026-08-31 11:17:16 | 44.78032 | 8.88003 | 79° | 13km/h | 17745m | 4.8m/s | -57.6°C | 4.9% | 0hPa | 2.6V | 08:30:00 | 01:40:36 | 00:00:00 | |
| DO3MHA-12 | 2026-08-31 11:17:14 | 44.78033 | 8.88017 | 81° | 15km/h | 17759m | 4.1m/s | -57.7°C | 5.0% | 0hPa | 2.6V | 00:00:00 | 01:40:39 | 00:00:00 | |
| IW2NTF | 2026-08-31 11:17:04 | 44.78031 | 8.87945 | 93° | 18km/h | 17701m | 5m/s | -57.4°C | 4.8% | 0hPa | 2.6V | 08:30:00 | 01:40:26 | 00:00:00 | |
| DO3MHA-12 | 2026-08-31 11:17:04 | 44.78030 | 8.87963 | 100° | 18km/h | 17715m | 5.1m/s | -57.5°C | 4.9% | 0hPa | 2.7V | 00:00:00 | 01:40:29 | 00:00:00 | |
| DB0UT-7 | 2026-08-31 11:16:55 | 44.78032 | 8.87904 | 94° | 24km/h | 17675m | 4.9m/s | -57.2°C | 4.8% | 0hPa | 2.7V | 00:00:00 | 00:00:00 | 00:00:00 | |
| DO3MHA-12 | 2026-08-31 11:16:54 | 44.78032 | 8.87897 | 96° | 22km/h | 17670m | 4.3m/s | -57.2°C | 4.8% | 0hPa | 2.7V | 00:00:00 | 01:40:19 | 00:00:00 | |
| IW2NTF | 2026-08-31 11:16:53 | 44.78035 | 8.87876 | 104° | 18km/h | 17656m | 4.3m/s | -57.2°C | 4.9% | 0hPa | 2.7V | 08:30:00 | 01:40:16 | 00:00:00 | |
| DO3MHA-12 | 2026-08-31 11:16:44 | 44.78042 | 8.87822 | 90° | 24km/h | 17627m | 3.3m/s | -57.1°C | 4.9% | 0hPa | 2.7V | 00:00:00 | 01:40:09 | 00:00:00 | |
| IW2NTF | 2026-08-31 11:16:40 | 44.78040 | 8.87781 | 92° | 20km/h | 17605m | 4.4m/s | -57°C | 4.8% | 0hPa | 2.7V | 08:30:00 | 01:40:04 | 00:00:00 | |
| IW2NTF | 2026-08-31 11:16:34 | 44.78065 | 8.87699 | 103° | 29km/h | 17562m | 3.9m/s | -56.7°C | 4.7% | 0hPa | 2.6V | 08:30:00 | 01:39:54 | 00:00:00 | |
| DO3MHA-12 | 2026-08-31 11:16:34 | 44.78050 | 8.87742 | 123° | 27km/h | 17583m | 5.2m/s | -56.8°C | 4.8% | 0hPa | 2.7V | 00:00:00 | 01:39:59 | 08:30:00 | |
| DB0UT-7 | 2026-08-31 11:16:25 | 44.78071 | 8.87662 | 101° | 29km/h | 17544m | 5.0m/s | -56.5°C | 4.7% | 0hPa | 2.6V | 00:00:00 | 01:39:50 | 00:00:00 | |
| DO3MHA-12 | 2026-08-31 11:16:24 | 44.78072 | 8.87653 | 104° | 27km/h | 17540m | 3.9m/s | -56.5°C | 4.6% | 0hPa | 2.6V | 00:00:00 | 01:39:49 | 00:00:00 | |
| IW2NTF | 2026-08-31 11:16:22 | 44.78088 | 8.87600 | 114° | 31km/h | 17514m | 3.2m/s | -56.3°C | 4.6% | 0hPa | 2.6V | 08:30:00 | 01:39:43 | 00:00:00 | |
| DO3MHA-12 | 2026-08-31 11:16:14 | 44.78099 | 8.87561 | 106° | 29km/h | 17497m | 4.8m/s | -56.2°C | 4.6% | 0hPa | 2.7V | 00:00:00 | 01:39:39 | 00:00:00 | |
| IW2NTF | 2026-08-31 11:16:10 | 44.78106 | 8.87500 | 100° | 27km/h | 17470m | 4.9m/s | -56.2°C | 4.6% | 0hPa | 2.7V | 08:30:00 | 01:39:33 | 00:00:00 | |
| DO3MHA-12 | 2026-08-31 11:16:04 | 44.78114 | 8.87458 | 109° | 33km/h | 17453m | 4.8m/s | -56.1°C | 4.7% | 0hPa | 2.7V | 00:00:00 | 01:39:29 | 00:00:00 | |
| IW2NTF | 2026-08-31 11:16:03 | 44.78125 | 8.87390 | 100° | 33km/h | 17426m | 4.7m/s | -56.3°C | 4.6% | 0hPa | 2.7V | 08:30:00 | 01:39:23 | 00:00:00 | |
| DB0UT-7 | 2026-08-31 11:15:55 | 44.78130 | 8.87354 | 105° | 38km/h | 17413m | 4.5m/s | -56.3°C | 4.6% | 0hPa | 2.6V | 00:00:00 | 00:00:00 | 08:30:00 | |
| DO3MHA-12 | 2026-08-31 11:15:54 | 44.78132 | 8.87341 | 104° | 37km/h | 17409m | 3.7m/s | -56.2°C | 4.6% | 0hPa | 2.6V | 00:00:00 | 01:39:19 | 00:00:00 | |
| IW2NTF | 2026-08-31 11:15:52 | 44.78143 | 8.87265 | 93° | 38km/h | 17383m | 3.9m/s | -56.1°C | 4.7% | 0hPa | 2.6V | 08:30:00 | 01:39:13 | 00:00:00 | |
| DO3MHA-12 | 2026-08-31 11:15:44 | 44.78144 | 8.87211 | 92° | 38km/h | 17366m | 5.1m/s | -56.1°C | 4.6% | 0hPa | 2.7V | 00:00:00 | 01:39:09 | 00:00:00 | |
| IW2NTF | 2026-08-31 11:15:40 | 44.78146 | 8.87128 | 90° | 40km/h | 17340m | 4.8m/s | -56.3°C | 4.5% | 0hPa | 2.7V | 08:30:00 | 01:39:03 | 00:00:00 | |
| DO3MHA-12 | 2026-08-31 11:15:34 | 44.78147 | 8.87072 | 90° | 42km/h | 17324m | 3.1m/s | -56.3°C | 4.5% | 0hPa | 2.7V | 00:00:00 | 01:38:59 | 00:00:00 | |
| IW2NTF | 2026-08-31 11:15:33 | 44.78151 | 8.86983 | 96° | 40km/h | 17299m | 4m/s | -56.6°C | 4.5% | 0hPa | 2.7V | 08:30:00 | 01:38:53 | 00:00:00 | |
| DB0UT-7 | 2026-08-31 11:15:25 | 44.78156 | 8.86939 | 104° | 51km/h | 17287m | 3.8m/s | -56.7°C | 4.6% | 0hPa | 2.7V | 00:00:00 | 01:38:50 | 00:00:00 | |
| DO3MHA-12 | 2026-08-31 11:15:24 | 44.78159 | 8.86923 | 106° | 49km/h | 17283m | 2.8m/s | -56.8°C | 4.6% | 0hPa | 2.7V | 00:00:00 | 01:38:49 | 00:00:00 | |
| IW2NTF | 2026-08-31 11:15:22 | 44.78181 | 8.86785 | 95° | 53km/h | 17250m | 4.3m/s | -57.6°C | 5% | 0hPa | 2.7V | 08:30:00 | 01:38:41 | 00:00:00 | |
| DO3MHA-12 | 2026-08-31 11:15:14 | 44.78184 | 8.86749 | 95° | 51km/h | 17242m | 4.8m/s | -57.6°C | 5.0% | 0hPa | 2.6V | 00:00:00 | 01:38:39 | 00:00:00 | |
| IW2NTF | 2026-08-31 11:15:10 | 44.78194 | 8.86603 | 97° | 53km/h | 17207m | 4.4m/s | -57.9°C | 5.1% | 0hPa | 2.6V | 08:30:00 | 01:38:31 | 00:00:00 | |
| DO3MHA-12 | 2026-08-31 11:15:04 | 44.78197 | 8.86567 | 98° | 55km/h | 17199m | 3.2m/s | -57.9°C | 5.1% | 0hPa | 2.7V | 00:00:00 | 01:38:29 | 08:30:00 | |
| IW2NTF | 2026-08-31 11:14:58 | 44.78206 | 8.86410 | 90° | 53km/h | 17165m | 4.5m/s | -58.1°C | 5.2% | 0hPa | 2.7V | 08:30:00 | 01:38:21 | 00:00:00 | |
| DB0UT-7 | 2026-08-31 11:14:55 | 44.78206 | 8.86391 | 90° | 58km/h | 17161m | 5.0m/s | -58.1°C | 5.2% | 0hPa | 2.7V | 00:00:00 | 00:00:00 | 00:00:00 | |
| DO3MHA-12 | 2026-08-31 11:14:54 | 44.78206 | 8.86372 | 88° | 57km/h | 17156m | 3.6m/s | -58.1°C | 5.2% | 0hPa | 2.7V | 00:00:00 | 01:38:19 | 00:00:00 | |
| IW2NTF | 2026-08-31 11:14:47 | 44.78194 | 8.86213 | 83° | 60km/h | 17124m | 4m/s | -58.3°C | 5.2% | 0hPa | 2.7V | 08:30:00 | 01:38:11 | 00:00:00 | |
| DO3MHA-12 | 2026-08-31 11:14:44 | 44.78191 | 8.86172 | 85° | 58km/h | 17116m | 3.6m/s | -58.3°C | 5.2% | 0hPa | 2.6V | 00:00:00 | 01:38:09 | 00:00:00 | |
| IW2NTF | 2026-08-31 11:14:41 | 44.78175 | 8.86010 | 79° | 58km/h | 17083m | 3.6m/s | -58.5°C | 5.3% | 0hPa | 2.6V | 08:30:00 | 01:38:01 | 00:00:00 | |
| DO3MHA-12 | 2026-08-31 11:14:34 | 44.78169 | 8.85968 | 79° | 64km/h | 17076m | 4.0m/s | 0°C | 0% | 0hPa | 2.7V | 00:00:00 | 01:37:59 | 00:00:00 | |
| IW2NTF | 2026-08-31 11:14:29 | 44.78139 | 8.85793 | 78° | 60km/h | 17044m | 3.7m/s | -59°C | 5.5% | 0hPa | 2.7V | 08:30:00 | 01:37:51 | 00:00:00 | |
| DB0UT-7 | 2026-08-31 11:14:25 | 44.78135 | 8.85772 | 77° | 69km/h | 17040m | 3.4m/s | -59.0°C | 5.5% | 0hPa | 2.6V | 00:00:00 | 01:37:50 | 00:00:00 | |
| DO3MHA-12 | 2026-08-31 11:14:24 | 44.78131 | 8.85751 | 76° | 66km/h | 17037m | 3.6m/s | 0°C | 0% | 0hPa | 2.7V | 00:00:00 | 01:37:49 | 00:00:00 | |
| IW2NTF | 2026-08-31 11:14:17 | 44.78093 | 8.85573 | 71° | 68km/h | 17004m | 3.3m/s | -59.6°C | 5.8% | 0hPa | 2.7V | 08:30:00 | 01:37:41 | 00:00:00 | |
| DO3MHA-12 | 2026-08-31 11:14:14 | 44.78081 | 8.85528 | 70° | 69km/h | 16995m | 4.4m/s | 0°C | 0% | 0hPa | 2.6V | 00:00:00 | 01:37:39 | 00:00:00 | |
| IW2NTF | 2026-08-31 11:14:11 | 44.78030 | 8.85342 | 67° | 71km/h | 16963m | 4.7m/s | -60.1°C | 6% | 0hPa | 2.6V | 08:30:00 | 01:37:31 | 00:00:00 | |
| DO3MHA-12 | 2026-08-31 11:14:04 | 44.78015 | 8.85295 | 64° | 75km/h | 16955m | 3.3m/s | 0°C | 0% | 0hPa | 2.7V | 00:00:00 | 01:37:29 | 00:00:00 | |
| IW2NTF | 2026-08-31 11:13:59 | 44.77938 | 8.85114 | 60° | 77km/h | 16922m | 4.5m/s | -60.2°C | 6.3% | 0hPa | 2.7V | 08:30:00 | 01:37:21 | 00:00:00 | |
| DB0UT-7 | 2026-08-31 11:13:55 | 44.77929 | 8.85091 | 61° | 71km/h | 16918m | 3.2m/s | -60.1°C | 6.4% | 0hPa | 2.7V | 00:00:00 | 00:00:00 | 00:00:00 | |
| DO3MHA-12 | 2026-08-31 11:13:54 | 44.77919 | 8.85068 | 61° | 69km/h | 16915m | 4.1m/s | 0°C | 0% | 0hPa | 2.7V | 00:00:00 | 01:37:19 | 00:00:00 | |
| IW2NTF | 2026-08-31 11:13:47 | 44.77846 | 8.84899 | 57° | 68km/h | 16880m | 3.8m/s | -60.2°C | 6% | 0hPa | 2.7V | 08:30:00 | 01:37:11 | 00:00:00 | |
| DO3MHA-12 | 2026-08-31 11:13:44 | 44.77827 | 8.84858 | 60° | 69km/h | 16873m | 3.9m/s | 0°C | 0% | 0hPa | 2.6V | 00:00:00 | 01:37:09 | 00:00:00 | |
| IW2NTF | 2026-08-31 11:13:39 | 44.77762 | 8.84680 | 63° | 64km/h | 16839m | 4.3m/s | -60.4°C | 6.3% | 0hPa | 2.6V | 08:30:00 | 01:37:01 | 00:00:00 | |
| DO3MHA-12 | 2026-08-31 11:13:31 | 44.77725 | 8.84569 | 67° | 75km/h | 16819m | 4.0m/s | 0°C | 0% | 0hPa | 2.7V | 00:00:00 | 01:36:56 | 08:30:00 | |
| IW2NTF | 2026-08-31 11:13:28 | 44.77687 | 8.84446 | 66° | 77km/h | 16798m | 3.3m/s | -60.9°C | 6.5% | 0hPa | 2.7V | 08:30:00 | 01:36:51 | 00:00:00 | |
| DB0UT-7 | 2026-08-31 11:13:25 | 44.77679 | 8.84421 | 65° | 62km/h | 16794m | 4.5m/s | -60.8°C | 6.5% | 0hPa | 2.7V | 00:00:00 | 01:36:50 | 00:00:00 | |
| IW2NTF | 2026-08-31 11:13:21 | 44.77609 | 8.84230 | 62° | 68km/h | 16757m | 4.5m/s | -61.5°C | 6.9% | 0hPa | 2.7V | 08:30:00 | 01:36:41 | 00:00:00 | |
| IW2NTF | 2026-08-31 11:13:10 | 44.77529 | 8.84035 | 54° | 60km/h | 16716m | 3.3m/s | -61.4°C | 6.8% | 0hPa | 2.6V | 08:30:00 | 01:36:31 | 00:00:00 | |
| IW2NTF | 2026-08-31 11:12:58 | 44.77448 | 8.83872 | 51° | 51km/h | 16673m | 4.4m/s | -61°C | 6.7% | 0hPa | 2.7V | 08:30:00 | 01:36:21 | 00:00:00 | |
| DB0UT-7 | 2026-08-31 11:12:55 | 44.77440 | 8.83858 | 50° | 49km/h | 16669m | 3.7m/s | 0°C | 0% | 0hPa | 2.7V | 00:00:00 | 00:00:00 | 00:00:00 | |
| IW2NTF | 2026-08-31 11:12:51 | 44.77366 | 8.83732 | 56° | 53km/h | 16631m | 4.8m/s | -61.1°C | 6.7% | 0hPa | 2.7V | 08:30:00 | 01:36:11 | 00:00:00 | |
| IW2NTF | 2026-08-31 11:12:40 | 44.77285 | 8.83589 | 39° | 49km/h | 16589m | 4m/s | -61°C | 6.8% | 0hPa | 2.7V | 08:30:00 | 01:36:01 | 00:00:00 | |
| IW2NTF | 2026-08-31 11:12:28 | 44.77205 | 8.83467 | 44° | 46km/h | 16545m | 4.1m/s | -60.8°C | 6.8% | 0hPa | 2.6V | 08:30:00 | 01:35:51 | 00:00:00 | |
| DB0UT-7 | 2026-08-31 11:12:25 | 44.77196 | 8.83456 | 42° | 37km/h | 16541m | 4.2m/s | 0°C | 0% | 0hPa | 2.7V | 00:00:00 | 01:35:50 | 00:00:00 | |
| IW2NTF | 2026-08-31 11:12:21 | 44.77125 | 8.83367 | 54° | 38km/h | 16501m | 4.5m/s | -60.7°C | 6.8% | 0hPa | 2.7V | 08:30:00 | 01:35:41 | 00:00:00 | |
| IW2NTF | 2026-08-31 11:12:10 | 44.77058 | 8.83281 | 44° | 31km/h | 16456m | 4.5m/s | -60.4°C | 6.5% | 0hPa | 2.7V | 08:30:00 | 01:35:31 | 00:00:00 | |
| IW2NTF | 2026-08-31 11:11:58 | 44.77006 | 8.83192 | 42° | 33km/h | 16413m | 4.9m/s | -60°C | 6.6% | 0hPa | 2.6V | 08:30:00 | 01:35:21 | 00:00:00 | |
| DB0UT-7 | 2026-08-31 11:11:54 | 44.76992 | 8.83175 | 45° | 35km/h | 16405m | 4.1m/s | 0°C | 0% | 0hPa | 2.7V | 00:00:00 | 00:00:00 | 00:00:00 | |
| IW2NTF | 2026-08-31 11:11:51 | 44.76950 | 8.83110 | 54° | 29km/h | 16369m | 5.3m/s | -59.8°C | 6.5% | 0hPa | 2.7V | 08:30:00 | 01:35:11 | 00:00:00 | |
| IW2NTF | 2026-08-31 11:11:41 | 44.76914 | 8.83005 | 56° | 29km/h | 16321m | 4.9m/s | -59.4°C | 6.4% | 0hPa | 2.7V | 08:30:00 | 01:35:01 | 00:00:00 | |
| IW2NTF | 2026-08-31 11:11:28 | 44.76867 | 8.82902 | 68° | 38km/h | 16273m | 6.2m/s | -59.2°C | 6.3% | 0hPa | 2.6V | 08:30:00 | 01:34:51 | 00:00:00 | |
| IW2NTF | 2026-08-31 11:11:21 | 44.76843 | 8.82776 | 75° | 40km/h | 16223m | 5.4m/s | -59°C | 6.4% | 0hPa | 2.7V | 08:30:00 | 01:34:41 | 00:00:00 | |
| DB0UT-7 | 2026-08-31 11:11:20 | 44.76851 | 8.82830 | 79° | 38km/h | 16242m | 4.2m/s | 0°C | 0% | 0hPa | 2.7V | 00:00:00 | 01:34:45 | 00:00:00 | |
| IW2NTF | 2026-08-31 11:11:11 | 44.76817 | 8.82650 | 84° | 40km/h | 16178m | 4.7m/s | -59.2°C | 6.6% | 0hPa | 2.7V | 08:30:00 | 01:34:31 | 00:00:00 | |
| IW2NTF | 2026-08-31 11:10:58 | 44.76800 | 8.82503 | 88° | 42km/h | 16133m | 4.8m/s | -59.2°C | 6.8% | 0hPa | 2.6V | 08:30:00 | 01:34:21 | 00:00:00 | |
| IW2NTF | 2026-08-31 11:10:51 | 44.76809 | 8.82332 | 83° | 49km/h | 16091m | 4.9m/s | -59°C | 6.9% | 0hPa | 2.7V | 08:30:00 | 01:34:11 | 00:00:00 | |
| IW2NTF | 2026-08-31 11:10:40 | 44.76811 | 8.82154 | 93° | 53km/h | 16049m | 4.6m/s | -58.9°C | 6.7% | 0hPa | 2.7V | 08:30:00 | 01:34:01 | 00:00:00 | |
| IW2NTF | 2026-08-31 11:10:28 | 44.76799 | 8.81985 | 84° | 49km/h | 16005m | 4.3m/s | -59.3°C | 7.2% | 0hPa | 2.7V | 08:30:00 | 01:33:51 | 00:00:00 | |
| IW2NTF | 2026-08-31 11:10:21 | 44.76775 | 8.81820 | 72° | 46km/h | 15963m | 3.7m/s | -60°C | 7.1% | 0hPa | 2.7V | 08:30:00 | 01:33:41 | 00:00:00 | |
| IW2NTF | 2026-08-31 11:10:10 | 44.76742 | 8.81629 | 77° | 62km/h | 15922m | 4.7m/s | -60.4°C | 7.6% | 0hPa | 2.7V | 08:30:00 | 01:33:31 | 00:00:00 | |
| IW2NTF | 2026-08-31 11:09:58 | 44.76694 | 8.81428 | 66° | 64km/h | 15882m | 4.7m/s | -61.1°C | 8.1% | 0hPa | 2.7V | 08:30:00 | 01:33:21 | 00:00:00 | |
| IW2NTF | 2026-08-31 11:09:51 | 44.76633 | 8.81216 | 66° | 60km/h | 15840m | 3.4m/s | -60.8°C | 7.8% | 0hPa | 2.7V | 08:30:00 | 01:33:11 | 00:00:00 | |
| IW2NTF | 2026-08-31 11:09:40 | 44.76575 | 8.81015 | 67° | 60km/h | 15797m | 4m/s | -60.9°C | 7.9% | 0hPa | 2.6V | 08:30:00 | 01:33:01 | 00:00:00 | |
| IW2NTF | 2026-08-31 11:09:28 | 44.76526 | 8.80811 | 77° | 64km/h | 15755m | 4.3m/s | -61.1°C | 8% | 0hPa | 2.7V | 08:30:00 | 01:32:51 | 00:00:00 | |
| IW2NTF | 2026-08-31 11:09:20 | 44.76492 | 8.80587 | 76° | 60km/h | 15714m | 3.9m/s | -60.8°C | 7.5% | 0hPa | 2.7V | 08:30:00 | 01:32:41 | 00:00:00 | |
| IW2NTF | 2026-08-31 11:09:08 | 44.76475 | 8.80357 | 85° | 68km/h | 15673m | 4.3m/s | -61°C | 7.8% | 0hPa | 2.8V | 08:30:00 | 01:32:31 | 00:00:00 | |
| IW2NTF | 2026-08-31 11:09:01 | 44.76462 | 8.80127 | 86° | 66km/h | 15631m | 5m/s | -61°C | 7.8% | 0hPa | 2.7V | 08:30:00 | 01:32:21 | 00:00:00 | |
| IW2NTF | 2026-08-31 11:08:50 | 44.76452 | 8.79899 | 84° | 62km/h | 15589m | 3.3m/s | -60.9°C | 7.7% | 0hPa | 2.7V | 08:30:00 | 01:32:11 | 00:00:00 | |
| IW2NTF | 2026-08-31 11:08:38 | 44.76438 | 8.79667 | 86° | 68km/h | 15547m | 4.5m/s | -60.8°C | 7.4% | 0hPa | 2.7V | 08:30:00 | 01:32:01 | 00:00:00 | |
| IW2NTF | 2026-08-31 11:08:31 | 44.76415 | 8.79431 | 81° | 68km/h | 15505m | 3m/s | -61.1°C | 7.7% | 0hPa | 2.7V | 08:30:00 | 01:31:51 | 00:00:00 | |
| IW2NTF | 2026-08-31 11:08:20 | 44.76381 | 8.79193 | 74° | 69km/h | 15464m | 4.7m/s | -61°C | 7.8% | 0hPa | 2.7V | 08:30:00 | 01:31:41 | 00:00:00 | |
| IW2NTF | 2026-08-31 11:08:08 | 44.76342 | 8.78956 | 79° | 71km/h | 15424m | 3.7m/s | -60.8°C | 7.8% | 0hPa | 2.7V | 08:30:00 | 01:31:31 | 00:00:00 | |
| IW2NTF | 2026-08-31 11:08:01 | 44.76301 | 8.78698 | 77° | 71km/h | 15384m | 4.2m/s | -60.6°C | 7.5% | 0hPa | 2.8V | 08:30:00 | 01:31:21 | 00:00:00 | |
| IW2NTF | 2026-08-31 11:07:50 | 44.76258 | 8.78442 | 72° | 78km/h | 15345m | 4m/s | -60.4°C | 7.8% | 0hPa | 2.7V | 08:30:00 | 01:31:11 | 00:00:00 | |
| IW2NTF | 2026-08-31 11:07:38 | 44.76203 | 8.78170 | 76° | 77km/h | 15305m | 4.6m/s | -60.4°C | 7.6% | 0hPa | 2.8V | 08:30:00 | 01:31:01 | 00:00:00 | |
| IW2NTF | 2026-08-31 11:07:31 | 44.76149 | 8.77887 | 74° | 86km/h | 15265m | 3.2m/s | -60.4°C | 7.9% | 0hPa | 2.8V | 08:30:00 | 01:30:51 | 00:00:00 | |
| IW2NTF | 2026-08-31 11:07:20 | 44.76091 | 8.77589 | 73° | 86km/h | 15226m | 4.4m/s | -60.4°C | 8% | 0hPa | 2.7V | 08:30:00 | 01:30:41 | 00:00:00 | |
| IW2NTF | 2026-08-31 11:07:11 | 44.76017 | 8.77312 | 69° | 84km/h | 15185m | 4.3m/s | -60.4°C | 7.9% | 0hPa | 2.7V | 08:30:00 | 01:30:31 | 00:00:00 | |
| IW2NTF | 2026-08-31 11:07:00 | 44.75934 | 8.77054 | 63° | 78km/h | 15144m | 4.5m/s | -60.4°C | 8% | 0hPa | 2.8V | 08:30:00 | 01:30:21 | 00:00:00 | |
| IW2NTF | 2026-08-31 11:06:48 | 44.75847 | 8.76818 | 59° | 73km/h | 15104m | 4.2m/s | -60.3°C | 8.1% | 0hPa | 2.7V | 08:30:00 | 01:30:11 | 00:00:00 | |
| IW2NTF | 2026-08-31 11:06:41 | 44.75750 | 8.76591 | 58° | 73km/h | 15066m | 3.1m/s | -60.1°C | 8.2% | 0hPa | 2.7V | 08:30:00 | 01:30:01 | 00:00:00 | |
| IW2NTF | 2026-08-31 11:06:28 | 44.75657 | 8.76369 | 64° | 73km/h | 15028m | 3.4m/s | -59.9°C | 7.8% | 0hPa | 2.8V | 08:30:00 | 01:29:51 | 00:00:00 | |
| IW2NTF | 2026-08-31 11:06:21 | 44.75570 | 8.76149 | 60° | 69km/h | 14989m | 4m/s | -60.2°C | 8.3% | 0hPa | 2.7V | 08:30:00 | 01:29:41 | 00:00:00 | |
| IW2NTF | 2026-08-31 11:06:10 | 44.75485 | 8.75928 | 63° | 68km/h | 14949m | 3.5m/s | -60.6°C | 8.7% | 0hPa | 2.7V | 08:30:00 | 01:29:31 | 00:00:00 | |
| IW2NTF | 2026-08-31 11:05:58 | 44.75404 | 8.75700 | 62° | 75km/h | 14911m | 4.1m/s | -60.5°C | 8.5% | 0hPa | 2.8V | 08:30:00 | 01:29:21 | 00:00:00 | |
| IW2NTF | 2026-08-31 11:05:51 | 44.75336 | 8.75465 | 70° | 75km/h | 14872m | 3.4m/s | -60.4°C | 8.7% | 0hPa | 2.7V | 08:30:00 | 01:29:11 | 00:00:00 | |
| IW2NTF | 2026-08-31 11:05:40 | 44.75273 | 8.75214 | 72° | 77km/h | 14833m | 3.3m/s | -60.6°C | 9.2% | 0hPa | 2.7V | 08:30:00 | 01:29:01 | 00:00:00 | |
| IW2NTF | 2026-08-31 11:05:28 | 44.75210 | 8.74937 | 68° | 88km/h | 14794m | 3.9m/s | -60.6°C | 9.2% | 0hPa | 2.8V | 08:30:00 | 01:28:51 | 00:00:00 | |
| IW2NTF | 2026-08-31 11:05:21 | 44.75131 | 8.74649 | 69° | 88km/h | 14758m | 2.9m/s | -60.2°C | 9.4% | 0hPa | 2.7V | 08:30:00 | 01:28:41 | 00:00:00 | |
| IW2NTF | 2026-08-31 11:05:08 | 44.75058 | 8.74368 | 69° | 84km/h | 14720m | 3.9m/s | -60.7°C | 9.9% | 0hPa | 2.8V | 08:30:00 | 01:28:31 | 00:00:00 | |
| IW2NTF | 2026-08-31 11:05:00 | 44.74976 | 8.74098 | 68° | 84km/h | 14681m | 4.4m/s | -60.6°C | 10.4% | 0hPa | 2.8V | 08:30:00 | 01:28:21 | 00:00:00 | |
| IW2NTF | 2026-08-31 11:04:49 | 44.74906 | 8.73821 | 71° | 80km/h | 14641m | 4.3m/s | -61.3°C | 10.9% | 0hPa | 2.8V | 08:30:00 | 01:28:11 | 00:00:00 | |
| IW2NTF | 2026-08-31 11:04:41 | 44.74846 | 8.73535 | 76° | 88km/h | 14602m | 3.3m/s | -61°C | 11.2% | 0hPa | 2.8V | 08:30:00 | 01:28:01 | 00:00:00 | |
| IW2NTF | 2026-08-31 11:04:30 | 44.74799 | 8.73230 | 75° | 88km/h | 14562m | 3m/s | -61.1°C | 11.9% | 0hPa | 2.7V | 08:30:00 | 01:27:51 | 00:00:00 | |
| IW2NTF | 2026-08-31 11:04:19 | 44.74741 | 8.72911 | 76° | 93km/h | 14524m | 4.2m/s | -61.1°C | 12.4% | 0hPa | 2.7V | 08:30:00 | 01:27:41 | 00:00:00 | |
| IW2NTF | 2026-08-31 11:04:11 | 44.74681 | 8.72583 | 76° | 99km/h | 14485m | 3.3m/s | -60.8°C | 12.8% | 0hPa | 2.7V | 08:30:00 | 01:27:31 | 00:00:00 | |
| IW2NTF | 2026-08-31 11:04:00 | 44.74627 | 8.72247 | 78° | 99km/h | 14446m | 4.5m/s | -60.5°C | 13.5% | 0hPa | 2.8V | 08:30:00 | 01:27:21 | 00:00:00 | |
| IW2NTF | 2026-08-31 11:03:48 | 44.74577 | 8.71907 | 79° | 97km/h | 14406m | 4m/s | -60.4°C | 13.6% | 0hPa | 2.8V | 08:30:00 | 01:27:11 | 00:00:00 | |
| IW2NTF | 2026-08-31 11:03:36 | 44.74533 | 8.71561 | 77° | 100km/h | 14368m | 4.3m/s | -60.3°C | 14.1% | 0hPa | 2.8V | 08:30:00 | 01:27:01 | 00:00:00 | |
| IW2NTF | 2026-08-31 11:03:30 | 44.74485 | 8.71209 | 80° | 100km/h | 14329m | 3.6m/s | -60.3°C | 14.8% | 0hPa | 2.7V | 08:30:00 | 01:26:51 | 00:00:00 | |
| IW2NTF | 2026-08-31 11:03:19 | 44.74426 | 8.70860 | 77° | 102km/h | 14290m | 4.2m/s | -60.8°C | 16% | 0hPa | 2.8V | 08:30:00 | 01:26:41 | 00:00:00 | |
| IW2NTF | 2026-08-31 11:03:11 | 44.74364 | 8.70511 | 72° | 100km/h | 14250m | 4.2m/s | -60.8°C | 16.3% | 0hPa | 2.8V | 08:30:00 | 01:26:31 | 00:00:00 | |
| IW2NTF | 2026-08-31 11:03:00 | 44.74287 | 8.70166 | 72° | 104km/h | 14209m | 3.3m/s | -60.7°C | 16.7% | 0hPa | 2.7V | 08:30:00 | 01:26:21 | 00:00:00 | |
| IW2NTF | 2026-08-31 11:02:49 | 44.74209 | 8.69801 | 76° | 108km/h | 14171m | 3.4m/s | -60.8°C | 17.2% | 0hPa | 2.7V | 08:30:00 | 01:26:11 | 00:00:00 | |
| IW2NTF | 2026-08-31 11:02:41 | 44.74145 | 8.69432 | 77° | 113km/h | 14132m | 3.6m/s | -60.9°C | 18.2% | 0hPa | 2.8V | 08:30:00 | 01:26:01 | 00:00:00 | |
| IW2NTF | 2026-08-31 11:02:31 | 44.74080 | 8.69060 | 75° | 106km/h | 14092m | 4.2m/s | -61.1°C | 18.7% | 0hPa | 2.7V | 08:30:00 | 01:25:51 | 00:00:00 | |
| IW2NTF | 2026-08-31 11:02:21 | 44.74004 | 8.68693 | 73° | 110km/h | 14052m | 4.2m/s | -61.2°C | 19.6% | 0hPa | 2.8V | 08:30:00 | 01:25:41 | 00:00:00 | |
| IW2NTF | 2026-08-31 11:02:11 | 44.73922 | 8.68313 | 73° | 111km/h | 14011m | 4.7m/s | -61.3°C | 20.7% | 0hPa | 2.8V | 08:30:00 | 01:25:31 | 00:00:00 | |
| IW2NTF | 2026-08-31 11:02:01 | 44.73836 | 8.67933 | 71° | 111km/h | 13972m | 2.7m/s | -61.2°C | 20.6% | 0hPa | 2.7V | 08:30:00 | 01:25:21 | 00:00:00 | |
| IW2NTF | 2026-08-31 11:01:51 | 44.73747 | 8.67546 | 72° | 117km/h | 13932m | 3.1m/s | -61.2°C | 20.4% | 0hPa | 2.8V | 08:30:00 | 01:25:11 | 00:00:00 | |
| IW2NTF | 2026-08-31 11:01:41 | 44.73658 | 8.67160 | 72° | 111km/h | 13892m | 3.9m/s | -61.1°C | 21.5% | 0hPa | 2.7V | 08:30:00 | 01:25:01 | 00:00:00 | |
| IW2NTF | 2026-08-31 11:01:31 | 44.73573 | 8.66775 | 71° | 115km/h | 13854m | 3.7m/s | -60.9°C | 20.4% | 0hPa | 2.8V | 08:30:00 | 01:24:51 | 00:00:00 | |
| IW2NTF | 2026-08-31 11:01:21 | 44.73490 | 8.66393 | 74° | 113km/h | 13815m | 3m/s | -60.6°C | 20.5% | 0hPa | 2.7V | 08:30:00 | 01:24:41 | 00:00:00 | |
| IW2NTF | 2026-08-31 11:01:12 | 44.73407 | 8.66009 | 74° | 113km/h | 13777m | 3.8m/s | -60.6°C | 19.9% | 0hPa | 2.8V | 08:30:00 | 01:24:31 | 00:00:00 | |
| IW2NTF | 2026-08-31 11:01:01 | 44.73325 | 8.65607 | 71° | 120km/h | 13740m | 4.2m/s | -60.5°C | 20.2% | 0hPa | 2.7V | 08:30:00 | 01:24:21 | 00:00:00 | |
| IW2NTF | 2026-08-31 11:00:54 | 44.73140 | 8.64811 | 71° | 113km/h | 13663m | 3.7m/s | -60.2°C | 20.4% | 0hPa | 2.8V | 08:30:00 | 01:24:01 | 00:00:00 | |
| IW2NTF | 2026-08-31 11:00:48 | 44.73084 | 8.64574 | 71° | 119km/h | 13641m | 3.5m/s | -60.3°C | 19.3% | 0hPa | 2.8V | 08:30:00 | 01:23:55 | 00:00:00 | |
| IW2NTF | 2026-08-31 11:00:28 | 44.72990 | 8.64190 | 72° | 117km/h | 13604m | 3.4m/s | -60°C | 19.4% | 0hPa | 2.7V | 08:30:00 | 01:23:45 | 00:00:00 | |
| IW2NTF | 2026-08-31 11:00:16 | 44.72901 | 8.63798 | 71° | 115km/h | 13565m | 3.2m/s | -59.9°C | 18.5% | 0hPa | 2.8V | 08:30:00 | 01:23:35 | 00:00:00 | |
| IW2NTF | 2026-08-31 11:00:06 | 44.72810 | 8.63402 | 72° | 120km/h | 13526m | 3.6m/s | -59.9°C | 19.1% | 0hPa | 2.7V | 08:30:00 | 01:23:25 | 00:00:00 | |
| IW2NTF | 2026-08-31 10:59:55 | 44.72722 | 8.63001 | 74° | 119km/h | 13489m | 4.4m/s | -59.9°C | 19.1% | 0hPa | 2.8V | 08:30:00 | 01:23:15 | 00:00:00 | |
| IW2NTF | 2026-08-31 10:59:45 | 44.72639 | 8.62593 | 75° | 124km/h | 13451m | 3.2m/s | -60.1°C | 19.2% | 0hPa | 2.8V | 08:30:00 | 01:23:05 | 00:00:00 | |
| IW2NTF | 2026-08-31 10:59:35 | 44.72567 | 8.62167 | 75° | 119km/h | 13412m | 3.6m/s | -59.8°C | 18.8% | 0hPa | 2.7V | 08:30:00 | 01:22:55 | 00:00:00 | |
| IW2NTF | 2026-08-31 10:59:25 | 44.72483 | 8.61747 | 75° | 126km/h | 13375m | 3.8m/s | -59.5°C | 18% | 0hPa | 2.8V | 08:30:00 | 01:22:45 | 00:00:00 | |
| IW2NTF | 2026-08-31 10:59:15 | 44.72404 | 8.61316 | 73° | 128km/h | 13337m | 4.5m/s | -59.3°C | 18.5% | 0hPa | 2.8V | 08:30:00 | 01:22:35 | 00:00:00 | |
| IW2NTF | 2026-08-31 10:59:05 | 44.72326 | 8.60880 | 75° | 128km/h | 13298m | 4.2m/s | -59.4°C | 18.3% | 0hPa | 2.7V | 08:30:00 | 01:22:25 | 00:00:00 | |
| IW2NTF | 2026-08-31 10:58:55 | 44.72242 | 8.60433 | 76° | 130km/h | 13260m | 3.3m/s | -59.2°C | 18.3% | 0hPa | 2.7V | 08:30:00 | 01:22:15 | 00:00:00 | |
| IW2NTF | 2026-08-31 10:58:45 | 44.72162 | 8.59984 | 76° | 128km/h | 13221m | 3.7m/s | -59°C | 18.6% | 0hPa | 2.7V | 08:30:00 | 01:22:05 | 00:00:00 | |
| IW2NTF | 2026-08-31 10:58:35 | 44.72079 | 8.59531 | 75° | 130km/h | 13183m | 4.3m/s | -59°C | 19% | 0hPa | 2.7V | 08:30:00 | 01:21:55 | 00:00:00 | |
| IW2NTF | 2026-08-31 10:58:25 | 44.71992 | 8.59083 | 73° | 133km/h | 13145m | 3.3m/s | -58.7°C | 19.1% | 0hPa | 2.7V | 08:30:00 | 01:21:45 | 00:00:00 | |
| IW2NTF | 2026-08-31 10:58:15 | 44.71900 | 8.58633 | 75° | 133km/h | 13106m | 2.8m/s | -58.5°C | 21% | 0hPa | 2.7V | 08:30:00 | 01:21:35 | 00:00:00 | |
| IW2NTF | 2026-08-31 10:58:06 | 44.71809 | 8.58183 | 72° | 133km/h | 13069m | 3.7m/s | -58.6°C | 23.4% | 0hPa | 2.7V | 08:30:00 | 01:21:25 | 00:00:00 | |
| IW2NTF | 2026-08-31 10:57:55 | 44.71716 | 8.57728 | 73° | 137km/h | 13030m | 3.3m/s | -58.6°C | 24.7% | 0hPa | 2.7V | 08:30:00 | 01:21:15 | 00:00:00 | |
| IW2NTF | 2026-08-31 10:57:45 | 44.71624 | 8.57259 | 75° | 141km/h | 12991m | 3.3m/s | -58.8°C | 24.3% | 0hPa | 2.7V | 08:30:00 | 01:21:05 | 00:00:00 | |
| IW2NTF | 2026-08-31 10:57:35 | 44.71532 | 8.56774 | 77° | 142km/h | 12952m | 3.3m/s | -58.5°C | 22.5% | 0hPa | 2.8V | 08:30:00 | 01:20:55 | 00:00:00 | |
| IW2NTF | 2026-08-31 10:57:25 | 44.71442 | 8.56279 | 75° | 148km/h | 12913m | 3.6m/s | -58.3°C | 22.7% | 0hPa | 2.8V | 08:30:00 | 01:20:45 | 00:00:00 | |
| IW2NTF | 2026-08-31 10:57:15 | 44.71351 | 8.55783 | 74° | 148km/h | 12873m | 4.4m/s | -58.2°C | 22% | 0hPa | 2.8V | 08:30:00 | 01:20:35 | 00:00:00 | |
| IW2NTF | 2026-08-31 10:57:05 | 44.71248 | 8.55281 | 74° | 148km/h | 12835m | 3.6m/s | -58°C | 22.7% | 0hPa | 2.7V | 08:30:00 | 01:20:25 | 00:00:00 | |
| IW2NTF | 2026-08-31 10:56:55 | 44.71148 | 8.54780 | 75° | 148km/h | 12798m | 4.1m/s | -57.9°C | 23.2% | 0hPa | 2.8V | 08:30:00 | 01:20:15 | 00:00:00 | |
| IW2NTF | 2026-08-31 10:56:45 | 44.71046 | 8.54271 | 74° | 151km/h | 12759m | 3.6m/s | -57.8°C | 23.3% | 0hPa | 2.8V | 08:30:00 | 01:20:05 | 00:00:00 | |
| IW2NTF | 2026-08-31 10:56:35 | 44.70941 | 8.53761 | 73° | 151km/h | 12721m | 3.3m/s | -57.8°C | 23.9% | 0hPa | 2.7V | 08:30:00 | 01:19:55 | 00:00:00 | |
| IW2NTF | 2026-08-31 10:56:25 | 44.70844 | 8.53247 | 74° | 150km/h | 12683m | 3.9m/s | -57.5°C | 24.6% | 0hPa | 2.8V | 08:30:00 | 01:19:45 | 00:00:00 | |
| IW2NTF | 2026-08-31 10:56:16 | 44.70732 | 8.52733 | 72° | 150km/h | 12644m | 3.2m/s | -57.3°C | 23.5% | 0hPa | 2.7V | 08:30:00 | 01:19:35 | 00:00:00 | |
| IW2NTF | 2026-08-31 10:56:06 | 44.70618 | 8.52223 | 74° | 155km/h | 12605m | 4m/s | -57°C | 24.1% | 0hPa | 2.7V | 08:30:00 | 01:19:25 | 00:00:00 | |
| IW2NTF | 2026-08-31 10:55:55 | 44.70506 | 8.51706 | 72° | 151km/h | 12567m | 4.5m/s | -56.8°C | 23.5% | 0hPa | 2.7V | 08:30:00 | 01:19:15 | 00:00:00 | |
| IW2NTF | 2026-08-31 10:55:45 | 44.70388 | 8.51187 | 71° | 153km/h | 12528m | 3m/s | -56.6°C | 24.3% | 0hPa | 2.8V | 08:30:00 | 01:19:05 | 00:00:00 | |
| IW2NTF | 2026-08-31 10:55:35 | 44.70259 | 8.50668 | 70° | 155km/h | 12490m | 3.9m/s | -56.4°C | 24.9% | 0hPa | 2.8V | 08:30:00 | 01:18:55 | 00:00:00 | |
| IW2NTF | 2026-08-31 10:55:25 | 44.70134 | 8.50157 | 71° | 155km/h | 12453m | 3.1m/s | -56.3°C | 26.3% | 0hPa | 2.8V | 08:30:00 | 01:18:45 | 00:00:00 | |
| IW2NTF | 2026-08-31 10:55:17 | 44.70000 | 8.49632 | 70° | 153km/h | 12415m | 4.2m/s | -56.3°C | 26.7% | 0hPa | 2.8V | 08:30:00 | 01:18:35 | 00:00:00 | |
| IW2NTF | 2026-08-31 10:55:05 | 44.69862 | 8.49118 | 69° | 157km/h | 12377m | 4m/s | -56°C | 25.7% | 0hPa | 2.7V | 08:30:00 | 01:18:25 | 00:00:00 | |
| IW2NTF | 2026-08-31 10:54:53 | 44.69702 | 8.48496 | 70° | 157km/h | 12331m | 3.7m/s | -55.6°C | 24.2% | 0hPa | 2.8V | 08:30:00 | 01:18:13 | 00:00:00 | |
| IW2NTF | 2026-08-31 10:54:43 | 44.69568 | 8.47968 | 71° | 157km/h | 12293m | 4.4m/s | -55.5°C | 24.2% | 0hPa | 2.7V | 08:30:00 | 01:18:03 | 00:00:00 | |
| IW2NTF | 2026-08-31 10:54:33 | 44.69435 | 8.47447 | 69° | 157km/h | 12255m | 3.2m/s | -55.3°C | 24.6% | 0hPa | 2.7V | 08:30:00 | 01:17:53 | 00:00:00 | |
| IW2NTF | 2026-08-31 10:54:23 | 44.69301 | 8.46913 | 69° | 161km/h | 12217m | 3.4m/s | -54.9°C | 25.9% | 0hPa | 2.8V | 08:30:00 | 01:17:43 | 00:00:00 | |
| IW2NTF | 2026-08-31 10:54:13 | 44.69164 | 8.46381 | 70° | 161km/h | 12179m | 3m/s | -54.7°C | 27% | 0hPa | 2.8V | 08:30:00 | 01:17:33 | 00:00:00 | |
| IW2NTF | 2026-08-31 10:54:03 | 44.69019 | 8.45849 | 69° | 161km/h | 12144m | 4.4m/s | -54.6°C | 27.1% | 0hPa | 2.7V | 08:30:00 | 01:17:23 | 00:00:00 | |
| IW2NTF | 2026-08-31 10:53:54 | 44.68871 | 8.45321 | 67° | 157km/h | 12107m | 3.5m/s | -54.4°C | 27.1% | 0hPa | 2.7V | 08:30:00 | 01:17:13 | 00:00:00 | |
| IW2NTF | 2026-08-31 10:53:43 | 44.68717 | 8.44795 | 67° | 159km/h | 12070m | 3.5m/s | -54.1°C | 27.6% | 0hPa | 2.8V | 08:30:00 | 01:17:03 | 00:00:00 | |
| IW2NTF | 2026-08-31 10:53:33 | 44.68560 | 8.44274 | 67° | 161km/h | 12032m | 3.4m/s | -53.9°C | 27.4% | 0hPa | 2.8V | 08:30:00 | 01:16:53 | 00:00:00 | |
| IW2NTF | 2026-08-31 10:53:26 | 44.68403 | 8.43757 | 65° | 157km/h | 11995m | 3.4m/s | -53.6°C | 27.3% | 0hPa | 2.7V | 08:30:00 | 01:16:43 | 00:00:00 | |
| IW2NTF | 2026-08-31 10:53:13 | 44.68241 | 8.43243 | 67° | 159km/h | 11958m | 2.6m/s | -53.4°C | 27.5% | 0hPa | 2.7V | 08:30:00 | 01:16:33 | 00:00:00 | |
| IW2NTF | 2026-08-31 10:53:03 | 44.68080 | 8.42727 | 66° | 157km/h | 11923m | 3.6m/s | -53.3°C | 27% | 0hPa | 2.8V | 08:30:00 | 01:16:23 | 00:00:00 | |
| IW2NTF | 2026-08-31 10:52:53 | 44.67918 | 8.42220 | 67° | 157km/h | 11887m | 3.6m/s | -53°C | 25.9% | 0hPa | 2.8V | 08:30:00 | 01:16:13 | 00:00:00 | |
| IW2NTF | 2026-08-31 10:52:41 | 44.67727 | 8.41607 | 66° | 155km/h | 11845m | 3.1m/s | -52.6°C | 26% | 0hPa | 2.8V | 08:30:00 | 01:16:01 | 00:00:00 | |
| IW2NTF | 2026-08-31 10:52:31 | 44.67575 | 8.41099 | 67° | 155km/h | 11809m | 3.6m/s | -52.4°C | 25.3% | 0hPa | 2.7V | 08:30:00 | 01:15:51 | 00:00:00 | |
| IW2NTF | 2026-08-31 10:52:22 | 44.67417 | 8.40598 | 67° | 157km/h | 11775m | 3.5m/s | -52.3°C | 26.2% | 0hPa | 2.8V | 08:30:00 | 01:15:41 | 00:00:00 | |
| IW2NTF | 2026-08-31 10:52:11 | 44.67268 | 8.40095 | 67° | 155km/h | 11741m | 2.9m/s | -52.2°C | 25.9% | 0hPa | 2.8V | 08:30:00 | 01:15:31 | 00:00:00 | |
| IW2NTF | 2026-08-31 10:52:01 | 44.67120 | 8.39589 | 68° | 148km/h | 11709m | 3m/s | -51.8°C | 25.7% | 0hPa | 2.7V | 08:30:00 | 01:15:21 | 00:00:00 | |
| IW2NTF | 2026-08-31 10:51:50 | 44.66960 | 8.39045 | 68° | 151km/h | 11674m | 3.2m/s | -51.5°C | 24.9% | 0hPa | 2.8V | 08:30:00 | 01:15:10 | 00:00:00 | |
| IW2NTF | 2026-08-31 10:51:35 | 44.66741 | 8.38294 | 67° | 151km/h | 11625m | 3.4m/s | -51.3°C | 24.5% | 0hPa | 2.8V | 08:30:00 | 01:14:55 | 00:00:00 | |
| IW2NTF | 2026-08-31 10:51:25 | 44.66589 | 8.37800 | 65° | 151km/h | 11591m | 2.4m/s | -51.2°C | 25.6% | 0hPa | 2.8V | 08:30:00 | 01:14:45 | 00:00:00 | |
| IW2NTF | 2026-08-31 10:51:15 | 44.66438 | 8.37309 | 65° | 153km/h | 11558m | 2.7m/s | -51°C | 27% | 0hPa | 2.8V | 08:30:00 | 01:14:35 | 00:00:00 | |
| IW2NTF | 2026-08-31 10:51:05 | 44.66284 | 8.36820 | 68° | 151km/h | 11526m | 3.8m/s | -50.8°C | 32.8% | 0hPa | 2.7V | 08:30:00 | 01:14:25 | 00:00:00 | |
| IW2NTF | 2026-08-31 10:50:55 | 44.66137 | 8.36320 | 66° | 151km/h | 11492m | 4.2m/s | -50.6°C | 37.8% | 0hPa | 2.8V | 08:30:00 | 01:14:15 | 00:00:00 | |
| IW2NTF | 2026-08-31 10:50:45 | 44.65995 | 8.35816 | 69° | 157km/h | 11459m | 3.4m/s | -50.2°C | 39.3% | 0hPa | 2.8V | 08:30:00 | 01:14:05 | 00:00:00 | |
| IW2NTF | 2026-08-31 10:50:35 | 44.65845 | 8.35305 | 68° | 155km/h | 11424m | 3.7m/s | -50°C | 37% | 0hPa | 2.8V | 08:30:00 | 01:13:55 | 00:00:00 | |
| IW2NTF | 2026-08-31 10:50:25 | 44.65699 | 8.34788 | 67° | 155km/h | 11389m | 2.9m/s | -49.6°C | 36.2% | 0hPa | 2.8V | 08:30:00 | 01:13:45 | 00:00:00 | |
| IW2NTF | 2026-08-31 10:50:15 | 44.65551 | 8.34274 | 67° | 157km/h | 11356m | 3.9m/s | -49.3°C | 34.5% | 0hPa | 2.8V | 08:30:00 | 01:13:35 | 00:00:00 | |
| IW2NTF | 2026-08-31 10:50:07 | 44.65405 | 8.33759 | 68° | 153km/h | 11321m | 3m/s | -49°C | 33.3% | 0hPa | 2.9V | 08:30:00 | 01:13:25 | 00:00:00 | |
| IW2NTF | 2026-08-31 10:49:55 | 44.65261 | 8.33245 | 66° | 155km/h | 11286m | 3.1m/s | -48.7°C | 33.7% | 0hPa | 2.8V | 08:30:00 | 01:13:15 | 00:00:00 | |
| IW2NTF | 2026-08-31 10:49:43 | 44.65081 | 8.32633 | 68° | 155km/h | 11243m | 4.5m/s | -48.4°C | 33.5% | 0hPa | 2.9V | 08:30:00 | 01:13:03 | 00:00:00 | |
| IW2NTF | 2026-08-31 10:49:34 | 44.64935 | 8.32114 | 68° | 153km/h | 11207m | 2.9m/s | -48.2°C | 32.2% | 0hPa | 2.8V | 08:30:00 | 01:12:53 | 00:00:00 | |
| IW2NTF | 2026-08-31 10:49:23 | 44.64790 | 8.31603 | 69° | 157km/h | 11171m | 4.2m/s | -47.9°C | 32.6% | 0hPa | 2.8V | 08:30:00 | 01:12:43 | 00:00:00 | |
| IW2NTF | 2026-08-31 10:49:13 | 44.64646 | 8.31092 | 68° | 155km/h | 11134m | 3.6m/s | -47.6°C | 31.5% | 0hPa | 2.8V | 08:30:00 | 01:12:33 | 00:00:00 | |
| IW2NTF | 2026-08-31 10:49:03 | 44.64507 | 8.30576 | 68° | 153km/h | 11098m | 3.4m/s | -47.3°C | 31.3% | 0hPa | 2.9V | 08:30:00 | 01:12:23 | 00:00:00 | |
| IW2NTF | 2026-08-31 10:48:53 | 44.64366 | 8.30065 | 69° | 153km/h | 11060m | 4.1m/s | -46.9°C | 30.7% | 0hPa | 2.8V | 08:30:00 | 01:12:13 | 00:00:00 | |
| IW2NTF | 2026-08-31 10:48:43 | 44.64225 | 8.29549 | 68° | 151km/h | 11022m | 3.8m/s | -46.7°C | 30.6% | 0hPa | 2.9V | 08:30:00 | 01:12:03 | 00:00:00 | |
| IW2NTF | 2026-08-31 10:48:34 | 44.64080 | 8.29038 | 68° | 155km/h | 10987m | 4m/s | -46.3°C | 30% | 0hPa | 2.9V | 08:30:00 | 01:11:53 | 00:00:00 | |
| IW2NTF | 2026-08-31 10:48:23 | 44.63935 | 8.28525 | 68° | 159km/h | 10950m | 3.2m/s | -46.1°C | 30.6% | 0hPa | 2.8V | 08:30:00 | 01:11:43 | 00:00:00 | |
| IW2NTF | 2026-08-31 10:48:13 | 44.63788 | 8.28020 | 67° | 157km/h | 10912m | 3.9m/s | -45.8°C | 29.3% | 0hPa | 2.9V | 08:30:00 | 01:11:33 | 00:00:00 | |
| IW2NTF | 2026-08-31 10:48:05 | 44.63643 | 8.27512 | 68° | 153km/h | 10876m | 3.6m/s | -45.5°C | 28.6% | 0hPa | 2.8V | 08:30:00 | 01:11:23 | 00:00:00 | |
| IW2NTF | 2026-08-31 10:47:53 | 44.63498 | 8.27000 | 68° | 155km/h | 10836m | 4m/s | -45.1°C | 27.4% | 0hPa | 2.9V | 08:30:00 | 01:11:13 | 00:00:00 | |
| IW2NTF | 2026-08-31 10:47:43 | 44.63355 | 8.26492 | 68° | 159km/h | 10797m | 3.8m/s | -44.7°C | 27.4% | 0hPa | 2.9V | 08:30:00 | 01:11:03 | 00:00:00 | |
| IW2NTF | 2026-08-31 10:47:33 | 44.63215 | 8.25977 | 70° | 155km/h | 10758m | 3.7m/s | -44.4°C | 26.5% | 0hPa | 2.8V | 08:30:00 | 01:10:53 | 00:00:00 | |
| IW2NTF | 2026-08-31 10:47:23 | 44.63079 | 8.25464 | 70° | 155km/h | 10718m | 3.7m/s | -44.1°C | 26.4% | 0hPa | 2.9V | 08:30:00 | 01:10:43 | 00:00:00 | |
| IW2NTF | 2026-08-31 10:47:13 | 44.62949 | 8.24945 | 71° | 157km/h | 10681m | 3.6m/s | -43.8°C | 26.3% | 0hPa | 2.9V | 08:30:00 | 01:10:33 | 00:00:00 | |
| IW2NTF | 2026-08-31 10:47:03 | 44.62814 | 8.24429 | 69° | 155km/h | 10642m | 4.3m/s | -43.5°C | 25.4% | 0hPa | 2.8V | 08:30:00 | 01:10:23 | 00:00:00 | |
| IW2NTF | 2026-08-31 10:46:53 | 44.62682 | 8.23913 | 68° | 153km/h | 10602m | 4.3m/s | -43.3°C | 24.4% | 0hPa | 2.9V | 08:30:00 | 01:10:13 | 00:00:00 | |
| IW2NTF | 2026-08-31 10:46:43 | 44.62544 | 8.23406 | 69° | 153km/h | 10564m | 4.1m/s | -42.9°C | 24.1% | 0hPa | 2.9V | 08:30:00 | 01:10:03 | 00:00:00 | |
| IW2NTF | 2026-08-31 10:46:33 | 44.62411 | 8.22895 | 69° | 153km/h | 10524m | 4.4m/s | -42.7°C | 25.6% | 0hPa | 2.8V | 08:30:00 | 01:09:53 | 00:00:00 | |
| IW2NTF | 2026-08-31 10:46:23 | 44.62280 | 8.22389 | 70° | 153km/h | 10484m | 3.9m/s | -42.5°C | 24.7% | 0hPa | 2.9V | 08:30:00 | 01:09:43 | 00:00:00 | |
| IW2NTF | 2026-08-31 10:46:13 | 44.62149 | 8.21887 | 69° | 150km/h | 10443m | 4.7m/s | -42.1°C | 24% | 0hPa | 2.9V | 08:30:00 | 01:09:33 | 00:00:00 | |
| IW2NTF | 2026-08-31 10:46:03 | 44.62014 | 8.21386 | 69° | 151km/h | 10403m | 3.7m/s | -41.6°C | 24.5% | 0hPa | 2.8V | 08:30:00 | 01:09:23 | 00:00:00 | |
| IW2NTF | 2026-08-31 10:45:53 | 44.61879 | 8.20889 | 69° | 148km/h | 10362m | 3.9m/s | -41.3°C | 23.2% | 0hPa | 2.9V | 08:30:00 | 01:09:13 | 00:00:00 | |
| IW2NTF | 2026-08-31 10:45:43 | 44.61742 | 8.20389 | 68° | 150km/h | 10323m | 3.9m/s | -41°C | 24% | 0hPa | 2.9V | 08:30:00 | 01:09:03 | 00:00:00 | |
| IW2NTF | 2026-08-31 10:45:33 | 44.61606 | 8.19893 | 68° | 148km/h | 10283m | 4.3m/s | -40.8°C | 19.9% | 0hPa | 2.9V | 08:30:00 | 01:08:53 | 00:00:00 | |
| IW2NTF | 2026-08-31 10:45:23 | 44.61469 | 8.19397 | 68° | 150km/h | 10242m | 5m/s | -40.4°C | 18.9% | 0hPa | 2.8V | 08:30:00 | 01:08:43 | 00:00:00 | |
| IW2NTF | 2026-08-31 10:45:13 | 44.61332 | 8.18910 | 68° | 148km/h | 10202m | 3.5m/s | -40.1°C | 18.1% | 0hPa | 2.9V | 08:30:00 | 01:08:33 | 00:00:00 | |
| IW2NTF | 2026-08-31 10:45:04 | 44.61205 | 8.18415 | 69° | 146km/h | 10162m | 4.4m/s | -39.9°C | 16.7% | 0hPa | 2.9V | 08:30:00 | 01:08:23 | 00:00:00 | |
| IW2NTF | 2026-08-31 10:44:51 | 44.61056 | 8.17822 | 71° | 153km/h | 10116m | 3.3m/s | -39.4°C | 17.2% | 0hPa | 2.8V | 08:30:00 | 01:08:11 | 00:00:00 | |
| IW2NTF | 2026-08-31 10:44:41 | 44.60935 | 8.17332 | 70° | 146km/h | 10078m | 3.7m/s | -39.3°C | 18.2% | 0hPa | 2.8V | 08:30:00 | 01:08:01 | 00:00:00 | |
| IW2NTF | 2026-08-31 10:44:31 | 44.60818 | 8.16842 | 71° | 144km/h | 10040m | 3m/s | -38.9°C | 19.1% | 0hPa | 2.9V | 08:30:00 | 01:07:51 | 00:00:00 | |
| IW2NTF | 2026-08-31 10:44:21 | 44.60702 | 8.16345 | 71° | 150km/h | 10003m | 3.6m/s | -38.7°C | 18.4% | 0hPa | 2.9V | 08:30:00 | 01:07:41 | 00:00:00 | |
| IW2NTF | 2026-08-31 10:44:11 | 44.60592 | 8.15847 | 73° | 146km/h | 9966m | 3.7m/s | -38.4°C | 14.7% | 0hPa | 2.9V | 08:30:00 | 01:07:31 | 00:00:00 | |
| IW2NTF | 2026-08-31 10:44:02 | 44.60479 | 8.15342 | 73° | 146km/h | 9929m | 4.2m/s | -38.1°C | 12.8% | 0hPa | 2.9V | 08:30:00 | 01:07:21 | 00:00:00 | |
| IW2NTF | 2026-08-31 10:43:51 | 44.60374 | 8.14851 | 72° | 146km/h | 9894m | 3.1m/s | -38°C | 12.2% | 0hPa | 2.9V | 08:30:00 | 01:07:11 | 00:00:00 | |
| IW2NTF | 2026-08-31 10:43:42 | 44.60262 | 8.14368 | 73° | 141km/h | 9858m | 3.1m/s | -37.9°C | 13.2% | 0hPa | 2.9V | 08:30:00 | 01:07:01 | 00:00:00 | |
| IW2NTF | 2026-08-31 10:43:31 | 44.60149 | 8.13898 | 70° | 142km/h | 9822m | 3m/s | -37.7°C | 13.4% | 0hPa | 2.9V | 08:30:00 | 01:06:51 | 00:00:00 | |
| IW2NTF | 2026-08-31 10:43:21 | 44.60041 | 8.13442 | 71° | 137km/h | 9787m | 3.4m/s | -37.5°C | 12.9% | 0hPa | 2.9V | 08:30:00 | 01:06:41 | 00:00:00 | |
| IW2NTF | 2026-08-31 10:43:11 | 44.59929 | 8.12987 | 72° | 133km/h | 9751m | 3.5m/s | -37.2°C | 12.6% | 0hPa | 2.9V | 08:30:00 | 01:06:31 | 00:00:00 | |
| IW2NTF | 2026-08-31 10:43:01 | 44.59822 | 8.12546 | 70° | 131km/h | 9720m | 3.6m/s | -37.1°C | 12.7% | 0hPa | 2.8V | 08:30:00 | 01:06:21 | 00:00:00 | |
| IW2NTF | 2026-08-31 10:42:51 | 44.59717 | 8.12110 | 70° | 130km/h | 9685m | 3.2m/s | -37°C | 14.3% | 0hPa | 2.8V | 08:30:00 | 01:06:11 | 00:00:00 | |
| IW2NTF | 2026-08-31 10:42:41 | 44.59604 | 8.11672 | 71° | 126km/h | 9653m | 3.9m/s | -36.8°C | 15.1% | 0hPa | 2.9V | 08:30:00 | 01:06:01 | 00:00:00 | |
| IW2NTF | 2026-08-31 10:42:31 | 44.59499 | 8.11249 | 70° | 126km/h | 9621m | 4.2m/s | -36.5°C | 15.9% | 0hPa | 2.9V | 08:30:00 | 01:05:51 | 00:00:00 | |
| IW2NTF | 2026-08-31 10:42:24 | 44.59391 | 8.10830 | 69° | 126km/h | 9587m | 3.4m/s | -36.2°C | 17.3% | 0hPa | 2.9V | 08:30:00 | 01:05:41 | 00:00:00 | |
| IW2NTF | 2026-08-31 10:42:11 | 44.59284 | 8.10417 | 70° | 124km/h | 9555m | 3.8m/s | -36°C | 21.6% | 0hPa | 2.9V | 08:30:00 | 01:05:31 | 00:00:00 | |
| IW2NTF | 2026-08-31 10:42:01 | 44.59179 | 8.10005 | 71° | 122km/h | 9522m | 4m/s | -35.9°C | 23.5% | 0hPa | 2.9V | 08:30:00 | 01:05:21 | 00:00:00 | |
| IW2NTF | 2026-08-31 10:41:51 | 44.59079 | 8.09598 | 70° | 122km/h | 9490m | 3.1m/s | -35.9°C | 25.2% | 0hPa | 2.9V | 08:30:00 | 01:05:11 | 00:00:00 | |
| IW2NTF | 2026-08-31 10:41:41 | 44.58984 | 8.09194 | 70° | 119km/h | 9459m | 3.3m/s | -35.5°C | 24.9% | 0hPa | 2.9V | 08:30:00 | 01:05:01 | 00:00:00 | |
| IW2NTF | 2026-08-31 10:41:31 | 44.58891 | 8.08785 | 73° | 122km/h | 9427m | 3.7m/s | -35.2°C | 24.6% | 0hPa | 2.9V | 08:30:00 | 01:04:51 | 00:00:00 | |
| IW2NTF | 2026-08-31 10:41:21 | 44.58799 | 8.08378 | 74° | 119km/h | 9394m | 2.7m/s | -35°C | 25.2% | 0hPa | 2.9V | 08:30:00 | 01:04:41 | 00:00:00 | |
| IW2NTF | 2026-08-31 10:41:11 | 44.58708 | 8.07968 | 71° | 124km/h | 9361m | 2.9m/s | -34.8°C | 24.8% | 0hPa | 2.9V | 08:30:00 | 01:04:31 | 00:00:00 | |
| IW2NTF | 2026-08-31 10:41:01 | 44.58624 | 8.07562 | 74° | 120km/h | 9329m | 2.8m/s | -34.6°C | 24.6% | 0hPa | 2.9V | 08:30:00 | 01:04:21 | 00:00:00 | |
| IW2NTF | 2026-08-31 10:40:51 | 44.58543 | 8.07161 | 75° | 117km/h | 9295m | 4.1m/s | -34.4°C | 24.2% | 0hPa | 2.8V | 08:30:00 | 01:04:11 | 00:00:00 | |
| IW2NTF | 2026-08-31 10:40:41 | 44.58464 | 8.06761 | 73° | 113km/h | 9262m | 3.8m/s | -34.1°C | 23.9% | 0hPa | 2.8V | 08:30:00 | 01:04:01 | 00:00:00 | |
| IW2NTF | 2026-08-31 10:40:31 | 44.58387 | 8.06371 | 73° | 115km/h | 9227m | 3.6m/s | -33.8°C | 23.6% | 0hPa | 2.8V | 08:30:00 | 01:03:51 | 00:00:00 | |
| IW2NTF | 2026-08-31 10:40:22 | 44.58308 | 8.05989 | 72° | 111km/h | 9194m | 3.9m/s | -33.8°C | 25.4% | 0hPa | 2.9V | 08:30:00 | 01:03:41 | 00:00:00 | |
| IW2NTF | 2026-08-31 10:40:11 | 44.58234 | 8.05606 | 74° | 110km/h | 9161m | 3.1m/s | -33.7°C | 30.4% | 0hPa | 2.9V | 08:30:00 | 01:03:31 | 00:00:00 | |
| IW2NTF | 2026-08-31 10:40:02 | 44.58162 | 8.05237 | 76° | 106km/h | 9127m | 3.3m/s | -33.5°C | 35.7% | 0hPa | 2.9V | 08:30:00 | 01:03:21 | 00:00:00 | |
| IW2NTF | 2026-08-31 10:39:51 | 44.58092 | 8.04875 | 74° | 104km/h | 9092m | 3.2m/s | -33.1°C | 36.8% | 0hPa | 2.9V | 08:30:00 | 01:03:11 | 00:00:00 | |
| IW2NTF | 2026-08-31 10:39:41 | 44.58022 | 8.04523 | 74° | 102km/h | 9059m | 4.2m/s | -32.9°C | 36.5% | 0hPa | 2.9V | 08:30:00 | 01:03:01 | 00:00:00 | |
| IW2NTF | 2026-08-31 10:39:33 | 44.57952 | 8.04164 | 73° | 102km/h | 9025m | 4.4m/s | -32.6°C | 36.7% | 0hPa | 2.8V | 08:30:00 | 01:02:51 | 00:00:00 | |
| IW2NTF | 2026-08-31 10:39:21 | 44.57880 | 8.03815 | 73° | 106km/h | 8990m | 2.8m/s | -32.3°C | 38.1% | 0hPa | 2.9V | 08:30:00 | 01:02:41 | 00:00:00 | |
| IW2NTF | 2026-08-31 10:39:11 | 44.57811 | 8.03462 | 75° | 104km/h | 8955m | 3.4m/s | -32°C | 39.2% | 0hPa | 2.9V | 08:30:00 | 01:02:31 | 00:00:00 | |
| IW2NTF | 2026-08-31 10:39:01 | 44.57740 | 8.03107 | 75° | 104km/h | 8921m | 3.2m/s | -31.7°C | 38.4% | 0hPa | 2.9V | 08:30:00 | 01:02:21 | 00:00:00 | |
| IW2NTF | 2026-08-31 10:38:51 | 44.57674 | 8.02750 | 75° | 102km/h | 8885m | 3.7m/s | -31.5°C | 37.3% | 0hPa | 2.9V | 08:30:00 | 01:02:11 | 00:00:00 | |
| IW2NTF | 2026-08-31 10:38:41 | 44.57609 | 8.02386 | 74° | 106km/h | 8850m | 3.4m/s | -31.2°C | 40.3% | 0hPa | 2.8V | 08:30:00 | 01:02:01 | 00:00:00 | |
| IW2NTF | 2026-08-31 10:38:31 | 44.57539 | 8.02028 | 75° | 106km/h | 8814m | 4m/s | -30.9°C | 39.1% | 0hPa | 2.9V | 08:30:00 | 01:01:51 | 00:00:00 | |
| IW2NTF | 2026-08-31 10:38:21 | 44.57478 | 8.01666 | 77° | 106km/h | 8777m | 3.8m/s | -30.6°C | 36.7% | 0hPa | 2.9V | 08:30:00 | 01:01:41 | 00:00:00 | |
| IW2NTF | 2026-08-31 10:38:11 | 44.57415 | 8.01295 | 76° | 106km/h | 8741m | 3.7m/s | -30.2°C | 35.8% | 0hPa | 2.9V | 08:30:00 | 01:01:31 | 00:00:00 | |
| IW2NTF | 2026-08-31 10:38:01 | 44.57355 | 8.00925 | 77° | 106km/h | 8705m | 4.4m/s | -29.9°C | 34.6% | 0hPa | 2.8V | 08:30:00 | 01:01:21 | 00:00:00 | |
| IW2NTF | 2026-08-31 10:37:51 | 44.57295 | 8.00555 | 75° | 110km/h | 8668m | 3.6m/s | -29.5°C | 33.8% | 0hPa | 2.9V | 08:30:00 | 01:01:11 | 00:00:00 | |
| IW2NTF | 2026-08-31 10:37:41 | 44.57228 | 8.00182 | 77° | 110km/h | 8631m | 3.6m/s | -29.2°C | 32.6% | 0hPa | 2.9V | 08:30:00 | 01:01:01 | 00:00:00 | |
| IW2NTF | 2026-08-31 10:37:31 | 44.57167 | 7.99809 | 76° | 110km/h | 8594m | 3.8m/s | -28.9°C | 32.3% | 0hPa | 2.9V | 08:30:00 | 01:00:51 | 00:00:00 | |
| IW2NTF | 2026-08-31 10:37:24 | 44.57098 | 7.99434 | 76° | 110km/h | 8558m | 3.6m/s | -28.6°C | 31.4% | 0hPa | 2.9V | 08:30:00 | 01:00:41 | 00:00:00 | |
| IW2NTF | 2026-08-31 10:37:11 | 44.57038 | 7.99052 | 75° | 108km/h | 8520m | 4.4m/s | -28.2°C | 31.2% | 0hPa | 2.9V | 08:30:00 | 01:00:31 | 00:00:00 | |
| IW2NTF | 2026-08-31 10:37:01 | 44.56974 | 7.98677 | 77° | 110km/h | 8484m | 3.5m/s | -27.9°C | 32.7% | 0hPa | 2.9V | 08:30:00 | 01:00:21 | 00:00:00 | |
| IW2NTF | 2026-08-31 10:36:51 | 44.56909 | 7.98294 | 77° | 110km/h | 8447m | 4.5m/s | -27.6°C | 33.2% | 0hPa | 2.9V | 08:30:00 | 01:00:11 | 00:00:00 | |
| IW2NTF | 2026-08-31 10:36:41 | 44.56847 | 7.97918 | 76° | 110km/h | 8409m | 4.3m/s | -27.3°C | 37.2% | 0hPa | 2.9V | 08:30:00 | 01:00:01 | 00:00:00 | |
| IW2NTF | 2026-08-31 10:36:31 | 44.56788 | 7.97541 | 75° | 108km/h | 8371m | 3.4m/s | -27°C | 38.7% | 0hPa | 2.9V | 08:30:00 | 00:59:51 | 00:00:00 | |
| IW2NTF | 2026-08-31 10:36:22 | 44.56723 | 7.97173 | 75° | 108km/h | 8333m | 3.5m/s | -26.6°C | 39% | 0hPa | 2.9V | 08:30:00 | 00:59:41 | 00:00:00 | |
| IW2NTF | 2026-08-31 10:36:12 | 44.56658 | 7.96809 | 76° | 104km/h | 8295m | 3.7m/s | -26.3°C | 39.1% | 0hPa | 2.9V | 08:30:00 | 00:59:31 | 00:00:00 | |
| IW2NTF | 2026-08-31 10:36:01 | 44.56591 | 7.96446 | 75° | 106km/h | 8256m | 3.6m/s | -25.9°C | 39% | 0hPa | 2.9V | 08:30:00 | 00:59:21 | 00:00:00 | |
| IW2NTF | 2026-08-31 10:35:51 | 44.56522 | 7.96083 | 75° | 106km/h | 8218m | 3.7m/s | -25.6°C | 39.5% | 0hPa | 2.9V | 08:30:00 | 00:59:11 | 00:00:00 | |
| IW2NTF | 2026-08-31 10:35:41 | 44.56456 | 7.95723 | 76° | 104km/h | 8179m | 3.7m/s | -25.3°C | 38.9% | 0hPa | 2.9V | 08:30:00 | 00:59:01 | 00:00:00 | |
| IW2NTF | 2026-08-31 10:35:31 | 44.56392 | 7.95361 | 75° | 100km/h | 8142m | 3.8m/s | -25°C | 38.5% | 0hPa | 2.9V | 08:30:00 | 00:58:51 | 00:00:00 | |
| IW2NTF | 2026-08-31 10:35:21 | 44.56330 | 7.95004 | 75° | 104km/h | 8105m | 3.3m/s | -24.7°C | 32.3% | 0hPa | 2.9V | 08:30:00 | 00:58:41 | 00:00:00 | |
| IW2NTF | 2026-08-31 10:35:10 | 44.56259 | 7.94615 | 76° | 102km/h | 8064m | 4.3m/s | -24.4°C | 31.8% | 0hPa | 2.9V | 08:30:00 | 00:58:30 | 00:00:00 | |
| IW2NTF | 2026-08-31 10:35:00 | 44.56202 | 7.94258 | 76° | 102km/h | 8029m | 3.5m/s | -24.1°C | 19.1% | 0hPa | 2.9V | 08:30:00 | 00:58:20 | 00:00:00 | |
| IW2NTF | 2026-08-31 10:34:50 | 44.56145 | 7.93903 | 77° | 104km/h | 7994m | 3.4m/s | -23.8°C | 18.1% | 0hPa | 2.9V | 08:30:00 | 00:58:10 | 00:00:00 | |
| IW2NTF | 2026-08-31 10:34:40 | 44.56091 | 7.93558 | 77° | 102km/h | 7959m | 4.1m/s | -23.6°C | 25.1% | 0hPa | 2.9V | 08:30:00 | 00:58:00 | 00:00:00 | |
| IW2NTF | 2026-08-31 10:34:30 | 44.56033 | 7.93205 | 77° | 102km/h | 7923m | 4m/s | -23.3°C | 26.9% | 0hPa | 2.9V | 08:30:00 | 00:57:50 | 00:00:00 | |
| IW2NTF | 2026-08-31 10:34:20 | 44.55977 | 7.92852 | 76° | 104km/h | 7886m | 4m/s | -23°C | 21.3% | 0hPa | 2.9V | 08:30:00 | 00:57:40 | 00:00:00 | |
| IW2NTF | 2026-08-31 10:34:10 | 44.55920 | 7.92498 | 77° | 102km/h | 7850m | 3.3m/s | -22.7°C | 15.4% | 0hPa | 2.9V | 08:30:00 | 00:57:30 | 00:00:00 | |
| IW2NTF | 2026-08-31 10:33:59 | 44.55857 | 7.92108 | 76° | 106km/h | 7810m | 3.9m/s | -22.4°C | 18% | 0hPa | 2.9V | 08:30:00 | 00:57:19 | 00:00:00 | |
| IW2NTF | 2026-08-31 10:33:49 | 44.55802 | 7.91756 | 79° | 102km/h | 7773m | 3.1m/s | -22.1°C | 20.8% | 0hPa | 2.9V | 08:30:00 | 00:57:09 | 00:00:00 | |
| IW2NTF | 2026-08-31 10:33:39 | 44.55745 | 7.91399 | 77° | 102km/h | 7739m | 4.3m/s | -21.8°C | 20.5% | 0hPa | 2.9V | 08:30:00 | 00:56:59 | 00:00:00 | |
| IW2NTF | 2026-08-31 10:33:30 | 44.55691 | 7.91042 | 76° | 100km/h | 7702m | 4.1m/s | -21.6°C | 21.4% | 0hPa | 2.9V | 08:30:00 | 00:56:49 | 00:00:00 | |
| IW2NTF | 2026-08-31 10:33:20 | 44.55638 | 7.90689 | 80° | 102km/h | 7665m | 4.2m/s | -21.4°C | 20.8% | 0hPa | 2.9V | 08:30:00 | 00:56:39 | 00:00:00 | |
| IW2NTF | 2026-08-31 10:33:09 | 44.55586 | 7.90333 | 76° | 100km/h | 7629m | 4.4m/s | -21.2°C | 21.6% | 0hPa | 2.9V | 08:30:00 | 00:56:29 | 00:00:00 | |
| IW2NTF | 2026-08-31 10:32:59 | 44.55533 | 7.89988 | 76° | 102km/h | 7593m | 4.1m/s | -21°C | 24.2% | 0hPa | 2.9V | 08:30:00 | 00:56:19 | 00:00:00 | |
| IW2NTF | 2026-08-31 10:32:49 | 44.55475 | 7.89646 | 77° | 97km/h | 7555m | 4.7m/s | -20.9°C | 30% | 0hPa | 2.9V | 08:30:00 | 00:56:09 | 00:00:00 | |
| IW2NTF | 2026-08-31 10:32:39 | 44.55418 | 7.89306 | 76° | 95km/h | 7519m | 3.9m/s | -20.8°C | 31.6% | 0hPa | 2.9V | 08:30:00 | 00:55:59 | 00:00:00 | |
| IW2NTF | 2026-08-31 10:32:30 | 44.55363 | 7.88967 | 77° | 100km/h | 7482m | 4.2m/s | -20.6°C | 29% | 0hPa | 2.9V | 08:30:00 | 00:55:49 | 00:00:00 | |
| IW2NTF | 2026-08-31 10:32:19 | 44.55310 | 7.88629 | 78° | 97km/h | 7445m | 4.2m/s | -20.3°C | 27.9% | 0hPa | 2.9V | 08:30:00 | 00:55:39 | 00:00:00 | |
| IW2NTF | 2026-08-31 10:32:09 | 44.55259 | 7.88288 | 77° | 95km/h | 7411m | 3.8m/s | -20.1°C | 23.6% | 0hPa | 3V | 08:30:00 | 00:55:29 | 00:00:00 | |
| IW2NTF | 2026-08-31 10:31:59 | 44.55211 | 7.87950 | 78° | 95km/h | 7374m | 3.1m/s | -20°C | 36.8% | 0hPa | 2.9V | 08:30:00 | 00:55:19 | 00:00:00 | |
| IW2NTF | 2026-08-31 10:31:49 | 44.55162 | 7.87611 | 80° | 99km/h | 7339m | 4.4m/s | -19.8°C | 33.3% | 0hPa | 3V | 08:30:00 | 00:55:09 | 00:00:00 | |
| IW2NTF | 2026-08-31 10:31:39 | 44.55121 | 7.87278 | 80° | 93km/h | 7301m | 3.2m/s | -19.5°C | 21.4% | 0hPa | 3V | 08:30:00 | 00:54:59 | 00:00:00 | |
| IW2NTF | 2026-08-31 10:31:29 | 44.55075 | 7.86959 | 81° | 93km/h | 7266m | 3.2m/s | -19.2°C | 27% | 0hPa | 3V | 08:30:00 | 00:54:49 | 00:00:00 | |
| IW2NTF | 2026-08-31 10:31:19 | 44.55029 | 7.86634 | 77° | 91km/h | 7232m | 3.6m/s | -19°C | 27.3% | 0hPa | 3V | 08:30:00 | 00:54:39 | 00:00:00 | |
| IW2NTF | 2026-08-31 10:31:09 | 44.54984 | 7.86308 | 80° | 93km/h | 7197m | 3.1m/s | -18.7°C | 26.1% | 0hPa | 3V | 08:30:00 | 00:54:29 | 00:00:00 | |
| IW2NTF | 2026-08-31 10:30:59 | 44.54944 | 7.85988 | 79° | 88km/h | 7162m | 3.4m/s | -18.5°C | 27.2% | 0hPa | 3V | 08:30:00 | 00:54:19 | 00:00:00 | |
| IW2NTF | 2026-08-31 10:30:49 | 44.54904 | 7.85669 | 78° | 91km/h | 7129m | 3.3m/s | -18.2°C | 29.6% | 0hPa | 3V | 08:30:00 | 00:54:09 | 00:00:00 | |
| IW2NTF | 2026-08-31 10:30:39 | 44.54867 | 7.85354 | 83° | 91km/h | 7094m | 3.5m/s | -18°C | 31.1% | 0hPa | 3V | 08:30:00 | 00:53:59 | 00:00:00 | |
| IW2NTF | 2026-08-31 10:30:29 | 44.54834 | 7.85035 | 82° | 93km/h | 7058m | 2.8m/s | -17.8°C | 36% | 0hPa | 3V | 08:30:00 | 00:53:49 | 00:00:00 | |
| IW2NTF | 2026-08-31 10:30:19 | 44.54802 | 7.84713 | 84° | 91km/h | 7022m | 3.6m/s | -17.5°C | 28.9% | 0hPa | 3V | 08:30:00 | 00:53:39 | 00:00:00 | |
| IW2NTF | 2026-08-31 10:30:09 | 44.54777 | 7.84395 | 83° | 89km/h | 6988m | 4m/s | -17.3°C | 23.9% | 0hPa | 3V | 08:30:00 | 00:53:29 | 00:00:00 | |
| IW2NTF | 2026-08-31 10:29:59 | 44.54753 | 7.84075 | 81° | 88km/h | 6952m | 2.8m/s | -17.2°C | 22.3% | 0hPa | 3V | 08:30:00 | 00:53:19 | 00:00:00 | |
| IW2NTF | 2026-08-31 10:29:49 | 44.54728 | 7.83761 | 84° | 91km/h | 6919m | 3.2m/s | -17°C | 28.9% | 0hPa | 3V | 08:30:00 | 00:53:09 | 00:00:00 | |
| IW2NTF | 2026-08-31 10:29:39 | 44.54704 | 7.83460 | 83° | 84km/h | 6885m | 3.7m/s | -16.8°C | 30.8% | 0hPa | 3V | 08:30:00 | 00:52:59 | 00:00:00 | |
| IW2NTF | 2026-08-31 10:29:29 | 44.54684 | 7.83160 | 84° | 84km/h | 6850m | 3.9m/s | -16.6°C | 22% | 0hPa | 3V | 08:30:00 | 00:52:49 | 00:00:00 | |
| IW2NTF | 2026-08-31 10:29:19 | 44.54659 | 7.82859 | 84° | 84km/h | 6816m | 3.7m/s | -16.9°C | 25.8% | 0hPa | 3V | 08:30:00 | 00:52:39 | 00:00:00 | |
| IW2NTF | 2026-08-31 10:29:09 | 44.54630 | 7.82563 | 82° | 86km/h | 6783m | 3.7m/s | -17°C | 40.1% | 0hPa | 3V | 08:30:00 | 00:52:29 | 00:00:00 | |
| IW2NTF | 2026-08-31 10:28:59 | 44.54601 | 7.82266 | 82° | 84km/h | 6749m | 3.9m/s | -16.8°C | 40% | 0hPa | 3V | 08:30:00 | 00:52:19 | 00:00:00 | |
| IW2NTF | 2026-08-31 10:28:49 | 44.54577 | 7.81970 | 83° | 86km/h | 6714m | 2.7m/s | -16.6°C | 45.9% | 0hPa | 3V | 08:30:00 | 00:52:09 | 00:00:00 | |
| IW2NTF | 2026-08-31 10:28:39 | 44.54557 | 7.81667 | 84° | 86km/h | 6681m | 3.3m/s | -16.4°C | 45.7% | 0hPa | 3V | 08:30:00 | 00:51:59 | 00:00:00 | |
| IW2NTF | 2026-08-31 10:28:29 | 44.54531 | 7.81368 | 84° | 86km/h | 6646m | 3.5m/s | -16.1°C | 39.7% | 0hPa | 3V | 08:30:00 | 00:51:49 | 00:00:00 | |
| IW2NTF | 2026-08-31 10:28:19 | 44.54507 | 7.81070 | 83° | 84km/h | 6612m | 4m/s | -15.8°C | 39.3% | 0hPa | 3V | 08:30:00 | 00:51:39 | 00:00:00 | |
| IW2NTF | 2026-08-31 10:28:09 | 44.54479 | 7.80776 | 83° | 82km/h | 6578m | 3.6m/s | -15.5°C | 38.6% | 0hPa | 3V | 08:30:00 | 00:51:29 | 00:00:00 | |
| IW2NTF | 2026-08-31 10:27:58 | 44.54448 | 7.80447 | 80° | 86km/h | 6542m | 3.5m/s | -15.2°C | 39.1% | 0hPa | 3V | 08:30:00 | 00:51:18 | 00:00:00 | |
| IW2NTF | 2026-08-31 10:27:48 | 44.54420 | 7.80154 | 81° | 86km/h | 6508m | 2.9m/s | -14.8°C | 37.9% | 0hPa | 3V | 08:30:00 | 00:51:08 | 00:00:00 | |
| IW2NTF | 2026-08-31 10:27:38 | 44.54394 | 7.79855 | 84° | 86km/h | 6475m | 4.1m/s | -14.6°C | 24.5% | 0hPa | 3V | 08:30:00 | 00:50:58 | 00:00:00 | |
| IW2NTF | 2026-08-31 10:27:28 | 44.54368 | 7.79557 | 84° | 80km/h | 6441m | 4.1m/s | -14.4°C | 28.9% | 0hPa | 3V | 08:30:00 | 00:50:48 | 00:00:00 | |
| IW2NTF | 2026-08-31 10:27:18 | 44.54345 | 7.79265 | 84° | 82km/h | 6409m | 3.1m/s | -14.1°C | 29.1% | 0hPa | 3V | 08:30:00 | 00:50:38 | 00:00:00 | |
| IW2NTF | 2026-08-31 10:27:08 | 44.54326 | 7.78984 | 84° | 80km/h | 6377m | 3.7m/s | -13.9°C | 27.6% | 0hPa | 3V | 08:30:00 | 00:50:28 | 00:00:00 | |
| IW2NTF | 2026-08-31 10:26:58 | 44.54302 | 7.78700 | 82° | 80km/h | 6342m | 3.1m/s | -13.6°C | 25% | 0hPa | 3V | 08:30:00 | 00:50:18 | 00:00:00 | |
| IW2NTF | 2026-08-31 10:26:48 | 44.54281 | 7.78426 | 82° | 80km/h | 6309m | 3.2m/s | -13.3°C | 22.3% | 0hPa | 3V | 08:30:00 | 00:50:08 | 00:00:00 | |
| IW2NTF | 2026-08-31 10:26:38 | 44.54263 | 7.78157 | 84° | 77km/h | 6278m | 2.7m/s | -13.1°C | 21.6% | 0hPa | 3V | 08:30:00 | 00:49:58 | 00:00:00 | |
| IW2NTF | 2026-08-31 10:26:28 | 44.54242 | 7.77894 | 85° | 77km/h | 6245m | 2.9m/s | -12.8°C | 20.9% | 0hPa | 3V | 08:30:00 | 00:49:48 | 00:00:00 | |
| IW2NTF | 2026-08-31 10:26:18 | 44.54221 | 7.77631 | 83° | 73km/h | 6213m | 3.2m/s | -12.5°C | 19.8% | 0hPa | 3V | 08:30:00 | 00:49:38 | 00:00:00 | |
| IW2NTF | 2026-08-31 10:26:08 | 44.54201 | 7.77371 | 84° | 69km/h | 6180m | 4m/s | -12.3°C | 18.7% | 0hPa | 3V | 08:30:00 | 00:49:28 | 00:00:00 | |
| IW2NTF | 2026-08-31 10:25:58 | 44.54179 | 7.77119 | 84° | 73km/h | 6147m | 3.1m/s | -12.1°C | 19.1% | 0hPa | 3V | 08:30:00 | 00:49:18 | 00:00:00 | |
| IW2NTF | 2026-08-31 10:25:48 | 44.54156 | 7.76870 | 82° | 69km/h | 6115m | 4m/s | -11.8°C | 19.3% | 0hPa | 3V | 08:30:00 | 00:49:08 | 00:00:00 | |
| IW2NTF | 2026-08-31 10:25:38 | 44.54134 | 7.76622 | 82° | 69km/h | 6082m | 2.6m/s | -11.6°C | 19.2% | 0hPa | 3V | 08:30:00 | 00:48:58 | 00:00:00 | |
| IW2NTF | 2026-08-31 10:25:28 | 44.54111 | 7.76378 | 80° | 69km/h | 6049m | 3.8m/s | -11.4°C | 19.8% | 0hPa | 3V | 08:30:00 | 00:48:48 | 00:00:00 | |
| IW2NTF | 2026-08-31 10:25:18 | 44.54084 | 7.76133 | 80° | 69km/h | 6017m | 3.7m/s | -11.2°C | 20.2% | 0hPa | 3V | 08:30:00 | 00:48:38 | 00:00:00 | |
| IW2NTF | 2026-08-31 10:25:08 | 44.54060 | 7.75892 | 82° | 66km/h | 5986m | 3.6m/s | -11°C | 20.6% | 0hPa | 3V | 08:30:00 | 00:48:28 | 00:00:00 | |
| IW2NTF | 2026-08-31 10:24:58 | 44.54041 | 7.75650 | 85° | 66km/h | 5953m | 2.8m/s | -10.8°C | 21.7% | 0hPa | 3V | 08:30:00 | 00:48:18 | 00:00:00 | |
| IW2NTF | 2026-08-31 10:24:48 | 44.54028 | 7.75417 | 86° | 66km/h | 5921m | 3m/s | -10.6°C | 23.4% | 0hPa | 3V | 08:30:00 | 00:48:08 | 00:00:00 | |
| IW2NTF | 2026-08-31 10:24:38 | 44.54024 | 7.75190 | 87° | 64km/h | 5889m | 1.8m/s | -10.4°C | 26.5% | 0hPa | 3V | 08:30:00 | 00:47:58 | 00:00:00 | |
| IW2NTF | 2026-08-31 10:24:28 | 44.54023 | 7.74956 | 88° | 68km/h | 5855m | 3.9m/s | -10.2°C | 25.3% | 0hPa | 3V | 08:30:00 | 00:47:48 | 00:00:00 | |
| IW2NTF | 2026-08-31 10:24:18 | 44.54024 | 7.74718 | 92° | 68km/h | 5824m | 2.7m/s | -9.9°C | 25.3% | 0hPa | 3V | 08:30:00 | 00:47:38 | 00:00:00 | |
| IW2NTF | 2026-08-31 10:24:08 | 44.54025 | 7.74486 | 92° | 68km/h | 5793m | 3.4m/s | -9.6°C | 24.4% | 0hPa | 3V | 08:30:00 | 00:47:28 | 00:00:00 | |
| IW2NTF | 2026-08-31 10:23:58 | 44.54027 | 7.74254 | 88° | 64km/h | 5761m | 4.1m/s | -9.3°C | 23.4% | 0hPa | 3V | 08:30:00 | 00:47:18 | 00:00:00 | |
| IW2NTF | 2026-08-31 10:23:48 | 44.54026 | 7.74022 | 88° | 68km/h | 5727m | 4.1m/s | -9°C | 21% | 0hPa | 3V | 08:30:00 | 00:47:08 | 00:00:00 | |
| IW2NTF | 2026-08-31 10:23:38 | 44.54027 | 7.73791 | 91° | 64km/h | 5696m | 3.8m/s | -8.7°C | 18% | 0hPa | 3V | 08:30:00 | 00:46:58 | 00:00:00 | |
| IW2NTF | 2026-08-31 10:23:28 | 44.54021 | 7.73563 | 87° | 64km/h | 5663m | 4m/s | -8.5°C | 16.4% | 0hPa | 3V | 08:30:00 | 00:46:48 | 00:00:00 | |
| IW2NTF | 2026-08-31 10:23:18 | 44.54015 | 7.73329 | 87° | 69km/h | 5631m | 2.9m/s | -8.2°C | 12.4% | 0hPa | 3V | 08:30:00 | 00:46:38 | 00:00:00 | |
| IW2NTF | 2026-08-31 10:23:08 | 44.54011 | 7.73097 | 89° | 68km/h | 5599m | 3.5m/s | -8°C | 11.8% | 0hPa | 3V | 08:30:00 | 00:46:28 | 00:00:00 | |
| IW2NTF | 2026-08-31 10:22:58 | 44.54006 | 7.72863 | 89° | 68km/h | 5567m | 3.5m/s | -7.8°C | 13.9% | 0hPa | 3V | 08:30:00 | 00:46:18 | 00:00:00 | |
| IW2NTF | 2026-08-31 10:22:48 | 44.54004 | 7.72635 | 90° | 64km/h | 5535m | 3.5m/s | -7.6°C | 15.3% | 0hPa | 3V | 08:30:00 | 00:46:08 | 00:00:00 | |
| IW2NTF | 2026-08-31 10:22:38 | 44.54005 | 7.72415 | 93° | 60km/h | 5502m | 3.3m/s | -7.4°C | 15.8% | 0hPa | 3V | 08:30:00 | 00:45:58 | 00:00:00 | |
| IW2NTF | 2026-08-31 10:22:28 | 44.54013 | 7.72197 | 91° | 58km/h | 5471m | 2.4m/s | -7.2°C | 14.5% | 0hPa | 3V | 08:30:00 | 00:45:48 | 00:00:00 | |
| IW2NTF | 2026-08-31 10:22:18 | 44.54029 | 7.71988 | 91° | 60km/h | 5441m | 2.3m/s | -7.1°C | 13.9% | 0hPa | 3V | 08:30:00 | 00:45:38 | 00:00:00 | |
| IW2NTF | 2026-08-31 10:22:08 | 44.54038 | 7.71783 | 96° | 58km/h | 5408m | 4.2m/s | -7.1°C | 13.2% | 0hPa | 3V | 08:30:00 | 00:45:28 | 00:00:00 | |
| IW2NTF | 2026-08-31 10:21:58 | 44.54052 | 7.71579 | 96° | 55km/h | 5376m | 2.8m/s | -6.9°C | 12.8% | 0hPa | 3V | 08:30:00 | 00:45:18 | 00:00:00 | |
| IW2NTF | 2026-08-31 10:21:48 | 44.54062 | 7.71392 | 92° | 53km/h | 5345m | 2.6m/s | -6.7°C | 12.3% | 0hPa | 3V | 08:30:00 | 00:45:08 | 00:00:00 | |
| IW2NTF | 2026-08-31 10:21:38 | 44.54076 | 7.71205 | 92° | 53km/h | 5312m | 2.4m/s | -6.5°C | 10.2% | 0hPa | 3V | 08:30:00 | 00:44:58 | 00:00:00 | |
| IW2NTF | 2026-08-31 10:21:28 | 44.54089 | 7.71025 | 95° | 47km/h | 5271m | 5.6m/s | -6.2°C | 8.8% | 0hPa | 3V | 08:30:00 | 00:44:48 | 00:00:00 | |
| IW2NTF | 2026-08-31 10:21:18 | 44.54102 | 7.70858 | 96° | 49km/h | 5232m | 3.9m/s | -5.9°C | 7.4% | 0hPa | 3V | 08:30:00 | 00:44:38 | 00:00:00 | |
| IW2NTF | 2026-08-31 10:21:09 | 44.54117 | 7.70696 | 94° | 44km/h | 5194m | 4.1m/s | -5.6°C | 5.4% | 0hPa | 3V | 08:30:00 | 00:44:28 | 00:00:00 | |
| IW2NTF | 2026-08-31 10:20:58 | 44.54124 | 7.70534 | 91° | 46km/h | 5158m | 4.6m/s | -5.4°C | 3.6% | 0hPa | 3V | 08:30:00 | 00:44:18 | 00:00:00 | |
| IW2NTF | 2026-08-31 10:20:49 | 44.54123 | 7.70381 | 85° | 51km/h | 5121m | 3m/s | -5.2°C | 3.7% | 0hPa | 3V | 08:30:00 | 00:44:08 | 00:00:00 | |
| IW2NTF | 2026-08-31 10:20:38 | 44.54132 | 7.70218 | 93° | 44km/h | 5076m | 6m/s | -4.9°C | 6.3% | 0hPa | 3V | 08:30:00 | 00:43:58 | 00:00:00 | |
| IW2NTF | 2026-08-31 10:20:28 | 44.54136 | 7.70082 | 91° | 38km/h | 5028m | 6.2m/s | -4.5°C | 7.2% | 0hPa | 3V | 08:30:00 | 00:43:48 | 00:00:00 | |
| IW2NTF | 2026-08-31 10:20:18 | 44.54156 | 7.69932 | 86° | 38km/h | 4983m | 4.2m/s | -4.2°C | 3.7% | 0hPa | 3V | 08:30:00 | 00:43:38 | 00:00:00 | |
| IW2NTF | 2026-08-31 10:20:12 | 44.54155 | 7.69850 | 93° | 35km/h | 4954m | 4.6m/s | -3.9°C | 3.3% | 0hPa | 3V | 08:30:00 | 00:43:32 | 00:00:00 | |
| IW2NTF | 2026-08-31 10:20:06 | 44.54154 | 7.69771 | 95° | 44km/h | 4930m | 3.3m/s | -3.7°C | 3.7% | 0hPa | 3V | 08:30:00 | 00:43:26 | 00:00:00 | |
| IW2NTF | 2026-08-31 10:20:00 | 44.54163 | 7.69671 | 95° | 44km/h | 4901m | 6.1m/s | -3.5°C | 3.1% | 0hPa | 3V | 08:30:00 | 00:43:20 | 00:00:00 | |
| IW2NTF | 2026-08-31 10:19:55 | 44.54165 | 7.69587 | 96° | 44km/h | 4872m | 3.7m/s | -3.2°C | 3.1% | 0hPa | 3V | 08:30:00 | 00:43:14 | 00:00:00 | |
| IW2NTF | 2026-08-31 10:19:48 | 44.54168 | 7.69501 | 80° | 37km/h | 4844m | 4m/s | -3°C | 3% | 0hPa | 3V | 08:30:00 | 00:43:08 | 00:00:00 | |
| IW2NTF | 2026-08-31 10:19:42 | 44.54158 | 7.69418 | 83° | 42km/h | 4819m | 5.8m/s | -2.8°C | 3% | 0hPa | 3V | 08:30:00 | 00:43:02 | 00:00:00 | |
| IW2NTF | 2026-08-31 10:19:36 | 44.54158 | 7.69328 | 93° | 44km/h | 4791m | 6m/s | -2.6°C | 3% | 0hPa | 3V | 08:30:00 | 00:42:56 | 00:00:00 | |
| IW2NTF | 2026-08-31 10:19:30 | 44.54150 | 7.69236 | 86° | 49km/h | 4763m | 3.7m/s | -2.4°C | 3.1% | 0hPa | 3V | 08:30:00 | 00:42:50 | 00:00:00 | |
| IW2NTF | 2026-08-31 10:19:24 | 44.54156 | 7.69144 | 95° | 40km/h | 4736m | 5m/s | -2.2°C | 4% | 0hPa | 3V | 08:30:00 | 00:42:44 | 00:00:00 | |
| IW2NTF | 2026-08-31 10:19:18 | 44.54153 | 7.69059 | 90° | 37km/h | 4709m | 5.9m/s | -2°C | 3.9% | 0hPa | 3V | 08:30:00 | 00:42:38 | 00:00:00 | |
| IW2NTF | 2026-08-31 10:19:12 | 44.54158 | 7.68972 | 95° | 46km/h | 4683m | 3.8m/s | -1.7°C | 4.3% | 0hPa | 3V | 08:30:00 | 00:42:32 | 00:00:00 | |
| IW2NTF | 2026-08-31 10:19:06 | 44.54152 | 7.68879 | 84° | 42km/h | 4660m | 4.6m/s | -1.6°C | 4.3% | 0hPa | 3V | 08:30:00 | 00:42:26 | 00:00:00 | |
| IW2NTF | 2026-08-31 10:19:00 | 44.54150 | 7.68806 | 85° | 38km/h | 4630m | 2.8m/s | -1.3°C | 4.8% | 0hPa | 3V | 08:30:00 | 00:42:20 | 00:00:00 | |
| IW2NTF | 2026-08-31 10:18:54 | 44.54152 | 7.68715 | 98° | 42km/h | 4604m | 5.3m/s | -1.2°C | 4.9% | 0hPa | 3V | 08:30:00 | 00:42:14 | 00:00:00 | |
| IW2NTF | 2026-08-31 10:18:48 | 44.54163 | 7.68633 | 101° | 37km/h | 4578m | 3.8m/s | -1°C | 5.4% | 0hPa | 3V | 08:30:00 | 00:42:08 | 00:00:00 | |
| IW2NTF | 2026-08-31 10:18:42 | 44.54174 | 7.68551 | 102° | 49km/h | 4556m | 4.3m/s | -0.9°C | 5.8% | 0hPa | 3V | 08:30:00 | 00:42:02 | 00:00:00 | |
| IW2NTF | 2026-08-31 10:18:36 | 44.54186 | 7.68456 | 102° | 33km/h | 4523m | 6.8m/s | -0.7°C | 5.9% | 0hPa | 3V | 08:30:00 | 00:41:56 | 00:00:00 | |
| IW2NTF | 2026-08-31 10:18:30 | 44.54198 | 7.68390 | 100° | 40km/h | 4495m | 6.1m/s | -0.5°C | 6.2% | 0hPa | 3V | 08:30:00 | 00:41:50 | 00:00:00 | |
| IW2NTF | 2026-08-31 10:18:24 | 44.54211 | 7.68299 | 94° | 40km/h | 4462m | 4.9m/s | -0.7°C | 9% | 0hPa | 3V | 08:30:00 | 00:41:44 | 00:00:00 | |
| IW2NTF | 2026-08-31 10:18:18 | 44.54203 | 7.68226 | 78° | 33km/h | 4435m | 4.1m/s | -0.5°C | 11.2% | 0hPa | 3V | 08:30:00 | 00:41:38 | 00:00:00 | |
| IW2NTF | 2026-08-31 10:18:12 | 44.54205 | 7.68147 | 105° | 44km/h | 4408m | 6m/s | -0.2°C | 11.8% | 0hPa | 3V | 08:30:00 | 00:41:32 | 00:00:00 | |
| IW2NTF | 2026-08-31 10:18:06 | 44.54222 | 7.68071 | 97° | 31km/h | 4379m | 5.6m/s | -0°C | 12.2% | 0hPa | 3V | 08:30:00 | 00:41:26 | 00:00:00 | |
| IW2NTF | 2026-08-31 10:18:00 | 44.54224 | 7.67995 | 96° | 38km/h | 4354m | 3.1m/s | 0.2°C | 12.8% | 0hPa | 3V | 08:30:00 | 00:41:20 | 00:00:00 | |
| IW2NTF | 2026-08-31 10:17:54 | 44.54230 | 7.67922 | 101° | 33km/h | 4328m | 3m/s | 0.2°C | 16.2% | 0hPa | 3V | 08:30:00 | 00:41:14 | 00:00:00 | |
| IW2NTF | 2026-08-31 10:17:49 | 44.54243 | 7.67854 | 101° | 38km/h | 4308m | 4.4m/s | 0.3°C | 17.8% | 0hPa | 3V | 08:30:00 | 00:41:08 | 00:00:00 | |
| IW2NTF | 2026-08-31 10:17:42 | 44.54247 | 7.67763 | 92° | 42km/h | 4282m | 5.9m/s | 0.4°C | 21.3% | 0hPa | 3V | 08:30:00 | 00:41:02 | 00:00:00 | |
| IW2NTF | 2026-08-31 10:17:37 | 44.54253 | 7.67700 | 91° | 24km/h | 4253m | 5.1m/s | 0.6°C | 22.2% | 0hPa | 3V | 08:30:00 | 00:40:56 | 00:00:00 | |
| IW2NTF | 2026-08-31 10:17:30 | 44.54249 | 7.67636 | 81° | 31km/h | 4228m | 3.1m/s | 0.6°C | 26.5% | 0hPa | 3V | 08:30:00 | 00:40:50 | 00:00:00 | |
| IW2NTF | 2026-08-31 10:17:24 | 44.54248 | 7.67572 | 93° | 29km/h | 4207m | 3.2m/s | 0.6°C | 29.9% | 0hPa | 3V | 08:30:00 | 00:40:44 | 00:00:00 | |
| IW2NTF | 2026-08-31 10:17:18 | 44.54252 | 7.67509 | 96° | 26km/h | 4187m | 3.4m/s | 0.2°C | 41.2% | 0hPa | 3V | 08:30:00 | 00:40:38 | 00:00:00 | |
| IW2NTF | 2026-08-31 10:17:12 | 44.54255 | 7.67450 | 98° | 33km/h | 4170m | 3.5m/s | 0.3°C | 40.9% | 0hPa | 3V | 08:30:00 | 00:40:32 | 00:00:00 | |
| IW2NTF | 2026-08-31 10:17:06 | 44.54246 | 7.67379 | 54° | 37km/h | 4143m | 4.8m/s | 0.4°C | 41.1% | 0hPa | 3V | 08:30:00 | 00:40:26 | 00:00:00 | |
| IW2NTF | 2026-08-31 10:17:00 | 44.54225 | 7.67326 | 85° | 27km/h | 4121m | 5m/s | 0.5°C | 41.9% | 0hPa | 3V | 08:30:00 | 00:40:20 | 00:00:00 | |
| IW2NTF | 2026-08-31 10:16:55 | 44.54213 | 7.67243 | 61° | 44km/h | 4091m | 6.4m/s | 0.6°C | 43.3% | 0hPa | 3V | 08:30:00 | 00:40:14 | 00:00:00 | |
| IW2NTF | 2026-08-31 10:16:48 | 44.54182 | 7.67168 | 59° | 40km/h | 4053m | 6.8m/s | 0.3°C | 53.2% | 0hPa | 3V | 08:30:00 | 00:40:08 | 00:00:00 | |
| IW2NTF | 2026-08-31 10:16:42 | 44.54153 | 7.67093 | 59° | 44km/h | 4027m | 3.3m/s | 0.5°C | 55.2% | 0hPa | 3V | 08:30:00 | 00:40:02 | 00:00:00 | |
| IW2NTF | 2026-08-31 10:16:36 | 44.54131 | 7.67012 | 79° | 42km/h | 4007m | 3m/s | 0.6°C | 55.3% | 0hPa | 3V | 08:30:00 | 00:39:56 | 00:00:00 | |
| IW2NTF | 2026-08-31 10:16:30 | 44.54112 | 7.66926 | 74° | 40km/h | 3985m | 5m/s | 0.6°C | 58.1% | 0hPa | 3V | 08:30:00 | 00:39:50 | 00:00:00 | |
| IW2NTF | 2026-08-31 10:16:24 | 44.54092 | 7.66840 | 67° | 51km/h | 3966m | 3.2m/s | 0.6°C | 63.4% | 0hPa | 3V | 08:30:00 | 00:39:44 | 00:00:00 | |
| IW2NTF | 2026-08-31 10:16:16 | 44.54041 | 7.66717 | 57° | 49km/h | 3939m | 7m/s | 0.8°C | 63.3% | 0hPa | 3V | 08:30:00 | 00:39:36 | 00:00:00 | |
| IW2NTF | 2026-08-31 10:16:10 | 44.54015 | 7.66622 | 73° | 35km/h | 3907m | 5.3m/s | 1.2°C | 64.2% | 0hPa | 3V | 08:30:00 | 00:39:30 | 00:00:00 | |
| IW2NTF | 2026-08-31 10:16:04 | 44.53987 | 7.66561 | 51° | 42km/h | 3868m | 5.1m/s | 1.5°C | 63.8% | 0hPa | 3V | 08:30:00 | 00:39:24 | 00:00:00 | |
| IW2NTF | 2026-08-31 10:15:58 | 44.53955 | 7.66500 | 64° | 26km/h | 3842m | 4.4m/s | 1.6°C | 65.9% | 0hPa | 3V | 08:30:00 | 00:39:18 | 00:00:00 | |
| IW2NTF | 2026-08-31 10:15:52 | 44.53940 | 7.66429 | 67° | 47km/h | 3811m | 6.1m/s | 1.8°C | 66.7% | 0hPa | 3V | 08:30:00 | 00:39:12 | 00:00:00 | |
| IW2NTF | 2026-08-31 10:15:46 | 44.53920 | 7.66340 | 81° | 37km/h | 3785m | 6.3m/s | 1.8°C | 69.5% | 0hPa | 3V | 08:30:00 | 00:39:06 | 00:00:00 | |
| IW2NTF | 2026-08-31 10:15:40 | 44.53909 | 7.66260 | 85° | 37km/h | 3753m | 4.8m/s | 2.1°C | 68.3% | 0hPa | 3V | 08:30:00 | 00:39:00 | 00:00:00 | |
| IW2NTF | 2026-08-31 10:15:34 | 44.53901 | 7.66183 | 75° | 38km/h | 3726m | 3.3m/s | 2.3°C | 67.9% | 0hPa | 3V | 08:30:00 | 00:38:54 | 00:00:00 | |
| IW2NTF | 2026-08-31 10:15:28 | 44.53888 | 7.66109 | 81° | 33km/h | 3709m | 2.7m/s | 2.5°C | 67.4% | 0hPa | 3V | 08:30:00 | 00:38:48 | 00:00:00 | |
| IW2NTF | 2026-08-31 10:15:22 | 44.53890 | 7.66030 | 84° | 42km/h | 3685m | 3.3m/s | 2.6°C | 67.2% | 0hPa | 3V | 08:30:00 | 00:38:42 | 00:00:00 | |
| IW2NTF | 2026-08-31 10:15:16 | 44.53882 | 7.65935 | 89° | 46km/h | 3663m | 4.5m/s | 2.8°C | 67.2% | 0hPa | 3V | 08:30:00 | 00:38:36 | 00:00:00 | |
| IW2NTF | 2026-08-31 10:15:10 | 44.53874 | 7.65842 | 75° | 46km/h | 3636m | 6m/s | 3°C | 66.6% | 0hPa | 3V | 08:30:00 | 00:38:30 | 00:00:00 | |
| IW2NTF | 2026-08-31 10:15:05 | 44.53873 | 7.65750 | 96° | 35km/h | 3609m | 5.1m/s | 3.2°C | 65.6% | 0hPa | 3V | 08:30:00 | 00:38:24 | 00:00:00 | |
| IW2NTF | 2026-08-31 10:14:56 | 44.53872 | 7.65648 | 101° | 42km/h | 3575m | 3.5m/s | 3.5°C | 65.4% | 0hPa | 3V | 08:30:00 | 00:38:16 | 00:00:00 | |
| IW2NTF | 2026-08-31 10:14:50 | 44.53875 | 7.65561 | 82° | 38km/h | 3550m | 5.1m/s | 3.7°C | 64.5% | 0hPa | 3V | 08:30:00 | 00:38:10 | 00:00:00 | |
| IW2NTF | 2026-08-31 10:14:44 | 44.53870 | 7.65488 | 79° | 37km/h | 3527m | 2.4m/s | 3.9°C | 64.5% | 0hPa | 3V | 08:30:00 | 00:38:04 | 00:00:00 | |
| IW2NTF | 2026-08-31 10:14:38 | 44.53864 | 7.65409 | 87° | 38km/h | 3503m | 4.6m/s | 4°C | 65% | 0hPa | 3V | 08:30:00 | 00:37:58 | 00:00:00 | |
| IW2NTF | 2026-08-31 10:14:32 | 44.53860 | 7.65318 | 89° | 37km/h | 3482m | 3.9m/s | 4.2°C | 64.5% | 0hPa | 3V | 08:30:00 | 00:37:52 | 00:00:00 | |
| IW2NTF | 2026-08-31 10:14:26 | 44.53859 | 7.65244 | 87° | 44km/h | 3449m | 4.9m/s | 4.2°C | 65.6% | 0hPa | 3V | 08:30:00 | 00:37:46 | 00:00:00 | |
| IW2NTF | 2026-08-31 10:14:20 | 44.53846 | 7.65166 | 71° | 31km/h | 3414m | 4.8m/s | 4.5°C | 64.9% | 0hPa | 3V | 08:30:00 | 00:37:40 | 00:00:00 | |
| IW2NTF | 2026-08-31 10:14:14 | 44.53832 | 7.65090 | 73° | 40km/h | 3385m | 6.9m/s | 4.8°C | 63.9% | 0hPa | 3V | 08:30:00 | 00:37:34 | 00:00:00 | |
| IW2NTF | 2026-08-31 10:14:08 | 44.53820 | 7.65013 | 87° | 38km/h | 3348m | 6.2m/s | 5.1°C | 63.9% | 0hPa | 3V | 08:30:00 | 00:37:28 | 00:00:00 | |
| IW2NTF | 2026-08-31 10:14:02 | 44.53827 | 7.64930 | 97° | 33km/h | 3317m | 4.8m/s | 4.9°C | 71.4% | 0hPa | 3V | 08:30:00 | 00:37:22 | 00:00:00 | |
| IW2NTF | 2026-08-31 10:13:56 | 44.53827 | 7.64850 | 85° | 47km/h | 3296m | 2.8m/s | 5°C | 73.9% | 0hPa | 3V | 08:30:00 | 00:37:16 | 00:00:00 | |
| IW2NTF | 2026-08-31 10:13:50 | 44.53839 | 7.64755 | 116° | 42km/h | 3273m | 6.1m/s | 5.2°C | 72.8% | 0hPa | 3V | 08:30:00 | 00:37:10 | 00:00:00 | |
| IW2NTF | 2026-08-31 10:13:44 | 44.53855 | 7.64672 | 84° | 42km/h | 3246m | 5.2m/s | 5.4°C | 72.2% | 0hPa | 3V | 08:30:00 | 00:37:04 | 00:00:00 | |
| IW2NTF | 2026-08-31 10:13:38 | 44.53846 | 7.64598 | 92° | 22km/h | 3214m | 4.7m/s | 5.6°C | 72% | 0hPa | 3V | 08:30:00 | 00:36:58 | 00:00:00 | |
| IW2NTF | 2026-08-31 10:13:32 | 44.53859 | 7.64537 | 100° | 44km/h | 3183m | 5.8m/s | 5.7°C | 74.4% | 0hPa | 3V | 08:30:00 | 00:36:52 | 00:00:00 | |
| IW2NTF | 2026-08-31 10:13:26 | 44.53866 | 7.64445 | 100° | 46km/h | 3157m | 4.6m/s | 5.9°C | 0% | 0hPa | 3V | 08:30:00 | 00:36:46 | 00:00:00 | |
| IW2NTF | 2026-08-31 10:13:20 | 44.53891 | 7.64377 | 133° | 29km/h | 3132m | 5.4m/s | 6.2°C | 0% | 0hPa | 3V | 08:30:00 | 00:36:40 | 00:00:00 | |
| IW2NTF | 2026-08-31 10:13:14 | 44.53905 | 7.64312 | 91° | 40km/h | 3100m | 5.9m/s | 6.4°C | 0% | 0hPa | 3V | 08:30:00 | 00:36:34 | 00:00:00 | |
| IW2NTF | 2026-08-31 10:13:08 | 44.53920 | 7.64249 | 135° | 26km/h | 3068m | 6.1m/s | 6.7°C | 0% | 0hPa | 3V | 08:30:00 | 00:36:28 | 00:00:00 | |
| IW2NTF | 2026-08-31 10:13:02 | 44.53948 | 7.64185 | 105° | 40km/h | 3039m | 4.2m/s | 7°C | 0% | 0hPa | 3V | 08:30:00 | 00:36:22 | 00:00:00 | |
| IW2NTF | 2026-08-31 10:12:56 | 44.53956 | 7.64097 | 100° | 40km/h | 3004m | 4.7m/s | 7.4°C | 0% | 0hPa | 3V | 08:30:00 | 00:36:16 | 00:00:00 | |
| IW2NTF | 2026-08-31 10:12:50 | 44.53978 | 7.64039 | 131° | 27km/h | 2972m | 5.9m/s | 7.6°C | 0% | 0hPa | 3V | 08:30:00 | 00:36:10 | 00:00:00 | |
| IW2NTF | 2026-08-31 10:12:45 | 44.54003 | 7.63973 | 100° | 37km/h | 2944m | 4.9m/s | 7.9°C | 0% | 0hPa | 3V | 08:30:00 | 00:36:04 | 00:00:00 | |
| IW2NTF | 2026-08-31 10:12:38 | 44.54003 | 7.63903 | 90° | 33km/h | 2914m | 4.7m/s | 8.2°C | 0% | 0hPa | 3V | 08:30:00 | 00:35:58 | 00:00:00 | |
| IW2NTF | 2026-08-31 10:12:33 | 44.54016 | 7.63846 | 131° | 26km/h | 2883m | 4.8m/s | 8.5°C | 0% | 0hPa | 3V | 08:30:00 | 00:35:52 | 00:00:00 | |
| IW2NTF | 2026-08-31 10:12:26 | 44.54042 | 7.63782 | 107° | 38km/h | 2858m | 5.5m/s | 8.7°C | 0% | 0hPa | 3V | 08:30:00 | 00:35:46 | 00:00:00 | |
| IW2NTF | 2026-08-31 10:12:15 | 44.54062 | 7.63725 | 136° | 27km/h | 2823m | 5.3m/s | 8.9°C | 0% | 0hPa | 3V | 08:30:00 | 00:35:40 | 00:00:00 | |
| IW2NTF | 2026-08-31 10:12:15 | 44.54078 | 7.63688 | 100° | 24km/h | 2798m | 6.6m/s | 9.1°C | 0% | 0hPa | 3V | 08:30:00 | 00:35:35 | 00:00:00 | |
| IW2NTF | 2026-08-31 10:12:09 | 44.54084 | 7.63604 | 103° | 47km/h | 2766m | 4.9m/s | 9.4°C | 0% | 0hPa | 3V | 08:30:00 | 00:35:29 | 00:00:00 | |
| IW2NTF | 2026-08-31 10:12:03 | 44.54101 | 7.63521 | 106° | 35km/h | 2736m | 6.1m/s | 9.6°C | 0% | 0hPa | 3V | 08:30:00 | 00:35:23 | 00:00:00 | |
| IW2NTF | 2026-08-31 10:11:57 | 44.54113 | 7.63457 | 104° | 22km/h | 2709m | 3.5m/s | 9.9°C | 0% | 0hPa | 3V | 08:30:00 | 00:35:17 | 00:00:00 | |
| IW2NTF | 2026-08-31 10:11:51 | 44.54116 | 7.63406 | 92° | 35km/h | 2687m | 5.6m/s | 10°C | 0% | 0hPa | 3V | 08:30:00 | 00:35:11 | 00:00:00 | |
| IW2NTF | 2026-08-31 10:11:45 | 44.54124 | 7.63329 | 115° | 31km/h | 2659m | 4m/s | 10.2°C | 0% | 0hPa | 3V | 08:30:00 | 00:35:05 | 00:00:00 | |
| IW2NTF | 2026-08-31 10:11:39 | 44.54145 | 7.63269 | 97° | 31km/h | 2629m | 6.4m/s | 10.5°C | 0% | 0hPa | 3V | 08:30:00 | 00:34:59 | 00:00:00 | |
| IW2NTF | 2026-08-31 10:11:33 | 44.54141 | 7.63193 | 88° | 42km/h | 2599m | 4.1m/s | 10.7°C | 0% | 0hPa | 3V | 08:30:00 | 00:34:53 | 00:00:00 | |
| IW2NTF | 2026-08-31 10:11:27 | 44.54140 | 7.63108 | 85° | 33km/h | 2573m | 4.4m/s | 10.9°C | 0% | 0hPa | 3V | 00:00:00 | 00:34:47 | 00:00:00 | |
| IW2NTF | 2026-08-31 10:11:21 | 44.54144 | 7.63033 | 97° | 42km/h | 2548m | 6.6m/s | 11.2°C | 0% | 0hPa | 3V | 00:00:00 | 00:34:41 | 00:00:00 | |
| IW2NTF | 2026-08-31 10:11:15 | 44.54146 | 7.62946 | 87° | 38km/h | 2523m | 4.2m/s | 11.5°C | 0% | 0hPa | 3V | 00:00:00 | 00:34:35 | 00:00:00 | |
| IW2NTF | 2026-08-31 10:11:09 | 44.54134 | 7.62880 | 66° | 26km/h | 2487m | 4.3m/s | 11.8°C | 0% | 0hPa | 3V | 00:00:00 | 00:34:29 | 00:00:00 | |
| IW2NTF | 2026-08-31 10:11:03 | 44.54124 | 7.62824 | 80° | 33km/h | 2460m | 7.1m/s | 12°C | 0% | 0hPa | 3V | 00:00:00 | 00:34:23 | 00:00:00 | |
| IW2NTF | 2026-08-31 10:10:57 | 44.54126 | 7.62747 | 102° | 38km/h | 2423m | 5.5m/s | 12.4°C | 0% | 0hPa | 3V | 00:00:00 | 00:34:17 | 00:00:00 | |
| IW2NTF | 2026-08-31 10:10:51 | 44.54140 | 7.62677 | 91° | 29km/h | 2392m | 4.8m/s | 12.7°C | 0% | 0hPa | 3V | 00:00:00 | 00:34:11 | 00:00:00 | |
| IW2NTF | 2026-08-31 10:10:45 | 44.54133 | 7.62610 | 80° | 33km/h | 2363m | 4.3m/s | 13°C | 0% | 0hPa | 3V | 00:00:00 | 00:34:05 | 00:00:00 | |
| IW2NTF | 2026-08-31 10:10:39 | 44.54122 | 7.62565 | 94° | 13km/h | 2340m | 3.4m/s | 13.1°C | 0% | 0hPa | 3V | 00:00:00 | 00:33:59 | 00:00:00 | |
| IW2NTF | 2026-08-31 10:10:33 | 44.54139 | 7.62521 | 115° | 31km/h | 2313m | 4.7m/s | 13.4°C | 0% | 0hPa | 3V | 00:00:00 | 00:33:53 | 00:00:00 | |
| IW2NTF | 2026-08-31 10:10:27 | 44.54144 | 7.62471 | 94° | 24km/h | 2283m | 6.2m/s | 13.6°C | 0% | 0hPa | 3V | 00:00:00 | 00:33:47 | 00:00:00 | |
| IW2NTF | 2026-08-31 10:10:04 | 44.54166 | 7.62230 | 88° | 27km/h | 2179m | 5.2m/s | 14.6°C | 0% | 0hPa | 3V | 00:00:00 | 00:33:24 | 00:00:00 | |
| IW2NTF | 2026-08-31 10:09:58 | 44.54176 | 7.62193 | 121° | 16km/h | 2155m | 2.9m/s | 14.8°C | 0% | 0hPa | 3V | 00:00:00 | 00:33:18 | 00:00:00 | |
| IW2NTF | 2026-08-31 10:09:52 | 44.54189 | 7.62152 | 114° | 24km/h | 2129m | 7.4m/s | 0°C | 0% | 0hPa | 3V | 00:00:00 | 00:33:12 | 00:00:00 | |
| IW2NTF | 2026-08-31 10:09:46 | 44.54187 | 7.62101 | 77° | 31km/h | 2099m | 5.3m/s | 0°C | 0% | 0hPa | 3V | 00:00:00 | 00:33:06 | 00:00:00 | |
| IW2NTF | 2026-08-31 10:09:40 | 44.54188 | 7.62052 | 106° | 9km/h | 2066m | 7.6m/s | 0°C | 0% | 0hPa | 3V | 00:00:00 | 00:33:00 | 00:00:00 | |
| IW2NTF | 2026-08-31 10:09:34 | 44.54182 | 7.62023 | 73° | 20km/h | 2029m | 7.2m/s | 0°C | 0% | 0hPa | 3V | 00:00:00 | 00:32:54 | 00:00:00 | |
| IW2NTF | 2026-08-31 10:09:26 | 44.54167 | 7.61990 | 69° | 20km/h | 1993m | 4m/s | 0°C | 0% | 0hPa | 3V | 00:00:00 | 00:32:48 | 00:00:00 | |
| IW2NTF | 2026-08-31 10:09:26 | 44.54164 | 7.61975 | 68° | 24km/h | 1983m | 5.4m/s | 0°C | 0% | 0hPa | 3V | 00:00:00 | 00:32:46 | 00:00:00 | |
| IW2NTF | 2026-08-31 10:09:20 | 44.54158 | 7.61959 | 63° | 22km/h | 1975m | 2.9m/s | 0°C | 0% | 0hPa | 3V | 00:00:00 | 00:32:44 | 00:00:00 | |
| IW2NTF | 2026-08-31 10:09:20 | 44.54155 | 7.61946 | 75° | 16km/h | 1967m | 4.4m/s | 0°C | 0% | 0hPa | 3V | 00:00:00 | 00:32:42 | 00:00:00 | |
| IW2NTF | 2026-08-31 10:09:20 | 44.54154 | 7.61937 | 88° | 13km/h | 1958m | 3.4m/s | 0°C | 0% | 0hPa | 3V | 00:00:00 | 00:32:40 | 00:00:00 | |
| IW2NTF | 2026-08-31 10:09:15 | 44.54152 | 7.61929 | 64° | 11km/h | 1951m | 3.5m/s | 0°C | 0% | 0hPa | 3V | 00:00:00 | 00:32:38 | 00:00:00 | |
| IW2NTF | 2026-08-31 10:09:15 | 44.54147 | 7.61920 | 43° | 20km/h | 1944m | 3.9m/s | 0°C | 0% | 0hPa | 3V | 00:00:00 | 00:32:36 | 00:00:00 | |
| IW2NTF | 2026-08-31 10:09:15 | 44.54138 | 7.61909 | 37° | 27km/h | 1937m | 5.1m/s | 0°C | 0% | 0hPa | 3V | 00:00:00 | 00:32:34 | 00:00:00 | |
| IW2NTF | 2026-08-31 10:09:08 | 44.54127 | 7.61898 | 30° | 24km/h | 1926m | 5.2m/s | 0°C | 0% | 0hPa | 3V | 00:00:00 | 00:32:32 | 00:00:00 | |
| IW2NTF | 2026-08-31 10:09:08 | 44.54118 | 7.61891 | 29° | 16km/h | 1918m | 5.1m/s | 0°C | 0% | 0hPa | 3V | 00:00:00 | 00:32:30 | 00:00:00 | |
| IW2NTF | 2026-08-31 10:09:08 | 44.54114 | 7.61884 | 74° | 11km/h | 1909m | 4m/s | 0°C | 0% | 0hPa | 3V | 00:00:00 | 00:32:28 | 00:00:00 | |
| IW2NTF | 2026-08-31 10:09:02 | 44.54114 | 7.61873 | 95° | 20km/h | 1899m | 6.2m/s | 0°C | 0% | 0hPa | 3V | 00:00:00 | 00:32:26 | 00:00:00 | |
| IW2NTF | 2026-08-31 10:09:02 | 44.54113 | 7.61855 | 81° | 31km/h | 1887m | 5.4m/s | 0°C | 0% | 0hPa | 3V | 00:00:00 | 00:32:24 | 00:00:00 | |
| IW2NTF | 2026-08-31 10:09:02 | 44.54108 | 7.61832 | 68° | 35km/h | 1877m | 5.5m/s | 0°C | 0% | 0hPa | 3V | 00:00:00 | 00:32:22 | 00:00:00 | |
| IW2NTF | 2026-08-31 10:08:56 | 44.54102 | 7.61810 | 74° | 33km/h | 1866m | 6.8m/s | 0°C | 0% | 0hPa | 3V | 00:00:00 | 00:32:20 | 00:00:00 | |
| IW2NTF | 2026-08-31 10:08:56 | 44.54099 | 7.61789 | 86° | 27km/h | 1853m | 5.6m/s | 0°C | 0% | 0hPa | 3V | 00:00:00 | 00:32:18 | 00:00:00 | |
| IW2NTF | 2026-08-31 10:08:56 | 44.54099 | 7.61772 | 88° | 22km/h | 1841m | 6.9m/s | 0°C | 0% | 0hPa | 3V | 00:00:00 | 00:32:16 | 00:00:00 | |
| IW2NTF | 2026-08-31 10:08:50 | 44.54097 | 7.61759 | 70° | 15km/h | 1829m | 4.3m/s | 0°C | 0% | 0hPa | 3V | 00:00:00 | 00:32:14 | 00:00:00 | |
| IW2NTF | 2026-08-31 10:08:50 | 44.54092 | 7.61750 | 44° | 18km/h | 1821m | 4.3m/s | 0°C | 0% | 0hPa | 3V | 00:00:00 | 00:32:12 | 00:00:00 | |
| IW2NTF | 2026-08-31 10:08:50 | 44.54086 | 7.61740 | 60° | 20km/h | 1811m | 5.8m/s | 0°C | 0% | 0hPa | 3V | 00:00:00 | 00:32:10 | 00:00:00 |